<?xml version='1.0' encoding='UTF-8'?><gpx version="1.1" creator="JPX - https://github.com/jenetics/jpx" xmlns="http://www.topografix.com/GPX/1/1"><trk><trkseg><trkpt lat="36.93622329676101" lon="15.174025411662214"><ele>27.599999999999998</ele><time>2026-04-24T15:43:33Z</time></trkpt><trkpt lat="36.936149479101395" lon="15.173962678618883"><ele>27.199999999999996</ele><time>2026-04-24T15:43:34Z</time></trkpt><trkpt lat="36.93607963760497" lon="15.173952725389388"><ele>26.8</ele><time>2026-04-24T15:43:35Z</time></trkpt><trkpt lat="36.93607632187421" lon="15.173867285592195"><ele>26.4</ele><time>2026-04-24T15:43:38Z</time></trkpt><trkpt lat="36.93607302686522" lon="15.173693671018295"><ele>26.0</ele><time>2026-04-24T15:43:40Z</time></trkpt><trkpt lat="36.936032886622925" lon="15.173590753084614"><ele>25.999999999999996</ele><time>2026-04-24T15:43:42Z</time></trkpt><trkpt lat="36.93603785694059" lon="15.17345432355544"><ele>26.0</ele><time>2026-04-24T15:43:44Z</time></trkpt><trkpt lat="36.93606569994165" lon="15.173374891576781"><ele>26.0</ele><time>2026-04-24T15:43:45Z</time></trkpt><trkpt lat="36.936098104557416" lon="15.173288410149773"><ele>26.0</ele><time>2026-04-24T15:43:46Z</time></trkpt><trkpt lat="36.936127428505834" lon="15.173185026909373"><ele>25.999999999999996</ele><time>2026-04-24T15:43:47Z</time></trkpt><trkpt lat="36.936164903040904" lon="15.173085576669793"><ele>26.0</ele><time>2026-04-24T15:43:48Z</time></trkpt><trkpt lat="36.93619590505568" lon="15.172987818407538"><ele>24.833333333333332</ele><time>2026-04-24T15:43:49Z</time></trkpt><trkpt lat="36.93623295442338" lon="15.17289322350007"><ele>23.666666666666664</ele><time>2026-04-24T15:43:50Z</time></trkpt><trkpt lat="36.93626300755699" lon="15.172799378496693"><ele>22.5</ele><time>2026-04-24T15:43:51Z</time></trkpt><trkpt lat="36.93628853557368" lon="15.172717288047043"><ele>21.333333333333332</ele><time>2026-04-24T15:43:52Z</time></trkpt><trkpt lat="36.93632538590535" lon="15.172614548558201"><ele>20.166666666666664</ele><time>2026-04-24T15:43:53Z</time></trkpt><trkpt lat="36.93635900731756" lon="15.17253343134461"><ele>19.0</ele><time>2026-04-24T15:43:54Z</time></trkpt><trkpt lat="36.936400587920296" lon="15.172417760790287"><ele>18.333333333333332</ele><time>2026-04-24T15:43:55Z</time></trkpt><trkpt lat="36.93643353837874" lon="15.172342720119525"><ele>17.666666666666664</ele><time>2026-04-24T15:43:56Z</time></trkpt><trkpt lat="36.936463724138974" lon="15.172270941129785"><ele>17.0</ele><time>2026-04-24T15:43:57Z</time></trkpt><trkpt lat="36.93649933669518" lon="15.172191521524475"><ele>16.333333333333332</ele><time>2026-04-24T15:43:58Z</time></trkpt><trkpt lat="36.936533874744136" lon="15.172082197181822"><ele>15.666666666666666</ele><time>2026-04-24T15:44:00Z</time></trkpt><trkpt lat="36.93657969181694" lon="15.171975802446413"><ele>15.0</ele><time>2026-04-24T15:44:01Z</time></trkpt><trkpt lat="36.93659605767191" lon="15.171875973679171"><ele>15.0</ele><time>2026-04-24T15:44:03Z</time></trkpt><trkpt lat="36.93649247210943" lon="15.171752820704032"><ele>15.0</ele><time>2026-04-24T15:44:05Z</time></trkpt><trkpt lat="36.93641312464416" lon="15.171684302264353"><ele>15.0</ele><time>2026-04-24T15:44:06Z</time></trkpt><trkpt lat="36.93634722263327" lon="15.171625802795853"><ele>15.0</ele><time>2026-04-24T15:44:07Z</time></trkpt><trkpt lat="36.93628494258357" lon="15.171570518548998"><ele>15.0</ele><time>2026-04-24T15:44:08Z</time></trkpt><trkpt lat="36.93622622924997" lon="15.171517469941088"><ele>15.2</ele><time>2026-04-24T15:44:09Z</time></trkpt><trkpt lat="36.93614598049675" lon="15.171454044495343"><ele>15.4</ele><time>2026-04-24T15:44:11Z</time></trkpt><trkpt lat="36.93615722055505" lon="15.171328164793715"><ele>15.600000000000001</ele><time>2026-04-24T15:44:13Z</time></trkpt><trkpt lat="36.93620616747613" lon="15.171256841968521"><ele>15.8</ele><time>2026-04-24T15:44:14Z</time></trkpt><trkpt lat="36.93625102535156" lon="15.171160251777703"><ele>16.0</ele><time>2026-04-24T15:44:14.999Z</time></trkpt><trkpt lat="36.936302060166184" lon="15.171038499207503"><ele>16.0</ele><time>2026-04-24T15:44:15.999Z</time></trkpt><trkpt lat="36.93637111909206" lon="15.170911391775677"><ele>16.0</ele><time>2026-04-24T15:44:16.999Z</time></trkpt><trkpt lat="36.93644395764545" lon="15.170763404371272"><ele>16.0</ele><time>2026-04-24T15:44:17.999Z</time></trkpt><trkpt lat="36.93653962750669" lon="15.170588313956337"><ele>16.0</ele><time>2026-04-24T15:44:18.999Z</time></trkpt><trkpt lat="36.93661790388301" lon="15.170402273602654"><ele>16.400000000000002</ele><time>2026-04-24T15:44:19.999Z</time></trkpt><trkpt lat="36.93656415947913" lon="15.170484928324127"><ele>16.8</ele><time>2026-04-24T15:44:20.999Z</time></trkpt><trkpt lat="36.93659559939355" lon="15.170413657512055"><ele>17.200000000000003</ele><time>2026-04-24T15:44:21.999Z</time></trkpt><trkpt lat="36.93670561479458" lon="15.170467860064214"><ele>17.6</ele><time>2026-04-24T15:44:29.999Z</time></trkpt><trkpt lat="36.93680562694945" lon="15.170539997743255"><ele>18.0</ele><time>2026-04-24T15:44:30.999Z</time></trkpt><trkpt lat="36.93694010942592" lon="15.170620459322585"><ele>17.333333333333332</ele><time>2026-04-24T15:44:31.999Z</time></trkpt><trkpt lat="36.93709531929392" lon="15.170743309090229"><ele>16.666666666666664</ele><time>2026-04-24T15:44:32.999Z</time></trkpt><trkpt lat="36.93725910547548" lon="15.170866777773583"><ele>16.0</ele><time>2026-04-24T15:44:33.999Z</time></trkpt><trkpt lat="36.937441660712025" lon="15.171005324397786"><ele>17.5</ele><time>2026-04-24T15:44:34.999Z</time></trkpt><trkpt lat="36.937634418254376" lon="15.171146660703952"><ele>19.0</ele><time>2026-04-24T15:44:35.999Z</time></trkpt><trkpt lat="36.93783707875069" lon="15.171286132972442"><ele>19.0</ele><time>2026-04-24T15:44:36.999Z</time></trkpt><trkpt lat="36.938051601907176" lon="15.171440135865817"><ele>19.0</ele><time>2026-04-24T15:44:37.999Z</time></trkpt><trkpt lat="36.938256906788936" lon="15.171587365092504"><ele>17.0</ele><time>2026-04-24T15:44:38.999Z</time></trkpt><trkpt lat="36.9384678989469" lon="15.171739739030938"><ele>15.0</ele><time>2026-04-24T15:44:39.999Z</time></trkpt><trkpt lat="36.938667096222105" lon="15.171897067618405"><ele>15.0</ele><time>2026-04-24T15:44:40.999Z</time></trkpt><trkpt lat="36.93888693481855" lon="15.172067847363932"><ele>15.0</ele><time>2026-04-24T15:44:41.999Z</time></trkpt><trkpt lat="36.93909299888194" lon="15.172230328973322"><ele>15.666666666666668</ele><time>2026-04-24T15:44:42.999Z</time></trkpt><trkpt lat="36.93927047930646" lon="15.172348187221212"><ele>16.333333333333336</ele><time>2026-04-24T15:44:43.999Z</time></trkpt><trkpt lat="36.93943886442298" lon="15.172488720987884"><ele>17.0</ele><time>2026-04-24T15:44:44.999Z</time></trkpt><trkpt lat="36.93958571798236" lon="15.172618020317424"><ele>17.0</ele><time>2026-04-24T15:44:45.999Z</time></trkpt><trkpt lat="36.93973283929347" lon="15.17272984906597"><ele>17.0</ele><time>2026-04-24T15:44:46.999Z</time></trkpt><trkpt lat="36.93986797194787" lon="15.172853149508262"><ele>17.0</ele><time>2026-04-24T15:44:47.999Z</time></trkpt><trkpt lat="36.93999450888096" lon="15.1729682834164"><ele>18.4</ele><time>2026-04-24T15:44:48.999Z</time></trkpt><trkpt lat="36.94011275749553" lon="15.173070227072152"><ele>19.799999999999997</ele><time>2026-04-24T15:44:49.999Z</time></trkpt><trkpt lat="36.94021729797238" lon="15.173157989144675"><ele>21.2</ele><time>2026-04-24T15:44:50.999Z</time></trkpt><trkpt lat="36.94029386196278" lon="15.173230608452231"><ele>22.599999999999998</ele><time>2026-04-24T15:44:51.999Z</time></trkpt><trkpt lat="36.940356104946126" lon="15.17328323001466"><ele>24.0</ele><time>2026-04-24T15:44:52.999Z</time></trkpt><trkpt lat="36.94039684461353" lon="15.17335193503942"><ele>24.0</ele><time>2026-04-24T15:44:55.999Z</time></trkpt><trkpt lat="36.940464906690096" lon="15.173175541121351"><ele>24.0</ele><time>2026-04-24T15:45:07Z</time></trkpt><trkpt lat="36.94053704548132" lon="15.172986210848656"><ele>24.0</ele><time>2026-04-24T15:45:09Z</time></trkpt><trkpt lat="36.94060083660447" lon="15.172845439546983"><ele>24.0</ele><time>2026-04-24T15:45:10Z</time></trkpt><trkpt lat="36.94065197312992" lon="15.172719099879059"><ele>24.0</ele><time>2026-04-24T15:45:11Z</time></trkpt><trkpt lat="36.94070702715453" lon="15.17258308137525"><ele>24.0</ele><time>2026-04-24T15:45:12Z</time></trkpt><trkpt lat="36.94076431202698" lon="15.172436256362628"><ele>24.0</ele><time>2026-04-24T15:45:13Z</time></trkpt><trkpt lat="36.94082330090121" lon="15.172281445247243"><ele>23.25</ele><time>2026-04-24T15:45:14Z</time></trkpt><trkpt lat="36.940865267863984" lon="15.172120794338916"><ele>22.5</ele><time>2026-04-24T15:45:15Z</time></trkpt><trkpt lat="36.940925317274505" lon="15.171956678296809"><ele>21.75</ele><time>2026-04-24T15:45:16Z</time></trkpt><trkpt lat="36.940986643402006" lon="15.171782651200441"><ele>21.0</ele><time>2026-04-24T15:45:17Z</time></trkpt><trkpt lat="36.941045792734826" lon="15.171618576909134"><ele>22.0</ele><time>2026-04-24T15:45:18Z</time></trkpt><trkpt lat="36.94110548350381" lon="15.171442754648677"><ele>23.0</ele><time>2026-04-24T15:45:19Z</time></trkpt><trkpt lat="36.94117078490047" lon="15.171253554810692"><ele>24.0</ele><time>2026-04-24T15:45:20Z</time></trkpt><trkpt lat="36.94121487582804" lon="15.171085150558554"><ele>24.0</ele><time>2026-04-24T15:45:21Z</time></trkpt><trkpt lat="36.94127871868529" lon="15.170938412546981"><ele>24.0</ele><time>2026-04-24T15:45:22Z</time></trkpt><trkpt lat="36.941330118120106" lon="15.17077508101628"><ele>24.0</ele><time>2026-04-24T15:45:23Z</time></trkpt><trkpt lat="36.94138821650028" lon="15.170603243470834"><ele>24.0</ele><time>2026-04-24T15:45:24Z</time></trkpt><trkpt lat="36.941419916299374" lon="15.170465840502834"><ele>24.25</ele><time>2026-04-24T15:45:25Z</time></trkpt><trkpt lat="36.94147547823081" lon="15.17031545103921"><ele>24.5</ele><time>2026-04-24T15:45:26Z</time></trkpt><trkpt lat="36.941516565233215" lon="15.170163244966977"><ele>24.75</ele><time>2026-04-24T15:45:27Z</time></trkpt><trkpt lat="36.94158198289514" lon="15.17000180921985"><ele>25.0</ele><time>2026-04-24T15:45:28Z</time></trkpt><trkpt lat="36.94164453449511" lon="15.169833023388657"><ele>26.5</ele><time>2026-04-24T15:45:29Z</time></trkpt><trkpt lat="36.941665134026714" lon="15.169696786457376"><ele>28.0</ele><time>2026-04-24T15:45:30Z</time></trkpt><trkpt lat="36.94171196750891" lon="15.169543411854441"><ele>29.5</ele><time>2026-04-24T15:45:31Z</time></trkpt><trkpt lat="36.941761110066956" lon="15.16939165380303"><ele>31.0</ele><time>2026-04-24T15:45:32Z</time></trkpt><trkpt lat="36.941818886477314" lon="15.169252474449962"><ele>31.5</ele><time>2026-04-24T15:45:33Z</time></trkpt><trkpt lat="36.94189391499496" lon="15.169078911578227"><ele>32.0</ele><time>2026-04-24T15:45:34Z</time></trkpt><trkpt lat="36.94194728774548" lon="15.168895733499129"><ele>32.5</ele><time>2026-04-24T15:45:35Z</time></trkpt><trkpt lat="36.941993742998285" lon="15.168749893282818"><ele>33.0</ele><time>2026-04-24T15:45:36Z</time></trkpt><trkpt lat="36.94203111137331" lon="15.168594464347839"><ele>33.75</ele><time>2026-04-24T15:45:37Z</time></trkpt><trkpt lat="36.942066998722986" lon="15.168453392115929"><ele>34.5</ele><time>2026-04-24T15:45:38Z</time></trkpt><trkpt lat="36.942129756323965" lon="15.168287121636824"><ele>35.25</ele><time>2026-04-24T15:45:39Z</time></trkpt><trkpt lat="36.94218412267142" lon="15.168127452604425"><ele>36.0</ele><time>2026-04-24T15:45:40Z</time></trkpt><trkpt lat="36.94223864240252" lon="15.16798041185834"><ele>36.25</ele><time>2026-04-24T15:45:41Z</time></trkpt><trkpt lat="36.94229171278012" lon="15.167833785505671"><ele>36.5</ele><time>2026-04-24T15:45:42Z</time></trkpt><trkpt lat="36.94234911702608" lon="15.167693500570438"><ele>36.75</ele><time>2026-04-24T15:45:43Z</time></trkpt><trkpt lat="36.94237889612123" lon="15.167561386434652"><ele>37.0</ele><time>2026-04-24T15:45:44Z</time></trkpt><trkpt lat="36.942426015642425" lon="15.167436903381947"><ele>37.2</ele><time>2026-04-24T15:45:45Z</time></trkpt><trkpt lat="36.942452015608595" lon="15.167348080714401"><ele>37.400000000000006</ele><time>2026-04-24T15:45:46Z</time></trkpt><trkpt lat="36.94247542419136" lon="15.167272005307664"><ele>37.599999999999994</ele><time>2026-04-24T15:45:48Z</time></trkpt><trkpt lat="36.94235206750408" lon="15.167203167720636"><ele>37.8</ele><time>2026-04-24T15:45:49Z</time></trkpt><trkpt lat="36.94225280353589" lon="15.16711487348455"><ele>38.0</ele><time>2026-04-24T15:45:50Z</time></trkpt><trkpt lat="36.94212133153167" lon="15.167016620365352"><ele>38.0</ele><time>2026-04-24T15:45:51Z</time></trkpt><trkpt lat="36.941991836995626" lon="15.166915077449097"><ele>38.0</ele><time>2026-04-24T15:45:52Z</time></trkpt><trkpt lat="36.9418629398864" lon="15.166816487836124"><ele>38.0</ele><time>2026-04-24T15:45:53Z</time></trkpt><trkpt lat="36.94173050678361" lon="15.16673161146127"><ele>37.666666666666664</ele><time>2026-04-24T15:45:54Z</time></trkpt><trkpt lat="36.94158221948604" lon="15.166576695728397"><ele>37.333333333333336</ele><time>2026-04-24T15:45:55Z</time></trkpt><trkpt lat="36.94140897138407" lon="15.166489750124079"><ele>37.0</ele><time>2026-04-24T15:45:57Z</time></trkpt><trkpt lat="36.94130123116136" lon="15.1664091479475"><ele>37.2</ele><time>2026-04-24T15:45:58Z</time></trkpt><trkpt lat="36.941207557970934" lon="15.166338464690694"><ele>37.400000000000006</ele><time>2026-04-24T15:45:59Z</time></trkpt><trkpt lat="36.94111928434531" lon="15.16626883864131"><ele>37.599999999999994</ele><time>2026-04-24T15:46:00Z</time></trkpt><trkpt lat="36.94102728314778" lon="15.166204192580487"><ele>37.8</ele><time>2026-04-24T15:46:01Z</time></trkpt><trkpt lat="36.94093888822038" lon="15.166137324127204"><ele>38.0</ele><time>2026-04-24T15:46:02Z</time></trkpt><trkpt lat="36.94083976241668" lon="15.166038437502182"><ele>38.0</ele><time>2026-04-24T15:46:04Z</time></trkpt><trkpt lat="36.94074787126724" lon="15.165967922298572"><ele>38.0</ele><time>2026-04-24T15:46:05Z</time></trkpt><trkpt lat="36.940652175127205" lon="15.16591701996205"><ele>38.0</ele><time>2026-04-24T15:46:07Z</time></trkpt><trkpt lat="36.94070200905168" lon="15.165822674973718"><ele>38.0</ele><time>2026-04-24T15:46:12Z</time></trkpt><trkpt lat="36.94074256585668" lon="15.165738492745056"><ele>38.0</ele><time>2026-04-24T15:46:13Z</time></trkpt><trkpt lat="36.940787002863665" lon="15.16561865822386"><ele>38.4</ele><time>2026-04-24T15:46:14Z</time></trkpt><trkpt lat="36.940858684975176" lon="15.165482475050432"><ele>38.8</ele><time>2026-04-24T15:46:15Z</time></trkpt><trkpt lat="36.940909614771854" lon="15.165372181113401"><ele>39.2</ele><time>2026-04-24T15:46:16Z</time></trkpt><trkpt lat="36.94095585201204" lon="15.16528055815722"><ele>39.6</ele><time>2026-04-24T15:46:17Z</time></trkpt><trkpt lat="36.94099449235065" lon="15.165206142359505"><ele>40.0</ele><time>2026-04-24T15:46:18.999Z</time></trkpt><trkpt lat="36.94111382461083" lon="15.165255616552626"><ele>40.75</ele><time>2026-04-24T15:46:28.999Z</time></trkpt><trkpt lat="36.94117996361573" lon="15.165326942103375"><ele>41.5</ele><time>2026-04-24T15:46:29.999Z</time></trkpt><trkpt lat="36.941295970223095" lon="15.165390914297532"><ele>42.25</ele><time>2026-04-24T15:46:30.999Z</time></trkpt><trkpt lat="36.94141868750142" lon="15.165484893653222"><ele>43.0</ele><time>2026-04-24T15:46:31.999Z</time></trkpt><trkpt lat="36.94154995364671" lon="15.165592567476892"><ele>42.333333333333336</ele><time>2026-04-24T15:46:32.999Z</time></trkpt><trkpt lat="36.94168608583548" lon="15.165719243777419"><ele>41.666666666666664</ele><time>2026-04-24T15:46:33.999Z</time></trkpt><trkpt lat="36.941840208424956" lon="15.16576980406082"><ele>41.0</ele><time>2026-04-24T15:46:34.999Z</time></trkpt><trkpt lat="36.94196172434644" lon="15.165878102014746"><ele>41.0</ele><time>2026-04-24T15:46:35.999Z</time></trkpt><trkpt lat="36.942150214212255" lon="15.165838747716396"><ele>41.0</ele><time>2026-04-24T15:46:36.999Z</time></trkpt><trkpt lat="36.94224655525545" lon="15.165984738113837"><ele>41.0</ele><time>2026-04-24T15:46:37.999Z</time></trkpt><trkpt lat="36.94233654992937" lon="15.16603745038159"><ele>41.0</ele><time>2026-04-24T15:46:38.999Z</time></trkpt><trkpt lat="36.94242965097209" lon="15.166103863277273"><ele>41.0</ele><time>2026-04-24T15:46:40.999Z</time></trkpt><trkpt lat="36.942533108004184" lon="15.166120689833793"><ele>41.0</ele><time>2026-04-24T15:46:42.999Z</time></trkpt><trkpt lat="36.94264069649335" lon="15.166165365811423"><ele>41.0</ele><time>2026-04-24T15:46:44.999Z</time></trkpt><trkpt lat="36.94275408991131" lon="15.166202185571805"><ele>41.0</ele><time>2026-04-24T15:46:46.999Z</time></trkpt><trkpt lat="36.94284732659812" lon="15.166215694520117"><ele>41.0</ele><time>2026-04-24T15:46:48.999Z</time></trkpt><trkpt lat="36.94290551900667" lon="15.166126479797176"><ele>41.599999999999994</ele><time>2026-04-24T15:46:50.999Z</time></trkpt><trkpt lat="36.94293407997223" lon="15.165962474294112"><ele>42.2</ele><time>2026-04-24T15:46:52.999Z</time></trkpt><trkpt lat="36.94296674103657" lon="15.165874067252014"><ele>42.8</ele><time>2026-04-24T15:46:53.999Z</time></trkpt><trkpt lat="36.94303406661489" lon="15.165753054511447"><ele>43.400000000000006</ele><time>2026-04-24T15:46:54.999Z</time></trkpt><trkpt lat="36.94308460888093" lon="15.16563433522885"><ele>44.0</ele><time>2026-04-24T15:46:55.999Z</time></trkpt><trkpt lat="36.94315050240049" lon="15.165480021450843"><ele>44.666666666666664</ele><time>2026-04-24T15:46:56.999Z</time></trkpt><trkpt lat="36.94325742198508" lon="15.165244205745102"><ele>45.333333333333336</ele><time>2026-04-24T15:46:57.999Z</time></trkpt><trkpt lat="36.94336481603331" lon="15.165004993599071"><ele>46.0</ele><time>2026-04-24T15:46:58.999Z</time></trkpt><trkpt lat="36.9434729831443" lon="15.164750373252804"><ele>47.66666666666667</ele><time>2026-04-24T15:46:59.999Z</time></trkpt><trkpt lat="36.943563696448855" lon="15.164548415637737"><ele>49.333333333333336</ele><time>2026-04-24T15:47:00.999Z</time></trkpt><trkpt lat="36.943647819405975" lon="15.164367212743475"><ele>51.0</ele><time>2026-04-24T15:47:01.999Z</time></trkpt><trkpt lat="36.94374072450576" lon="15.164185629816272"><ele>51.0</ele><time>2026-04-24T15:47:02.999Z</time></trkpt><trkpt lat="36.9437591284971" lon="15.164066950131916"><ele>51.0</ele><time>2026-04-24T15:47:03.999Z</time></trkpt><trkpt lat="36.94376466778349" lon="15.163925447851106"><ele>51.0</ele><time>2026-04-24T15:47:06Z</time></trkpt><trkpt lat="36.94363548505724" lon="15.163847655043503"><ele>51.0</ele><time>2026-04-24T15:47:07Z</time></trkpt><trkpt lat="36.94351530554701" lon="15.16376780853862"><ele>51.199999999999996</ele><time>2026-04-24T15:47:08Z</time></trkpt><trkpt lat="36.94337569490771" lon="15.163686739782849"><ele>51.4</ele><time>2026-04-24T15:47:09Z</time></trkpt><trkpt lat="36.94328463192244" lon="15.163625879438948"><ele>51.6</ele><time>2026-04-24T15:47:10Z</time></trkpt><trkpt lat="36.9432450254319" lon="15.163547969386897"><ele>51.8</ele><time>2026-04-24T15:47:11Z</time></trkpt><trkpt lat="36.9432337735272" lon="15.163464004437948"><ele>52.0</ele><time>2026-04-24T15:47:12Z</time></trkpt><trkpt lat="36.94326543111185" lon="15.163368214374774"><ele>52.0</ele><time>2026-04-24T15:47:13Z</time></trkpt><trkpt lat="36.94331154462105" lon="15.163242996131533"><ele>52.0</ele><time>2026-04-24T15:47:14Z</time></trkpt><trkpt lat="36.94337378689384" lon="15.163073022001056"><ele>52.0</ele><time>2026-04-24T15:47:15Z</time></trkpt><trkpt lat="36.94344477863722" lon="15.162848308942158"><ele>54.0</ele><time>2026-04-24T15:47:16Z</time></trkpt><trkpt lat="36.94356831908458" lon="15.162592016270601"><ele>56.0</ele><time>2026-04-24T15:47:17Z</time></trkpt><trkpt lat="36.94365251347399" lon="15.16236593608292"><ele>58.0</ele><time>2026-04-24T15:47:18Z</time></trkpt><trkpt lat="36.94374177991008" lon="15.162258221142126"><ele>58.0</ele><time>2026-04-24T15:47:19Z</time></trkpt><trkpt lat="36.94382458470213" lon="15.162212878827631"><ele>58.0</ele><time>2026-04-24T15:47:21Z</time></trkpt><trkpt lat="36.94391396388935" lon="15.162302575222023"><ele>58.0</ele><time>2026-04-24T15:47:22Z</time></trkpt><trkpt lat="36.944026031397456" lon="15.162351276030412"><ele>58.0</ele><time>2026-04-24T15:47:23Z</time></trkpt><trkpt lat="36.94417617644831" lon="15.162442464771184"><ele>58.2</ele><time>2026-04-24T15:47:24Z</time></trkpt><trkpt lat="36.94431417659386" lon="15.16252854153488"><ele>58.4</ele><time>2026-04-24T15:47:25Z</time></trkpt><trkpt lat="36.94441037228666" lon="15.162581669661972"><ele>58.60000000000001</ele><time>2026-04-24T15:47:26Z</time></trkpt><trkpt lat="36.94449364368449" lon="15.162564926178973"><ele>58.800000000000004</ele><time>2026-04-24T15:47:28Z</time></trkpt><trkpt lat="36.94452119821739" lon="15.162445173334776"><ele>59.0</ele><time>2026-04-24T15:47:29Z</time></trkpt><trkpt lat="36.9445731505422" lon="15.16231029096588"><ele>60.0</ele><time>2026-04-24T15:47:30Z</time></trkpt><trkpt lat="36.94462706913227" lon="15.162140950664124"><ele>61.0</ele><time>2026-04-24T15:47:31Z</time></trkpt><trkpt lat="36.9447189331178" lon="15.161931904750682"><ele>62.0</ele><time>2026-04-24T15:47:32Z</time></trkpt><trkpt lat="36.944832846107225" lon="15.16169947077556"><ele>63.0</ele><time>2026-04-24T15:47:33Z</time></trkpt><trkpt lat="36.94495137475356" lon="15.161452151413869"><ele>64.0</ele><time>2026-04-24T15:47:34Z</time></trkpt><trkpt lat="36.945058597036905" lon="15.161224304228721"><ele>65.0</ele><time>2026-04-24T15:47:35Z</time></trkpt><trkpt lat="36.94515257584307" lon="15.161014726096722"><ele>65.33333333333334</ele><time>2026-04-24T15:47:36Z</time></trkpt><trkpt lat="36.94524744042623" lon="15.160797244917656"><ele>65.66666666666667</ele><time>2026-04-24T15:47:37Z</time></trkpt><trkpt lat="36.94535744592031" lon="15.160545052588473"><ele>66.0</ele><time>2026-04-24T15:47:38Z</time></trkpt><trkpt lat="36.94545230439404" lon="15.160336296248989"><ele>67.0</ele><time>2026-04-24T15:47:39Z</time></trkpt><trkpt lat="36.9455348728567" lon="15.160116424579352"><ele>68.0</ele><time>2026-04-24T15:47:40Z</time></trkpt><trkpt lat="36.94567086321629" lon="15.159891732094097"><ele>69.0</ele><time>2026-04-24T15:47:41Z</time></trkpt><trkpt lat="36.94576793187744" lon="15.159674179512407"><ele>70.0</ele><time>2026-04-24T15:47:42Z</time></trkpt><trkpt lat="36.945807867949675" lon="15.159518076823762"><ele>71.0</ele><time>2026-04-24T15:47:43Z</time></trkpt><trkpt lat="36.94586105061461" lon="15.159388028321468"><ele>72.0</ele><time>2026-04-24T15:47:44Z</time></trkpt><trkpt lat="36.9459319052366" lon="15.159263781288315"><ele>73.0</ele><time>2026-04-24T15:47:45Z</time></trkpt><trkpt lat="36.94598720080024" lon="15.159122804649583"><ele>73.0</ele><time>2026-04-24T15:47:46Z</time></trkpt><trkpt lat="36.94604704997524" lon="15.15903630078172"><ele>73.0</ele><time>2026-04-24T15:47:47Z</time></trkpt><trkpt lat="36.94609948363048" lon="15.15892076137625"><ele>73.0</ele><time>2026-04-24T15:47:49Z</time></trkpt><trkpt lat="36.94618666573762" lon="15.158925238474596"><ele>73.0</ele><time>2026-04-24T15:47:51Z</time></trkpt><trkpt lat="36.946267510762794" lon="15.15899375498636"><ele>73.0</ele><time>2026-04-24T15:47:52Z</time></trkpt><trkpt lat="36.94636699990559" lon="15.159065294829313"><ele>73.0</ele><time>2026-04-24T15:47:53Z</time></trkpt><trkpt lat="36.946495173678755" lon="15.159141557736012"><ele>73.0</ele><time>2026-04-24T15:47:54Z</time></trkpt><trkpt lat="36.9466334210942" lon="15.159220551664502"><ele>73.0</ele><time>2026-04-24T15:47:55Z</time></trkpt><trkpt lat="36.946775137208945" lon="15.159302141593946"><ele>72.66666666666666</ele><time>2026-04-24T15:47:56Z</time></trkpt><trkpt lat="36.94693206970959" lon="15.159397233238058"><ele>72.33333333333333</ele><time>2026-04-24T15:47:57Z</time></trkpt><trkpt lat="36.94707328804241" lon="15.159506444709622"><ele>72.0</ele><time>2026-04-24T15:47:58Z</time></trkpt><trkpt lat="36.94721618158198" lon="15.159578330779244"><ele>72.0</ele><time>2026-04-24T15:47:59Z</time></trkpt><trkpt lat="36.94736589422748" lon="15.159670265745799"><ele>72.0</ele><time>2026-04-24T15:48:00Z</time></trkpt><trkpt lat="36.947500548404335" lon="15.159743615811914"><ele>72.0</ele><time>2026-04-24T15:48:01Z</time></trkpt><trkpt lat="36.94763441432508" lon="15.159825308056112"><ele>71.25</ele><time>2026-04-24T15:48:02Z</time></trkpt><trkpt lat="36.94776793402715" lon="15.15990217015622"><ele>70.5</ele><time>2026-04-24T15:48:03Z</time></trkpt><trkpt lat="36.9479008613732" lon="15.159975560052722"><ele>69.75</ele><time>2026-04-24T15:48:04Z</time></trkpt><trkpt lat="36.94803504059391" lon="15.160038877341158"><ele>69.0</ele><time>2026-04-24T15:48:05Z</time></trkpt><trkpt lat="36.94815459076154" lon="15.160097943236375"><ele>69.0</ele><time>2026-04-24T15:48:06Z</time></trkpt><trkpt lat="36.94828888746199" lon="15.160144314868742"><ele>69.0</ele><time>2026-04-24T15:48:07Z</time></trkpt><trkpt lat="36.94840659302838" lon="15.16019846406506"><ele>69.0</ele><time>2026-04-24T15:48:08Z</time></trkpt><trkpt lat="36.94850616903336" lon="15.160233968001013"><ele>69.0</ele><time>2026-04-24T15:48:09Z</time></trkpt><trkpt lat="36.94860899581193" lon="15.160287360510903"><ele>69.25</ele><time>2026-04-24T15:48:10Z</time></trkpt><trkpt lat="36.94866661428052" lon="15.160404148989254"><ele>69.5</ele><time>2026-04-24T15:48:11Z</time></trkpt><trkpt lat="36.948779263867564" lon="15.160505557202413"><ele>69.75</ele><time>2026-04-24T15:48:12Z</time></trkpt><trkpt lat="36.94888551527785" lon="15.160600007693242"><ele>70.0</ele><time>2026-04-24T15:48:13Z</time></trkpt><trkpt lat="36.949000053962074" lon="15.160673501276404"><ele>70.0</ele><time>2026-04-24T15:48:14Z</time></trkpt><trkpt lat="36.94907087750863" lon="15.160715710467603"><ele>70.0</ele><time>2026-04-24T15:48:15Z</time></trkpt><trkpt lat="36.94915628788349" lon="15.160763445067678"><ele>70.0</ele><time>2026-04-24T15:48:17Z</time></trkpt><trkpt lat="36.9491365743615" lon="15.160645842490636"><ele>70.0</ele><time>2026-04-24T15:48:18Z</time></trkpt><trkpt lat="36.94918841750927" lon="15.1605454379028"><ele>70.0</ele><time>2026-04-24T15:48:19Z</time></trkpt><trkpt lat="36.94929589833141" lon="15.160454836236909"><ele>71.33333333333333</ele><time>2026-04-24T15:48:20Z</time></trkpt><trkpt lat="36.94942079371885" lon="15.16032622565664"><ele>72.66666666666667</ele><time>2026-04-24T15:48:21Z</time></trkpt><trkpt lat="36.94955682842497" lon="15.160189276402802"><ele>74.0</ele><time>2026-04-24T15:48:21.999Z</time></trkpt><trkpt lat="36.94970254662043" lon="15.160044031832433"><ele>74.0</ele><time>2026-04-24T15:48:22.999Z</time></trkpt><trkpt lat="36.9498602389572" lon="15.159887092127967"><ele>74.0</ele><time>2026-04-24T15:48:23.999Z</time></trkpt><trkpt lat="36.950002583658794" lon="15.15974823185222"><ele>74.0</ele><time>2026-04-24T15:48:24.999Z</time></trkpt><trkpt lat="36.950139470748496" lon="15.15961852462402"><ele>76.75</ele><time>2026-04-24T15:48:25.999Z</time></trkpt><trkpt lat="36.950254412870535" lon="15.159507521031871"><ele>79.5</ele><time>2026-04-24T15:48:26.999Z</time></trkpt><trkpt lat="36.950375230282766" lon="15.15938560152363"><ele>82.25</ele><time>2026-04-24T15:48:27.999Z</time></trkpt><trkpt lat="36.95044009665076" lon="15.159243560508363"><ele>85.0</ele><time>2026-04-24T15:48:28.999Z</time></trkpt><trkpt lat="36.95052842645583" lon="15.159130992318195"><ele>86.75</ele><time>2026-04-24T15:48:29.999Z</time></trkpt><trkpt lat="36.95065968664509" lon="15.159012914469479"><ele>88.5</ele><time>2026-04-24T15:48:30.999Z</time></trkpt><trkpt lat="36.9506648473592" lon="15.158838065515454"><ele>90.25</ele><time>2026-04-24T15:48:31.999Z</time></trkpt><trkpt lat="36.95070355808588" lon="15.158725599153074"><ele>92.0</ele><time>2026-04-24T15:48:32.999Z</time></trkpt><trkpt lat="36.95072069988266" lon="15.158589248430584"><ele>92.0</ele><time>2026-04-24T15:48:33.999Z</time></trkpt><trkpt lat="36.9507204936821" lon="15.158490837482955"><ele>92.0</ele><time>2026-04-24T15:48:34.999Z</time></trkpt><trkpt lat="36.95067654428964" lon="15.158374260680953"><ele>92.0</ele><time>2026-04-24T15:48:35.999Z</time></trkpt><trkpt lat="36.950603698629045" lon="15.158299459177462"><ele>92.0</ele><time>2026-04-24T15:48:36.999Z</time></trkpt><trkpt lat="36.95050319921457" lon="15.158147722421559"><ele>92.0</ele><time>2026-04-24T15:48:37.999Z</time></trkpt><trkpt lat="36.950417575488736" lon="15.157986844086528"><ele>94.0</ele><time>2026-04-24T15:48:38.999Z</time></trkpt><trkpt lat="36.95034760918636" lon="15.157807257881421"><ele>96.0</ele><time>2026-04-24T15:48:39.999Z</time></trkpt><trkpt lat="36.95027412940169" lon="15.157643341474301"><ele>98.0</ele><time>2026-04-24T15:48:40.999Z</time></trkpt><trkpt lat="36.95021121534332" lon="15.157490599715127"><ele>100.0</ele><time>2026-04-24T15:48:41.999Z</time></trkpt><trkpt lat="36.95015477519874" lon="15.15732969335383"><ele>99.75</ele><time>2026-04-24T15:48:42.999Z</time></trkpt><trkpt lat="36.950084813412225" lon="15.157171678318509"><ele>99.5</ele><time>2026-04-24T15:48:43.999Z</time></trkpt><trkpt lat="36.95004281747019" lon="15.157007903868319"><ele>99.25</ele><time>2026-04-24T15:48:44.999Z</time></trkpt><trkpt lat="36.94998271395751" lon="15.156850931822866"><ele>99.0</ele><time>2026-04-24T15:48:45.999Z</time></trkpt><trkpt lat="36.949928314367135" lon="15.156697443947765"><ele>99.0</ele><time>2026-04-24T15:48:46.999Z</time></trkpt><trkpt lat="36.94985881629311" lon="15.15655306022623"><ele>99.0</ele><time>2026-04-24T15:48:47.999Z</time></trkpt><trkpt lat="36.94978926249788" lon="15.156391804325684"><ele>99.0</ele><time>2026-04-24T15:48:48.999Z</time></trkpt><trkpt lat="36.94970390044465" lon="15.156224255405196"><ele>99.0</ele><time>2026-04-24T15:48:49.999Z</time></trkpt><trkpt lat="36.94960853226205" lon="15.156071056395534"><ele>100.75</ele><time>2026-04-24T15:48:50.999Z</time></trkpt><trkpt lat="36.94953294766633" lon="15.155918215821973"><ele>102.5</ele><time>2026-04-24T15:48:51.999Z</time></trkpt><trkpt lat="36.94946750431494" lon="15.155776725491457"><ele>104.25</ele><time>2026-04-24T15:48:52.999Z</time></trkpt><trkpt lat="36.94941667718634" lon="15.155639689107982"><ele>106.0</ele><time>2026-04-24T15:48:53.999Z</time></trkpt><trkpt lat="36.94936556878644" lon="15.155470664167595"><ele>106.25</ele><time>2026-04-24T15:48:54.999Z</time></trkpt><trkpt lat="36.949307510712494" lon="15.155402965085933"><ele>106.5</ele><time>2026-04-24T15:48:55.999Z</time></trkpt><trkpt lat="36.949209517796206" lon="15.155342611836216"><ele>106.75</ele><time>2026-04-24T15:48:56.999Z</time></trkpt><trkpt lat="36.94908731171956" lon="15.15531853848063"><ele>107.0</ele><time>2026-04-24T15:48:57.999Z</time></trkpt><trkpt lat="36.94896253781434" lon="15.155245566244862"><ele>107.0</ele><time>2026-04-24T15:48:58.999Z</time></trkpt><trkpt lat="36.948816931459405" lon="15.15517205531583"><ele>107.0</ele><time>2026-04-24T15:48:59.999Z</time></trkpt><trkpt lat="36.94868692304621" lon="15.155068661157738"><ele>107.0</ele><time>2026-04-24T15:49:00.999Z</time></trkpt><trkpt lat="36.9485177881412" lon="15.154972696618294"><ele>107.0</ele><time>2026-04-24T15:49:01.999Z</time></trkpt><trkpt lat="36.948395723361585" lon="15.154890225237033"><ele>107.0</ele><time>2026-04-24T15:49:02.999Z</time></trkpt><trkpt lat="36.948276352775196" lon="15.154786811582772"><ele>107.0</ele><time>2026-04-24T15:49:03.999Z</time></trkpt><trkpt lat="36.94818458718481" lon="15.154721220170236"><ele>107.0</ele><time>2026-04-24T15:49:04.999Z</time></trkpt><trkpt lat="36.94797894218024" lon="15.154582328821391"><ele>107.66666666666666</ele><time>2026-04-24T15:49:05.999Z</time></trkpt><trkpt lat="36.94783979587385" lon="15.15447808585864"><ele>108.33333333333334</ele><time>2026-04-24T15:49:06.999Z</time></trkpt><trkpt lat="36.94770758619869" lon="15.154387073977245"><ele>109.0</ele><time>2026-04-24T15:49:07.999Z</time></trkpt><trkpt lat="36.94756827063829" lon="15.154313667588404"><ele>107.33333333333334</ele><time>2026-04-24T15:49:08.999Z</time></trkpt><trkpt lat="36.94744257723833" lon="15.154265762888803"><ele>105.66666666666666</ele><time>2026-04-24T15:49:09.999Z</time></trkpt><trkpt lat="36.94729906732255" lon="15.154253677887153"><ele>104.0</ele><time>2026-04-24T15:49:10.999Z</time></trkpt><trkpt lat="36.94712456008287" lon="15.154251980639136"><ele>104.0</ele><time>2026-04-24T15:49:12Z</time></trkpt><trkpt lat="36.94697346541401" lon="15.154221798174262"><ele>104.0</ele><time>2026-04-24T15:49:13Z</time></trkpt><trkpt lat="36.94681144213182" lon="15.1542030710924"><ele>104.0</ele><time>2026-04-24T15:49:14Z</time></trkpt><trkpt lat="36.946638703726215" lon="15.154186834912267"><ele>104.33333333333333</ele><time>2026-04-24T15:49:15Z</time></trkpt><trkpt lat="36.94646629705311" lon="15.154166684115163"><ele>104.66666666666666</ele><time>2026-04-24T15:49:16Z</time></trkpt><trkpt lat="36.94630165461477" lon="15.154130533246471"><ele>105.0</ele><time>2026-04-24T15:49:17Z</time></trkpt><trkpt lat="36.94612492836994" lon="15.154097762886252"><ele>105.0</ele><time>2026-04-24T15:49:18Z</time></trkpt><trkpt lat="36.945952722527345" lon="15.154069096062978"><ele>105.0</ele><time>2026-04-24T15:49:19Z</time></trkpt><trkpt lat="36.9457759808504" lon="15.154034257809306"><ele>105.0</ele><time>2026-04-24T15:49:20Z</time></trkpt><trkpt lat="36.94560457407702" lon="15.153998499285677"><ele>107.25</ele><time>2026-04-24T15:49:21Z</time></trkpt><trkpt lat="36.94546263418226" lon="15.153966552491704"><ele>109.5</ele><time>2026-04-24T15:49:22Z</time></trkpt><trkpt lat="36.94532988551337" lon="15.153924428288834"><ele>111.75</ele><time>2026-04-24T15:49:23Z</time></trkpt><trkpt lat="36.945209220435906" lon="15.15387915124616"><ele>114.0</ele><time>2026-04-24T15:49:24Z</time></trkpt><trkpt lat="36.945115997091285" lon="15.153771443585367"><ele>112.66666666666666</ele><time>2026-04-24T15:49:25Z</time></trkpt><trkpt lat="36.945016200182096" lon="15.153666007770262"><ele>111.33333333333333</ele><time>2026-04-24T15:49:26Z</time></trkpt><trkpt lat="36.944897113860186" lon="15.153522577969108"><ele>110.0</ele><time>2026-04-24T15:49:27Z</time></trkpt><trkpt lat="36.944782724782364" lon="15.153386179759694"><ele>110.0</ele><time>2026-04-24T15:49:28Z</time></trkpt><trkpt lat="36.944678513127634" lon="15.153275677079913"><ele>110.0</ele><time>2026-04-24T15:49:29Z</time></trkpt><trkpt lat="36.94459989363331" lon="15.153196048508326"><ele>110.0</ele><time>2026-04-24T15:49:30Z</time></trkpt><trkpt lat="36.944567040777706" lon="15.153124299133536"><ele>110.0</ele><time>2026-04-24T15:49:31Z</time></trkpt><trkpt lat="36.94463404414002" lon="15.153044852953997"><ele>110.0</ele><time>2026-04-24T15:49:36Z</time></trkpt><trkpt lat="36.94471687811213" lon="15.152963331899919"><ele>110.75</ele><time>2026-04-24T15:49:37Z</time></trkpt><trkpt lat="36.944799848459" lon="15.152883209417563"><ele>111.5</ele><time>2026-04-24T15:49:38Z</time></trkpt><trkpt lat="36.944886324830684" lon="15.1528023279682"><ele>112.25</ele><time>2026-04-24T15:49:39Z</time></trkpt><trkpt lat="36.94498080008449" lon="15.152713965155474"><ele>113.0</ele><time>2026-04-24T15:49:40Z</time></trkpt><trkpt lat="36.94507992333798" lon="15.152621255006027"><ele>115.0</ele><time>2026-04-24T15:49:41Z</time></trkpt><trkpt lat="36.945179396914675" lon="15.152524909729243"><ele>117.0</ele><time>2026-04-24T15:49:42Z</time></trkpt><trkpt lat="36.945288486385685" lon="15.152417916058903"><ele>119.0</ele><time>2026-04-24T15:49:43Z</time></trkpt><trkpt lat="36.94538938884745" lon="15.152314952919058"><ele>121.0</ele><time>2026-04-24T15:49:44Z</time></trkpt><trkpt lat="36.945460708785085" lon="15.15221830742732"><ele>121.6</ele><time>2026-04-24T15:49:45Z</time></trkpt><trkpt lat="36.94555875180849" lon="15.152122752264251"><ele>122.19999999999999</ele><time>2026-04-24T15:49:46Z</time></trkpt><trkpt lat="36.94564056509845" lon="15.152035844841214"><ele>122.80000000000001</ele><time>2026-04-24T15:49:47Z</time></trkpt><trkpt lat="36.9457199309514" lon="15.151949899719423"><ele>123.4</ele><time>2026-04-24T15:49:48Z</time></trkpt><trkpt lat="36.945797559923086" lon="15.151862245128706"><ele>124.0</ele><time>2026-04-24T15:49:49Z</time></trkpt><trkpt lat="36.94588044263627" lon="15.151776032365028"><ele>125.50000000000001</ele><time>2026-04-24T15:49:50Z</time></trkpt><trkpt lat="36.945954836583624" lon="15.151691620592088"><ele>127.0</ele><time>2026-04-24T15:49:51Z</time></trkpt><trkpt lat="36.946041105823866" lon="15.15161676814851"><ele>128.5</ele><time>2026-04-24T15:49:52Z</time></trkpt><trkpt lat="36.94612065612778" lon="15.15156833330351"><ele>130.0</ele><time>2026-04-24T15:49:53Z</time></trkpt><trkpt lat="36.946170578761304" lon="15.151514664621292"><ele>131.5</ele><time>2026-04-24T15:49:54Z</time></trkpt><trkpt lat="36.94624387130826" lon="15.151529022208925"><ele>133.0</ele><time>2026-04-24T15:49:55Z</time></trkpt><trkpt lat="36.946323723307195" lon="15.151584688973154"><ele>133.5</ele><time>2026-04-24T15:49:56Z</time></trkpt><trkpt lat="36.94642370738516" lon="15.15165501308545"><ele>134.0</ele><time>2026-04-24T15:49:57Z</time></trkpt><trkpt lat="36.94655632283918" lon="15.151709599944688"><ele>134.5</ele><time>2026-04-24T15:49:58Z</time></trkpt><trkpt lat="36.94668772724655" lon="15.151755190513427"><ele>135.0</ele><time>2026-04-24T15:49:59Z</time></trkpt><trkpt lat="36.94681504000571" lon="15.151822858539841"><ele>137.5</ele><time>2026-04-24T15:50:00Z</time></trkpt><trkpt lat="36.94694108416671" lon="15.151882217646968"><ele>140.0</ele><time>2026-04-24T15:50:01Z</time></trkpt><trkpt lat="36.94706181741346" lon="15.151935200737498"><ele>142.5</ele><time>2026-04-24T15:50:02Z</time></trkpt><trkpt lat="36.94716150106446" lon="15.151975054664394"><ele>145.0</ele><time>2026-04-24T15:50:03Z</time></trkpt><trkpt lat="36.947252232749435" lon="15.151975299249465"><ele>145.0</ele><time>2026-04-24T15:50:04Z</time></trkpt><trkpt lat="36.94736212489904" lon="15.15195148716579"><ele>145.0</ele><time>2026-04-24T15:50:05Z</time></trkpt><trkpt lat="36.94747243119223" lon="15.151912000624616"><ele>145.0</ele><time>2026-04-24T15:50:06Z</time></trkpt><trkpt lat="36.94756582580187" lon="15.15187604590506"><ele>145.0</ele><time>2026-04-24T15:50:07Z</time></trkpt><trkpt lat="36.947672546626336" lon="15.15186133972151"><ele>145.0</ele><time>2026-04-24T15:50:08Z</time></trkpt><trkpt lat="36.94776916029228" lon="15.151813952562803"><ele>147.4</ele><time>2026-04-24T15:50:09Z</time></trkpt><trkpt lat="36.94784923646287" lon="15.151798786086019"><ele>149.8</ele><time>2026-04-24T15:50:10Z</time></trkpt><trkpt lat="36.947916722812046" lon="15.151749224549079"><ele>152.2</ele><time>2026-04-24T15:50:12Z</time></trkpt><trkpt lat="36.94788907554555" lon="15.151644206866994"><ele>154.6</ele><time>2026-04-24T15:50:13Z</time></trkpt><trkpt lat="36.9477950877366" lon="15.151607031309284"><ele>157.0</ele><time>2026-04-24T15:50:14Z</time></trkpt><trkpt lat="36.94767717273067" lon="15.151591622932573"><ele>157.0</ele><time>2026-04-24T15:50:15Z</time></trkpt><trkpt lat="36.947561981371074" lon="15.151547941226795"><ele>157.0</ele><time>2026-04-24T15:50:16Z</time></trkpt><trkpt lat="36.94743839155155" lon="15.151507082832648"><ele>157.0</ele><time>2026-04-24T15:50:17Z</time></trkpt><trkpt lat="36.94734540853845" lon="15.151467827273574"><ele>157.0</ele><time>2026-04-24T15:50:18Z</time></trkpt><trkpt lat="36.94728560234497" lon="15.151425675768142"><ele>157.0</ele><time>2026-04-24T15:50:19Z</time></trkpt><trkpt lat="36.94732830170324" lon="15.151349151327056"><ele>154.0</ele><time>2026-04-24T15:50:21Z</time></trkpt><trkpt lat="36.947462156839826" lon="15.15135630689038"><ele>151.0</ele><time>2026-04-24T15:50:23Z</time></trkpt><trkpt lat="36.94760739019335" lon="15.151353999793242"><ele>148.0</ele><time>2026-04-24T15:50:24Z</time></trkpt><trkpt lat="36.94778134437227" lon="15.15135066065696"><ele>155.66666666666669</ele><time>2026-04-24T15:50:25Z</time></trkpt><trkpt lat="36.947977162879326" lon="15.151339099009508"><ele>163.33333333333334</ele><time>2026-04-24T15:50:26Z</time></trkpt><trkpt lat="36.94816668447233" lon="15.15133046049881"><ele>171.0</ele><time>2026-04-24T15:50:27Z</time></trkpt><trkpt lat="36.948397804754144" lon="15.151317825206869"><ele>182.5</ele><time>2026-04-24T15:50:28Z</time></trkpt><trkpt lat="36.948632913544" lon="15.151302776162016"><ele>194.0</ele><time>2026-04-24T15:50:29Z</time></trkpt><trkpt lat="36.94888297661273" lon="15.151271454100312"><ele>194.0</ele><time>2026-04-24T15:50:30Z</time></trkpt><trkpt lat="36.949125349920166" lon="15.15125354308824"><ele>194.0</ele><time>2026-04-24T15:50:31Z</time></trkpt><trkpt lat="36.949329733089215" lon="15.151236044184413"><ele>194.0</ele><time>2026-04-24T15:50:32Z</time></trkpt><trkpt lat="36.94950631253023" lon="15.151275224740587"><ele>199.66666666666669</ele><time>2026-04-24T15:50:33Z</time></trkpt><trkpt lat="36.9496824053478" lon="15.151328776783455"><ele>205.33333333333331</ele><time>2026-04-24T15:50:34Z</time></trkpt><trkpt lat="36.94986550366889" lon="15.151391530436133"><ele>211.0</ele><time>2026-04-24T15:50:35Z</time></trkpt><trkpt lat="36.950055382822704" lon="15.151455909036859"><ele>209.66666666666666</ele><time>2026-04-24T15:50:36Z</time></trkpt><trkpt lat="36.95024240199742" lon="15.151511428889675"><ele>208.33333333333331</ele><time>2026-04-24T15:50:37Z</time></trkpt><trkpt lat="36.9504488901996" lon="15.151561088025737"><ele>207.0</ele><time>2026-04-24T15:50:38Z</time></trkpt><trkpt lat="36.95063300194388" lon="15.151600910341006"><ele>207.0</ele><time>2026-04-24T15:50:39Z</time></trkpt><trkpt lat="36.950796231635756" lon="15.151623775297743"><ele>207.0</ele><time>2026-04-24T15:50:40Z</time></trkpt><trkpt lat="36.9509457460834" lon="15.151653190231395"><ele>207.0</ele><time>2026-04-24T15:50:41Z</time></trkpt><trkpt lat="36.95108537086822" lon="15.151722909503368"><ele>214.75</ele><time>2026-04-24T15:50:42Z</time></trkpt><trkpt lat="36.95119122928018" lon="15.151755410395369"><ele>222.5</ele><time>2026-04-24T15:50:43Z</time></trkpt><trkpt lat="36.95129973583879" lon="15.151829664104774"><ele>230.25</ele><time>2026-04-24T15:50:44Z</time></trkpt><trkpt lat="36.95139204369534" lon="15.151904506574484"><ele>238.0</ele><time>2026-04-24T15:50:45Z</time></trkpt><trkpt lat="36.95147905825469" lon="15.152007779822842"><ele>238.0</ele><time>2026-04-24T15:50:46Z</time></trkpt><trkpt lat="36.95152512552798" lon="15.152141261393167"><ele>238.0</ele><time>2026-04-24T15:50:47Z</time></trkpt><trkpt lat="36.951586828690424" lon="15.152286436780228"><ele>238.0</ele><time>2026-04-24T15:50:48Z</time></trkpt><trkpt lat="36.951649925014166" lon="15.152423368834002"><ele>238.0</ele><time>2026-04-24T15:50:49Z</time></trkpt><trkpt lat="36.95169103727393" lon="15.15253762076468"><ele>239.8</ele><time>2026-04-24T15:50:50Z</time></trkpt><trkpt lat="36.95173642199246" lon="15.152618261384285"><ele>241.60000000000002</ele><time>2026-04-24T15:50:51Z</time></trkpt><trkpt lat="36.951809077849454" lon="15.15267494827763"><ele>243.39999999999998</ele><time>2026-04-24T15:50:52Z</time></trkpt><trkpt lat="36.951914287256265" lon="15.152726491657148"><ele>245.2</ele><time>2026-04-24T15:50:53Z</time></trkpt><trkpt lat="36.9520295329759" lon="15.152765056434477"><ele>247.0</ele><time>2026-04-24T15:50:54Z</time></trkpt><trkpt lat="36.952125365075965" lon="15.152845475142342"><ele>247.0</ele><time>2026-04-24T15:50:55Z</time></trkpt><trkpt lat="36.95223718321468" lon="15.152935585501622"><ele>247.0</ele><time>2026-04-24T15:50:56Z</time></trkpt><trkpt lat="36.95233842340998" lon="15.153062620421801"><ele>247.0</ele><time>2026-04-24T15:50:57Z</time></trkpt><trkpt lat="36.952420018200584" lon="15.153152945827694"><ele>247.0</ele><time>2026-04-24T15:50:58Z</time></trkpt><trkpt lat="36.95251390311966" lon="15.153236886677565"><ele>246.8</ele><time>2026-04-24T15:50:59Z</time></trkpt><trkpt lat="36.952621352366045" lon="15.153290514090084"><ele>246.6</ele><time>2026-04-24T15:51:00Z</time></trkpt><trkpt lat="36.95272398921666" lon="15.153345061063517"><ele>246.40000000000003</ele><time>2026-04-24T15:51:01Z</time></trkpt><trkpt lat="36.952796300371965" lon="15.153426718449655"><ele>246.20000000000002</ele><time>2026-04-24T15:51:02Z</time></trkpt><trkpt lat="36.952866762318905" lon="15.153460920708671"><ele>246.0</ele><time>2026-04-24T15:51:03Z</time></trkpt><trkpt lat="36.95293373543342" lon="15.153511406208127"><ele>246.0</ele><time>2026-04-24T15:51:04Z</time></trkpt><trkpt lat="36.95302045131102" lon="15.153492187479795"><ele>246.0</ele><time>2026-04-24T15:51:06Z</time></trkpt><trkpt lat="36.953058957636976" lon="15.153400791709512"><ele>246.0</ele><time>2026-04-24T15:51:07.999Z</time></trkpt><trkpt lat="36.95305447165747" lon="15.153316896302815"><ele>246.0</ele><time>2026-04-24T15:51:08.999Z</time></trkpt><trkpt lat="36.95306050645606" lon="15.153222653535758"><ele>246.0</ele><time>2026-04-24T15:51:11.999Z</time></trkpt><trkpt lat="36.953068374817846" lon="15.15313684128845"><ele>246.0</ele><time>2026-04-24T15:51:13.999Z</time></trkpt><trkpt lat="36.95300221485905" lon="15.153191034190709"><ele>250.33333333333331</ele><time>2026-04-24T15:51:14.999Z</time></trkpt><trkpt lat="36.952934655766335" lon="15.153150196090715"><ele>254.66666666666666</ele><time>2026-04-24T15:51:18Z</time></trkpt><trkpt lat="36.95322171249804" lon="15.15292437465603"><ele>259.0</ele><time>2026-04-24T15:51:21Z</time></trkpt><trkpt lat="36.953301068810376" lon="15.152909786639286"><ele>262.4</ele><time>2026-04-24T15:51:23Z</time></trkpt><trkpt lat="36.95339958605023" lon="15.152863438044367"><ele>265.79999999999995</ele><time>2026-04-24T15:51:25Z</time></trkpt><trkpt lat="36.95345433886219" lon="15.152784670650012"><ele>269.20000000000005</ele><time>2026-04-24T15:51:27Z</time></trkpt><trkpt lat="36.95350741027929" lon="15.152729443947024"><ele>272.6</ele><time>2026-04-24T15:51:29Z</time></trkpt><trkpt lat="36.953568531995295" lon="15.152659921917632"><ele>276.0</ele><time>2026-04-24T15:51:31Z</time></trkpt><trkpt lat="36.953607143233434" lon="15.152529797518614"><ele>276.0</ele><time>2026-04-24T15:51:33Z</time></trkpt><trkpt lat="36.95359911979351" lon="15.152437138720831"><ele>276.0</ele><time>2026-04-24T15:51:34Z</time></trkpt><trkpt lat="36.95361055431068" lon="15.152356054539505"><ele>276.0</ele><time>2026-04-24T15:51:35Z</time></trkpt><trkpt lat="36.95365303880842" lon="15.152229867294924"><ele>276.0</ele><time>2026-04-24T15:51:37Z</time></trkpt><trkpt lat="36.9536999242257" lon="15.152104839968606"><ele>276.0</ele><time>2026-04-24T15:51:39Z</time></trkpt><trkpt lat="36.953675768454076" lon="15.152019459777472"><ele>276.0</ele><time>2026-04-24T15:51:41Z</time></trkpt><trkpt lat="36.953587475953846" lon="15.151982351214334"><ele>275.3333333333333</ele><time>2026-04-24T15:51:43Z</time></trkpt><trkpt lat="36.95353632395673" lon="15.151922703894146"><ele>274.6666666666667</ele><time>2026-04-24T15:51:44Z</time></trkpt><trkpt lat="36.95344988854804" lon="15.151861352267446"><ele>274.0</ele><time>2026-04-24T15:51:46Z</time></trkpt><trkpt lat="36.95338817641161" lon="15.15181776663093"><ele>273.33333333333337</ele><time>2026-04-24T15:51:47Z</time></trkpt><trkpt lat="36.953338730435036" lon="15.151731864176867"><ele>272.6666666666667</ele><time>2026-04-24T15:51:49Z</time></trkpt><trkpt lat="36.953261498720614" lon="15.151698367979813"><ele>272.0</ele><time>2026-04-24T15:51:50Z</time></trkpt><trkpt lat="36.95316682062845" lon="15.15165078691936"><ele>272.0</ele><time>2026-04-24T15:51:52Z</time></trkpt><trkpt lat="36.95308354050429" lon="15.15165694042608"><ele>272.0</ele><time>2026-04-24T15:51:54Z</time></trkpt><trkpt lat="36.95296429254529" lon="15.151631529543717"><ele>272.0</ele><time>2026-04-24T15:51:57Z</time></trkpt><trkpt lat="36.95289260701058" lon="15.151583172167957"><ele>272.0</ele><time>2026-04-24T15:51:59Z</time></trkpt><trkpt lat="36.952888126073326" lon="15.151499139366637"><ele>272.0</ele><time>2026-04-24T15:52:01Z</time></trkpt><trkpt lat="36.95287264878948" lon="15.15140341612991"><ele>272.0</ele><time>2026-04-24T15:52:05Z</time></trkpt><trkpt lat="36.952826399224335" lon="15.151301387344482"><ele>273.1666666666667</ele><time>2026-04-24T15:52:07Z</time></trkpt><trkpt lat="36.95277612173468" lon="15.151242913262173"><ele>274.33333333333337</ele><time>2026-04-24T15:52:09Z</time></trkpt><trkpt lat="36.95271377576714" lon="15.151147108538803"><ele>275.5</ele><time>2026-04-24T15:52:11Z</time></trkpt><trkpt lat="36.952646259053274" lon="15.15108375592928"><ele>276.6666666666667</ele><time>2026-04-24T15:52:13Z</time></trkpt><trkpt lat="36.95257204974898" lon="15.151065096539948"><ele>277.8333333333333</ele><time>2026-04-24T15:52:15Z</time></trkpt><trkpt lat="36.95247148384935" lon="15.15106043186251"><ele>279.0</ele><time>2026-04-24T15:52:17Z</time></trkpt><trkpt lat="36.952394732831294" lon="15.151001629349638"><ele>279.0</ele><time>2026-04-24T15:52:19Z</time></trkpt><trkpt lat="36.95238356346759" lon="15.150880462589445"><ele>279.0</ele><time>2026-04-24T15:52:21Z</time></trkpt><trkpt lat="36.952307021586286" lon="15.150779359899934"><ele>279.0</ele><time>2026-04-24T15:52:23Z</time></trkpt><trkpt lat="36.95226454423421" lon="15.150720918407949"><ele>279.0</ele><time>2026-04-24T15:52:24Z</time></trkpt><trkpt lat="36.952236976954865" lon="15.15061588927187"><ele>279.0</ele><time>2026-04-24T15:52:25Z</time></trkpt><trkpt lat="36.952129791494315" lon="15.150535543005445"><ele>281.25</ele><time>2026-04-24T15:52:26Z</time></trkpt><trkpt lat="36.952035126375485" lon="15.150397476223105"><ele>283.5</ele><time>2026-04-24T15:52:27Z</time></trkpt><trkpt lat="36.95192316947307" lon="15.150297516134565"><ele>285.75</ele><time>2026-04-24T15:52:28Z</time></trkpt><trkpt lat="36.95181331160194" lon="15.150187393428222"><ele>288.0</ele><time>2026-04-24T15:52:29Z</time></trkpt><trkpt lat="36.951686710051014" lon="15.150069341956355"><ele>288.0</ele><time>2026-04-24T15:52:30Z</time></trkpt><trkpt lat="36.951581255923394" lon="15.149992091521291"><ele>288.0</ele><time>2026-04-24T15:52:31Z</time></trkpt><trkpt lat="36.951499834536754" lon="15.149909976094266"><ele>288.0</ele><time>2026-04-24T15:52:32Z</time></trkpt><trkpt lat="36.9514450774493" lon="15.149825161727843"><ele>288.0</ele><time>2026-04-24T15:52:33Z</time></trkpt><trkpt lat="36.95144440307026" lon="15.14971560346047"><ele>288.0</ele><time>2026-04-24T15:52:34Z</time></trkpt><trkpt lat="36.951439285264094" lon="15.149611263678178"><ele>289.0</ele><time>2026-04-24T15:52:35Z</time></trkpt><trkpt lat="36.95143301880663" lon="15.14948155547133"><ele>290.0</ele><time>2026-04-24T15:52:36Z</time></trkpt><trkpt lat="36.95147317556667" lon="15.149363448602607"><ele>291.0</ele><time>2026-04-24T15:52:37Z</time></trkpt><trkpt lat="36.951546991384134" lon="15.149250364595323"><ele>292.0</ele><time>2026-04-24T15:52:38Z</time></trkpt><trkpt lat="36.95161381445126" lon="15.14920047648296"><ele>293.0</ele><time>2026-04-24T15:52:39Z</time></trkpt><trkpt lat="36.95168773936214" lon="15.149135091197035"><ele>298.4</ele><time>2026-04-24T15:52:40Z</time></trkpt><trkpt lat="36.9517856573409" lon="15.149153516348528"><ele>303.8</ele><time>2026-04-24T15:52:41Z</time></trkpt><trkpt lat="36.95187172808558" lon="15.149177639160067"><ele>309.2</ele><time>2026-04-24T15:52:42Z</time></trkpt><trkpt lat="36.951968755693706" lon="15.149202971486556"><ele>314.6</ele><time>2026-04-24T15:52:43Z</time></trkpt><trkpt lat="36.95206283850102" lon="15.149229655537372"><ele>320.0</ele><time>2026-04-24T15:52:44Z</time></trkpt><trkpt lat="36.95217369896922" lon="15.149247315468333"><ele>320.0</ele><time>2026-04-24T15:52:45Z</time></trkpt><trkpt lat="36.95228441586412" lon="15.149261432384968"><ele>320.0</ele><time>2026-04-24T15:52:46Z</time></trkpt><trkpt lat="36.9523827057865" lon="15.149259389089295"><ele>320.0</ele><time>2026-04-24T15:52:47Z</time></trkpt><trkpt lat="36.95246060590765" lon="15.149263220688757"><ele>320.0</ele><time>2026-04-24T15:52:48Z</time></trkpt><trkpt lat="36.952530583554505" lon="15.149266283485664"><ele>320.0</ele><time>2026-04-24T15:52:49Z</time></trkpt><trkpt lat="36.952605897495545" lon="15.149292845031617"><ele>320.0</ele><time>2026-04-24T15:52:50Z</time></trkpt><trkpt lat="36.95271645456488" lon="15.149308855347766"><ele>323.2</ele><time>2026-04-24T15:52:51Z</time></trkpt><trkpt lat="36.95282126780882" lon="15.149305117246476"><ele>326.4</ele><time>2026-04-24T15:52:52Z</time></trkpt><trkpt lat="36.952900160929545" lon="15.149341429810208"><ele>329.6</ele><time>2026-04-24T15:52:53Z</time></trkpt><trkpt lat="36.95297810787629" lon="15.14936149583115"><ele>332.8</ele><time>2026-04-24T15:52:54Z</time></trkpt><trkpt lat="36.95307057259689" lon="15.149375967688323"><ele>336.0</ele><time>2026-04-24T15:52:55Z</time></trkpt><trkpt lat="36.95317206097157" lon="15.149357787353242"><ele>336.0</ele><time>2026-04-24T15:52:57Z</time></trkpt><trkpt lat="36.95324651682163" lon="15.149347199664017"><ele>336.0</ele><time>2026-04-24T15:52:59Z</time></trkpt><trkpt lat="36.9533200787952" lon="15.14932565873164"><ele>336.0</ele><time>2026-04-24T15:53:02Z</time></trkpt><trkpt lat="36.953421405023555" lon="15.149475188002835"><ele>336.0</ele><time>2026-04-24T15:53:07Z</time></trkpt><trkpt lat="36.95348156393891" lon="15.14949997800656"><ele>336.0</ele><time>2026-04-24T15:53:10Z</time></trkpt><trkpt lat="36.95355280330613" lon="15.149522257860111"><ele>336.0</ele><time>2026-04-24T15:53:14Z</time></trkpt><trkpt lat="36.95361744017231" lon="15.149572887749711"><ele>339.3333333333333</ele><time>2026-04-24T15:53:19.999Z</time></trkpt><trkpt lat="36.95368590927936" lon="15.14959384671035"><ele>342.6666666666667</ele><time>2026-04-24T15:53:29Z</time></trkpt><trkpt lat="36.95374527169887" lon="15.149664664653836"><ele>346.0</ele><time>2026-04-24T15:53:34Z</time></trkpt><trkpt lat="36.95380392848555" lon="15.149710986454265"><ele>349.33333333333337</ele><time>2026-04-24T15:53:39Z</time></trkpt><trkpt lat="36.95387714470929" lon="15.149697617237564"><ele>352.6666666666667</ele><time>2026-04-24T15:53:45Z</time></trkpt><trkpt lat="36.95394672794826" lon="15.149703105236906"><ele>356.0</ele><time>2026-04-24T15:53:52Z</time></trkpt><trkpt lat="36.9540332828243" lon="15.14967404786111"><ele>356.0</ele><time>2026-04-24T15:53:56Z</time></trkpt><trkpt lat="36.95410068003802" lon="15.14962714373544"><ele>356.0</ele><time>2026-04-24T15:54:00Z</time></trkpt><trkpt lat="36.95415246756546" lon="15.149534697507661"><ele>356.0</ele><time>2026-04-24T15:54:02Z</time></trkpt><trkpt lat="36.9540986968777" lon="15.149492411993148"><ele>356.0</ele><time>2026-04-24T15:54:03Z</time></trkpt><trkpt lat="36.95407454160509" lon="15.149419006349422"><ele>356.0</ele><time>2026-04-24T15:54:05Z</time></trkpt><trkpt lat="36.95407559706617" lon="15.149318092559337"><ele>356.0</ele><time>2026-04-24T15:54:07Z</time></trkpt><trkpt lat="36.954001684164055" lon="15.149210756881361"><ele>356.0</ele><time>2026-04-24T15:54:09Z</time></trkpt><trkpt lat="36.95393072555464" lon="15.149107907035456"><ele>356.0</ele><time>2026-04-24T15:54:11Z</time></trkpt><trkpt lat="36.95387289038949" lon="15.149063328091145"><ele>356.0</ele><time>2026-04-24T15:54:12Z</time></trkpt><trkpt lat="36.95382753971053" lon="15.149000669049684"><ele>356.0</ele><time>2026-04-24T15:54:13Z</time></trkpt><trkpt lat="36.95373179042914" lon="15.148886233280397"><ele>356.0</ele><time>2026-04-24T15:54:15Z</time></trkpt><trkpt lat="36.95367087899009" lon="15.148845189356667"><ele>356.0</ele><time>2026-04-24T15:54:16Z</time></trkpt><trkpt lat="36.953608966484666" lon="15.14879618017954"><ele>357.20000000000005</ele><time>2026-04-24T15:54:17Z</time></trkpt><trkpt lat="36.95355771302214" lon="15.14873324176374"><ele>358.40000000000003</ele><time>2026-04-24T15:54:18Z</time></trkpt><trkpt lat="36.95349360329228" lon="15.148639808650602"><ele>359.6</ele><time>2026-04-24T15:54:19Z</time></trkpt><trkpt lat="36.953434407568274" lon="15.148510858290553"><ele>360.8</ele><time>2026-04-24T15:54:20Z</time></trkpt><trkpt lat="36.95339554894822" lon="15.14841871155525"><ele>362.0</ele><time>2026-04-24T15:54:21Z</time></trkpt><trkpt lat="36.953409129983605" lon="15.148283422789712"><ele>362.0</ele><time>2026-04-24T15:54:23Z</time></trkpt><trkpt lat="36.95351215146857" lon="15.148214377292817"><ele>362.0</ele><time>2026-04-24T15:54:24Z</time></trkpt><trkpt lat="36.953597374012354" lon="15.148117440358734"><ele>362.0</ele><time>2026-04-24T15:54:25Z</time></trkpt><trkpt lat="36.953690991308946" lon="15.148012164904236"><ele>362.0</ele><time>2026-04-24T15:54:26Z</time></trkpt><trkpt lat="36.953750285281714" lon="15.147885247660158"><ele>361.5</ele><time>2026-04-24T15:54:27Z</time></trkpt><trkpt lat="36.95377365118994" lon="15.147761176510086"><ele>361.0</ele><time>2026-04-24T15:54:28Z</time></trkpt><trkpt lat="36.95376077006314" lon="15.147627252721536"><ele>360.5</ele><time>2026-04-24T15:54:29Z</time></trkpt><trkpt lat="36.95372358059684" lon="15.147492059015313"><ele>360.0</ele><time>2026-04-24T15:54:30Z</time></trkpt><trkpt lat="36.953679457614" lon="15.147332670940118"><ele>360.0</ele><time>2026-04-24T15:54:31Z</time></trkpt><trkpt lat="36.9536561311864" lon="15.147164730132287"><ele>360.0</ele><time>2026-04-24T15:54:32Z</time></trkpt><trkpt lat="36.95363728878082" lon="15.147033864598962"><ele>360.0</ele><time>2026-04-24T15:54:33Z</time></trkpt><trkpt lat="36.95364363393554" lon="15.146923524625555"><ele>360.0</ele><time>2026-04-24T15:54:34Z</time></trkpt><trkpt lat="36.95367965578191" lon="15.146799078497713"><ele>360.0</ele><time>2026-04-24T15:54:35Z</time></trkpt><trkpt lat="36.95375377376422" lon="15.146679083743786"><ele>360.0</ele><time>2026-04-24T15:54:36Z</time></trkpt><trkpt lat="36.95381180761786" lon="15.146556433550888"><ele>360.0</ele><time>2026-04-24T15:54:37Z</time></trkpt><trkpt lat="36.95386714359716" lon="15.146429284251077"><ele>360.0</ele><time>2026-04-24T15:54:38Z</time></trkpt><trkpt lat="36.95392917388799" lon="15.146296922239523"><ele>360.0</ele><time>2026-04-24T15:54:39Z</time></trkpt><trkpt lat="36.953964402847795" lon="15.146132911314217"><ele>360.5</ele><time>2026-04-24T15:54:40Z</time></trkpt><trkpt lat="36.95399440416316" lon="15.145958980003252"><ele>361.0</ele><time>2026-04-24T15:54:41Z</time></trkpt><trkpt lat="36.95403842281911" lon="15.145824435682014"><ele>361.5</ele><time>2026-04-24T15:54:42Z</time></trkpt><trkpt lat="36.954081378535605" lon="15.14568757910883"><ele>362.0</ele><time>2026-04-24T15:54:43Z</time></trkpt><trkpt lat="36.954138283793895" lon="15.145593205169654"><ele>365.75</ele><time>2026-04-24T15:54:44Z</time></trkpt><trkpt lat="36.95421416289743" lon="15.145523805257914"><ele>369.5</ele><time>2026-04-24T15:54:45Z</time></trkpt><trkpt lat="36.95431443149049" lon="15.145464165152044"><ele>373.25</ele><time>2026-04-24T15:54:46Z</time></trkpt><trkpt lat="36.95443356214554" lon="15.145415339683986"><ele>377.0</ele><time>2026-04-24T15:54:47Z</time></trkpt><trkpt lat="36.954556532079174" lon="15.145356413538115"><ele>377.0</ele><time>2026-04-24T15:54:48Z</time></trkpt><trkpt lat="36.95468672565536" lon="15.14528593965898"><ele>377.0</ele><time>2026-04-24T15:54:49Z</time></trkpt><trkpt lat="36.95481995004381" lon="15.145206787436855"><ele>377.0</ele><time>2026-04-24T15:54:50Z</time></trkpt><trkpt lat="36.95493744205125" lon="15.145139564813809"><ele>377.0</ele><time>2026-04-24T15:54:51Z</time></trkpt><trkpt lat="36.95504075331131" lon="15.14507958065425"><ele>378.0</ele><time>2026-04-24T15:54:52Z</time></trkpt><trkpt lat="36.95513909929695" lon="15.145009444154898"><ele>379.0</ele><time>2026-04-24T15:54:53Z</time></trkpt><trkpt lat="36.95522791908572" lon="15.144909450808775"><ele>380.0</ele><time>2026-04-24T15:54:54Z</time></trkpt><trkpt lat="36.955305073249825" lon="15.144786435027793"><ele>381.0</ele><time>2026-04-24T15:54:55Z</time></trkpt><trkpt lat="36.95538009347014" lon="15.144654865931455"><ele>381.0</ele><time>2026-04-24T15:54:56Z</time></trkpt><trkpt lat="36.95544768513557" lon="15.144520867417851"><ele>381.0</ele><time>2026-04-24T15:54:57Z</time></trkpt><trkpt lat="36.95549799759652" lon="15.14440398654925"><ele>381.0</ele><time>2026-04-24T15:54:58Z</time></trkpt><trkpt lat="36.95556021517733" lon="15.144284488471726"><ele>381.0</ele><time>2026-04-24T15:54:59Z</time></trkpt><trkpt lat="36.95560303643819" lon="15.14416481344914"><ele>381.0</ele><time>2026-04-24T15:55:00Z</time></trkpt><trkpt lat="36.955622925709335" lon="15.144063263114328"><ele>381.0</ele><time>2026-04-24T15:55:01Z</time></trkpt><trkpt lat="36.95564581684107" lon="15.143980369471636"><ele>381.0</ele><time>2026-04-24T15:55:02Z</time></trkpt><trkpt lat="36.9556464073934" lon="15.143827939330883"><ele>381.0</ele><time>2026-04-24T15:55:04Z</time></trkpt><trkpt lat="36.95552675465959" lon="15.143463208288413"><ele>382.20000000000005</ele><time>2026-04-24T15:55:06Z</time></trkpt><trkpt lat="36.95556621905525" lon="15.143368332687178"><ele>383.40000000000003</ele><time>2026-04-24T15:55:06.999Z</time></trkpt><trkpt lat="36.95559724007224" lon="15.143293755016193"><ele>384.6</ele><time>2026-04-24T15:55:07.999Z</time></trkpt><trkpt lat="36.955650854321966" lon="15.143145536990245"><ele>385.8</ele><time>2026-04-24T15:55:09.999Z</time></trkpt><trkpt lat="36.9556887303876" lon="15.143041982640414"><ele>387.0</ele><time>2026-04-24T15:55:10.999Z</time></trkpt><trkpt lat="36.95573351598461" lon="15.142931209728912"><ele>387.6</ele><time>2026-04-24T15:55:11.999Z</time></trkpt><trkpt lat="36.955816673397045" lon="15.142783322664812"><ele>388.20000000000005</ele><time>2026-04-24T15:55:12.999Z</time></trkpt><trkpt lat="36.9558693293969" lon="15.142706851492552"><ele>388.8</ele><time>2026-04-24T15:55:13.999Z</time></trkpt><trkpt lat="36.95594262473494" lon="15.1426109385674"><ele>389.4</ele><time>2026-04-24T15:55:14.999Z</time></trkpt><trkpt lat="36.95600853351743" lon="15.14253793269986"><ele>390.0</ele><time>2026-04-24T15:55:15.999Z</time></trkpt><trkpt lat="36.956127270563826" lon="15.142437901164461"><ele>391.6</ele><time>2026-04-24T15:55:16.999Z</time></trkpt><trkpt lat="36.95625105247817" lon="15.142414611515179"><ele>393.2</ele><time>2026-04-24T15:55:17.999Z</time></trkpt><trkpt lat="36.95634854222954" lon="15.142429281213705"><ele>394.79999999999995</ele><time>2026-04-24T15:55:19.999Z</time></trkpt><trkpt lat="36.95640527632032" lon="15.14235074498065"><ele>396.4</ele><time>2026-04-24T15:55:20.999Z</time></trkpt><trkpt lat="36.9564847498865" lon="15.14224830850387"><ele>398.0</ele><time>2026-04-24T15:55:22.999Z</time></trkpt><trkpt lat="36.95654183762895" lon="15.142082346501475"><ele>398.5</ele><time>2026-04-24T15:55:24.999Z</time></trkpt><trkpt lat="36.95659618663744" lon="15.141937029510732"><ele>399.0</ele><time>2026-04-24T15:55:25.999Z</time></trkpt><trkpt lat="36.956657052614645" lon="15.141796631891795"><ele>399.5</ele><time>2026-04-24T15:55:26.999Z</time></trkpt><trkpt lat="36.95671068214997" lon="15.141682966405464"><ele>400.0</ele><time>2026-04-24T15:55:27.999Z</time></trkpt><trkpt lat="36.956766551871794" lon="15.141526022487914"><ele>398.5</ele><time>2026-04-24T15:55:28.999Z</time></trkpt><trkpt lat="36.95683152581977" lon="15.141407745333334"><ele>397.0</ele><time>2026-04-24T15:55:30Z</time></trkpt><trkpt lat="36.9568885081005" lon="15.141274387899054"><ele>395.5</ele><time>2026-04-24T15:55:31Z</time></trkpt><trkpt lat="36.95694256190555" lon="15.141121864306697"><ele>394.0</ele><time>2026-04-24T15:55:32Z</time></trkpt><trkpt lat="36.95699834951141" lon="15.140964912351357"><ele>394.0</ele><time>2026-04-24T15:55:33Z</time></trkpt><trkpt lat="36.95705755464451" lon="15.14081196105957"><ele>394.0</ele><time>2026-04-24T15:55:34Z</time></trkpt><trkpt lat="36.957122604542015" lon="15.14064524546886"><ele>394.0</ele><time>2026-04-24T15:55:35Z</time></trkpt><trkpt lat="36.957191210351645" lon="15.140483855457939"><ele>394.0</ele><time>2026-04-24T15:55:36Z</time></trkpt><trkpt lat="36.95725059196378" lon="15.140328730700055"><ele>393.5</ele><time>2026-04-24T15:55:37Z</time></trkpt><trkpt lat="36.95733829171321" lon="15.140191287071097"><ele>393.0</ele><time>2026-04-24T15:55:38Z</time></trkpt><trkpt lat="36.957422222201025" lon="15.140040212273053"><ele>392.5</ele><time>2026-04-24T15:55:39Z</time></trkpt><trkpt lat="36.95749738754012" lon="15.139872489384649"><ele>392.0</ele><time>2026-04-24T15:55:40Z</time></trkpt><trkpt lat="36.95757022481083" lon="15.139717324357948"><ele>392.0</ele><time>2026-04-24T15:55:41Z</time></trkpt><trkpt lat="36.957633320861305" lon="15.139553991623243"><ele>392.0</ele><time>2026-04-24T15:55:42Z</time></trkpt><trkpt lat="36.95769877112386" lon="15.139374727438842"><ele>392.0</ele><time>2026-04-24T15:55:43Z</time></trkpt><trkpt lat="36.957768942276395" lon="15.139202509930495"><ele>392.0</ele><time>2026-04-24T15:55:44Z</time></trkpt><trkpt lat="36.95783176054203" lon="15.139051509914632"><ele>392.0</ele><time>2026-04-24T15:55:45Z</time></trkpt><trkpt lat="36.957880049053195" lon="15.138899097314551"><ele>392.0</ele><time>2026-04-24T15:55:46Z</time></trkpt><trkpt lat="36.9579185827028" lon="15.138785307975052"><ele>392.0</ele><time>2026-04-24T15:55:47Z</time></trkpt><trkpt lat="36.95795823439525" lon="15.138688078453384"><ele>393.0</ele><time>2026-04-24T15:55:48Z</time></trkpt><trkpt lat="36.95799443114359" lon="15.138588114085936"><ele>394.0</ele><time>2026-04-24T15:55:49Z</time></trkpt><trkpt lat="36.958052503949524" lon="15.1384453967233"><ele>395.0</ele><time>2026-04-24T15:55:50Z</time></trkpt><trkpt lat="36.95810285931576" lon="15.138294024362976"><ele>396.0</ele><time>2026-04-24T15:55:51Z</time></trkpt><trkpt lat="36.95816992693975" lon="15.13814407305317"><ele>397.66666666666663</ele><time>2026-04-24T15:55:52Z</time></trkpt><trkpt lat="36.958233401515145" lon="15.137971758741129"><ele>399.3333333333333</ele><time>2026-04-24T15:55:53Z</time></trkpt><trkpt lat="36.9583133893765" lon="15.137793779027865"><ele>401.0</ele><time>2026-04-24T15:55:54Z</time></trkpt><trkpt lat="36.95838203007103" lon="15.137628347390093"><ele>401.66666666666663</ele><time>2026-04-24T15:55:55Z</time></trkpt><trkpt lat="36.958439767491456" lon="15.137465726309303"><ele>402.33333333333337</ele><time>2026-04-24T15:55:56Z</time></trkpt><trkpt lat="36.958502047023906" lon="15.137296388235715"><ele>403.0</ele><time>2026-04-24T15:55:57Z</time></trkpt><trkpt lat="36.95859617137363" lon="15.13710449192203"><ele>404.0</ele><time>2026-04-24T15:55:58Z</time></trkpt><trkpt lat="36.95867248232436" lon="15.13689220094217"><ele>405.0</ele><time>2026-04-24T15:55:59Z</time></trkpt><trkpt lat="36.958743240914245" lon="15.136718231565283"><ele>406.0</ele><time>2026-04-24T15:56:00Z</time></trkpt><trkpt lat="36.95880989862525" lon="15.136545259721633"><ele>408.33333333333337</ele><time>2026-04-24T15:56:01Z</time></trkpt><trkpt lat="36.95888661965433" lon="15.136357890621323"><ele>410.66666666666663</ele><time>2026-04-24T15:56:02Z</time></trkpt><trkpt lat="36.95896231369524" lon="15.136164946240802"><ele>413.0</ele><time>2026-04-24T15:56:03Z</time></trkpt><trkpt lat="36.959033488428474" lon="15.135966624051237"><ele>413.0</ele><time>2026-04-24T15:56:04Z</time></trkpt><trkpt lat="36.95910781876436" lon="15.135787296213424"><ele>413.0</ele><time>2026-04-24T15:56:05Z</time></trkpt><trkpt lat="36.95918049505884" lon="15.13563804490918"><ele>413.0</ele><time>2026-04-24T15:56:06Z</time></trkpt><trkpt lat="36.95924209023851" lon="15.135512525530084"><ele>413.0</ele><time>2026-04-24T15:56:07Z</time></trkpt><trkpt lat="36.95927600565925" lon="15.135392012922795"><ele>402.25</ele><time>2026-04-24T15:56:08Z</time></trkpt><trkpt lat="36.95927204087867" lon="15.135238363402337"><ele>391.5</ele><time>2026-04-24T15:56:09Z</time></trkpt><trkpt lat="36.959248851365615" lon="15.13506931934019"><ele>380.75</ele><time>2026-04-24T15:56:10Z</time></trkpt><trkpt lat="36.959229946732535" lon="15.134890656389187"><ele>370.0</ele><time>2026-04-24T15:56:11Z</time></trkpt><trkpt lat="36.95920288010081" lon="15.134711507607634"><ele>383.75</ele><time>2026-04-24T15:56:12Z</time></trkpt><trkpt lat="36.9591715012765" lon="15.134552436757163"><ele>397.5</ele><time>2026-04-24T15:56:13Z</time></trkpt><trkpt lat="36.95913686812883" lon="15.134408320118945"><ele>411.25</ele><time>2026-04-24T15:56:14Z</time></trkpt><trkpt lat="36.9591444360143" lon="15.13427415815532"><ele>425.0</ele><time>2026-04-24T15:56:15Z</time></trkpt><trkpt lat="36.95919183596665" lon="15.13412862896677"><ele>418.66666666666663</ele><time>2026-04-24T15:56:16Z</time></trkpt><trkpt lat="36.95925598050942" lon="15.133976867348075"><ele>412.33333333333337</ele><time>2026-04-24T15:56:17Z</time></trkpt><trkpt lat="36.95932833347382" lon="15.133805118955447"><ele>406.0</ele><time>2026-04-24T15:56:18Z</time></trkpt><trkpt lat="36.95938673545372" lon="15.133605801888175"><ele>406.0</ele><time>2026-04-24T15:56:19Z</time></trkpt><trkpt lat="36.95946188204996" lon="15.133363133455887"><ele>406.0</ele><time>2026-04-24T15:56:20Z</time></trkpt><trkpt lat="36.95952248643191" lon="15.133163930025354"><ele>406.0</ele><time>2026-04-24T15:56:21Z</time></trkpt><trkpt lat="36.95960715004026" lon="15.132994411614753"><ele>412.25</ele><time>2026-04-24T15:56:22Z</time></trkpt><trkpt lat="36.95967418049161" lon="15.13281885011348"><ele>418.5</ele><time>2026-04-24T15:56:23Z</time></trkpt><trkpt lat="36.959710851817405" lon="15.132668702821906"><ele>424.75</ele><time>2026-04-24T15:56:24Z</time></trkpt><trkpt lat="36.959728699217585" lon="15.132489098396471"><ele>431.0</ele><time>2026-04-24T15:56:25Z</time></trkpt><trkpt lat="36.95972706879264" lon="15.132293305216255"><ele>433.5</ele><time>2026-04-24T15:56:26Z</time></trkpt><trkpt lat="36.95972675786181" lon="15.132107895183797"><ele>436.0</ele><time>2026-04-24T15:56:27Z</time></trkpt><trkpt lat="36.95972414541347" lon="15.131952537038451"><ele>438.5</ele><time>2026-04-24T15:56:28Z</time></trkpt><trkpt lat="36.95971690959269" lon="15.131759482336605"><ele>441.0</ele><time>2026-04-24T15:56:29Z</time></trkpt><trkpt lat="36.95971416940381" lon="15.1316169614098"><ele>440.5</ele><time>2026-04-24T15:56:30Z</time></trkpt><trkpt lat="36.95974928853957" lon="15.13124348443874"><ele>440.0</ele><time>2026-04-24T15:56:31Z</time></trkpt><trkpt lat="36.9597838612652" lon="15.13104999985139"><ele>440.0</ele><time>2026-04-24T15:56:32Z</time></trkpt><trkpt lat="36.95982583736177" lon="15.13087611727228"><ele>440.0</ele><time>2026-04-24T15:56:33Z</time></trkpt><trkpt lat="36.95989484353828" lon="15.130708726626086"><ele>440.0</ele><time>2026-04-24T15:56:34Z</time></trkpt><trkpt lat="36.95993724836485" lon="15.130522697830873"><ele>439.0</ele><time>2026-04-24T15:56:35Z</time></trkpt><trkpt lat="36.96001562662602" lon="15.13032379347015"><ele>438.0</ele><time>2026-04-24T15:56:36Z</time></trkpt><trkpt lat="36.96009679029578" lon="15.130144077188719"><ele>437.0</ele><time>2026-04-24T15:56:37Z</time></trkpt><trkpt lat="36.960163044230114" lon="15.129979934418229"><ele>433.75</ele><time>2026-04-24T15:56:38Z</time></trkpt><trkpt lat="36.96022453161785" lon="15.129831656079855"><ele>430.5</ele><time>2026-04-24T15:56:39Z</time></trkpt><trkpt lat="36.96027481634861" lon="15.1296749651537"><ele>427.25</ele><time>2026-04-24T15:56:40Z</time></trkpt><trkpt lat="36.96034034354224" lon="15.129493605794503"><ele>424.0</ele><time>2026-04-24T15:56:41Z</time></trkpt><trkpt lat="36.960409909893315" lon="15.129325170052882"><ele>424.0</ele><time>2026-04-24T15:56:42Z</time></trkpt><trkpt lat="36.960480865324804" lon="15.129145461031968"><ele>424.0</ele><time>2026-04-24T15:56:43Z</time></trkpt><trkpt lat="36.960535755031295" lon="15.128983716695934"><ele>424.0</ele><time>2026-04-24T15:56:44Z</time></trkpt><trkpt lat="36.96057353994131" lon="15.12884744403076"><ele>424.0</ele><time>2026-04-24T15:56:45Z</time></trkpt><trkpt lat="36.96060664979431" lon="15.128722013360226"><ele>427.6</ele><time>2026-04-24T15:56:46Z</time></trkpt><trkpt lat="36.96063300763483" lon="15.128598487467771"><ele>431.2</ele><time>2026-04-24T15:56:47Z</time></trkpt><trkpt lat="36.960675941582295" lon="15.128473772126705"><ele>434.80000000000007</ele><time>2026-04-24T15:56:48Z</time></trkpt><trkpt lat="36.960720389016366" lon="15.12834639486316"><ele>438.40000000000003</ele><time>2026-04-24T15:56:49Z</time></trkpt><trkpt lat="36.96078495428418" lon="15.128233318580325"><ele>442.0</ele><time>2026-04-24T15:56:50Z</time></trkpt><trkpt lat="36.96083597489909" lon="15.128110556013766"><ele>428.0</ele><time>2026-04-24T15:56:51Z</time></trkpt><trkpt lat="36.96088027541775" lon="15.127975411064705"><ele>414.0</ele><time>2026-04-24T15:56:52Z</time></trkpt><trkpt lat="36.960934531084185" lon="15.127828965959052"><ele>400.0</ele><time>2026-04-24T15:56:53Z</time></trkpt><trkpt lat="36.96095264778106" lon="15.127675079638275"><ele>386.0</ele><time>2026-04-24T15:56:54Z</time></trkpt><trkpt lat="36.96097385550009" lon="15.127511974324857"><ele>395.0</ele><time>2026-04-24T15:56:54.999Z</time></trkpt><trkpt lat="36.96099070331321" lon="15.127355056795674"><ele>404.0</ele><time>2026-04-24T15:56:55.999Z</time></trkpt><trkpt lat="36.961025085304016" lon="15.12721602963472"><ele>413.0</ele><time>2026-04-24T15:56:56.999Z</time></trkpt><trkpt lat="36.961084941545664" lon="15.127102733045191"><ele>422.0</ele><time>2026-04-24T15:56:57.999Z</time></trkpt><trkpt lat="36.961147334064826" lon="15.126956218727573"><ele>422.0</ele><time>2026-04-24T15:56:58.999Z</time></trkpt><trkpt lat="36.96123098434145" lon="15.126744069561509"><ele>422.0</ele><time>2026-04-24T15:56:59.999Z</time></trkpt><trkpt lat="36.96124106908543" lon="15.126619497076852"><ele>422.0</ele><time>2026-04-24T15:57:00.999Z</time></trkpt><trkpt lat="36.96127835091246" lon="15.126452101226487"><ele>422.0</ele><time>2026-04-24T15:57:01.999Z</time></trkpt><trkpt lat="36.96133632044185" lon="15.126353358229066"><ele>427.5</ele><time>2026-04-24T15:57:02.999Z</time></trkpt><trkpt lat="36.96141649763875" lon="15.126215103843359"><ele>433.0</ele><time>2026-04-24T15:57:03.999Z</time></trkpt><trkpt lat="36.961492857370224" lon="15.126061748041815"><ele>438.5</ele><time>2026-04-24T15:57:04.999Z</time></trkpt><trkpt lat="36.96156711554904" lon="15.125966717343662"><ele>444.0</ele><time>2026-04-24T15:57:05.999Z</time></trkpt><trkpt lat="36.961633740834756" lon="15.125906857376734"><ele>444.0</ele><time>2026-04-24T15:57:06.999Z</time></trkpt><trkpt lat="36.961667150946006" lon="15.125809382420883"><ele>444.0</ele><time>2026-04-24T15:57:07.999Z</time></trkpt><trkpt lat="36.9617167043586" lon="15.125703219167928"><ele>444.0</ele><time>2026-04-24T15:57:08.999Z</time></trkpt><trkpt lat="36.961764479892864" lon="15.125560484416026"><ele>444.0</ele><time>2026-04-24T15:57:09.999Z</time></trkpt><trkpt lat="36.96183234188753" lon="15.125394558530624"><ele>429.66666666666663</ele><time>2026-04-24T15:57:10.999Z</time></trkpt><trkpt lat="36.96191594262378" lon="15.125228611199871"><ele>415.3333333333333</ele><time>2026-04-24T15:57:11.999Z</time></trkpt><trkpt lat="36.9619926183421" lon="15.125062463540617"><ele>401.0</ele><time>2026-04-24T15:57:12.999Z</time></trkpt><trkpt lat="36.96206856600626" lon="15.124909191259462"><ele>413.0</ele><time>2026-04-24T15:57:13.999Z</time></trkpt><trkpt lat="36.962139939959876" lon="15.124727804368522"><ele>425.0</ele><time>2026-04-24T15:57:14.999Z</time></trkpt><trkpt lat="36.96219776031696" lon="15.124530924452241"><ele>437.0</ele><time>2026-04-24T15:57:15.999Z</time></trkpt><trkpt lat="36.96226705281104" lon="15.12435077034139"><ele>437.0</ele><time>2026-04-24T15:57:16.999Z</time></trkpt><trkpt lat="36.96235980459829" lon="15.124229814135715"><ele>437.0</ele><time>2026-04-24T15:57:17.999Z</time></trkpt><trkpt lat="36.962423355618164" lon="15.124107945547296"><ele>437.0</ele><time>2026-04-24T15:57:18.999Z</time></trkpt><trkpt lat="36.962385920217244" lon="15.123914394797286"><ele>437.0</ele><time>2026-04-24T15:57:19.999Z</time></trkpt><trkpt lat="36.96241913223543" lon="15.123765169031739"><ele>441.66666666666663</ele><time>2026-04-24T15:57:20.999Z</time></trkpt><trkpt lat="36.9624808347448" lon="15.12358154615135"><ele>446.33333333333337</ele><time>2026-04-24T15:57:21.999Z</time></trkpt><trkpt lat="36.9625024052032" lon="15.123374542934465"><ele>451.0</ele><time>2026-04-24T15:57:22.999Z</time></trkpt><trkpt lat="36.962499268881295" lon="15.123208389517835"><ele>452.0</ele><time>2026-04-24T15:57:23.999Z</time></trkpt><trkpt lat="36.9624893463798" lon="15.123026850011447"><ele>453.0</ele><time>2026-04-24T15:57:24.999Z</time></trkpt><trkpt lat="36.96276548794363" lon="15.123118822388692"><ele>454.0</ele><time>2026-04-24T15:57:25.999Z</time></trkpt><trkpt lat="36.96287967671871" lon="15.12302266983847"><ele>447.0</ele><time>2026-04-24T15:57:26.999Z</time></trkpt><trkpt lat="36.9630051760143" lon="15.12292089332118"><ele>440.0</ele><time>2026-04-24T15:57:27.999Z</time></trkpt><trkpt lat="36.96309820860219" lon="15.122813978913308"><ele>433.0</ele><time>2026-04-24T15:57:28.999Z</time></trkpt><trkpt lat="36.96315845324175" lon="15.122701333640476"><ele>426.0</ele><time>2026-04-24T15:57:29.999Z</time></trkpt><trkpt lat="36.963206591046" lon="15.122571067397164"><ele>426.0</ele><time>2026-04-24T15:57:30.999Z</time></trkpt><trkpt lat="36.96323980151213" lon="15.122403619849717"><ele>426.0</ele><time>2026-04-24T15:57:31.999Z</time></trkpt><trkpt lat="36.96327014747356" lon="15.12221121859687"><ele>426.0</ele><time>2026-04-24T15:57:32.999Z</time></trkpt><trkpt lat="36.96329596643972" lon="15.12200204837478"><ele>431.0</ele><time>2026-04-24T15:57:33.999Z</time></trkpt><trkpt lat="36.9633209396399" lon="15.121823009476545"><ele>436.0</ele><time>2026-04-24T15:57:34.999Z</time></trkpt><trkpt lat="36.963327876885145" lon="15.121665820719802"><ele>441.0</ele><time>2026-04-24T15:57:36Z</time></trkpt><trkpt lat="36.9633392468569" lon="15.121526338189659"><ele>446.0</ele><time>2026-04-24T15:57:37Z</time></trkpt><trkpt lat="36.96334310939531" lon="15.121387253003382"><ele>446.0</ele><time>2026-04-24T15:57:38Z</time></trkpt><trkpt lat="36.96332873916886" lon="15.12125762878831"><ele>446.0</ele><time>2026-04-24T15:57:39Z</time></trkpt><trkpt lat="36.96329235765153" lon="15.12112973122752"><ele>446.0</ele><time>2026-04-24T15:57:40Z</time></trkpt><trkpt lat="36.96325511759487" lon="15.121001676973567"><ele>446.0</ele><time>2026-04-24T15:57:41Z</time></trkpt><trkpt lat="36.96322562278243" lon="15.120872037087393"><ele>446.0</ele><time>2026-04-24T15:57:42Z</time></trkpt><trkpt lat="36.963192409795965" lon="15.12073151806278"><ele>444.20000000000005</ele><time>2026-04-24T15:57:43Z</time></trkpt><trkpt lat="36.96316742410249" lon="15.120585218331723"><ele>442.40000000000003</ele><time>2026-04-24T15:57:44Z</time></trkpt><trkpt lat="36.96314114418234" lon="15.120461334044125"><ele>440.6</ele><time>2026-04-24T15:57:45Z</time></trkpt><trkpt lat="36.96311414596461" lon="15.120344007641576"><ele>438.8</ele><time>2026-04-24T15:57:46Z</time></trkpt><trkpt lat="36.96308602256222" lon="15.120232996935659"><ele>437.0</ele><time>2026-04-24T15:57:47Z</time></trkpt><trkpt lat="36.963070542027445" lon="15.120106056159267"><ele>437.0</ele><time>2026-04-24T15:57:48Z</time></trkpt><trkpt lat="36.963039021734275" lon="15.120005615945166"><ele>437.00000000000006</ele><time>2026-04-24T15:57:49Z</time></trkpt><trkpt lat="36.96298584904413" lon="15.11990068047468"><ele>437.00000000000006</ele><time>2026-04-24T15:57:50Z</time></trkpt><trkpt lat="36.962914448185174" lon="15.119794300382226"><ele>437.0</ele><time>2026-04-24T15:57:51Z</time></trkpt><trkpt lat="36.96282059302792" lon="15.11969196196648"><ele>437.0</ele><time>2026-04-24T15:57:52Z</time></trkpt><trkpt lat="36.962730693546796" lon="15.119533878825326"><ele>436.25</ele><time>2026-04-24T15:57:53Z</time></trkpt><trkpt lat="36.96262195681638" lon="15.119373221380888"><ele>435.5</ele><time>2026-04-24T15:57:54Z</time></trkpt><trkpt lat="36.96252783399668" lon="15.119220231235962"><ele>434.75</ele><time>2026-04-24T15:57:55Z</time></trkpt><trkpt lat="36.96245926040851" lon="15.119102175565027"><ele>434.0</ele><time>2026-04-24T15:57:56Z</time></trkpt><trkpt lat="36.96241691609451" lon="15.118990262241601"><ele>438.0</ele><time>2026-04-24T15:57:57Z</time></trkpt><trkpt lat="36.9623829514916" lon="15.118898001558149"><ele>442.0</ele><time>2026-04-24T15:57:58Z</time></trkpt><trkpt lat="36.96242077965045" lon="15.118765195644915"><ele>446.0</ele><time>2026-04-24T15:57:59Z</time></trkpt><trkpt lat="36.962421730790794" lon="15.11860320503618"><ele>450.0</ele><time>2026-04-24T15:58:00Z</time></trkpt><trkpt lat="36.96244815006097" lon="15.118433845985834"><ele>450.0</ele><time>2026-04-24T15:58:01Z</time></trkpt><trkpt lat="36.96246998327821" lon="15.11824709055543"><ele>450.0</ele><time>2026-04-24T15:58:02Z</time></trkpt><trkpt lat="36.96249187212999" lon="15.118041466111793"><ele>450.0</ele><time>2026-04-24T15:58:03Z</time></trkpt><trkpt lat="36.962510433644105" lon="15.1178434697965"><ele>449.0</ele><time>2026-04-24T15:58:04Z</time></trkpt><trkpt lat="36.96251955989418" lon="15.117667403524905"><ele>448.0</ele><time>2026-04-24T15:58:05Z</time></trkpt><trkpt lat="36.96252350840691" lon="15.117491578440285"><ele>447.0</ele><time>2026-04-24T15:58:06Z</time></trkpt><trkpt lat="36.96251471142044" lon="15.117331312353501"><ele>446.0</ele><time>2026-04-24T15:58:07Z</time></trkpt><trkpt lat="36.962497225475985" lon="15.117166101874156"><ele>445.66666666666663</ele><time>2026-04-24T15:58:08Z</time></trkpt><trkpt lat="36.962474983656236" lon="15.116994897199762"><ele>445.33333333333337</ele><time>2026-04-24T15:58:09Z</time></trkpt><trkpt lat="36.96244740807644" lon="15.116762765808947"><ele>445.0</ele><time>2026-04-24T15:58:10Z</time></trkpt><trkpt lat="36.962429919004336" lon="15.116563887765025"><ele>445.8</ele><time>2026-04-24T15:58:11Z</time></trkpt><trkpt lat="36.9624130609469" lon="15.116366732691274"><ele>446.6</ele><time>2026-04-24T15:58:12Z</time></trkpt><trkpt lat="36.96241095183522" lon="15.116244711362118"><ele>447.4</ele><time>2026-04-24T15:58:13Z</time></trkpt><trkpt lat="36.96242325631787" lon="15.11612820458998"><ele>448.2</ele><time>2026-04-24T15:58:14Z</time></trkpt><trkpt lat="36.96243580895866" lon="15.116023303102192"><ele>449.0</ele><time>2026-04-24T15:58:15Z</time></trkpt><trkpt lat="36.962440236072794" lon="15.11592820456073"><ele>449.0</ele><time>2026-04-24T15:58:16Z</time></trkpt><trkpt lat="36.962461791930565" lon="15.115793430759178"><ele>449.0</ele><time>2026-04-24T15:58:17Z</time></trkpt><trkpt lat="36.96249621657261" lon="15.11566704867055"><ele>449.0</ele><time>2026-04-24T15:58:18Z</time></trkpt><trkpt lat="36.96253090269751" lon="15.115531342089863"><ele>449.0</ele><time>2026-04-24T15:58:19Z</time></trkpt><trkpt lat="36.96256745988681" lon="15.11539442240134"><ele>449.0</ele><time>2026-04-24T15:58:20Z</time></trkpt><trkpt lat="36.96260542961444" lon="15.115249850544382"><ele>436.75</ele><time>2026-04-24T15:58:21Z</time></trkpt><trkpt lat="36.96262185897015" lon="15.115114764994827"><ele>424.5</ele><time>2026-04-24T15:58:22Z</time></trkpt><trkpt lat="36.96266376813076" lon="15.114965694699336"><ele>412.25</ele><time>2026-04-24T15:58:23Z</time></trkpt><trkpt lat="36.96271984284741" lon="15.11482664316998"><ele>400.0</ele><time>2026-04-24T15:58:24Z</time></trkpt><trkpt lat="36.9627553689621" lon="15.114710024894777"><ele>400.0</ele><time>2026-04-24T15:58:25Z</time></trkpt><trkpt lat="36.96279536564639" lon="15.114599849376669"><ele>400.0</ele><time>2026-04-24T15:58:26Z</time></trkpt><trkpt lat="36.96284351321159" lon="15.114448687855008"><ele>400.0</ele><time>2026-04-24T15:58:27Z</time></trkpt><trkpt lat="36.962893136495445" lon="15.114276715240381"><ele>400.0</ele><time>2026-04-24T15:58:28Z</time></trkpt><trkpt lat="36.962937891073466" lon="15.114101369122578"><ele>412.33333333333337</ele><time>2026-04-24T15:58:29Z</time></trkpt><trkpt lat="36.96299975722339" lon="15.113911658153654"><ele>424.66666666666663</ele><time>2026-04-24T15:58:30Z</time></trkpt><trkpt lat="36.96304668106074" lon="15.113660493968073"><ele>437.0</ele><time>2026-04-24T15:58:31Z</time></trkpt><trkpt lat="36.96309396908422" lon="15.113438962780812"><ele>437.0</ele><time>2026-04-24T15:58:32Z</time></trkpt><trkpt lat="36.963136721898664" lon="15.113271922811563"><ele>437.0</ele><time>2026-04-24T15:58:33Z</time></trkpt><trkpt lat="36.963178438858975" lon="15.113101740793995"><ele>437.0</ele><time>2026-04-24T15:58:34Z</time></trkpt><trkpt lat="36.963219353646984" lon="15.112943536726057"><ele>437.0</ele><time>2026-04-24T15:58:35Z</time></trkpt><trkpt lat="36.96327339833362" lon="15.112744095094621"><ele>446.0</ele><time>2026-04-24T15:58:36Z</time></trkpt><trkpt lat="36.963325108699806" lon="15.112554475651395"><ele>455.0</ele><time>2026-04-24T15:58:37Z</time></trkpt><trkpt lat="36.96338833369183" lon="15.112362593502489"><ele>464.0</ele><time>2026-04-24T15:58:38Z</time></trkpt><trkpt lat="36.96343861813074" lon="15.112179180760869"><ele>457.75</ele><time>2026-04-24T15:58:39Z</time></trkpt><trkpt lat="36.96348370635878" lon="15.111988644624992"><ele>451.5</ele><time>2026-04-24T15:58:40Z</time></trkpt><trkpt lat="36.96351835940915" lon="15.111817171927772"><ele>445.25</ele><time>2026-04-24T15:58:41Z</time></trkpt><trkpt lat="36.96354299681458" lon="15.111651597775984"><ele>439.0</ele><time>2026-04-24T15:58:42Z</time></trkpt><trkpt lat="36.963553627287986" lon="15.111505317227746"><ele>439.0</ele><time>2026-04-24T15:58:43Z</time></trkpt><trkpt lat="36.963544556647115" lon="15.11137041871043"><ele>439.0</ele><time>2026-04-24T15:58:44Z</time></trkpt><trkpt lat="36.96352216482271" lon="15.11122498453811"><ele>439.0</ele><time>2026-04-24T15:58:45Z</time></trkpt><trkpt lat="36.96348816931802" lon="15.111039056641465"><ele>439.0</ele><time>2026-04-24T15:58:46Z</time></trkpt><trkpt lat="36.963461250930536" lon="15.110834834826854"><ele>447.33333333333337</ele><time>2026-04-24T15:58:47Z</time></trkpt><trkpt lat="36.96341956302571" lon="15.110600281770003"><ele>455.66666666666663</ele><time>2026-04-24T15:58:48Z</time></trkpt><trkpt lat="36.96337835357688" lon="15.110370074606752"><ele>464.0</ele><time>2026-04-24T15:58:49Z</time></trkpt><trkpt lat="36.96334702436678" lon="15.110212854734607"><ele>465.4</ele><time>2026-04-24T15:58:50Z</time></trkpt><trkpt lat="36.963329554733335" lon="15.11008557024962"><ele>466.79999999999995</ele><time>2026-04-24T15:58:51Z</time></trkpt><trkpt lat="36.96331716323854" lon="15.10995181431159"><ele>468.20000000000005</ele><time>2026-04-24T15:58:52Z</time></trkpt><trkpt lat="36.9633174025258" lon="15.109813643580898"><ele>469.6</ele><time>2026-04-24T15:58:53Z</time></trkpt><trkpt lat="36.963317054451764" lon="15.109669417797914"><ele>471.0</ele><time>2026-04-24T15:58:54Z</time></trkpt><trkpt lat="36.963313062913926" lon="15.109521319248339"><ele>471.20000000000005</ele><time>2026-04-24T15:58:55Z</time></trkpt><trkpt lat="36.96330362403733" lon="15.109400161853824"><ele>471.40000000000003</ele><time>2026-04-24T15:58:56Z</time></trkpt><trkpt lat="36.963338194677114" lon="15.1092960490901"><ele>471.6</ele><time>2026-04-24T15:58:57Z</time></trkpt><trkpt lat="36.96338343049021" lon="15.10918413792319"><ele>471.8</ele><time>2026-04-24T15:58:58Z</time></trkpt><trkpt lat="36.963428388742834" lon="15.109042575582409"><ele>472.0</ele><time>2026-04-24T15:58:59Z</time></trkpt><trkpt lat="36.963508893263466" lon="15.108864942510728"><ele>473.5</ele><time>2026-04-24T15:58:59.999Z</time></trkpt><trkpt lat="36.96356783795898" lon="15.108706917662408"><ele>475.0</ele><time>2026-04-24T15:59:00.999Z</time></trkpt><trkpt lat="36.963605759151925" lon="15.108568614683461"><ele>476.5</ele><time>2026-04-24T15:59:01.999Z</time></trkpt><trkpt lat="36.96363174632395" lon="15.108428115458203"><ele>478.0</ele><time>2026-04-24T15:59:02.999Z</time></trkpt><trkpt lat="36.96366007552209" lon="15.108292611790418"><ele>477.5</ele><time>2026-04-24T15:59:03.999Z</time></trkpt><trkpt lat="36.96368779622049" lon="15.108134923053091"><ele>477.0</ele><time>2026-04-24T15:59:04.999Z</time></trkpt><trkpt lat="36.9637123583307" lon="15.10797490911189"><ele>476.5</ele><time>2026-04-24T15:59:05.999Z</time></trkpt><trkpt lat="36.963749041858534" lon="15.10781362386175"><ele>476.0</ele><time>2026-04-24T15:59:06.999Z</time></trkpt><trkpt lat="36.96378987719886" lon="15.107654660076673"><ele>476.0</ele><time>2026-04-24T15:59:07.999Z</time></trkpt><trkpt lat="36.963838341165555" lon="15.10747641926592"><ele>476.0</ele><time>2026-04-24T15:59:08.999Z</time></trkpt><trkpt lat="36.963874559621" lon="15.107276284517928"><ele>476.0</ele><time>2026-04-24T15:59:09.999Z</time></trkpt><trkpt lat="36.96396177693566" lon="15.10707520701228"><ele>476.25</ele><time>2026-04-24T15:59:10.999Z</time></trkpt><trkpt lat="36.96401072393547" lon="15.106935497251717"><ele>476.5</ele><time>2026-04-24T15:59:11.999Z</time></trkpt><trkpt lat="36.96406560837992" lon="15.10677342852768"><ele>476.75</ele><time>2026-04-24T15:59:12.999Z</time></trkpt><trkpt lat="36.9641194627379" lon="15.106607331416305"><ele>477.0</ele><time>2026-04-24T15:59:13.999Z</time></trkpt><trkpt lat="36.964164581813" lon="15.106425850541806"><ele>479.5</ele><time>2026-04-24T15:59:14.999Z</time></trkpt><trkpt lat="36.96420822053497" lon="15.106261069715787"><ele>482.0</ele><time>2026-04-24T15:59:15.999Z</time></trkpt><trkpt lat="36.96424366758592" lon="15.106112694275692"><ele>484.5</ele><time>2026-04-24T15:59:16.999Z</time></trkpt><trkpt lat="36.9642873173446" lon="15.105957400635127"><ele>487.0</ele><time>2026-04-24T15:59:17.999Z</time></trkpt><trkpt lat="36.96433017541686" lon="15.1057830708289"><ele>487.75</ele><time>2026-04-24T15:59:18.999Z</time></trkpt><trkpt lat="36.96436602948313" lon="15.105588195402305"><ele>488.5</ele><time>2026-04-24T15:59:19.999Z</time></trkpt><trkpt lat="36.96440765574708" lon="15.105427693223897"><ele>489.25</ele><time>2026-04-24T15:59:20.999Z</time></trkpt><trkpt lat="36.9644279206162" lon="15.105286547579567"><ele>490.0</ele><time>2026-04-24T15:59:21.999Z</time></trkpt><trkpt lat="36.96444039278653" lon="15.105128151165724"><ele>490.0</ele><time>2026-04-24T15:59:22.999Z</time></trkpt><trkpt lat="36.96443153804038" lon="15.104958977220052"><ele>490.0</ele><time>2026-04-24T15:59:23.999Z</time></trkpt><trkpt lat="36.96441053705963" lon="15.104784997206956"><ele>490.0</ele><time>2026-04-24T15:59:24.999Z</time></trkpt><trkpt lat="36.96439754807866" lon="15.104631097546168"><ele>490.0</ele><time>2026-04-24T15:59:25.999Z</time></trkpt><trkpt lat="36.96438205050241" lon="15.10449070742932"><ele>490.25</ele><time>2026-04-24T15:59:26.999Z</time></trkpt><trkpt lat="36.96438293608512" lon="15.104365447974423"><ele>490.5</ele><time>2026-04-24T15:59:27.999Z</time></trkpt><trkpt lat="36.9644259016787" lon="15.104248151367834"><ele>490.75</ele><time>2026-04-24T15:59:28.999Z</time></trkpt><trkpt lat="36.9644475319809" lon="15.104086580001287"><ele>491.0</ele><time>2026-04-24T15:59:29.999Z</time></trkpt><trkpt lat="36.96448431894376" lon="15.103923352570723"><ele>491.5</ele><time>2026-04-24T15:59:30.999Z</time></trkpt><trkpt lat="36.964501711657185" lon="15.10376696339712"><ele>492.0</ele><time>2026-04-24T15:59:31.999Z</time></trkpt><trkpt lat="36.96451728856114" lon="15.103587136298323"><ele>492.5</ele><time>2026-04-24T15:59:32.999Z</time></trkpt><trkpt lat="36.964530328490376" lon="15.10340866872317"><ele>493.0</ele><time>2026-04-24T15:59:33.999Z</time></trkpt><trkpt lat="36.964542733810724" lon="15.103240411114651"><ele>493.4</ele><time>2026-04-24T15:59:34.999Z</time></trkpt><trkpt lat="36.964572226841824" lon="15.103093805445498"><ele>493.79999999999995</ele><time>2026-04-24T15:59:35.999Z</time></trkpt><trkpt lat="36.96458603550331" lon="15.102982951877715"><ele>494.2</ele><time>2026-04-24T15:59:36.999Z</time></trkpt><trkpt lat="36.96462067260312" lon="15.102879087148445"><ele>494.6</ele><time>2026-04-24T15:59:37.999Z</time></trkpt><trkpt lat="36.96467916504703" lon="15.102772913754432"><ele>495.0</ele><time>2026-04-24T15:59:38.999Z</time></trkpt><trkpt lat="36.96475714057245" lon="15.102649467566627"><ele>495.0</ele><time>2026-04-24T15:59:39.999Z</time></trkpt><trkpt lat="36.964825877313054" lon="15.102522911981929"><ele>495.0</ele><time>2026-04-24T15:59:40.999Z</time></trkpt><trkpt lat="36.964891229817184" lon="15.102412387737761"><ele>495.0</ele><time>2026-04-24T15:59:42Z</time></trkpt><trkpt lat="36.964945644437556" lon="15.102306812117284"><ele>495.0</ele><time>2026-04-24T15:59:43Z</time></trkpt><trkpt lat="36.96501145975867" lon="15.10221839886934"><ele>495.0</ele><time>2026-04-24T15:59:44Z</time></trkpt><trkpt lat="36.965055571604815" lon="15.102160444028447"><ele>496.8</ele><time>2026-04-24T15:59:45Z</time></trkpt><trkpt lat="36.965113106514174" lon="15.102101500811278"><ele>498.6</ele><time>2026-04-24T15:59:46Z</time></trkpt><trkpt lat="36.96519056859859" lon="15.102006728272386"><ele>500.4</ele><time>2026-04-24T15:59:47Z</time></trkpt><trkpt lat="36.965252627506445" lon="15.101919750065772"><ele>502.2</ele><time>2026-04-24T15:59:48Z</time></trkpt><trkpt lat="36.965328300369805" lon="15.101831189534135"><ele>504.0</ele><time>2026-04-24T15:59:49Z</time></trkpt><trkpt lat="36.96539485512406" lon="15.101733775870759"><ele>504.0</ele><time>2026-04-24T15:59:50Z</time></trkpt><trkpt lat="36.96547507378718" lon="15.101624390417054"><ele>504.0</ele><time>2026-04-24T15:59:51Z</time></trkpt><trkpt lat="36.96558385706192" lon="15.101514573545336"><ele>504.0</ele><time>2026-04-24T15:59:52Z</time></trkpt><trkpt lat="36.96567592151777" lon="15.101418630102042"><ele>504.0</ele><time>2026-04-24T15:59:53Z</time></trkpt><trkpt lat="36.96575180691074" lon="15.101311095148713"><ele>504.0</ele><time>2026-04-24T15:59:54Z</time></trkpt><trkpt lat="36.965851050909016" lon="15.101201401681559"><ele>504.0</ele><time>2026-04-24T15:59:55Z</time></trkpt><trkpt lat="36.96595698418346" lon="15.101093136851258"><ele>504.0</ele><time>2026-04-24T15:59:56Z</time></trkpt><trkpt lat="36.96605019128161" lon="15.100995540996768"><ele>504.0</ele><time>2026-04-24T15:59:57Z</time></trkpt><trkpt lat="36.9661294792969" lon="15.100890136886585"><ele>504.0</ele><time>2026-04-24T15:59:58Z</time></trkpt><trkpt lat="36.96618945947511" lon="15.100769718728582"><ele>504.0</ele><time>2026-04-24T15:59:59Z</time></trkpt><trkpt lat="36.96624798092946" lon="15.1006312196038"><ele>504.0</ele><time>2026-04-24T16:00:00Z</time></trkpt><trkpt lat="36.96630103062116" lon="15.10047500862404"><ele>504.0</ele><time>2026-04-24T16:00:01Z</time></trkpt><trkpt lat="36.96635696667456" lon="15.100328070622078"><ele>503.25</ele><time>2026-04-24T16:00:02Z</time></trkpt><trkpt lat="36.96640999066106" lon="15.100182016865565"><ele>502.5</ele><time>2026-04-24T16:00:03Z</time></trkpt><trkpt lat="36.96645049649718" lon="15.100044898704024"><ele>501.75</ele><time>2026-04-24T16:00:04Z</time></trkpt><trkpt lat="36.96647544765716" lon="15.099891187942335"><ele>501.0</ele><time>2026-04-24T16:00:05Z</time></trkpt><trkpt lat="36.96649441413401" lon="15.099708629282555"><ele>499.0</ele><time>2026-04-24T16:00:06Z</time></trkpt><trkpt lat="36.96652303303926" lon="15.09951316693127"><ele>497.0</ele><time>2026-04-24T16:00:07Z</time></trkpt><trkpt lat="36.966563119292694" lon="15.099325871194507"><ele>495.0</ele><time>2026-04-24T16:00:08Z</time></trkpt><trkpt lat="36.96659346627961" lon="15.099121856437227"><ele>494.5</ele><time>2026-04-24T16:00:09Z</time></trkpt><trkpt lat="36.96661703502091" lon="15.098975729972446"><ele>494.0</ele><time>2026-04-24T16:00:10Z</time></trkpt><trkpt lat="36.966646254364576" lon="15.098799674418856"><ele>493.5</ele><time>2026-04-24T16:00:11Z</time></trkpt><trkpt lat="36.96667390029971" lon="15.098637670934547"><ele>493.0</ele><time>2026-04-24T16:00:12Z</time></trkpt><trkpt lat="36.96668966734793" lon="15.098459242377203"><ele>485.33333333333337</ele><time>2026-04-24T16:00:13Z</time></trkpt><trkpt lat="36.96671947540113" lon="15.098253127381984"><ele>477.66666666666663</ele><time>2026-04-24T16:00:14Z</time></trkpt><trkpt lat="36.9667477216991" lon="15.098058993506033"><ele>470.0</ele><time>2026-04-24T16:00:15Z</time></trkpt><trkpt lat="36.966768587462276" lon="15.097879548043124"><ele>468.3333333333333</ele><time>2026-04-24T16:00:16Z</time></trkpt><trkpt lat="36.966782227476294" lon="15.097699383061986"><ele>466.66666666666663</ele><time>2026-04-24T16:00:17Z</time></trkpt><trkpt lat="36.96678866758673" lon="15.09752014248871"><ele>465.0</ele><time>2026-04-24T16:00:18Z</time></trkpt><trkpt lat="36.96679460839291" lon="15.097316965238363"><ele>461.33333333333337</ele><time>2026-04-24T16:00:19Z</time></trkpt><trkpt lat="36.96679613462991" lon="15.097063839562646"><ele>457.6666666666667</ele><time>2026-04-24T16:00:20Z</time></trkpt><trkpt lat="36.96681655301376" lon="15.096851138025572"><ele>454.0</ele><time>2026-04-24T16:00:21Z</time></trkpt><trkpt lat="36.96682334245869" lon="15.096636674073972"><ele>454.5</ele><time>2026-04-24T16:00:22Z</time></trkpt><trkpt lat="36.96683392823364" lon="15.096531902924818"><ele>455.0</ele><time>2026-04-24T16:00:23Z</time></trkpt><trkpt lat="36.96683740000831" lon="15.096356478678507"><ele>455.5</ele><time>2026-04-24T16:00:24Z</time></trkpt><trkpt lat="36.96684232121967" lon="15.096199203148409"><ele>456.0</ele><time>2026-04-24T16:00:25Z</time></trkpt><trkpt lat="36.966853589170654" lon="15.096059326252254"><ele>456.0</ele><time>2026-04-24T16:00:26Z</time></trkpt><trkpt lat="36.96687449927093" lon="15.095920017434416"><ele>456.0</ele><time>2026-04-24T16:00:27Z</time></trkpt><trkpt lat="36.966928765221276" lon="15.095814961688722"><ele>456.0</ele><time>2026-04-24T16:00:28Z</time></trkpt><trkpt lat="36.96699170859046" lon="15.095687338810391"><ele>456.0</ele><time>2026-04-24T16:00:29Z</time></trkpt><trkpt lat="36.967065844641766" lon="15.095536419321178"><ele>462.75</ele><time>2026-04-24T16:00:30Z</time></trkpt><trkpt lat="36.96714377816974" lon="15.095341525955837"><ele>469.5</ele><time>2026-04-24T16:00:31Z</time></trkpt><trkpt lat="36.96721426700487" lon="15.095200598643473"><ele>476.25</ele><time>2026-04-24T16:00:32Z</time></trkpt><trkpt lat="36.96726387090074" lon="15.095107881750819"><ele>483.0</ele><time>2026-04-24T16:00:33Z</time></trkpt><trkpt lat="36.967303746962756" lon="15.09502401290961"><ele>486.59999999999997</ele><time>2026-04-24T16:00:34Z</time></trkpt><trkpt lat="36.96732416988278" lon="15.094884026461266"><ele>490.19999999999993</ele><time>2026-04-24T16:00:36Z</time></trkpt><trkpt lat="36.96731013286331" lon="15.094784839768636"><ele>493.8</ele><time>2026-04-24T16:00:38Z</time></trkpt><trkpt lat="36.96722047472351" lon="15.09476369562509"><ele>497.4</ele><time>2026-04-24T16:00:40Z</time></trkpt><trkpt lat="36.967134065693415" lon="15.09469601168412"><ele>501.0</ele><time>2026-04-24T16:00:42Z</time></trkpt><trkpt lat="36.967009209322306" lon="15.094683941977694"><ele>501.0</ele><time>2026-04-24T16:00:44Z</time></trkpt><trkpt lat="36.96687775978936" lon="15.094694935997637"><ele>501.0</ele><time>2026-04-24T16:00:46Z</time></trkpt><trkpt lat="36.9667739316613" lon="15.094666824264566"><ele>501.0</ele><time>2026-04-24T16:00:48Z</time></trkpt><trkpt lat="36.9667052698691" lon="15.094648850844184"><ele>501.0</ele><time>2026-04-24T16:00:49Z</time></trkpt><trkpt lat="36.96663990364937" lon="15.094606856076512"><ele>501.0</ele><time>2026-04-24T16:00:50Z</time></trkpt><trkpt lat="36.96657384126892" lon="15.094577793233544"><ele>501.5</ele><time>2026-04-24T16:00:51Z</time></trkpt><trkpt lat="36.96646808113469" lon="15.094558089781462"><ele>502.0</ele><time>2026-04-24T16:00:52Z</time></trkpt><trkpt lat="36.966368286261265" lon="15.094540826973423"><ele>502.5</ele><time>2026-04-24T16:00:53Z</time></trkpt><trkpt lat="36.966250890099964" lon="15.094516215746783"><ele>503.0</ele><time>2026-04-24T16:00:54Z</time></trkpt><trkpt lat="36.96613975680363" lon="15.094448403450015"><ele>503.0</ele><time>2026-04-24T16:00:55Z</time></trkpt><trkpt lat="36.96601756238898" lon="15.0943788511385"><ele>503.0</ele><time>2026-04-24T16:00:56Z</time></trkpt><trkpt lat="36.96587324599596" lon="15.094334656551181"><ele>503.0</ele><time>2026-04-24T16:00:57Z</time></trkpt><trkpt lat="36.96571425592961" lon="15.094321749317507"><ele>503.0</ele><time>2026-04-24T16:00:58Z</time></trkpt><trkpt lat="36.965568895123575" lon="15.0942687919448"><ele>501.25</ele><time>2026-04-24T16:00:59Z</time></trkpt><trkpt lat="36.965427459666635" lon="15.094226130535079"><ele>499.5</ele><time>2026-04-24T16:01:00Z</time></trkpt><trkpt lat="36.96528260779277" lon="15.094177524058738"><ele>497.75</ele><time>2026-04-24T16:01:01Z</time></trkpt><trkpt lat="36.96513683695308" lon="15.094143278275553"><ele>496.0</ele><time>2026-04-24T16:01:02Z</time></trkpt><trkpt lat="36.96499008610974" lon="15.09407940245479"><ele>494.25</ele><time>2026-04-24T16:01:02.999Z</time></trkpt><trkpt lat="36.964850909858065" lon="15.094027456955711"><ele>492.5</ele><time>2026-04-24T16:01:03.999Z</time></trkpt><trkpt lat="36.9647300259221" lon="15.09398010448264"><ele>490.75</ele><time>2026-04-24T16:01:04.999Z</time></trkpt><trkpt lat="36.964616517202025" lon="15.093963207886638"><ele>489.0</ele><time>2026-04-24T16:01:05.999Z</time></trkpt><trkpt lat="36.964494255409456" lon="15.093981841656559"><ele>489.0</ele><time>2026-04-24T16:01:06.999Z</time></trkpt><trkpt lat="36.964368829158076" lon="15.09401948132647"><ele>489.0</ele><time>2026-04-24T16:01:07.999Z</time></trkpt><trkpt lat="36.96425546988005" lon="15.094061462264964"><ele>489.0</ele><time>2026-04-24T16:01:08.999Z</time></trkpt><trkpt lat="36.96416002038239" lon="15.094074519555651"><ele>489.0</ele><time>2026-04-24T16:01:09.999Z</time></trkpt><trkpt lat="36.96407727662485" lon="15.094035633383179"><ele>489.0</ele><time>2026-04-24T16:01:10.999Z</time></trkpt><trkpt lat="36.96400652688794" lon="15.093924595819416"><ele>490.0</ele><time>2026-04-24T16:01:11.999Z</time></trkpt><trkpt lat="36.96393976476031" lon="15.093789803676712"><ele>491.0</ele><time>2026-04-24T16:01:12.999Z</time></trkpt><trkpt lat="36.96387946871764" lon="15.093656032466777"><ele>492.0</ele><time>2026-04-24T16:01:13.999Z</time></trkpt><trkpt lat="36.963832029950055" lon="15.093545101858437"><ele>493.0</ele><time>2026-04-24T16:01:14.999Z</time></trkpt><trkpt lat="36.9638077093966" lon="15.093443543592386"><ele>494.0</ele><time>2026-04-24T16:01:15.999Z</time></trkpt><trkpt lat="36.96373314449492" lon="15.093337826900594"><ele>494.66666666666663</ele><time>2026-04-24T16:01:17.999Z</time></trkpt><trkpt lat="36.96388723891722" lon="15.093165203761357"><ele>495.33333333333337</ele><time>2026-04-24T16:01:18.999Z</time></trkpt><trkpt lat="36.96395026885857" lon="15.093017217294525"><ele>496.0</ele><time>2026-04-24T16:01:19.999Z</time></trkpt><trkpt lat="36.96402974388574" lon="15.092857688289635"><ele>496.0</ele><time>2026-04-24T16:01:20.999Z</time></trkpt><trkpt lat="36.96410642254986" lon="15.092671055397485"><ele>496.0</ele><time>2026-04-24T16:01:21.999Z</time></trkpt><trkpt lat="36.96418691557846" lon="15.092486253811916"><ele>496.0</ele><time>2026-04-24T16:01:22.999Z</time></trkpt><trkpt lat="36.96426838116113" lon="15.092296691765323"><ele>496.33333333333337</ele><time>2026-04-24T16:01:23.999Z</time></trkpt><trkpt lat="36.96432519995507" lon="15.09209986858063"><ele>496.66666666666663</ele><time>2026-04-24T16:01:24.999Z</time></trkpt><trkpt lat="36.96435040691002" lon="15.091895219524256"><ele>497.0</ele><time>2026-04-24T16:01:25.999Z</time></trkpt><trkpt lat="36.96436256110653" lon="15.091675547441964"><ele>498.3333333333333</ele><time>2026-04-24T16:01:26.999Z</time></trkpt><trkpt lat="36.96439909681479" lon="15.09148324582162"><ele>499.66666666666663</ele><time>2026-04-24T16:01:27.999Z</time></trkpt><trkpt lat="36.964478402910295" lon="15.091329976274173"><ele>501.0</ele><time>2026-04-24T16:01:28.999Z</time></trkpt><trkpt lat="36.9645549057738" lon="15.091150904937692"><ele>501.0</ele><time>2026-04-24T16:01:29.999Z</time></trkpt><trkpt lat="36.96469672691335" lon="15.090949653289929"><ele>501.0</ele><time>2026-04-24T16:01:30.999Z</time></trkpt><trkpt lat="36.96477319417346" lon="15.09076712102552"><ele>501.0</ele><time>2026-04-24T16:01:31.999Z</time></trkpt><trkpt lat="36.964867100470634" lon="15.0905633814344"><ele>501.66666666666663</ele><time>2026-04-24T16:01:32.999Z</time></trkpt><trkpt lat="36.964955818791154" lon="15.090381983771623"><ele>502.3333333333333</ele><time>2026-04-24T16:01:33.999Z</time></trkpt><trkpt lat="36.96502632751582" lon="15.090222905915434"><ele>503.0</ele><time>2026-04-24T16:01:34.999Z</time></trkpt><trkpt lat="36.96507681915688" lon="15.090059721238836"><ele>502.0</ele><time>2026-04-24T16:01:35.999Z</time></trkpt><trkpt lat="36.965082671481795" lon="15.089876059690381"><ele>501.0</ele><time>2026-04-24T16:01:36.999Z</time></trkpt><trkpt lat="36.96507931402557" lon="15.089653254435337"><ele>500.0</ele><time>2026-04-24T16:01:37.999Z</time></trkpt><trkpt lat="36.965069404510764" lon="15.089421724716642"><ele>500.0</ele><time>2026-04-24T16:01:38.999Z</time></trkpt><trkpt lat="36.96507018263233" lon="15.089166870164492"><ele>500.0</ele><time>2026-04-24T16:01:39.999Z</time></trkpt><trkpt lat="36.96508910514912" lon="15.088892782778457"><ele>500.0</ele><time>2026-04-24T16:01:40.999Z</time></trkpt><trkpt lat="36.96510891593112" lon="15.088636314624244"><ele>500.0</ele><time>2026-04-24T16:01:41.999Z</time></trkpt><trkpt lat="36.965094098486965" lon="15.08842685725986"><ele>500.0</ele><time>2026-04-24T16:01:42.999Z</time></trkpt><trkpt lat="36.965090109664196" lon="15.088207621362576"><ele>500.0</ele><time>2026-04-24T16:01:43.999Z</time></trkpt><trkpt lat="36.96509069851241" lon="15.087996806468091"><ele>500.8</ele><time>2026-04-24T16:01:44.999Z</time></trkpt><trkpt lat="36.96509926892718" lon="15.087855884696456"><ele>501.6</ele><time>2026-04-24T16:01:45.999Z</time></trkpt><trkpt lat="36.96512437142058" lon="15.087726291461884"><ele>502.4</ele><time>2026-04-24T16:01:46.999Z</time></trkpt><trkpt lat="36.965173539685125" lon="15.087624411030687"><ele>503.2</ele><time>2026-04-24T16:01:48Z</time></trkpt><trkpt lat="36.96527968024993" lon="15.087562835553065"><ele>504.0</ele><time>2026-04-24T16:01:49Z</time></trkpt><trkpt lat="36.96538199980165" lon="15.08747525595053"><ele>503.25</ele><time>2026-04-24T16:01:50Z</time></trkpt><trkpt lat="36.96548831632417" lon="15.087380334558635"><ele>502.5</ele><time>2026-04-24T16:01:51Z</time></trkpt><trkpt lat="36.96556513269457" lon="15.087280699937908"><ele>501.75</ele><time>2026-04-24T16:01:52Z</time></trkpt><trkpt lat="36.96561191915138" lon="15.087158563041562"><ele>501.0</ele><time>2026-04-24T16:01:53Z</time></trkpt><trkpt lat="36.96561986104792" lon="15.086993069826793"><ele>501.0</ele><time>2026-04-24T16:01:54Z</time></trkpt><trkpt lat="36.96560977988765" lon="15.08680755516604"><ele>501.0</ele><time>2026-04-24T16:01:55Z</time></trkpt><trkpt lat="36.96560773205606" lon="15.086605238669899"><ele>501.0</ele><time>2026-04-24T16:01:56Z</time></trkpt><trkpt lat="36.96561816066616" lon="15.086394979743535"><ele>499.66666666666663</ele><time>2026-04-24T16:01:57Z</time></trkpt><trkpt lat="36.96562795009706" lon="15.086164105403757"><ele>498.3333333333333</ele><time>2026-04-24T16:01:58Z</time></trkpt><trkpt lat="36.9656384653035" lon="15.0859326599133"><ele>497.0</ele><time>2026-04-24T16:01:59Z</time></trkpt><trkpt lat="36.96565590895505" lon="15.085720505078715"><ele>497.0</ele><time>2026-04-24T16:02:00Z</time></trkpt><trkpt lat="36.965671509093816" lon="15.085562317856533"><ele>497.0</ele><time>2026-04-24T16:02:01Z</time></trkpt><trkpt lat="36.9656821241592" lon="15.085440595869223"><ele>497.0</ele><time>2026-04-24T16:02:02Z</time></trkpt><trkpt lat="36.965725055594234" lon="15.08534469885525"><ele>497.0</ele><time>2026-04-24T16:02:03Z</time></trkpt><trkpt lat="36.96565670918146" lon="15.08516514529907"><ele>497.0</ele><time>2026-04-24T16:02:04Z</time></trkpt><trkpt lat="36.96562339569545" lon="15.084984805511475"><ele>497.0</ele><time>2026-04-24T16:02:05Z</time></trkpt><trkpt lat="36.96559438520943" lon="15.08478870041252"><ele>497.0</ele><time>2026-04-24T16:02:06Z</time></trkpt><trkpt lat="36.965584683069615" lon="15.084596056616688"><ele>497.0</ele><time>2026-04-24T16:02:07Z</time></trkpt><trkpt lat="36.96558543561584" lon="15.084420593709511"><ele>497.0</ele><time>2026-04-24T16:02:08Z</time></trkpt><trkpt lat="36.96560933755024" lon="15.084244867029629"><ele>497.0</ele><time>2026-04-24T16:02:09Z</time></trkpt><trkpt lat="36.96566586496281" lon="15.084054857294813"><ele>497.0</ele><time>2026-04-24T16:02:10Z</time></trkpt><trkpt lat="36.965711214057634" lon="15.083863321140242"><ele>497.0</ele><time>2026-04-24T16:02:11Z</time></trkpt><trkpt lat="36.96573601598967" lon="15.08367196383842"><ele>497.0</ele><time>2026-04-24T16:02:12Z</time></trkpt><trkpt lat="36.965738828783735" lon="15.083476865121948"><ele>497.0</ele><time>2026-04-24T16:02:13Z</time></trkpt><trkpt lat="36.96572388785803" lon="15.083286902933441"><ele>494.0</ele><time>2026-04-24T16:02:14Z</time></trkpt><trkpt lat="36.965689150064385" lon="15.08309195765561"><ele>491.0</ele><time>2026-04-24T16:02:15Z</time></trkpt><trkpt lat="36.9656285375239" lon="15.082875218716852"><ele>488.0</ele><time>2026-04-24T16:02:16Z</time></trkpt><trkpt lat="36.96555481852198" lon="15.082650118165212"><ele>484.66666666666663</ele><time>2026-04-24T16:02:17Z</time></trkpt><trkpt lat="36.96546138286212" lon="15.08241003173269"><ele>481.33333333333337</ele><time>2026-04-24T16:02:18Z</time></trkpt><trkpt lat="36.96536817894541" lon="15.082147504158387"><ele>478.0</ele><time>2026-04-24T16:02:19Z</time></trkpt><trkpt lat="36.96529546357685" lon="15.081852931108491"><ele>474.0</ele><time>2026-04-24T16:02:20Z</time></trkpt><trkpt lat="36.96525953796798" lon="15.081515290868234"><ele>470.0</ele><time>2026-04-24T16:02:21Z</time></trkpt><trkpt lat="36.965224725578764" lon="15.081233313300453"><ele>470.0</ele><time>2026-04-24T16:02:22Z</time></trkpt><trkpt lat="36.96520470750648" lon="15.080940135267484"><ele>470.0</ele><time>2026-04-24T16:02:23Z</time></trkpt><trkpt lat="36.96522474913318" lon="15.080679656362431"><ele>470.0</ele><time>2026-04-24T16:02:24Z</time></trkpt><trkpt lat="36.96519979071634" lon="15.080451928296606"><ele>470.0</ele><time>2026-04-24T16:02:25Z</time></trkpt><trkpt lat="36.96516383654196" lon="15.080185531736907"><ele>470.0</ele><time>2026-04-24T16:02:26Z</time></trkpt><trkpt lat="36.96510728022502" lon="15.079896184780281"><ele>466.5</ele><time>2026-04-24T16:02:27Z</time></trkpt><trkpt lat="36.96501997822168" lon="15.079613342311955"><ele>463.0</ele><time>2026-04-24T16:02:28Z</time></trkpt><trkpt lat="36.964937742651166" lon="15.079279494290455"><ele>463.6666666666667</ele><time>2026-04-24T16:02:29Z</time></trkpt><trkpt lat="36.96489241575488" lon="15.079081282507197"><ele>464.33333333333337</ele><time>2026-04-24T16:02:30Z</time></trkpt><trkpt lat="36.964823750207955" lon="15.078842783235725"><ele>465.0</ele><time>2026-04-24T16:02:31Z</time></trkpt><trkpt lat="36.96475953712242" lon="15.0786342613185"><ele>465.0</ele><time>2026-04-24T16:02:32Z</time></trkpt><trkpt lat="36.96470640185338" lon="15.078455019430338"><ele>465.0</ele><time>2026-04-24T16:02:33Z</time></trkpt><trkpt lat="36.96465405351813" lon="15.078296884614199"><ele>465.0</ele><time>2026-04-24T16:02:34Z</time></trkpt><trkpt lat="36.96458946080695" lon="15.078149909565864"><ele>465.0</ele><time>2026-04-24T16:02:35Z</time></trkpt><trkpt lat="36.9645016029838" lon="15.0779901128976"><ele>464.5</ele><time>2026-04-24T16:02:36Z</time></trkpt><trkpt lat="36.964397100555004" lon="15.077839761215573"><ele>464.0</ele><time>2026-04-24T16:02:37Z</time></trkpt><trkpt lat="36.96429614706673" lon="15.077703185479843"><ele>463.5</ele><time>2026-04-24T16:02:38Z</time></trkpt><trkpt lat="36.96421941982032" lon="15.077582188756432"><ele>463.0</ele><time>2026-04-24T16:02:39Z</time></trkpt><trkpt lat="36.96415727535611" lon="15.077477535795776"><ele>461.79999999999995</ele><time>2026-04-24T16:02:40Z</time></trkpt><trkpt lat="36.96407688602006" lon="15.077386775495263"><ele>460.59999999999997</ele><time>2026-04-24T16:02:42Z</time></trkpt><trkpt lat="36.96402998276844" lon="15.077328096373723"><ele>459.40000000000003</ele><time>2026-04-24T16:02:43Z</time></trkpt><trkpt lat="36.9639820386181" lon="15.07727666210366"><ele>458.20000000000005</ele><time>2026-04-24T16:02:44Z</time></trkpt><trkpt lat="36.963938421630644" lon="15.077215827987889"><ele>457.0</ele><time>2026-04-24T16:02:45Z</time></trkpt><trkpt lat="36.96409205165345" lon="15.076718119597071"><ele>457.0</ele><time>2026-04-24T16:02:47Z</time></trkpt><trkpt lat="36.96407337994536" lon="15.076603168212792"><ele>457.00000000000006</ele><time>2026-04-24T16:02:48Z</time></trkpt><trkpt lat="36.96407930909627" lon="15.076509068777387"><ele>457.00000000000006</ele><time>2026-04-24T16:02:49Z</time></trkpt><trkpt lat="36.96407588389422" lon="15.076429014760349"><ele>457.0</ele><time>2026-04-24T16:02:50Z</time></trkpt><trkpt lat="36.96404341715426" lon="15.076211411971281"><ele>457.0</ele><time>2026-04-24T16:02:52Z</time></trkpt><trkpt lat="36.963956582954786" lon="15.076105324145654"><ele>456.40000000000003</ele><time>2026-04-24T16:02:53Z</time></trkpt><trkpt lat="36.963909094649495" lon="15.07599547998996"><ele>455.80000000000007</ele><time>2026-04-24T16:02:54Z</time></trkpt><trkpt lat="36.96387433831719" lon="15.07589494984423"><ele>455.2</ele><time>2026-04-24T16:02:55Z</time></trkpt><trkpt lat="36.96385201237053" lon="15.075777391803022"><ele>454.6</ele><time>2026-04-24T16:02:56Z</time></trkpt><trkpt lat="36.963820860254124" lon="15.075618666619274"><ele>454.0</ele><time>2026-04-24T16:02:57Z</time></trkpt><trkpt lat="36.96378332959213" lon="15.075500774913332"><ele>454.0</ele><time>2026-04-24T16:02:58Z</time></trkpt><trkpt lat="36.963747476690884" lon="15.075404184808011"><ele>454.00000000000006</ele><time>2026-04-24T16:02:59Z</time></trkpt><trkpt lat="36.9637068987366" lon="15.075327335253931"><ele>454.0</ele><time>2026-04-24T16:03:00Z</time></trkpt><trkpt lat="36.96367110294926" lon="15.075259279302147"><ele>454.0</ele><time>2026-04-24T16:03:01Z</time></trkpt><trkpt lat="36.963646522018095" lon="15.075174274983903"><ele>454.00000000000006</ele><time>2026-04-24T16:03:02Z</time></trkpt><trkpt lat="36.96361746295015" lon="15.07509031385616"><ele>454.0</ele><time>2026-04-24T16:03:03Z</time></trkpt><trkpt lat="36.96359999005349" lon="15.074996628814114"><ele>454.0</ele><time>2026-04-24T16:03:04Z</time></trkpt><trkpt lat="36.963585534237005" lon="15.074893179756188"><ele>454.6666666666667</ele><time>2026-04-24T16:03:05Z</time></trkpt><trkpt lat="36.963590717979685" lon="15.07478437228876"><ele>455.33333333333337</ele><time>2026-04-24T16:03:06Z</time></trkpt><trkpt lat="36.96360392227671" lon="15.074668137969457"><ele>456.0</ele><time>2026-04-24T16:03:07Z</time></trkpt><trkpt lat="36.96362771623792" lon="15.074572349818949"><ele>456.66666666666663</ele><time>2026-04-24T16:03:08Z</time></trkpt><trkpt lat="36.963649398804726" lon="15.074476730845248"><ele>457.3333333333333</ele><time>2026-04-24T16:03:09Z</time></trkpt><trkpt lat="36.96368549163713" lon="15.074373610878135"><ele>458.0</ele><time>2026-04-24T16:03:10Z</time></trkpt><trkpt lat="36.96374297196999" lon="15.074194565679026"><ele>458.2</ele><time>2026-04-24T16:03:11.999Z</time></trkpt><trkpt lat="36.96378305661575" lon="15.074100053385674"><ele>458.4</ele><time>2026-04-24T16:03:12.999Z</time></trkpt><trkpt lat="36.963830816551855" lon="15.07396607275089"><ele>458.59999999999997</ele><time>2026-04-24T16:03:13.999Z</time></trkpt><trkpt lat="36.963908473282245" lon="15.073854978121135"><ele>458.79999999999995</ele><time>2026-04-24T16:03:15.999Z</time></trkpt><trkpt lat="36.96394973857364" lon="15.073776736520566"><ele>459.0</ele><time>2026-04-24T16:03:16.999Z</time></trkpt><trkpt lat="36.96395883240482" lon="15.073658415877523"><ele>459.0</ele><time>2026-04-24T16:03:17.999Z</time></trkpt><trkpt lat="36.96398457514651" lon="15.07356627043493"><ele>459.0</ele><time>2026-04-24T16:03:18.999Z</time></trkpt><trkpt lat="36.96403118611514" lon="15.073382130530357"><ele>459.0</ele><time>2026-04-24T16:03:20.999Z</time></trkpt><trkpt lat="36.964056482231406" lon="15.073303832928586"><ele>459.0</ele><time>2026-04-24T16:03:21.999Z</time></trkpt><trkpt lat="36.9640795381187" lon="15.073205377922116"><ele>459.0</ele><time>2026-04-24T16:03:22.999Z</time></trkpt><trkpt lat="36.96408742008394" lon="15.073124971573733"><ele>459.0</ele><time>2026-04-24T16:03:23.999Z</time></trkpt><trkpt lat="36.96410095322679" lon="15.072968932179252"><ele>458.8333333333333</ele><time>2026-04-24T16:03:25.999Z</time></trkpt><trkpt lat="36.96411156439255" lon="15.072865243538704"><ele>458.66666666666663</ele><time>2026-04-24T16:03:26.999Z</time></trkpt><trkpt lat="36.96412132836911" lon="15.072760681048772"><ele>458.5</ele><time>2026-04-24T16:03:27.999Z</time></trkpt><trkpt lat="36.96413008271238" lon="15.072660243249636"><ele>458.3333333333333</ele><time>2026-04-24T16:03:28.999Z</time></trkpt><trkpt lat="36.96413807731368" lon="15.072560320205948"><ele>458.16666666666663</ele><time>2026-04-24T16:03:29.999Z</time></trkpt><trkpt lat="36.96413473241454" lon="15.072466769054671"><ele>458.0</ele><time>2026-04-24T16:03:30.999Z</time></trkpt><trkpt lat="36.96412421393401" lon="15.072327613779054"><ele>458.0</ele><time>2026-04-24T16:03:32.999Z</time></trkpt><trkpt lat="36.964139038718606" lon="15.072083683038182"><ele>457.99999999999994</ele><time>2026-04-24T16:05:12.999Z</time></trkpt><trkpt lat="36.964104004164845" lon="15.072006299707455"><ele>457.99999999999994</ele><time>2026-04-24T16:05:13.999Z</time></trkpt><trkpt lat="36.96407203154282" lon="15.071938257441658"><ele>458.0</ele><time>2026-04-24T16:05:14.999Z</time></trkpt><trkpt lat="36.96405379880573" lon="15.071847147449043"><ele>458.0</ele><time>2026-04-24T16:05:15.999Z</time></trkpt><trkpt lat="36.96404205672339" lon="15.071690770030902"><ele>458.16666666666663</ele><time>2026-04-24T16:05:17.999Z</time></trkpt><trkpt lat="36.964039189859264" lon="15.07159823062519"><ele>458.3333333333333</ele><time>2026-04-24T16:05:18.999Z</time></trkpt><trkpt lat="36.964031221043186" lon="15.07148801299621"><ele>458.5</ele><time>2026-04-24T16:05:20.999Z</time></trkpt><trkpt lat="36.96404905791252" lon="15.071397093869518"><ele>458.66666666666663</ele><time>2026-04-24T16:05:21.999Z</time></trkpt><trkpt lat="36.96406265435133" lon="15.07130540345081"><ele>458.8333333333333</ele><time>2026-04-24T16:05:22.999Z</time></trkpt><trkpt lat="36.964055039357845" lon="15.071220838816314"><ele>459.0</ele><time>2026-04-24T16:05:23.999Z</time></trkpt><trkpt lat="36.96405127969964" lon="15.071132167208534"><ele>459.0</ele><time>2026-04-24T16:05:24.999Z</time></trkpt><trkpt lat="36.96405614470543" lon="15.07104529518394"><ele>459.0</ele><time>2026-04-24T16:05:25.999Z</time></trkpt><trkpt lat="36.96406827329552" lon="15.070868310908015"><ele>459.0</ele><time>2026-04-24T16:05:27.999Z</time></trkpt><trkpt lat="36.96407045861518" lon="15.070785678692772"><ele>459.0</ele><time>2026-04-24T16:05:28.999Z</time></trkpt><trkpt lat="36.96407445961672" lon="15.070634915992823"><ele>459.0</ele><time>2026-04-24T16:05:30.999Z</time></trkpt><trkpt lat="36.964054878856366" lon="15.070516788048236"><ele>458.4</ele><time>2026-04-24T16:05:32.999Z</time></trkpt><trkpt lat="36.96407675904015" lon="15.070387162213258"><ele>457.79999999999995</ele><time>2026-04-24T16:05:34.999Z</time></trkpt><trkpt lat="36.9640473006287" lon="15.070252141081049"><ele>457.20000000000005</ele><time>2026-04-24T16:05:36.999Z</time></trkpt><trkpt lat="36.964005984103395" lon="15.070145141193985"><ele>456.6</ele><time>2026-04-24T16:05:38.999Z</time></trkpt><trkpt lat="36.96399771637116" lon="15.070057471207942"><ele>456.0</ele><time>2026-04-24T16:05:39.999Z</time></trkpt><trkpt lat="36.96396224297249" lon="15.069951505653389"><ele>456.3333333333333</ele><time>2026-04-24T16:05:41.999Z</time></trkpt><trkpt lat="36.963936987104326" lon="15.069872066916316"><ele>456.66666666666663</ele><time>2026-04-24T16:05:43.999Z</time></trkpt><trkpt lat="36.9639202734022" lon="15.069780964530725"><ele>457.0</ele><time>2026-04-24T16:05:44.999Z</time></trkpt><trkpt lat="36.96390282240791" lon="15.06967982740279"><ele>457.3333333333333</ele><time>2026-04-24T16:05:45.999Z</time></trkpt><trkpt lat="36.963864690116466" lon="15.06953817399169"><ele>457.66666666666663</ele><time>2026-04-24T16:05:47.999Z</time></trkpt><trkpt lat="36.96382981585899" lon="15.069449701421723"><ele>458.0</ele><time>2026-04-24T16:05:48.999Z</time></trkpt><trkpt lat="36.96379746271408" lon="15.069364448197213"><ele>457.99999999999994</ele><time>2026-04-24T16:05:49.999Z</time></trkpt><trkpt lat="36.963759201302466" lon="15.06927907726793"><ele>458.0</ele><time>2026-04-24T16:05:50.999Z</time></trkpt><trkpt lat="36.963719135469994" lon="15.069198485762444"><ele>458.0</ele><time>2026-04-24T16:05:51.999Z</time></trkpt><trkpt lat="36.96367605206504" lon="15.069119276045013"><ele>458.0</ele><time>2026-04-24T16:05:52.999Z</time></trkpt><trkpt lat="36.963628964233635" lon="15.069042331446186"><ele>457.99999999999994</ele><time>2026-04-24T16:05:53.999Z</time></trkpt><trkpt lat="36.96358102609238" lon="15.068990439223125"><ele>458.0</ele><time>2026-04-24T16:05:54.999Z</time></trkpt><trkpt lat="36.9635230400564" lon="15.06890791717529"><ele>458.3333333333333</ele><time>2026-04-24T16:05:55.999Z</time></trkpt><trkpt lat="36.96347441123935" lon="15.068854684956532"><ele>458.66666666666663</ele><time>2026-04-24T16:05:56.999Z</time></trkpt><trkpt lat="36.96341908418631" lon="15.0688100764967"><ele>459.0</ele><time>2026-04-24T16:05:57.999Z</time></trkpt><trkpt lat="36.9633659505042" lon="15.068746666102156"><ele>459.33333333333337</ele><time>2026-04-24T16:05:58.999Z</time></trkpt><trkpt lat="36.96330648828064" lon="15.068686262426453"><ele>459.6666666666667</ele><time>2026-04-24T16:06:00.001Z</time></trkpt><trkpt lat="36.96320650656515" lon="15.068586667072132"><ele>460.0</ele><time>2026-04-24T16:06:02Z</time></trkpt><trkpt lat="36.9631247493866" lon="15.068499796021605"><ele>460.00000000000006</ele><time>2026-04-24T16:06:04Z</time></trkpt><trkpt lat="36.963042105869" lon="15.068386643993257"><ele>460.0</ele><time>2026-04-24T16:06:06Z</time></trkpt><trkpt lat="36.96299744967854" lon="15.068313167580255"><ele>460.0</ele><time>2026-04-24T16:06:07Z</time></trkpt><trkpt lat="36.962937992938976" lon="15.068247300798653"><ele>460.0</ele><time>2026-04-24T16:06:08Z</time></trkpt><trkpt lat="36.962895423398756" lon="15.068175104181107"><ele>460.00000000000006</ele><time>2026-04-24T16:06:09Z</time></trkpt><trkpt lat="36.962852915819525" lon="15.068090851106165"><ele>460.0</ele><time>2026-04-24T16:06:10Z</time></trkpt><trkpt lat="36.962804526440614" lon="15.067988480222409"><ele>460.50000000000006</ele><time>2026-04-24T16:06:12Z</time></trkpt><trkpt lat="36.9627723603119" lon="15.067884712036685"><ele>461.0</ele><time>2026-04-24T16:06:13Z</time></trkpt><trkpt lat="36.96269567552949" lon="15.067784754478447"><ele>461.5</ele><time>2026-04-24T16:06:15Z</time></trkpt><trkpt lat="36.962674906742784" lon="15.06771009347151"><ele>462.0</ele><time>2026-04-24T16:06:17Z</time></trkpt><trkpt lat="36.96270710327671" lon="15.067630920790563"><ele>462.50000000000006</ele><time>2026-04-24T16:06:19Z</time></trkpt><trkpt lat="36.96274878743846" lon="15.067565739192625"><ele>463.0</ele><time>2026-04-24T16:06:20Z</time></trkpt><trkpt lat="36.96280223330836" lon="15.067452808957533"><ele>462.59999999999997</ele><time>2026-04-24T16:06:21Z</time></trkpt><trkpt lat="36.9628437255447" lon="15.06732449250291"><ele>462.19999999999993</ele><time>2026-04-24T16:06:22Z</time></trkpt><trkpt lat="36.96287462881253" lon="15.067222660669207"><ele>461.8</ele><time>2026-04-24T16:06:23Z</time></trkpt><trkpt lat="36.9629142452596" lon="15.067108672056872"><ele>461.4</ele><time>2026-04-24T16:06:24Z</time></trkpt><trkpt lat="36.962941285177145" lon="15.067016201577566"><ele>461.0</ele><time>2026-04-24T16:06:25Z</time></trkpt><trkpt lat="36.962971730510255" lon="15.066910984492006"><ele>461.0</ele><time>2026-04-24T16:06:26Z</time></trkpt><trkpt lat="36.963004604326386" lon="15.066792749627112"><ele>461.0</ele><time>2026-04-24T16:06:27Z</time></trkpt><trkpt lat="36.96301733574289" lon="15.066682704597094"><ele>461.0</ele><time>2026-04-24T16:06:28Z</time></trkpt><trkpt lat="36.96303548388452" lon="15.066564103710629"><ele>461.0</ele><time>2026-04-24T16:06:29Z</time></trkpt><trkpt lat="36.96306090667169" lon="15.066462150808341"><ele>461.0</ele><time>2026-04-24T16:06:30Z</time></trkpt><trkpt lat="36.963076223011825" lon="15.06635665033919"><ele>460.20000000000005</ele><time>2026-04-24T16:06:31Z</time></trkpt><trkpt lat="36.96308962844015" lon="15.06623245973273"><ele>459.40000000000003</ele><time>2026-04-24T16:06:32Z</time></trkpt><trkpt lat="36.963119898069095" lon="15.066117435941264"><ele>458.6</ele><time>2026-04-24T16:06:33Z</time></trkpt><trkpt lat="36.9631444751106" lon="15.066006507160894"><ele>457.8</ele><time>2026-04-24T16:06:34Z</time></trkpt><trkpt lat="36.9631630409114" lon="15.06590963314194"><ele>457.0</ele><time>2026-04-24T16:06:35Z</time></trkpt><trkpt lat="36.963179165958834" lon="15.065808460685306"><ele>456.0</ele><time>2026-04-24T16:06:36Z</time></trkpt><trkpt lat="36.96320749984926" lon="15.065698991772608"><ele>455.00000000000006</ele><time>2026-04-24T16:06:37Z</time></trkpt><trkpt lat="36.96323881200544" lon="15.06560961110458"><ele>454.00000000000006</ele><time>2026-04-24T16:06:38Z</time></trkpt><trkpt lat="36.96328742563961" lon="15.065446112307406"><ele>453.0</ele><time>2026-04-24T16:06:40Z</time></trkpt><trkpt lat="36.963301914834574" lon="15.065342980183143"><ele>452.0</ele><time>2026-04-24T16:06:41Z</time></trkpt><trkpt lat="36.963307521295" lon="15.06521981405521"><ele>452.0</ele><time>2026-04-24T16:06:42Z</time></trkpt><trkpt lat="36.96330848328618" lon="15.065081898409558"><ele>452.00000000000006</ele><time>2026-04-24T16:06:43Z</time></trkpt><trkpt lat="36.96330988023045" lon="15.064956907287849"><ele>452.00000000000006</ele><time>2026-04-24T16:06:44Z</time></trkpt><trkpt lat="36.963320166583244" lon="15.06485009760712"><ele>452.0</ele><time>2026-04-24T16:06:45Z</time></trkpt><trkpt lat="36.96333274167656" lon="15.064730956130512"><ele>452.0</ele><time>2026-04-24T16:06:47Z</time></trkpt><trkpt lat="36.963367328064884" lon="15.06462578087889"><ele>452.6</ele><time>2026-04-24T16:06:49Z</time></trkpt><trkpt lat="36.96338328072262" lon="15.064526010516625"><ele>453.20000000000005</ele><time>2026-04-24T16:06:50Z</time></trkpt><trkpt lat="36.963420764661656" lon="15.06439975296591"><ele>453.8</ele><time>2026-04-24T16:06:51Z</time></trkpt><trkpt lat="36.96346506447527" lon="15.064253009919353"><ele>454.4</ele><time>2026-04-24T16:06:52Z</time></trkpt><trkpt lat="36.96348231911379" lon="15.064148184665505"><ele>455.0</ele><time>2026-04-24T16:06:53Z</time></trkpt><trkpt lat="36.96354078388262" lon="15.063956396853012"><ele>455.0</ele><time>2026-04-24T16:06:55Z</time></trkpt><trkpt lat="36.96359177204367" lon="15.06386411046764"><ele>455.0</ele><time>2026-04-24T16:06:56Z</time></trkpt><trkpt lat="36.96365944473721" lon="15.06374935720817"><ele>455.0</ele><time>2026-04-24T16:06:57Z</time></trkpt><trkpt lat="36.96371196375783" lon="15.063644771864094"><ele>455.0</ele><time>2026-04-24T16:06:58Z</time></trkpt><trkpt lat="36.963777009824824" lon="15.06355210588481"><ele>455.0</ele><time>2026-04-24T16:06:59Z</time></trkpt><trkpt lat="36.963837719498414" lon="15.063445876179188"><ele>455.0</ele><time>2026-04-24T16:07:00Z</time></trkpt><trkpt lat="36.96390862462818" lon="15.063340840158089"><ele>455.0</ele><time>2026-04-24T16:07:01Z</time></trkpt><trkpt lat="36.963970674510335" lon="15.063244985114224"><ele>455.0</ele><time>2026-04-24T16:07:02Z</time></trkpt><trkpt lat="36.964018417299464" lon="15.063162503105739"><ele>455.0</ele><time>2026-04-24T16:07:03Z</time></trkpt><trkpt lat="36.96406538397865" lon="15.0630563264698"><ele>455.0</ele><time>2026-04-24T16:07:04Z</time></trkpt><trkpt lat="36.96411648653414" lon="15.062960670433728"><ele>455.99999999999994</ele><time>2026-04-24T16:07:05Z</time></trkpt><trkpt lat="36.96417158877343" lon="15.06288258737437"><ele>457.0</ele><time>2026-04-24T16:07:06Z</time></trkpt><trkpt lat="36.96422909444253" lon="15.062813986868354"><ele>458.0</ele><time>2026-04-24T16:07:07Z</time></trkpt><trkpt lat="36.96435796149912" lon="15.062732093512295"><ele>459.0</ele><time>2026-04-24T16:07:09Z</time></trkpt><trkpt lat="36.96441001039543" lon="15.062685470042242"><ele>459.99999999999994</ele><time>2026-04-24T16:07:09.999Z</time></trkpt><trkpt lat="36.964438700217634" lon="15.062609860775742"><ele>461.0</ele><time>2026-04-24T16:07:10.999Z</time></trkpt><trkpt lat="36.964449617344656" lon="15.062481010479813"><ele>462.20000000000005</ele><time>2026-04-24T16:07:11.999Z</time></trkpt><trkpt lat="36.964466282786525" lon="15.062365878757033"><ele>463.40000000000003</ele><time>2026-04-24T16:07:12.999Z</time></trkpt><trkpt lat="36.964495762964496" lon="15.062266183204255"><ele>464.6</ele><time>2026-04-24T16:07:13.999Z</time></trkpt><trkpt lat="36.96453824646093" lon="15.062139326848229"><ele>465.8</ele><time>2026-04-24T16:07:14.999Z</time></trkpt><trkpt lat="36.964582479705314" lon="15.062029220327394"><ele>467.0</ele><time>2026-04-24T16:07:15.999Z</time></trkpt><trkpt lat="36.96462663238652" lon="15.061931359991515"><ele>467.0</ele><time>2026-04-24T16:07:16.999Z</time></trkpt><trkpt lat="36.96466892824149" lon="15.061821406842006"><ele>467.00000000000006</ele><time>2026-04-24T16:07:17.999Z</time></trkpt><trkpt lat="36.96472461711618" lon="15.061730126184068"><ele>467.00000000000006</ele><time>2026-04-24T16:07:18.999Z</time></trkpt><trkpt lat="36.964771052788784" lon="15.061621554813735"><ele>467.0</ele><time>2026-04-24T16:07:19.999Z</time></trkpt><trkpt lat="36.964831704807686" lon="15.061493532113415"><ele>467.0</ele><time>2026-04-24T16:07:20.999Z</time></trkpt><trkpt lat="36.964897457868226" lon="15.061372378867413"><ele>467.25</ele><time>2026-04-24T16:07:21.999Z</time></trkpt><trkpt lat="36.964967942194896" lon="15.061234027807076"><ele>467.5</ele><time>2026-04-24T16:07:22.999Z</time></trkpt><trkpt lat="36.96504223312896" lon="15.0611137266398"><ele>467.75</ele><time>2026-04-24T16:07:23.999Z</time></trkpt><trkpt lat="36.96511891173612" lon="15.060978040102922"><ele>468.0</ele><time>2026-04-24T16:07:24.999Z</time></trkpt><trkpt lat="36.96520334077714" lon="15.060768578478616"><ele>468.66666666666663</ele><time>2026-04-24T16:07:25.999Z</time></trkpt><trkpt lat="36.96530513476424" lon="15.060528978268342"><ele>469.3333333333333</ele><time>2026-04-24T16:07:26.999Z</time></trkpt><trkpt lat="36.96536478054033" lon="15.060377502527933"><ele>470.0</ele><time>2026-04-24T16:07:29.999Z</time></trkpt><trkpt lat="36.96543994649341" lon="15.06026920845364"><ele>470.0</ele><time>2026-04-24T16:07:30.999Z</time></trkpt><trkpt lat="36.96549811503626" lon="15.060161378385592"><ele>470.0</ele><time>2026-04-24T16:07:31.999Z</time></trkpt><trkpt lat="36.96557441917913" lon="15.060052812992053"><ele>470.0</ele><time>2026-04-24T16:07:32.999Z</time></trkpt><trkpt lat="36.96564890931904" lon="15.059934016887503"><ele>470.0</ele><time>2026-04-24T16:07:33.999Z</time></trkpt><trkpt lat="36.965722941421895" lon="15.059833515536292"><ele>470.0</ele><time>2026-04-24T16:07:34.999Z</time></trkpt><trkpt lat="36.96578605179613" lon="15.059742263681054"><ele>470.2</ele><time>2026-04-24T16:07:35.999Z</time></trkpt><trkpt lat="36.96583707303191" lon="15.059623889950238"><ele>470.4</ele><time>2026-04-24T16:07:36.999Z</time></trkpt><trkpt lat="36.96589569173762" lon="15.05950697820206"><ele>470.6</ele><time>2026-04-24T16:07:37.999Z</time></trkpt><trkpt lat="36.965940224915684" lon="15.059394746695308"><ele>470.8</ele><time>2026-04-24T16:07:38.999Z</time></trkpt><trkpt lat="36.9659888805169" lon="15.059288764312472"><ele>471.0</ele><time>2026-04-24T16:07:39.999Z</time></trkpt><trkpt lat="36.96602755253025" lon="15.059172782390766"><ele>470.6</ele><time>2026-04-24T16:07:40.999Z</time></trkpt><trkpt lat="36.96605735428647" lon="15.059048032196296"><ele>470.20000000000005</ele><time>2026-04-24T16:07:41.999Z</time></trkpt><trkpt lat="36.96608304758962" lon="15.058928675107977"><ele>469.79999999999995</ele><time>2026-04-24T16:07:42.999Z</time></trkpt><trkpt lat="36.96609874876511" lon="15.058809356271013"><ele>469.4</ele><time>2026-04-24T16:07:43.999Z</time></trkpt><trkpt lat="36.966120837413925" lon="15.0586861911061"><ele>469.0</ele><time>2026-04-24T16:07:44.999Z</time></trkpt><trkpt lat="36.96612209123121" lon="15.058559088405374"><ele>469.0</ele><time>2026-04-24T16:07:45.999Z</time></trkpt><trkpt lat="36.96613385353521" lon="15.05838839844677"><ele>469.0</ele><time>2026-04-24T16:07:46.999Z</time></trkpt><trkpt lat="36.96613225748548" lon="15.05827879918901"><ele>469.0</ele><time>2026-04-24T16:07:47.999Z</time></trkpt><trkpt lat="36.96613465710767" lon="15.058162753153082"><ele>469.0</ele><time>2026-04-24T16:07:48.999Z</time></trkpt><trkpt lat="36.9661232236341" lon="15.058042093793476"><ele>469.0</ele><time>2026-04-24T16:07:49.999Z</time></trkpt><trkpt lat="36.96614022554665" lon="15.05794057913018"><ele>468.50000000000006</ele><time>2026-04-24T16:07:50.999Z</time></trkpt><trkpt lat="36.966137522060954" lon="15.057841190953129"><ele>468.0</ele><time>2026-04-24T16:07:51.999Z</time></trkpt><trkpt lat="36.96612213847222" lon="15.057751795766354"><ele>467.5</ele><time>2026-04-24T16:07:52.999Z</time></trkpt><trkpt lat="36.966136099691596" lon="15.057659375290434"><ele>467.0</ele><time>2026-04-24T16:07:53.999Z</time></trkpt><trkpt lat="36.96617042881425" lon="15.05756083123455"><ele>466.50000000000006</ele><time>2026-04-24T16:07:54.999Z</time></trkpt><trkpt lat="36.96620176997588" lon="15.057450685191304"><ele>466.0</ele><time>2026-04-24T16:07:55.999Z</time></trkpt><trkpt lat="36.966228728066554" lon="15.057352586994977"><ele>465.0</ele><time>2026-04-24T16:07:56.999Z</time></trkpt><trkpt lat="36.96624900629158" lon="15.057237747384578"><ele>464.0</ele><time>2026-04-24T16:07:57.999Z</time></trkpt><trkpt lat="36.96628237118902" lon="15.05711027185758"><ele>463.0</ele><time>2026-04-24T16:07:58.999Z</time></trkpt><trkpt lat="36.966308468985964" lon="15.056994806265553"><ele>462.0</ele><time>2026-04-24T16:07:59.999Z</time></trkpt><trkpt lat="36.966336152418414" lon="15.056878794648103"><ele>461.0</ele><time>2026-04-24T16:08:00.999Z</time></trkpt><trkpt lat="36.966349958726425" lon="15.056741843376177"><ele>460.0</ele><time>2026-04-24T16:08:01.999Z</time></trkpt><trkpt lat="36.96636051383387" lon="15.056595304022117"><ele>459.0</ele><time>2026-04-24T16:08:02.999Z</time></trkpt><trkpt lat="36.966377758756025" lon="15.056444157876424"><ele>458.0</ele><time>2026-04-24T16:08:03.999Z</time></trkpt><trkpt lat="36.9663962592456" lon="15.056293967312264"><ele>457.0</ele><time>2026-04-24T16:08:04.999Z</time></trkpt><trkpt lat="36.966409367836135" lon="15.056145550716883"><ele>457.0</ele><time>2026-04-24T16:08:06Z</time></trkpt><trkpt lat="36.966416727442855" lon="15.05602071559764"><ele>457.00000000000006</ele><time>2026-04-24T16:08:07Z</time></trkpt><trkpt lat="36.966421837841914" lon="15.055876772374418"><ele>457.00000000000006</ele><time>2026-04-24T16:08:08Z</time></trkpt><trkpt lat="36.966410159736974" lon="15.05575158259138"><ele>457.0</ele><time>2026-04-24T16:08:09Z</time></trkpt><trkpt lat="36.96640313537739" lon="15.055623245793031"><ele>457.0</ele><time>2026-04-24T16:08:10Z</time></trkpt><trkpt lat="36.966402419764165" lon="15.055515014583225"><ele>456.1666666666667</ele><time>2026-04-24T16:08:11Z</time></trkpt><trkpt lat="36.96641075416663" lon="15.055401457011728"><ele>455.33333333333337</ele><time>2026-04-24T16:08:12Z</time></trkpt><trkpt lat="36.96641078209589" lon="15.055316688665373"><ele>454.5</ele><time>2026-04-24T16:08:13Z</time></trkpt><trkpt lat="36.96642738066752" lon="15.055237243761484"><ele>453.66666666666663</ele><time>2026-04-24T16:08:14Z</time></trkpt><trkpt lat="36.966463419604686" lon="15.055156675802108"><ele>452.8333333333333</ele><time>2026-04-24T16:08:15Z</time></trkpt><trkpt lat="36.966501203489294" lon="15.055040616737397"><ele>452.0</ele><time>2026-04-24T16:08:16Z</time></trkpt><trkpt lat="36.96651190971682" lon="15.054939904302705"><ele>450.8</ele><time>2026-04-24T16:08:17Z</time></trkpt><trkpt lat="36.966526245352846" lon="15.05482298456929"><ele>449.6</ele><time>2026-04-24T16:08:18Z</time></trkpt><trkpt lat="36.96655417231208" lon="15.054698721268018"><ele>448.40000000000003</ele><time>2026-04-24T16:08:19Z</time></trkpt><trkpt lat="36.966567791365144" lon="15.05459224021201"><ele>447.20000000000005</ele><time>2026-04-24T16:08:20Z</time></trkpt><trkpt lat="36.96660299083431" lon="15.054448376895873"><ele>446.0</ele><time>2026-04-24T16:08:21Z</time></trkpt><trkpt lat="36.96662262275525" lon="15.05431744029472"><ele>446.0</ele><time>2026-04-24T16:08:22Z</time></trkpt><trkpt lat="36.96663773333683" lon="15.054177233492434"><ele>446.0</ele><time>2026-04-24T16:08:23Z</time></trkpt><trkpt lat="36.966658049322945" lon="15.054070166274572"><ele>446.0</ele><time>2026-04-24T16:08:24Z</time></trkpt><trkpt lat="36.96668880959481" lon="15.053999034658975"><ele>446.0</ele><time>2026-04-24T16:08:25Z</time></trkpt><trkpt lat="36.96671633859741" lon="15.053807992219886"><ele>446.0</ele><time>2026-04-24T16:08:26Z</time></trkpt><trkpt lat="36.96674237282935" lon="15.053695147918356"><ele>447.0</ele><time>2026-04-24T16:08:27Z</time></trkpt><trkpt lat="36.96672355701372" lon="15.053547968560336"><ele>448.0</ele><time>2026-04-24T16:08:28Z</time></trkpt><trkpt lat="36.96677371112026" lon="15.053386578648844"><ele>449.0</ele><time>2026-04-24T16:08:29Z</time></trkpt><trkpt lat="36.9667902725396" lon="15.053243622518675"><ele>450.0</ele><time>2026-04-24T16:08:30Z</time></trkpt><trkpt lat="36.96680038213531" lon="15.053117130283441"><ele>450.0</ele><time>2026-04-24T16:08:31Z</time></trkpt><trkpt lat="36.96678766106348" lon="15.052986660055904"><ele>450.0</ele><time>2026-04-24T16:08:32Z</time></trkpt><trkpt lat="36.966783601315456" lon="15.052848837420115"><ele>450.0</ele><time>2026-04-24T16:08:33Z</time></trkpt><trkpt lat="36.96676158918239" lon="15.052696734004279"><ele>450.0</ele><time>2026-04-24T16:08:34Z</time></trkpt><trkpt lat="36.966741474298345" lon="15.05257106814598"><ele>450.0</ele><time>2026-04-24T16:08:35Z</time></trkpt><trkpt lat="36.966719668638376" lon="15.052441336577191"><ele>446.75</ele><time>2026-04-24T16:08:36Z</time></trkpt><trkpt lat="36.96667413279851" lon="15.05230755431059"><ele>443.5</ele><time>2026-04-24T16:08:37Z</time></trkpt><trkpt lat="36.96661524970106" lon="15.052168200940157"><ele>440.25</ele><time>2026-04-24T16:08:38Z</time></trkpt><trkpt lat="36.9665657151188" lon="15.052018019725983"><ele>437.0</ele><time>2026-04-24T16:08:39Z</time></trkpt><trkpt lat="36.96651225259934" lon="15.051894076114431"><ele>437.0</ele><time>2026-04-24T16:08:40Z</time></trkpt><trkpt lat="36.966464785495916" lon="15.05179732744324"><ele>437.00000000000006</ele><time>2026-04-24T16:08:41Z</time></trkpt><trkpt lat="36.966434776124736" lon="15.051698195256238"><ele>437.00000000000006</ele><time>2026-04-24T16:08:42Z</time></trkpt><trkpt lat="36.96640539867079" lon="15.051542886297778"><ele>437.0</ele><time>2026-04-24T16:08:43Z</time></trkpt><trkpt lat="36.96636644007654" lon="15.0514013204383"><ele>437.0</ele><time>2026-04-24T16:08:44Z</time></trkpt><trkpt lat="36.96634344492157" lon="15.05126818856394"><ele>436.40000000000003</ele><time>2026-04-24T16:08:45Z</time></trkpt><trkpt lat="36.96631443131149" lon="15.051119997992984"><ele>435.80000000000007</ele><time>2026-04-24T16:08:46Z</time></trkpt><trkpt lat="36.96629687426535" lon="15.051013709839092"><ele>435.2</ele><time>2026-04-24T16:08:47Z</time></trkpt><trkpt lat="36.96627474423852" lon="15.050921257034538"><ele>434.6</ele><time>2026-04-24T16:08:48Z</time></trkpt><trkpt lat="36.966252846556884" lon="15.050807253579666"><ele>434.0</ele><time>2026-04-24T16:08:49Z</time></trkpt><trkpt lat="36.96619735367106" lon="15.050684846750457"><ele>431.6</ele><time>2026-04-24T16:08:50Z</time></trkpt><trkpt lat="36.96616839146901" lon="15.050595641859625"><ele>429.2</ele><time>2026-04-24T16:08:51Z</time></trkpt><trkpt lat="36.96614620008211" lon="15.050491995549569"><ele>426.8</ele><time>2026-04-24T16:08:52Z</time></trkpt><trkpt lat="36.966121245819636" lon="15.05039184716361"><ele>424.40000000000003</ele><time>2026-04-24T16:08:53Z</time></trkpt><trkpt lat="36.966111928322704" lon="15.05025986793524"><ele>422.0</ele><time>2026-04-24T16:08:54Z</time></trkpt><trkpt lat="36.966116839390786" lon="15.050137901520598"><ele>421.99999999999994</ele><time>2026-04-24T16:08:55Z</time></trkpt><trkpt lat="36.966110971465696" lon="15.05005282830963"><ele>422.0</ele><time>2026-04-24T16:08:56Z</time></trkpt><trkpt lat="36.96608714554213" lon="15.049935962984456"><ele>422.0</ele><time>2026-04-24T16:08:57Z</time></trkpt><trkpt lat="36.96609648925919" lon="15.049842401273741"><ele>422.0</ele><time>2026-04-24T16:08:58Z</time></trkpt><trkpt lat="36.96608686185248" lon="15.049711830896879"><ele>421.99999999999994</ele><time>2026-04-24T16:08:59Z</time></trkpt><trkpt lat="36.96607775252369" lon="15.049606465041288"><ele>422.0</ele><time>2026-04-24T16:09:00Z</time></trkpt><trkpt lat="36.96606649044016" lon="15.049476198758336"><ele>421.0</ele><time>2026-04-24T16:09:01Z</time></trkpt><trkpt lat="36.966042874117505" lon="15.049339643094422"><ele>420.0</ele><time>2026-04-24T16:09:02Z</time></trkpt><trkpt lat="36.96604262204125" lon="15.049200400289603"><ele>419.0</ele><time>2026-04-24T16:09:03Z</time></trkpt><trkpt lat="36.9660437012942" lon="15.049084176784062"><ele>418.0</ele><time>2026-04-24T16:09:04Z</time></trkpt><trkpt lat="36.966056869961335" lon="15.048950686789057"><ele>417.0</ele><time>2026-04-24T16:09:05Z</time></trkpt><trkpt lat="36.96606057292836" lon="15.048835650667028"><ele>416.6666666666667</ele><time>2026-04-24T16:09:06Z</time></trkpt><trkpt lat="36.966057341977965" lon="15.048722850370531"><ele>416.33333333333337</ele><time>2026-04-24T16:09:06.999Z</time></trkpt><trkpt lat="36.96608106103031" lon="15.048624248241113"><ele>416.0</ele><time>2026-04-24T16:09:07.999Z</time></trkpt><trkpt lat="36.966089289880436" lon="15.048519812366372"><ele>415.6666666666667</ele><time>2026-04-24T16:09:08.999Z</time></trkpt><trkpt lat="36.96607904512732" lon="15.048404426981167"><ele>415.33333333333337</ele><time>2026-04-24T16:09:09.999Z</time></trkpt><trkpt lat="36.966063944072694" lon="15.04829502092599"><ele>415.0</ele><time>2026-04-24T16:09:10.999Z</time></trkpt><trkpt lat="36.96604258376625" lon="15.04816930441436"><ele>414.6</ele><time>2026-04-24T16:09:11.999Z</time></trkpt><trkpt lat="36.96603436351902" lon="15.048014383211715"><ele>414.2</ele><time>2026-04-24T16:09:12.999Z</time></trkpt><trkpt lat="36.96601224975086" lon="15.047897082778535"><ele>413.79999999999995</ele><time>2026-04-24T16:09:13.999Z</time></trkpt><trkpt lat="36.96601553965017" lon="15.047762111040473"><ele>413.4</ele><time>2026-04-24T16:09:14.999Z</time></trkpt><trkpt lat="36.96602093239554" lon="15.047642478373351"><ele>413.0</ele><time>2026-04-24T16:09:15.999Z</time></trkpt><trkpt lat="36.966040960089295" lon="15.047508873255344"><ele>412.4</ele><time>2026-04-24T16:09:16.999Z</time></trkpt><trkpt lat="36.96606133474895" lon="15.047376983140808"><ele>411.79999999999995</ele><time>2026-04-24T16:09:17.999Z</time></trkpt><trkpt lat="36.966060175039516" lon="15.04728494052741"><ele>411.2</ele><time>2026-04-24T16:09:18.999Z</time></trkpt><trkpt lat="36.966033784751346" lon="15.047178317884804"><ele>410.6</ele><time>2026-04-24T16:09:19.999Z</time></trkpt><trkpt lat="36.96598742208834" lon="15.047099155250203"><ele>410.0</ele><time>2026-04-24T16:09:20.999Z</time></trkpt><trkpt lat="36.96592410365606" lon="15.046956583111806"><ele>410.0</ele><time>2026-04-24T16:09:21.999Z</time></trkpt><trkpt lat="36.9658824950995" lon="15.046850688047215"><ele>410.0</ele><time>2026-04-24T16:09:22.999Z</time></trkpt><trkpt lat="36.96588052654423" lon="15.04673820644085"><ele>410.0</ele><time>2026-04-24T16:09:23.999Z</time></trkpt><trkpt lat="36.96584995660867" lon="15.046652462562163"><ele>410.0</ele><time>2026-04-24T16:09:24.999Z</time></trkpt><trkpt lat="36.9657666855886" lon="15.046588852216088"><ele>410.0</ele><time>2026-04-24T16:09:26.999Z</time></trkpt><trkpt lat="36.965667737101306" lon="15.046581278344586"><ele>409.4</ele><time>2026-04-24T16:09:27.999Z</time></trkpt><trkpt lat="36.96557703866334" lon="15.04653975356443"><ele>408.8</ele><time>2026-04-24T16:09:28.999Z</time></trkpt><trkpt lat="36.96548639202741" lon="15.046492034142714"><ele>408.20000000000005</ele><time>2026-04-24T16:09:29.999Z</time></trkpt><trkpt lat="36.965407237794714" lon="15.046444912873875"><ele>407.6</ele><time>2026-04-24T16:09:30.999Z</time></trkpt><trkpt lat="36.9653297495372" lon="15.046404858956793"><ele>407.0</ele><time>2026-04-24T16:09:31.999Z</time></trkpt><trkpt lat="36.96526891719622" lon="15.046324530612242"><ele>407.0</ele><time>2026-04-24T16:09:32.999Z</time></trkpt><trkpt lat="36.965244362587214" lon="15.046238068339706"><ele>407.0</ele><time>2026-04-24T16:09:33.999Z</time></trkpt><trkpt lat="36.96519897894475" lon="15.046124914758748"><ele>407.0</ele><time>2026-04-24T16:09:34.999Z</time></trkpt><trkpt lat="36.96515106164679" lon="15.04598800614496"><ele>407.0</ele><time>2026-04-24T16:09:35.999Z</time></trkpt><trkpt lat="36.96512661072875" lon="15.045867428603303"><ele>407.0</ele><time>2026-04-24T16:09:36.999Z</time></trkpt><trkpt lat="36.9650847259556" lon="15.045766265852532"><ele>407.20000000000005</ele><time>2026-04-24T16:09:37.999Z</time></trkpt><trkpt lat="36.965035546116965" lon="15.045671061135655"><ele>407.4</ele><time>2026-04-24T16:09:38.999Z</time></trkpt><trkpt lat="36.964974120363756" lon="15.045565879204402"><ele>407.6</ele><time>2026-04-24T16:09:39.999Z</time></trkpt><trkpt lat="36.96492789827662" lon="15.045458905945173"><ele>407.79999999999995</ele><time>2026-04-24T16:09:40.999Z</time></trkpt><trkpt lat="36.96488514369411" lon="15.045347869923683"><ele>408.0</ele><time>2026-04-24T16:09:41.999Z</time></trkpt><trkpt lat="36.9648532984369" lon="15.045240147366641"><ele>406.79999999999995</ele><time>2026-04-24T16:09:42.999Z</time></trkpt><trkpt lat="36.96482631761902" lon="15.045126139540734"><ele>405.6</ele><time>2026-04-24T16:09:43.999Z</time></trkpt><trkpt lat="36.96480196767716" lon="15.045002109965266"><ele>404.4</ele><time>2026-04-24T16:09:44.999Z</time></trkpt><trkpt lat="36.964759932474884" lon="15.044885313443011"><ele>403.20000000000005</ele><time>2026-04-24T16:09:45.999Z</time></trkpt><trkpt lat="36.96471176805404" lon="15.044784700638209"><ele>402.0</ele><time>2026-04-24T16:09:46.999Z</time></trkpt><trkpt lat="36.9646700407617" lon="15.044652422616354"><ele>401.20000000000005</ele><time>2026-04-24T16:09:47.999Z</time></trkpt><trkpt lat="36.964601476379" lon="15.044557324151715"><ele>400.4</ele><time>2026-04-24T16:09:48.999Z</time></trkpt><trkpt lat="36.964524149593174" lon="15.044426606362045"><ele>399.6</ele><time>2026-04-24T16:09:49.999Z</time></trkpt><trkpt lat="36.96445766219378" lon="15.044320813072849"><ele>398.79999999999995</ele><time>2026-04-24T16:09:50.999Z</time></trkpt><trkpt lat="36.964392077781866" lon="15.044239617039283"><ele>398.0</ele><time>2026-04-24T16:09:51.999Z</time></trkpt><trkpt lat="36.96431771995153" lon="15.044162332139404"><ele>397.4</ele><time>2026-04-24T16:09:52.999Z</time></trkpt><trkpt lat="36.96425247557046" lon="15.044083085141187"><ele>396.79999999999995</ele><time>2026-04-24T16:09:53.999Z</time></trkpt><trkpt lat="36.96420410428372" lon="15.043995098071308"><ele>396.2</ele><time>2026-04-24T16:09:54.999Z</time></trkpt><trkpt lat="36.964156178736516" lon="15.043887807734096"><ele>395.6</ele><time>2026-04-24T16:09:55.999Z</time></trkpt><trkpt lat="36.96410059317005" lon="15.043809080729377"><ele>395.0</ele><time>2026-04-24T16:09:56.999Z</time></trkpt><trkpt lat="36.96401960259774" lon="15.043744137716372"><ele>394.4</ele><time>2026-04-24T16:09:57.999Z</time></trkpt><trkpt lat="36.9639323673406" lon="15.043669947069935"><ele>393.8</ele><time>2026-04-24T16:09:58.999Z</time></trkpt><trkpt lat="36.96386948030189" lon="15.043596905472477"><ele>393.20000000000005</ele><time>2026-04-24T16:09:59.999Z</time></trkpt><trkpt lat="36.963824694950254" lon="15.043488872344696"><ele>392.6</ele><time>2026-04-24T16:10:00.999Z</time></trkpt><trkpt lat="36.963782101405194" lon="15.043376516779336"><ele>392.0</ele><time>2026-04-24T16:10:01.999Z</time></trkpt><trkpt lat="36.96376386795724" lon="15.04325690183323"><ele>391.75</ele><time>2026-04-24T16:10:02.999Z</time></trkpt><trkpt lat="36.9637545995918" lon="15.04313535741886"><ele>391.5</ele><time>2026-04-24T16:10:03.999Z</time></trkpt><trkpt lat="36.96374561560511" lon="15.04297836553557"><ele>391.25</ele><time>2026-04-24T16:10:04.999Z</time></trkpt><trkpt lat="36.96374100962249" lon="15.042774397894755"><ele>391.0</ele><time>2026-04-24T16:10:05.999Z</time></trkpt><trkpt lat="36.96372238276927" lon="15.042616764973438"><ele>392.25</ele><time>2026-04-24T16:10:06.999Z</time></trkpt><trkpt lat="36.96372031996278" lon="15.042454694667335"><ele>393.5</ele><time>2026-04-24T16:10:07.999Z</time></trkpt><trkpt lat="36.96368660199623" lon="15.04226807908166"><ele>394.75</ele><time>2026-04-24T16:10:08.999Z</time></trkpt><trkpt lat="36.963664589543264" lon="15.042081963619786"><ele>396.0</ele><time>2026-04-24T16:10:09.999Z</time></trkpt><trkpt lat="36.96366030698835" lon="15.041897903085298"><ele>396.0</ele><time>2026-04-24T16:10:10.999Z</time></trkpt><trkpt lat="36.96362932545237" lon="15.041680777532326"><ele>396.0</ele><time>2026-04-24T16:10:12Z</time></trkpt><trkpt lat="36.96360904935986" lon="15.041482152294332"><ele>396.0</ele><time>2026-04-24T16:10:13Z</time></trkpt><trkpt lat="36.96357284515272" lon="15.041309062972259"><ele>398.0</ele><time>2026-04-24T16:10:14Z</time></trkpt><trkpt lat="36.9635484662875" lon="15.041135882150325"><ele>400.0</ele><time>2026-04-24T16:10:15Z</time></trkpt><trkpt lat="36.96353807264919" lon="15.040912648807137"><ele>402.0</ele><time>2026-04-24T16:10:16Z</time></trkpt><trkpt lat="36.963541806286436" lon="15.04066546061682"><ele>403.66666666666663</ele><time>2026-04-24T16:10:17Z</time></trkpt><trkpt lat="36.96351851232509" lon="15.040419791640964"><ele>405.3333333333333</ele><time>2026-04-24T16:10:18Z</time></trkpt><trkpt lat="36.963498339939214" lon="15.040268870811438"><ele>407.0</ele><time>2026-04-24T16:10:19Z</time></trkpt><trkpt lat="36.96348591461677" lon="15.040082413523837"><ele>408.0</ele><time>2026-04-24T16:10:20Z</time></trkpt><trkpt lat="36.96346656642385" lon="15.039883888970719"><ele>409.0</ele><time>2026-04-24T16:10:21Z</time></trkpt><trkpt lat="36.9634299728184" lon="15.03969583062304"><ele>410.0</ele><time>2026-04-24T16:10:22Z</time></trkpt><trkpt lat="36.963400237499314" lon="15.039474868481154"><ele>410.0</ele><time>2026-04-24T16:10:23Z</time></trkpt><trkpt lat="36.963400586130625" lon="15.039284180714528"><ele>410.0</ele><time>2026-04-24T16:10:24Z</time></trkpt><trkpt lat="36.9633882927053" lon="15.039116604123553"><ele>410.0</ele><time>2026-04-24T16:10:25Z</time></trkpt><trkpt lat="36.96338186911975" lon="15.038954763511278"><ele>410.0</ele><time>2026-04-24T16:10:26Z</time></trkpt><trkpt lat="36.963370479831404" lon="15.038814310307133"><ele>410.0</ele><time>2026-04-24T16:10:27Z</time></trkpt><trkpt lat="36.9633397604309" lon="15.038694298423762"><ele>410.0</ele><time>2026-04-24T16:10:28Z</time></trkpt><trkpt lat="36.96328363552196" lon="15.038604312413394"><ele>410.0</ele><time>2026-04-24T16:10:29Z</time></trkpt><trkpt lat="36.963207588414434" lon="15.038504280759883"><ele>410.0</ele><time>2026-04-24T16:10:30Z</time></trkpt><trkpt lat="36.96311621555458" lon="15.03841743077055"><ele>410.0</ele><time>2026-04-24T16:10:31Z</time></trkpt><trkpt lat="36.963028444752005" lon="15.038327374472624"><ele>411.6</ele><time>2026-04-24T16:10:32Z</time></trkpt><trkpt lat="36.962932261502814" lon="15.038242379940138"><ele>413.2</ele><time>2026-04-24T16:10:33Z</time></trkpt><trkpt lat="36.96284037157424" lon="15.038168259028957"><ele>414.79999999999995</ele><time>2026-04-24T16:10:34Z</time></trkpt><trkpt lat="36.96276771668561" lon="15.038096615064834"><ele>416.4</ele><time>2026-04-24T16:10:35Z</time></trkpt><trkpt lat="36.96273183816861" lon="15.038016047670759"><ele>418.0</ele><time>2026-04-24T16:10:36Z</time></trkpt><trkpt lat="36.96268252037304" lon="15.037898144647507"><ele>418.0</ele><time>2026-04-24T16:10:38Z</time></trkpt><trkpt lat="36.96264284696504" lon="15.037747300262549"><ele>418.0</ele><time>2026-04-24T16:10:40Z</time></trkpt><trkpt lat="36.96261960167356" lon="15.037648076938588"><ele>418.0</ele><time>2026-04-24T16:10:41Z</time></trkpt><trkpt lat="36.96259390283868" lon="15.037527209403612"><ele>418.0</ele><time>2026-04-24T16:10:42Z</time></trkpt><trkpt lat="36.96254681837689" lon="15.037446926247629"><ele>418.0</ele><time>2026-04-24T16:10:43Z</time></trkpt><trkpt lat="36.96246716902591" lon="15.03736471494682"><ele>418.75</ele><time>2026-04-24T16:10:44Z</time></trkpt><trkpt lat="36.96242219196704" lon="15.037279244639095"><ele>419.5</ele><time>2026-04-24T16:10:45Z</time></trkpt><trkpt lat="36.962565873156734" lon="15.037108769214875"><ele>420.25</ele><time>2026-04-24T16:10:51Z</time></trkpt><trkpt lat="36.96262888365521" lon="15.037033057726365"><ele>421.0</ele><time>2026-04-24T16:10:52Z</time></trkpt><trkpt lat="36.96271670650049" lon="15.036939493137943"><ele>421.0</ele><time>2026-04-24T16:10:53Z</time></trkpt><trkpt lat="36.96278626768916" lon="15.03679181755019"><ele>421.0</ele><time>2026-04-24T16:10:54Z</time></trkpt><trkpt lat="36.96289657835914" lon="15.03662885810066"><ele>421.0</ele><time>2026-04-24T16:10:55Z</time></trkpt><trkpt lat="36.96301098969016" lon="15.036431813008598"><ele>421.25</ele><time>2026-04-24T16:10:56Z</time></trkpt><trkpt lat="36.96306135043684" lon="15.036283427487087"><ele>421.5</ele><time>2026-04-24T16:10:57Z</time></trkpt><trkpt lat="36.963095857849176" lon="15.036119203621121"><ele>421.75</ele><time>2026-04-24T16:10:58Z</time></trkpt><trkpt lat="36.96314996910232" lon="15.036019412844958"><ele>422.0</ele><time>2026-04-24T16:10:59Z</time></trkpt><trkpt lat="36.96321093906495" lon="15.035896443935226"><ele>426.5</ele><time>2026-04-24T16:11:00Z</time></trkpt><trkpt lat="36.963378977987325" lon="15.035592498041378"><ele>431.0</ele><time>2026-04-24T16:11:01Z</time></trkpt><trkpt lat="36.96347125634235" lon="15.035398228827026"><ele>431.0</ele><time>2026-04-24T16:11:02Z</time></trkpt><trkpt lat="36.96355948043579" lon="15.035172540554825"><ele>431.0</ele><time>2026-04-24T16:11:03Z</time></trkpt><trkpt lat="36.96365612174943" lon="15.03501002409984"><ele>431.0</ele><time>2026-04-24T16:11:04Z</time></trkpt><trkpt lat="36.96374486548995" lon="15.034829558111737"><ele>431.0</ele><time>2026-04-24T16:11:04.999Z</time></trkpt><trkpt lat="36.963837501925134" lon="15.034656422776068"><ele>431.0</ele><time>2026-04-24T16:11:05.999Z</time></trkpt><trkpt lat="36.96394721473935" lon="15.034503334236748"><ele>431.0</ele><time>2026-04-24T16:11:06.999Z</time></trkpt><trkpt lat="36.96406926827587" lon="15.034348195669331"><ele>432.3333333333333</ele><time>2026-04-24T16:11:07.999Z</time></trkpt><trkpt lat="36.96420070413262" lon="15.03420375335879"><ele>433.66666666666663</ele><time>2026-04-24T16:11:08.999Z</time></trkpt><trkpt lat="36.96433540138674" lon="15.034067953107664"><ele>435.0</ele><time>2026-04-24T16:11:09.999Z</time></trkpt><trkpt lat="36.96446030420726" lon="15.0339481082954"><ele>435.0</ele><time>2026-04-24T16:11:10.999Z</time></trkpt><trkpt lat="36.96458897450655" lon="15.033909162674352"><ele>435.0</ele><time>2026-04-24T16:11:11.999Z</time></trkpt><trkpt lat="36.96469055425613" lon="15.033919780240378"><ele>435.0</ele><time>2026-04-24T16:11:12.999Z</time></trkpt><trkpt lat="36.96481945843793" lon="15.033966564717906"><ele>435.0</ele><time>2026-04-24T16:11:13.999Z</time></trkpt><trkpt lat="36.96496237287059" lon="15.034024310850661"><ele>434.0</ele><time>2026-04-24T16:11:14.999Z</time></trkpt><trkpt lat="36.96512024634245" lon="15.03409463686739"><ele>433.0</ele><time>2026-04-24T16:11:15.999Z</time></trkpt><trkpt lat="36.96528510743911" lon="15.034165586415366"><ele>432.0</ele><time>2026-04-24T16:11:16.999Z</time></trkpt><trkpt lat="36.965447739979794" lon="15.034235577046825"><ele>433.5</ele><time>2026-04-24T16:11:17.999Z</time></trkpt><trkpt lat="36.96560056947816" lon="15.034301348697621"><ele>435.0</ele><time>2026-04-24T16:11:18.999Z</time></trkpt><trkpt lat="36.96574115893057" lon="15.03434842556359"><ele>436.5</ele><time>2026-04-24T16:11:19.999Z</time></trkpt><trkpt lat="36.9658805395578" lon="15.034362732696916"><ele>438.0</ele><time>2026-04-24T16:11:20.999Z</time></trkpt><trkpt lat="36.96601383983901" lon="15.034353534619115"><ele>438.0</ele><time>2026-04-24T16:11:21.999Z</time></trkpt><trkpt lat="36.96617188113268" lon="15.034335412782031"><ele>438.0</ele><time>2026-04-24T16:11:22.999Z</time></trkpt><trkpt lat="36.96633769388876" lon="15.034288536215085"><ele>438.0</ele><time>2026-04-24T16:11:23.999Z</time></trkpt><trkpt lat="36.96651769105388" lon="15.034235025890169"><ele>438.0</ele><time>2026-04-24T16:11:24.999Z</time></trkpt><trkpt lat="36.96670187817873" lon="15.034188201869998"><ele>438.0</ele><time>2026-04-24T16:11:25.999Z</time></trkpt><trkpt lat="36.96689086169758" lon="15.034137919929728"><ele>438.0</ele><time>2026-04-24T16:11:26.999Z</time></trkpt><trkpt lat="36.9670846239358" lon="15.034096141535212"><ele>438.0</ele><time>2026-04-24T16:11:27.999Z</time></trkpt><trkpt lat="36.967269540493554" lon="15.034044640858122"><ele>438.0</ele><time>2026-04-24T16:11:28.999Z</time></trkpt><trkpt lat="36.96746300916671" lon="15.034009868187399"><ele>438.0</ele><time>2026-04-24T16:11:29.999Z</time></trkpt><trkpt lat="36.967654691542364" lon="15.033962153795793"><ele>439.0</ele><time>2026-04-24T16:11:30.999Z</time></trkpt><trkpt lat="36.967846052298164" lon="15.033922618106295"><ele>440.0</ele><time>2026-04-24T16:11:31.999Z</time></trkpt><trkpt lat="36.968039837874485" lon="15.033874378331772"><ele>441.0</ele><time>2026-04-24T16:11:32.999Z</time></trkpt><trkpt lat="36.96823584773444" lon="15.03382195388122"><ele>441.33333333333337</ele><time>2026-04-24T16:11:33.999Z</time></trkpt><trkpt lat="36.968428643206835" lon="15.03377001636667"><ele>441.6666666666667</ele><time>2026-04-24T16:11:34.999Z</time></trkpt><trkpt lat="36.96861534294932" lon="15.033700492544323"><ele>442.0</ele><time>2026-04-24T16:11:35.999Z</time></trkpt><trkpt lat="36.968803430509595" lon="15.03363703496432"><ele>442.0</ele><time>2026-04-24T16:11:36.999Z</time></trkpt><trkpt lat="36.968992162331915" lon="15.033568984388037"><ele>442.0</ele><time>2026-04-24T16:11:37.999Z</time></trkpt><trkpt lat="36.96918061444246" lon="15.033490597834245"><ele>442.0</ele><time>2026-04-24T16:11:38.999Z</time></trkpt><trkpt lat="36.96937184885153" lon="15.033417477129655"><ele>442.6666666666667</ele><time>2026-04-24T16:11:39.999Z</time></trkpt><trkpt lat="36.96956505344046" lon="15.033345450700915"><ele>443.33333333333337</ele><time>2026-04-24T16:11:40.999Z</time></trkpt><trkpt lat="36.96975074349633" lon="15.033281307199399"><ele>444.0</ele><time>2026-04-24T16:11:41.999Z</time></trkpt><trkpt lat="36.9699366478311" lon="15.033211909249214"><ele>444.0</ele><time>2026-04-24T16:11:42.999Z</time></trkpt><trkpt lat="36.97012362222941" lon="15.033160803837992"><ele>444.0</ele><time>2026-04-24T16:11:43.999Z</time></trkpt><trkpt lat="36.97031665903705" lon="15.033132652520354"><ele>444.0</ele><time>2026-04-24T16:11:44.999Z</time></trkpt><trkpt lat="36.97051249217455" lon="15.033129873381101"><ele>444.0</ele><time>2026-04-24T16:11:45.999Z</time></trkpt><trkpt lat="36.97070961351843" lon="15.033138605431615"><ele>444.0</ele><time>2026-04-24T16:11:46.999Z</time></trkpt><trkpt lat="36.97090274208858" lon="15.03314406914591"><ele>444.0</ele><time>2026-04-24T16:11:47.999Z</time></trkpt><trkpt lat="36.971099147350756" lon="15.033143244634578"><ele>444.66666666666663</ele><time>2026-04-24T16:11:48.999Z</time></trkpt><trkpt lat="36.971296797468135" lon="15.033137971885202"><ele>445.3333333333333</ele><time>2026-04-24T16:11:49.999Z</time></trkpt><trkpt lat="36.97150046977915" lon="15.033142552774764"><ele>446.0</ele><time>2026-04-24T16:11:50.999Z</time></trkpt><trkpt lat="36.971695215438174" lon="15.033141042252412"><ele>446.0</ele><time>2026-04-24T16:11:51.999Z</time></trkpt><trkpt lat="36.97187973457853" lon="15.033106688685407"><ele>446.0</ele><time>2026-04-24T16:11:52.999Z</time></trkpt><trkpt lat="36.972071767826236" lon="15.03305287646702"><ele>446.0</ele><time>2026-04-24T16:11:53.999Z</time></trkpt><trkpt lat="36.97227440035867" lon="15.03298653429877"><ele>446.0</ele><time>2026-04-24T16:11:54.999Z</time></trkpt><trkpt lat="36.97246263364991" lon="15.03288826774443"><ele>446.0</ele><time>2026-04-24T16:11:55.999Z</time></trkpt><trkpt lat="36.972653879082266" lon="15.032797041955355"><ele>446.0</ele><time>2026-04-24T16:11:56.999Z</time></trkpt><trkpt lat="36.97286008248655" lon="15.03271478314362"><ele>446.0</ele><time>2026-04-24T16:11:57.999Z</time></trkpt><trkpt lat="36.97307011436487" lon="15.032633567909512"><ele>446.0</ele><time>2026-04-24T16:11:58.999Z</time></trkpt><trkpt lat="36.973281251832965" lon="15.03254632940552"><ele>446.0</ele><time>2026-04-24T16:11:59.999Z</time></trkpt><trkpt lat="36.973493578905895" lon="15.032462309003218"><ele>446.0</ele><time>2026-04-24T16:12:00.999Z</time></trkpt><trkpt lat="36.973701226361314" lon="15.032370762466742"><ele>446.0</ele><time>2026-04-24T16:12:01.999Z</time></trkpt><trkpt lat="36.97390885234671" lon="15.032284227443673"><ele>446.0</ele><time>2026-04-24T16:12:02.999Z</time></trkpt><trkpt lat="36.97411661881237" lon="15.032192695267923"><ele>446.0</ele><time>2026-04-24T16:12:03.999Z</time></trkpt><trkpt lat="36.97432820804805" lon="15.032111812142913"><ele>446.0</ele><time>2026-04-24T16:12:04.999Z</time></trkpt><trkpt lat="36.974531218109654" lon="15.032032623028266"><ele>446.0</ele><time>2026-04-24T16:12:05.999Z</time></trkpt><trkpt lat="36.97475002049359" lon="15.031933030915873"><ele>446.0</ele><time>2026-04-24T16:12:06.999Z</time></trkpt><trkpt lat="36.97496150225856" lon="15.031847717282108"><ele>446.0</ele><time>2026-04-24T16:12:07.999Z</time></trkpt><trkpt lat="36.97517448055921" lon="15.031759950323524"><ele>446.0</ele><time>2026-04-24T16:12:08.999Z</time></trkpt><trkpt lat="36.97534533040689" lon="15.031692009365184"><ele>447.3333333333333</ele><time>2026-04-24T16:12:09.999Z</time></trkpt><trkpt lat="36.97551033073795" lon="15.031637509980717"><ele>448.66666666666663</ele><time>2026-04-24T16:12:10.999Z</time></trkpt><trkpt lat="36.975683639156834" lon="15.03164257964836"><ele>450.0</ele><time>2026-04-24T16:12:11.999Z</time></trkpt><trkpt lat="36.975809639838026" lon="15.031679702209171"><ele>451.5</ele><time>2026-04-24T16:12:12.999Z</time></trkpt><trkpt lat="36.975928754779524" lon="15.031746287969542"><ele>453.0</ele><time>2026-04-24T16:12:13.999Z</time></trkpt><trkpt lat="36.97602199361611" lon="15.031860306794218"><ele>454.5</ele><time>2026-04-24T16:12:14.998Z</time></trkpt><trkpt lat="36.97611530011378" lon="15.03200019735545"><ele>456.0</ele><time>2026-04-24T16:12:15.998Z</time></trkpt><trkpt lat="36.97621490389842" lon="15.032164437191328"><ele>456.0</ele><time>2026-04-24T16:12:16.998Z</time></trkpt><trkpt lat="36.976316530052124" lon="15.032332075669508"><ele>456.0</ele><time>2026-04-24T16:12:18Z</time></trkpt><trkpt lat="36.97642429593446" lon="15.032457518501465"><ele>456.0</ele><time>2026-04-24T16:12:19Z</time></trkpt><trkpt lat="36.976520593239684" lon="15.03255986216784"><ele>456.0</ele><time>2026-04-24T16:12:20Z</time></trkpt><trkpt lat="36.97663393631325" lon="15.032637278562087"><ele>453.33333333333337</ele><time>2026-04-24T16:12:21Z</time></trkpt><trkpt lat="36.97676839997307" lon="15.03268509971496"><ele>450.6666666666667</ele><time>2026-04-24T16:12:22Z</time></trkpt><trkpt lat="36.976928977841226" lon="15.032676935736587"><ele>448.0</ele><time>2026-04-24T16:12:23Z</time></trkpt><trkpt lat="36.97709394720076" lon="15.032646148038674"><ele>448.0</ele><time>2026-04-24T16:12:24Z</time></trkpt><trkpt lat="36.977264010142754" lon="15.032570318255834"><ele>448.0</ele><time>2026-04-24T16:12:25Z</time></trkpt><trkpt lat="36.97742339698069" lon="15.032499977977327"><ele>448.0</ele><time>2026-04-24T16:12:26Z</time></trkpt><trkpt lat="36.977573443133096" lon="15.032425652900269"><ele>445.6666666666667</ele><time>2026-04-24T16:12:27Z</time></trkpt><trkpt lat="36.977713247999105" lon="15.032328801374113"><ele>443.33333333333337</ele><time>2026-04-24T16:12:28Z</time></trkpt><trkpt lat="36.97783977560306" lon="15.032210413820595"><ele>441.0</ele><time>2026-04-24T16:12:29Z</time></trkpt><trkpt lat="36.97795321389871" lon="15.032079738867097"><ele>441.0</ele><time>2026-04-24T16:12:30Z</time></trkpt><trkpt lat="36.978047232862735" lon="15.031918599138342"><ele>441.0</ele><time>2026-04-24T16:12:31Z</time></trkpt><trkpt lat="36.97812529868005" lon="15.031734630532997"><ele>441.0</ele><time>2026-04-24T16:12:32Z</time></trkpt><trkpt lat="36.97819661478494" lon="15.031548401620912"><ele>440.66666666666663</ele><time>2026-04-24T16:12:33Z</time></trkpt><trkpt lat="36.978275137522" lon="15.031361771067447"><ele>440.3333333333333</ele><time>2026-04-24T16:12:34Z</time></trkpt><trkpt lat="36.97835333528067" lon="15.031191515382394"><ele>440.0</ele><time>2026-04-24T16:12:35Z</time></trkpt><trkpt lat="36.97842638051699" lon="15.031042852210415"><ele>440.0</ele><time>2026-04-24T16:12:36Z</time></trkpt><trkpt lat="36.97849829441801" lon="15.030899605141324"><ele>440.0</ele><time>2026-04-24T16:12:37Z</time></trkpt><trkpt lat="36.97857487758193" lon="15.030792861474334"><ele>440.0</ele><time>2026-04-24T16:12:38Z</time></trkpt><trkpt lat="36.978666325932075" lon="15.030746029611237"><ele>440.0</ele><time>2026-04-24T16:12:39Z</time></trkpt><trkpt lat="36.978758313840835" lon="15.030775025299477"><ele>440.0</ele><time>2026-04-24T16:12:40Z</time></trkpt><trkpt lat="36.97886130558158" lon="15.030868985633766"><ele>440.0</ele><time>2026-04-24T16:12:41Z</time></trkpt><trkpt lat="36.97896766620881" lon="15.030950461771205"><ele>440.0</ele><time>2026-04-24T16:12:42Z</time></trkpt><trkpt lat="36.979113814563945" lon="15.031031437699102"><ele>440.0</ele><time>2026-04-24T16:12:43Z</time></trkpt><trkpt lat="36.97924596549431" lon="15.031081921178158"><ele>440.0</ele><time>2026-04-24T16:12:44Z</time></trkpt><trkpt lat="36.97938033522446" lon="15.031089265696327"><ele>439.0</ele><time>2026-04-24T16:12:45Z</time></trkpt><trkpt lat="36.97952689519268" lon="15.031042229953481"><ele>438.0</ele><time>2026-04-24T16:12:46Z</time></trkpt><trkpt lat="36.979669765068415" lon="15.030959577726366"><ele>437.0</ele><time>2026-04-24T16:12:47Z</time></trkpt><trkpt lat="36.97982558527631" lon="15.03085225524404"><ele>437.0</ele><time>2026-04-24T16:12:48Z</time></trkpt><trkpt lat="36.97998598923314" lon="15.030742514339861"><ele>437.0</ele><time>2026-04-24T16:12:49Z</time></trkpt><trkpt lat="36.980147860735606" lon="15.030627181962112"><ele>437.0</ele><time>2026-04-24T16:12:50Z</time></trkpt><trkpt lat="36.98031062330235" lon="15.030514811552687"><ele>437.0</ele><time>2026-04-24T16:12:51Z</time></trkpt><trkpt lat="36.98048624507568" lon="15.030399434903718"><ele>437.0</ele><time>2026-04-24T16:12:52Z</time></trkpt><trkpt lat="36.98066556469821" lon="15.030284525781179"><ele>437.0</ele><time>2026-04-24T16:12:53Z</time></trkpt><trkpt lat="36.98084879148986" lon="15.030162547876543"><ele>436.3333333333333</ele><time>2026-04-24T16:12:54Z</time></trkpt><trkpt lat="36.98103072494615" lon="15.03004448403797"><ele>435.66666666666663</ele><time>2026-04-24T16:12:55Z</time></trkpt><trkpt lat="36.98121256675907" lon="15.02992106185496"><ele>435.0</ele><time>2026-04-24T16:12:56Z</time></trkpt><trkpt lat="36.98139832254061" lon="15.029829762364283"><ele>435.0</ele><time>2026-04-24T16:12:57Z</time></trkpt><trkpt lat="36.981576318333246" lon="15.029696090748617"><ele>435.0</ele><time>2026-04-24T16:12:58Z</time></trkpt><trkpt lat="36.98175529109663" lon="15.02956099957396"><ele>435.0</ele><time>2026-04-24T16:12:59Z</time></trkpt><trkpt lat="36.981936104698384" lon="15.029454022211592"><ele>434.33333333333337</ele><time>2026-04-24T16:13:00Z</time></trkpt><trkpt lat="36.98211137641382" lon="15.029364747414311"><ele>433.6666666666667</ele><time>2026-04-24T16:13:01Z</time></trkpt><trkpt lat="36.98230201016079" lon="15.029224600831194"><ele>433.0</ele><time>2026-04-24T16:13:02Z</time></trkpt><trkpt lat="36.982479478622736" lon="15.029097788033186"><ele>433.33333333333337</ele><time>2026-04-24T16:13:03Z</time></trkpt><trkpt lat="36.98265654510069" lon="15.028969551503106"><ele>433.66666666666663</ele><time>2026-04-24T16:13:04Z</time></trkpt><trkpt lat="36.98283696750667" lon="15.028874279730005"><ele>434.0</ele><time>2026-04-24T16:13:05Z</time></trkpt><trkpt lat="36.98304301078549" lon="15.02878914722165"><ele>434.0</ele><time>2026-04-24T16:13:06Z</time></trkpt><trkpt lat="36.98323865553477" lon="15.028726542009933"><ele>434.0</ele><time>2026-04-24T16:13:07Z</time></trkpt><trkpt lat="36.9834258059459" lon="15.028657388877901"><ele>434.0</ele><time>2026-04-24T16:13:08Z</time></trkpt><trkpt lat="36.983617624075045" lon="15.028599145871098"><ele>433.66666666666663</ele><time>2026-04-24T16:13:09Z</time></trkpt><trkpt lat="36.98381744459261" lon="15.028524704233552"><ele>433.33333333333337</ele><time>2026-04-24T16:13:09.999Z</time></trkpt><trkpt lat="36.984009226679625" lon="15.028463028256278"><ele>433.0</ele><time>2026-04-24T16:13:10.999Z</time></trkpt><trkpt lat="36.9842011267015" lon="15.028394479919466"><ele>433.33333333333337</ele><time>2026-04-24T16:13:11.999Z</time></trkpt><trkpt lat="36.98437703069975" lon="15.02832098428376"><ele>433.66666666666663</ele><time>2026-04-24T16:13:12.999Z</time></trkpt><trkpt lat="36.984574352874574" lon="15.028264496829786"><ele>434.0</ele><time>2026-04-24T16:13:13.999Z</time></trkpt><trkpt lat="36.984763974481424" lon="15.028200175533904"><ele>434.0</ele><time>2026-04-24T16:13:14.999Z</time></trkpt><trkpt lat="36.98495373151266" lon="15.028135291939028"><ele>434.0</ele><time>2026-04-24T16:13:15.999Z</time></trkpt><trkpt lat="36.98513109335052" lon="15.028074118661829"><ele>434.0</ele><time>2026-04-24T16:13:16.999Z</time></trkpt><trkpt lat="36.98529143956894" lon="15.02801490916877"><ele>431.66666666666663</ele><time>2026-04-24T16:13:17.999Z</time></trkpt><trkpt lat="36.98544386230635" lon="15.027948465131171"><ele>429.33333333333337</ele><time>2026-04-24T16:13:18.999Z</time></trkpt><trkpt lat="36.98558225327345" lon="15.027866408091494"><ele>427.0</ele><time>2026-04-24T16:13:19.999Z</time></trkpt><trkpt lat="36.98570293531616" lon="15.027754246065193"><ele>427.0</ele><time>2026-04-24T16:13:20.999Z</time></trkpt><trkpt lat="36.9858178354753" lon="15.02759789922087"><ele>427.0</ele><time>2026-04-24T16:13:21.999Z</time></trkpt><trkpt lat="36.985909425179926" lon="15.02741574446586"><ele>427.0</ele><time>2026-04-24T16:13:22.999Z</time></trkpt><trkpt lat="36.98598345714152" lon="15.027219368898708"><ele>424.6666666666667</ele><time>2026-04-24T16:13:23.999Z</time></trkpt><trkpt lat="36.986051289383475" lon="15.02701812623491"><ele>422.33333333333337</ele><time>2026-04-24T16:13:24.999Z</time></trkpt><trkpt lat="36.986117713643566" lon="15.026816601589662"><ele>420.0</ele><time>2026-04-24T16:13:25.999Z</time></trkpt><trkpt lat="36.9861776141021" lon="15.026646191501543"><ele>419.6</ele><time>2026-04-24T16:13:26.999Z</time></trkpt><trkpt lat="36.98623203778599" lon="15.026524573994664"><ele>419.2</ele><time>2026-04-24T16:13:27.999Z</time></trkpt><trkpt lat="36.98629725386653" lon="15.026446600462704"><ele>418.79999999999995</ele><time>2026-04-24T16:13:28.999Z</time></trkpt><trkpt lat="36.986369794577406" lon="15.026413420653208"><ele>418.4</ele><time>2026-04-24T16:13:29.999Z</time></trkpt><trkpt lat="36.98644398574306" lon="15.026423788439535"><ele>418.0</ele><time>2026-04-24T16:13:30.999Z</time></trkpt><trkpt lat="36.98652716979727" lon="15.02649093565276"><ele>418.0</ele><time>2026-04-24T16:13:32.999Z</time></trkpt><trkpt lat="36.986595719825445" lon="15.026415663347311"><ele>418.0</ele><time>2026-04-24T16:13:34.999Z</time></trkpt><trkpt lat="36.98661700889522" lon="15.026327097297582"><ele>418.0</ele><time>2026-04-24T16:13:35.999Z</time></trkpt><trkpt lat="36.98664641453162" lon="15.026226567114868"><ele>418.0</ele><time>2026-04-24T16:13:36.999Z</time></trkpt><trkpt lat="36.986670509074614" lon="15.02609841793042"><ele>418.0</ele><time>2026-04-24T16:13:37.999Z</time></trkpt><trkpt lat="36.98668646142433" lon="15.0259822416268"><ele>417.79999999999995</ele><time>2026-04-24T16:13:38.999Z</time></trkpt><trkpt lat="36.986686149056645" lon="15.025889068032864"><ele>417.6</ele><time>2026-04-24T16:13:39.999Z</time></trkpt><trkpt lat="36.9866373920134" lon="15.025803644601588"><ele>417.4</ele><time>2026-04-24T16:13:40.999Z</time></trkpt><trkpt lat="36.98656543052781" lon="15.025713174932815"><ele>417.20000000000005</ele><time>2026-04-24T16:13:41.999Z</time></trkpt><trkpt lat="36.98655879290807" lon="15.025606747843444"><ele>417.0</ele><time>2026-04-24T16:13:42.999Z</time></trkpt><trkpt lat="36.98658129004302" lon="15.025444786468897"><ele>417.0</ele><time>2026-04-24T16:13:44.999Z</time></trkpt><trkpt lat="36.986598566556275" lon="15.025343155589681"><ele>417.0</ele><time>2026-04-24T16:13:45.999Z</time></trkpt><trkpt lat="36.98662403407638" lon="15.025219314744472"><ele>417.0</ele><time>2026-04-24T16:13:46.999Z</time></trkpt><trkpt lat="36.98664391794865" lon="15.025102507034727"><ele>417.0</ele><time>2026-04-24T16:13:47.999Z</time></trkpt><trkpt lat="36.98667933499182" lon="15.024975143753846"><ele>417.0</ele><time>2026-04-24T16:13:48.999Z</time></trkpt><trkpt lat="36.986721733936896" lon="15.024854440397526"><ele>415.6</ele><time>2026-04-24T16:13:49.999Z</time></trkpt><trkpt lat="36.98678027406281" lon="15.024759165347005"><ele>414.20000000000005</ele><time>2026-04-24T16:13:50.999Z</time></trkpt><trkpt lat="36.98680953119684" lon="15.02465773075208"><ele>412.8</ele><time>2026-04-24T16:13:51.999Z</time></trkpt><trkpt lat="36.98686545291518" lon="15.024572105147467"><ele>411.4</ele><time>2026-04-24T16:13:52.999Z</time></trkpt><trkpt lat="36.98698422668733" lon="15.024637370201352"><ele>410.0</ele><time>2026-04-24T16:13:58.999Z</time></trkpt><trkpt lat="36.98694806791397" lon="15.024769438608613"><ele>409.99999999999994</ele><time>2026-04-24T16:14:00.999Z</time></trkpt><trkpt lat="36.9869084799699" lon="15.024842240441107"><ele>410.0</ele><time>2026-04-24T16:14:01.999Z</time></trkpt><trkpt lat="36.98682688871198" lon="15.024912006066147"><ele>410.0</ele><time>2026-04-24T16:14:03.999Z</time></trkpt><trkpt lat="36.98674698456657" lon="15.024998551824817"><ele>410.0</ele><time>2026-04-24T16:14:05.999Z</time></trkpt><trkpt lat="36.98672389366713" lon="15.02511190513056"><ele>409.99999999999994</ele><time>2026-04-24T16:14:07.999Z</time></trkpt><trkpt lat="36.9866958010224" lon="15.025195076898877"><ele>410.0</ele><time>2026-04-24T16:14:08.999Z</time></trkpt><trkpt lat="36.986668680388895" lon="15.025322892288173"><ele>409.49999999999994</ele><time>2026-04-24T16:14:10.999Z</time></trkpt><trkpt lat="36.98670885463157" lon="15.025390394846813"><ele>409.0</ele><time>2026-04-24T16:14:13.999Z</time></trkpt><trkpt lat="36.98683660481393" lon="15.025394440284389"><ele>408.5</ele><time>2026-04-24T16:14:15.999Z</time></trkpt><trkpt lat="36.98693010827881" lon="15.025404103248178"><ele>408.0</ele><time>2026-04-24T16:14:17.999Z</time></trkpt><trkpt lat="36.98697563917132" lon="15.025463946489337"><ele>407.49999999999994</ele><time>2026-04-24T16:14:19.998Z</time></trkpt><trkpt lat="36.98702344194627" lon="15.025539074867469"><ele>407.0</ele><time>2026-04-24T16:14:29Z</time></trkpt><trkpt lat="36.987055205324104" lon="15.025463797624578"><ele>406.99999999999994</ele><time>2026-04-24T16:14:36Z</time></trkpt><trkpt lat="36.98708749099323" lon="15.0253912958709"><ele>407.0</ele><time>2026-04-24T16:14:39Z</time></trkpt><trkpt lat="36.98711868165921" lon="15.025311283720747"><ele>407.0</ele><time>2026-04-24T16:14:46Z</time></trkpt><trkpt lat="36.987224329248626" lon="15.02532780946117"><ele>407.0</ele><time>2026-04-24T16:14:52Z</time></trkpt><trkpt lat="36.98729609294662" lon="15.025302980425288"><ele>406.99999999999994</ele><time>2026-04-24T16:14:54Z</time></trkpt><trkpt lat="36.9873433801278" lon="15.025211185941124"><ele>407.0</ele><time>2026-04-24T16:14:58Z</time></trkpt><trkpt lat="36.98732035645011" lon="15.025118916906369"><ele>407.0</ele><time>2026-04-24T16:15:00Z</time></trkpt><trkpt lat="36.987290292219996" lon="15.025024341821782"><ele>407.0</ele><time>2026-04-24T16:15:02Z</time></trkpt><trkpt lat="36.987260262202604" lon="15.024929111968278"><ele>407.0</ele><time>2026-04-24T16:15:05Z</time></trkpt><trkpt lat="36.9873205653868" lon="15.024847252022678"><ele>407.0</ele><time>2026-04-24T16:15:07Z</time></trkpt><trkpt lat="36.987424978449766" lon="15.024757760263132"><ele>407.0</ele><time>2026-04-24T16:15:09Z</time></trkpt><trkpt lat="36.987484635728954" lon="15.024660335095467"><ele>407.20000000000005</ele><time>2026-04-24T16:15:10.999Z</time></trkpt><trkpt lat="36.987572808883016" lon="15.02455721257612"><ele>407.4</ele><time>2026-04-24T16:15:12.999Z</time></trkpt><trkpt lat="36.98767180316742" lon="15.024492993472649"><ele>407.6</ele><time>2026-04-24T16:15:14.999Z</time></trkpt><trkpt lat="36.987739696751355" lon="15.024455146804556"><ele>407.79999999999995</ele><time>2026-04-24T16:15:15.999Z</time></trkpt><trkpt lat="36.98781131685731" lon="15.024407928859898"><ele>408.0</ele><time>2026-04-24T16:15:16.999Z</time></trkpt><trkpt lat="36.98789554800166" lon="15.024367917985531"><ele>408.0</ele><time>2026-04-24T16:15:17.999Z</time></trkpt><trkpt lat="36.987969747529476" lon="15.024315334669765"><ele>408.0</ele><time>2026-04-24T16:15:18.999Z</time></trkpt><trkpt lat="36.98804022257115" lon="15.024267554627915"><ele>408.0</ele><time>2026-04-24T16:15:19.999Z</time></trkpt><trkpt lat="36.98811904536188" lon="15.02420648682582"><ele>408.0</ele><time>2026-04-24T16:15:20.999Z</time></trkpt><trkpt lat="36.98819389409874" lon="15.024147283550308"><ele>408.0</ele><time>2026-04-24T16:15:21.999Z</time></trkpt><trkpt lat="36.9882632283228" lon="15.02409573114254"><ele>408.0</ele><time>2026-04-24T16:15:22.999Z</time></trkpt><trkpt lat="36.98831533639197" lon="15.024024121392335"><ele>409.5</ele><time>2026-04-24T16:15:23.999Z</time></trkpt><trkpt lat="36.98838110495266" lon="15.023977983416392"><ele>411.0</ele><time>2026-04-24T16:15:24.999Z</time></trkpt><trkpt lat="36.9884530320009" lon="15.023943604063664"><ele>412.5</ele><time>2026-04-24T16:15:25.999Z</time></trkpt><trkpt lat="36.988524223041864" lon="15.0238944709892"><ele>414.0</ele><time>2026-04-24T16:15:26.999Z</time></trkpt><trkpt lat="36.988598767810565" lon="15.023864637915677"><ele>415.5</ele><time>2026-04-24T16:15:27.999Z</time></trkpt><trkpt lat="36.988715251510506" lon="15.023790987297387"><ele>417.0</ele><time>2026-04-24T16:15:29.999Z</time></trkpt><trkpt lat="36.98882474773418" lon="15.02373495908083"><ele>417.0</ele><time>2026-04-24T16:15:31.999Z</time></trkpt><trkpt lat="36.98896088035531" lon="15.02367697982033"><ele>417.0</ele><time>2026-04-24T16:15:33.999Z</time></trkpt><trkpt lat="36.989030147176756" lon="15.023648286508998"><ele>417.0</ele><time>2026-04-24T16:15:34.999Z</time></trkpt><trkpt lat="36.98910861331607" lon="15.023649207078176"><ele>417.0</ele><time>2026-04-24T16:15:35.999Z</time></trkpt><trkpt lat="36.98923214415003" lon="15.023655602920558"><ele>417.0</ele><time>2026-04-24T16:15:37.999Z</time></trkpt><trkpt lat="36.98934240137206" lon="15.023646781829735"><ele>417.1666666666667</ele><time>2026-04-24T16:15:39.999Z</time></trkpt><trkpt lat="36.98941672266542" lon="15.02365982226109"><ele>417.33333333333337</ele><time>2026-04-24T16:15:41.999Z</time></trkpt><trkpt lat="36.98947929954355" lon="15.023720431156656"><ele>417.5</ele><time>2026-04-24T16:15:44.999Z</time></trkpt><trkpt lat="36.98953623040182" lon="15.02367626961556"><ele>417.6666666666667</ele><time>2026-04-24T16:15:47.999Z</time></trkpt><trkpt lat="36.98961369190768" lon="15.023674383164176"><ele>417.83333333333337</ele><time>2026-04-24T16:15:51.999Z</time></trkpt><trkpt lat="36.989703918874405" lon="15.023674727651759"><ele>418.0</ele><time>2026-04-24T16:16:02.999Z</time></trkpt><trkpt lat="36.98977482378379" lon="15.023731366339458"><ele>418.00000000000006</ele><time>2026-04-24T16:16:05.999Z</time></trkpt><trkpt lat="36.98983910463513" lon="15.02374664298409"><ele>418.0</ele><time>2026-04-24T16:16:07.999Z</time></trkpt><trkpt lat="36.989923045541026" lon="15.02375808600412"><ele>418.0</ele><time>2026-04-24T16:16:09.999Z</time></trkpt><trkpt lat="36.99001068314466" lon="15.023853455324103"><ele>418.0</ele><time>2026-04-24T16:16:11.999Z</time></trkpt><trkpt lat="36.990002954377" lon="15.023955731401331"><ele>418.00000000000006</ele><time>2026-04-24T16:16:13.999Z</time></trkpt><trkpt lat="36.990050812396795" lon="15.02401010164918"><ele>418.0</ele><time>2026-04-24T16:16:15.999Z</time></trkpt><trkpt lat="36.990106299164225" lon="15.024054663952459"><ele>418.4</ele><time>2026-04-24T16:16:16.999Z</time></trkpt><trkpt lat="36.99019379813897" lon="15.024135958571463"><ele>418.79999999999995</ele><time>2026-04-24T16:16:18.999Z</time></trkpt><trkpt lat="36.99026807674727" lon="15.024176777959507"><ele>419.2</ele><time>2026-04-24T16:16:20.998Z</time></trkpt><trkpt lat="36.99039891227207" lon="15.024204580907682"><ele>419.6</ele><time>2026-04-24T16:16:22.998Z</time></trkpt><trkpt lat="36.990474501837376" lon="15.024208074248842"><ele>420.0</ele><time>2026-04-24T16:16:23.998Z</time></trkpt><trkpt lat="36.99054468045661" lon="15.024191408486047"><ele>420.0</ele><time>2026-04-24T16:16:24.998Z</time></trkpt><trkpt lat="36.99060938338654" lon="15.024187959755"><ele>420.0</ele><time>2026-04-24T16:16:25.998Z</time></trkpt><trkpt lat="36.990708809160424" lon="15.024172804950405"><ele>420.0</ele><time>2026-04-24T16:16:27.998Z</time></trkpt><trkpt lat="36.99077515461324" lon="15.024087720793123"><ele>420.0</ele><time>2026-04-24T16:16:30Z</time></trkpt><trkpt lat="36.99084724735553" lon="15.024118204574577"><ele>420.0</ele><time>2026-04-24T16:16:32Z</time></trkpt><trkpt lat="36.99094250659507" lon="15.024038278234855"><ele>419.3333333333333</ele><time>2026-04-24T16:16:35Z</time></trkpt><trkpt lat="36.991036958890675" lon="15.02404007694088"><ele>418.66666666666663</ele><time>2026-04-24T16:16:37Z</time></trkpt><trkpt lat="36.991126881282284" lon="15.024013601142121"><ele>418.0</ele><time>2026-04-24T16:16:39Z</time></trkpt><trkpt lat="36.99120879684261" lon="15.024018678390181"><ele>417.3333333333333</ele><time>2026-04-24T16:16:47Z</time></trkpt><trkpt lat="36.99127280394242" lon="15.024035452961016"><ele>416.66666666666663</ele><time>2026-04-24T16:16:55Z</time></trkpt><trkpt lat="36.991365832485336" lon="15.02404010327201"><ele>416.0</ele><time>2026-04-24T16:16:59Z</time></trkpt><trkpt lat="36.99142725260228" lon="15.024007703184068"><ele>415.99999999999994</ele><time>2026-04-24T16:17:01Z</time></trkpt><trkpt lat="36.991513629742045" lon="15.024015558912515"><ele>416.0</ele><time>2026-04-24T16:17:03Z</time></trkpt><trkpt lat="36.991601249490344" lon="15.023991693643916"><ele>416.0</ele><time>2026-04-24T16:17:05Z</time></trkpt><trkpt lat="36.991664495574064" lon="15.02392253190324"><ele>416.0</ele><time>2026-04-24T16:17:07Z</time></trkpt><trkpt lat="36.99169494316438" lon="15.023838255352208"><ele>415.99999999999994</ele><time>2026-04-24T16:17:09Z</time></trkpt><trkpt lat="36.99170040772209" lon="15.023744987783996"><ele>416.0</ele><time>2026-04-24T16:17:11Z</time></trkpt><trkpt lat="36.991751499654455" lon="15.023643331590714"><ele>415.99999999999994</ele><time>2026-04-24T16:17:14Z</time></trkpt><trkpt lat="36.99183280481193" lon="15.023592522791793"><ele>416.0</ele><time>2026-04-24T16:17:16Z</time></trkpt><trkpt lat="36.991804669097945" lon="15.023495669117436"><ele>416.0</ele><time>2026-04-24T16:17:19.999Z</time></trkpt><trkpt lat="36.99175306205743" lon="15.023446440978326"><ele>416.0</ele><time>2026-04-24T16:17:26.999Z</time></trkpt><trkpt lat="36.991678877007416" lon="15.023425279938461"><ele>415.99999999999994</ele><time>2026-04-24T16:17:31.999Z</time></trkpt><trkpt lat="36.991620443584615" lon="15.0233512640654"><ele>416.0</ele><time>2026-04-24T16:17:39.999Z</time></trkpt><trkpt lat="36.991601619203784" lon="15.023257207849593"><ele>416.66666666666663</ele><time>2026-04-24T16:17:43.999Z</time></trkpt><trkpt lat="36.991630271247175" lon="15.023142935596985"><ele>417.3333333333333</ele><time>2026-04-24T16:17:45.999Z</time></trkpt><trkpt lat="36.99168650894518" lon="15.02307325777915"><ele>418.0</ele><time>2026-04-24T16:17:48.999Z</time></trkpt><trkpt lat="36.99174127749139" lon="15.02300011742924"><ele>418.66666666666663</ele><time>2026-04-24T16:17:50.999Z</time></trkpt><trkpt lat="36.991786555610624" lon="15.022932889959804"><ele>419.3333333333333</ele><time>2026-04-24T16:17:52.999Z</time></trkpt><trkpt lat="36.991843717062615" lon="15.022891790705058"><ele>420.0</ele><time>2026-04-24T16:17:54.999Z</time></trkpt><trkpt lat="36.99190567165996" lon="15.02292620797165"><ele>418.6666666666667</ele><time>2026-04-24T16:17:57.999Z</time></trkpt><trkpt lat="36.99196957223229" lon="15.02291895064934"><ele>417.33333333333337</ele><time>2026-04-24T16:18:01.999Z</time></trkpt><trkpt lat="36.991988387433075" lon="15.022840549964853"><ele>416.0</ele><time>2026-04-24T16:18:07.999Z</time></trkpt><trkpt lat="36.99205016113927" lon="15.022786695824921"><ele>414.6666666666667</ele><time>2026-04-24T16:18:12.999Z</time></trkpt><trkpt lat="36.99207147728653" lon="15.02269047764326"><ele>413.33333333333337</ele><time>2026-04-24T16:18:14.999Z</time></trkpt><trkpt lat="36.99210682668838" lon="15.022575882882075"><ele>412.0</ele><time>2026-04-24T16:18:16.999Z</time></trkpt><trkpt lat="36.99219027759303" lon="15.022524185173243"><ele>412.0</ele><time>2026-04-24T16:18:18.999Z</time></trkpt><trkpt lat="36.99230907654918" lon="15.022501691976522"><ele>412.0</ele><time>2026-04-24T16:18:20.999Z</time></trkpt><trkpt lat="36.99237511205439" lon="15.02250017201596"><ele>412.0</ele><time>2026-04-24T16:18:21.999Z</time></trkpt><trkpt lat="36.992447602560496" lon="15.022475661144956"><ele>412.0</ele><time>2026-04-24T16:18:22.999Z</time></trkpt><trkpt lat="36.99256069962271" lon="15.022442063828796"><ele>412.0</ele><time>2026-04-24T16:18:24.999Z</time></trkpt><trkpt lat="36.99267801159939" lon="15.0224466516292"><ele>413.83333333333337</ele><time>2026-04-24T16:18:26.999Z</time></trkpt><trkpt lat="36.99279394912403" lon="15.022441356145325"><ele>415.6666666666667</ele><time>2026-04-24T16:18:28.999Z</time></trkpt><trkpt lat="36.992880718952094" lon="15.022366656653448"><ele>417.5</ele><time>2026-04-24T16:18:30.998Z</time></trkpt><trkpt lat="36.9929755390662" lon="15.022344784676621"><ele>419.33333333333337</ele><time>2026-04-24T16:18:32.998Z</time></trkpt><trkpt lat="36.9930407244403" lon="15.022332864057391"><ele>421.1666666666667</ele><time>2026-04-24T16:18:33.998Z</time></trkpt><trkpt lat="36.993098775749296" lon="15.022302217887336"><ele>423.0</ele><time>2026-04-24T16:18:34.998Z</time></trkpt><trkpt lat="36.99319151171269" lon="15.02227413857203"><ele>423.0</ele><time>2026-04-24T16:18:37Z</time></trkpt><trkpt lat="36.9932745708164" lon="15.022175922861894"><ele>423.0</ele><time>2026-04-24T16:18:39Z</time></trkpt><trkpt lat="36.99339386017077" lon="15.022114510302462"><ele>423.0</ele><time>2026-04-24T16:18:41Z</time></trkpt><trkpt lat="36.993460817331105" lon="15.02210069883629"><ele>423.0</ele><time>2026-04-24T16:18:42Z</time></trkpt><trkpt lat="36.99355779276964" lon="15.022056005641433"><ele>423.0</ele><time>2026-04-24T16:18:44Z</time></trkpt><trkpt lat="36.99364937792982" lon="15.021987726253878"><ele>422.6666666666667</ele><time>2026-04-24T16:18:46Z</time></trkpt><trkpt lat="36.99371941559048" lon="15.021977318485947"><ele>422.33333333333337</ele><time>2026-04-24T16:18:48Z</time></trkpt><trkpt lat="36.993779641045386" lon="15.022060974811831"><ele>422.0</ele><time>2026-04-24T16:18:50Z</time></trkpt><trkpt lat="36.99383013635172" lon="15.02214229678731"><ele>421.6666666666667</ele><time>2026-04-24T16:18:52Z</time></trkpt><trkpt lat="36.99388965922209" lon="15.022208959162818"><ele>421.33333333333337</ele><time>2026-04-24T16:18:54Z</time></trkpt><trkpt lat="36.99395778790349" lon="15.022255005761457"><ele>421.0</ele><time>2026-04-24T16:18:57Z</time></trkpt><trkpt lat="36.99390918227637" lon="15.022137325309899"><ele>421.00000000000006</ele><time>2026-04-24T16:19:04Z</time></trkpt><trkpt lat="36.9938538448297" lon="15.022065173509606"><ele>421.0</ele><time>2026-04-24T16:19:06Z</time></trkpt><trkpt lat="36.99381760412048" lon="15.021965583429832"><ele>421.0</ele><time>2026-04-24T16:19:09Z</time></trkpt><trkpt lat="36.993787480424245" lon="15.021893628966925"><ele>421.0</ele><time>2026-04-24T16:19:12Z</time></trkpt><trkpt lat="36.993850623144105" lon="15.02180522015798"><ele>421.00000000000006</ele><time>2026-04-24T16:19:15Z</time></trkpt><trkpt lat="36.99392536880892" lon="15.021725952173341"><ele>421.0</ele><time>2026-04-24T16:19:17Z</time></trkpt><trkpt lat="36.99398841546578" lon="15.021643160337215"><ele>422.5714285714286</ele><time>2026-04-24T16:19:19Z</time></trkpt><trkpt lat="36.99403704927527" lon="15.021567689187563"><ele>424.14285714285717</ele><time>2026-04-24T16:19:33.999Z</time></trkpt><trkpt lat="36.99406642469533" lon="15.021489646713002"><ele>425.7142857142857</ele><time>2026-04-24T16:19:38.999Z</time></trkpt><trkpt lat="36.99401852108171" lon="15.021399248504903"><ele>427.28571428571433</ele><time>2026-04-24T16:19:46.999Z</time></trkpt><trkpt lat="36.99405494921815" lon="15.021317199817249"><ele>428.85714285714283</ele><time>2026-04-24T16:20:06.999Z</time></trkpt><trkpt lat="36.99408673313004" lon="15.021247903761523"><ele>430.42857142857144</ele><time>2026-04-24T16:20:08.999Z</time></trkpt><trkpt lat="36.9941387278349" lon="15.021185109070814"><ele>432.0</ele><time>2026-04-24T16:20:10.999Z</time></trkpt><trkpt lat="36.9941711228819" lon="15.021095990949307"><ele>430.20000000000005</ele><time>2026-04-24T16:20:12.999Z</time></trkpt><trkpt lat="36.99420882423308" lon="15.020967234855577"><ele>428.40000000000003</ele><time>2026-04-24T16:20:14.999Z</time></trkpt><trkpt lat="36.99424130680886" lon="15.020854743688307"><ele>426.6</ele><time>2026-04-24T16:20:16.999Z</time></trkpt><trkpt lat="36.99425364570881" lon="15.020724290010422"><ele>424.79999999999995</ele><time>2026-04-24T16:20:18.999Z</time></trkpt><trkpt lat="36.99427993309111" lon="15.020599953932617"><ele>423.0</ele><time>2026-04-24T16:20:20.999Z</time></trkpt><trkpt lat="36.994323458659586" lon="15.020476202544229"><ele>423.0</ele><time>2026-04-24T16:20:22.999Z</time></trkpt><trkpt lat="36.99438064802541" lon="15.020352057778073"><ele>423.0</ele><time>2026-04-24T16:20:24.999Z</time></trkpt><trkpt lat="36.994453068764805" lon="15.020235037329488"><ele>423.0</ele><time>2026-04-24T16:20:26.999Z</time></trkpt><trkpt lat="36.994506539838675" lon="15.020164517387482"><ele>423.0</ele><time>2026-04-24T16:20:28.999Z</time></trkpt><trkpt lat="36.99457521815853" lon="15.02011356310705"><ele>423.0</ele><time>2026-04-24T16:20:30.999Z</time></trkpt><trkpt lat="36.99464493189248" lon="15.020106119029103"><ele>423.0</ele><time>2026-04-24T16:20:32.999Z</time></trkpt><trkpt lat="36.99470228207213" lon="15.020071972556408"><ele>423.0</ele><time>2026-04-24T16:20:34.999Z</time></trkpt><trkpt lat="36.99474709757976" lon="15.019980103357923"><ele>423.0</ele><time>2026-04-24T16:20:37.998Z</time></trkpt><trkpt lat="36.99476723112671" lon="15.019886811689563"><ele>423.0</ele><time>2026-04-24T16:20:39.998Z</time></trkpt><trkpt lat="36.994818068333565" lon="15.019797207198723"><ele>423.0</ele><time>2026-04-24T16:20:42Z</time></trkpt><trkpt lat="36.994818816405385" lon="15.019695806947679"><ele>423.0</ele><time>2026-04-24T16:20:43Z</time></trkpt><trkpt lat="36.99487885410637" lon="15.01962241557056"><ele>423.6666666666667</ele><time>2026-04-24T16:20:46Z</time></trkpt><trkpt lat="36.99493752115828" lon="15.019567549690915"><ele>424.33333333333337</ele><time>2026-04-24T16:20:50Z</time></trkpt><trkpt lat="36.994984703534165" lon="15.01962234415019"><ele>425.0</ele><time>2026-04-24T16:20:54Z</time></trkpt><trkpt lat="36.99496950410606" lon="15.019726359091397"><ele>425.6666666666667</ele><time>2026-04-24T16:20:57Z</time></trkpt><trkpt lat="36.99494982025056" lon="15.019835019086837"><ele>426.33333333333337</ele><time>2026-04-24T16:21:00Z</time></trkpt><trkpt lat="36.994976160590575" lon="15.019942872062662"><ele>427.0</ele><time>2026-04-24T16:21:04Z</time></trkpt><trkpt lat="36.99502723844732" lon="15.020013068779162"><ele>425.6666666666667</ele><time>2026-04-24T16:21:06Z</time></trkpt><trkpt lat="36.99511268397146" lon="15.02004161901961"><ele>424.33333333333337</ele><time>2026-04-24T16:21:09Z</time></trkpt><trkpt lat="36.99518537207621" lon="15.020076378666513"><ele>423.0</ele><time>2026-04-24T16:21:12Z</time></trkpt><trkpt lat="36.99522195173178" lon="15.020168714768154"><ele>421.66666666666663</ele><time>2026-04-24T16:21:15Z</time></trkpt><trkpt lat="36.995315004469894" lon="15.020208185262504"><ele>420.3333333333333</ele><time>2026-04-24T16:21:18Z</time></trkpt><trkpt lat="36.99536850563142" lon="15.020267723027914"><ele>419.0</ele><time>2026-04-24T16:21:20Z</time></trkpt><trkpt lat="36.995451069426274" lon="15.020258040443247"><ele>418.99999999999994</ele><time>2026-04-24T16:21:22Z</time></trkpt><trkpt lat="36.99554997848312" lon="15.020170277470092"><ele>419.0</ele><time>2026-04-24T16:21:24Z</time></trkpt><trkpt lat="36.99562352280292" lon="15.020101781926977"><ele>419.0</ele><time>2026-04-24T16:21:26Z</time></trkpt><trkpt lat="36.99569811157802" lon="15.020061275233775"><ele>419.0</ele><time>2026-04-24T16:21:28Z</time></trkpt><trkpt lat="36.99573024114062" lon="15.019974220326265"><ele>418.99999999999994</ele><time>2026-04-24T16:21:31Z</time></trkpt><trkpt lat="36.99571706123886" lon="15.019882892213412"><ele>419.0</ele><time>2026-04-24T16:21:32.999Z</time></trkpt><trkpt lat="36.995691659244265" lon="15.019803262018392"><ele>419.4285714285714</ele><time>2026-04-24T16:21:34.999Z</time></trkpt><trkpt lat="36.99564941747878" lon="15.01973299630822"><ele>419.85714285714283</ele><time>2026-04-24T16:21:36.999Z</time></trkpt><trkpt lat="36.99561901542317" lon="15.019652309682899"><ele>420.2857142857143</ele><time>2026-04-24T16:21:39.999Z</time></trkpt><trkpt lat="36.995624050562675" lon="15.019556627997975"><ele>420.71428571428567</ele><time>2026-04-24T16:21:42.999Z</time></trkpt><trkpt lat="36.99567564257729" lon="15.019509954390653"><ele>421.14285714285717</ele><time>2026-04-24T16:21:45.999Z</time></trkpt><trkpt lat="36.99573066246795" lon="15.019420790822496"><ele>421.57142857142856</ele><time>2026-04-24T16:21:47.999Z</time></trkpt><trkpt lat="36.995804060655466" lon="15.019397300619943"><ele>422.0</ele><time>2026-04-24T16:21:49.999Z</time></trkpt><trkpt lat="36.99588009338665" lon="15.019360841297368"><ele>422.40000000000003</ele><time>2026-04-24T16:21:51.999Z</time></trkpt><trkpt lat="36.9959419703139" lon="15.01929279749931"><ele>422.8</ele><time>2026-04-24T16:21:53.999Z</time></trkpt><trkpt lat="36.99602187917299" lon="15.01923870828645"><ele>423.2</ele><time>2026-04-24T16:21:55.999Z</time></trkpt><trkpt lat="36.99609874359658" lon="15.019170036203324"><ele>423.6</ele><time>2026-04-24T16:21:57.999Z</time></trkpt><trkpt lat="36.996179015124206" lon="15.019084882913248"><ele>424.0</ele><time>2026-04-24T16:21:59.999Z</time></trkpt><trkpt lat="36.996268462461124" lon="15.019017102508391"><ele>425.1666666666667</ele><time>2026-04-24T16:22:01.999Z</time></trkpt><trkpt lat="36.996312820754625" lon="15.018933086529149"><ele>426.33333333333337</ele><time>2026-04-24T16:22:02.999Z</time></trkpt><trkpt lat="36.99643399088853" lon="15.018862034072527"><ele>427.5</ele><time>2026-04-24T16:22:04.999Z</time></trkpt><trkpt lat="36.99649357732272" lon="15.018800574411557"><ele>428.66666666666663</ele><time>2026-04-24T16:22:05.999Z</time></trkpt><trkpt lat="36.996555642725255" lon="15.018734654661376"><ele>429.8333333333333</ele><time>2026-04-24T16:22:06.999Z</time></trkpt><trkpt lat="36.99659413726582" lon="15.018660673600015"><ele>431.0</ele><time>2026-04-24T16:22:07.999Z</time></trkpt><trkpt lat="36.99666261051258" lon="15.018609749001353"><ele>431.6</ele><time>2026-04-24T16:22:08.999Z</time></trkpt><trkpt lat="36.99674456628574" lon="15.018528997092979"><ele>432.20000000000005</ele><time>2026-04-24T16:22:10.999Z</time></trkpt><trkpt lat="36.99678532501587" lon="15.018371781173373"><ele>432.79999999999995</ele><time>2026-04-24T16:22:12.999Z</time></trkpt><trkpt lat="36.99679164202554" lon="15.018225526017943"><ele>433.4</ele><time>2026-04-24T16:22:14.999Z</time></trkpt><trkpt lat="36.99677983250572" lon="15.018142826563057"><ele>434.0</ele><time>2026-04-24T16:22:15.999Z</time></trkpt><trkpt lat="36.996797900009355" lon="15.018036935921314"><ele>434.0</ele><time>2026-04-24T16:22:16.999Z</time></trkpt><trkpt lat="36.99683228238124" lon="15.017933178972084"><ele>434.0</ele><time>2026-04-24T16:22:17.999Z</time></trkpt><trkpt lat="36.99688965156595" lon="15.01786343725395"><ele>434.0</ele><time>2026-04-24T16:22:18.999Z</time></trkpt><trkpt lat="36.99696883785797" lon="15.017780113693387"><ele>434.0</ele><time>2026-04-24T16:22:20.999Z</time></trkpt><trkpt lat="36.99703788487464" lon="15.017666137081527"><ele>434.0</ele><time>2026-04-24T16:22:22.999Z</time></trkpt><trkpt lat="36.99707661993702" lon="15.017594798586485"><ele>434.0</ele><time>2026-04-24T16:22:23.999Z</time></trkpt><trkpt lat="36.99711850459841" lon="15.017519605455304"><ele>434.0</ele><time>2026-04-24T16:22:24.999Z</time></trkpt><trkpt lat="36.99716484837763" lon="15.017453969060723"><ele>434.0</ele><time>2026-04-24T16:22:25.999Z</time></trkpt><trkpt lat="36.99726512462975" lon="15.017329936441344"><ele>434.0</ele><time>2026-04-24T16:22:27.999Z</time></trkpt><trkpt lat="36.99738578476213" lon="15.017202490196127"><ele>434.0</ele><time>2026-04-24T16:22:29.999Z</time></trkpt><trkpt lat="36.997452459582675" lon="15.01714700476188"><ele>433.49999999999994</ele><time>2026-04-24T16:22:30.999Z</time></trkpt><trkpt lat="36.99752695476058" lon="15.017099095510288"><ele>433.0</ele><time>2026-04-24T16:22:31.999Z</time></trkpt><trkpt lat="36.99760502680234" lon="15.017051147633241"><ele>432.5</ele><time>2026-04-24T16:22:32.999Z</time></trkpt><trkpt lat="36.99767352716784" lon="15.016940284195659"><ele>432.0</ele><time>2026-04-24T16:22:34.999Z</time></trkpt><trkpt lat="36.997673042498725" lon="15.016848399191819"><ele>431.49999999999994</ele><time>2026-04-24T16:22:35.999Z</time></trkpt><trkpt lat="36.997665642470295" lon="15.016737215917377"><ele>431.0</ele><time>2026-04-24T16:22:36.999Z</time></trkpt><trkpt lat="36.99764125377033" lon="15.0166248575879"><ele>432.6</ele><time>2026-04-24T16:22:37.999Z</time></trkpt><trkpt lat="36.9976742782186" lon="15.016516214629398"><ele>434.20000000000005</ele><time>2026-04-24T16:22:38.999Z</time></trkpt><trkpt lat="36.99767116880878" lon="15.016391540870444"><ele>435.79999999999995</ele><time>2026-04-24T16:22:39.999Z</time></trkpt><trkpt lat="36.99768562327308" lon="15.016261533575216"><ele>437.4</ele><time>2026-04-24T16:22:40.999Z</time></trkpt><trkpt lat="36.99769294696226" lon="15.01616071586317"><ele>439.0</ele><time>2026-04-24T16:22:41.999Z</time></trkpt><trkpt lat="36.99773696201409" lon="15.016087666451265"><ele>439.0</ele><time>2026-04-24T16:22:42.999Z</time></trkpt><trkpt lat="36.99781553832584" lon="15.01605436761362"><ele>439.0</ele><time>2026-04-24T16:22:44.998Z</time></trkpt><trkpt lat="36.99791327530777" lon="15.016036704044577"><ele>439.0</ele><time>2026-04-24T16:22:45.998Z</time></trkpt><trkpt lat="36.99801835413531" lon="15.015998808267234"><ele>439.0</ele><time>2026-04-24T16:22:46.998Z</time></trkpt><trkpt lat="36.99809885269964" lon="15.015970073725281"><ele>439.0</ele><time>2026-04-24T16:22:48Z</time></trkpt><trkpt lat="36.99820123708964" lon="15.015908599986094"><ele>439.79999999999995</ele><time>2026-04-24T16:22:50Z</time></trkpt><trkpt lat="36.99823262927833" lon="15.015804889091326"><ele>440.59999999999997</ele><time>2026-04-24T16:22:51Z</time></trkpt><trkpt lat="36.998300710548264" lon="15.015707797670915"><ele>441.4</ele><time>2026-04-24T16:22:52Z</time></trkpt><trkpt lat="36.99837269001091" lon="15.015628166232464"><ele>442.2</ele><time>2026-04-24T16:22:53Z</time></trkpt><trkpt lat="36.99844013214074" lon="15.015564491110586"><ele>443.0</ele><time>2026-04-24T16:22:54Z</time></trkpt><trkpt lat="36.998514806611595" lon="15.01548109356433"><ele>442.99999999999994</ele><time>2026-04-24T16:22:55Z</time></trkpt><trkpt lat="36.99859326084575" lon="15.015394626165188"><ele>443.0</ele><time>2026-04-24T16:22:56Z</time></trkpt><trkpt lat="36.99865488708309" lon="15.015329593045529"><ele>443.0</ele><time>2026-04-24T16:22:57Z</time></trkpt><trkpt lat="36.99870732546944" lon="15.015239511207076"><ele>443.0</ele><time>2026-04-24T16:22:58Z</time></trkpt><trkpt lat="36.99874370187121" lon="15.015171631931286"><ele>442.99999999999994</ele><time>2026-04-24T16:22:59Z</time></trkpt><trkpt lat="36.99873705070595" lon="15.015037119850708"><ele>443.0</ele><time>2026-04-24T16:23:01Z</time></trkpt><trkpt lat="36.99873267698328" lon="15.014939282386125"><ele>443.0</ele><time>2026-04-24T16:23:02Z</time></trkpt><trkpt lat="36.998674831779226" lon="15.01484448823624"><ele>442.99999999999994</ele><time>2026-04-24T16:23:03Z</time></trkpt><trkpt lat="36.998629510694464" lon="15.014777315585745"><ele>442.99999999999994</ele><time>2026-04-24T16:23:04Z</time></trkpt><trkpt lat="36.99855357388503" lon="15.014655090026855"><ele>443.0</ele><time>2026-04-24T16:23:05Z</time></trkpt><trkpt lat="36.998509302601924" lon="15.01456917645082"><ele>443.0</ele><time>2026-04-24T16:23:06Z</time></trkpt><trkpt lat="36.998500219376666" lon="15.014438591522818"><ele>443.0</ele><time>2026-04-24T16:23:08Z</time></trkpt><trkpt lat="36.99861941630247" lon="15.014395186856396"><ele>443.0</ele><time>2026-04-24T16:23:10Z</time></trkpt><trkpt lat="36.99872409987045" lon="15.014326658450889"><ele>443.0</ele><time>2026-04-24T16:23:11Z</time></trkpt><trkpt lat="36.998849355119596" lon="15.014229514682546"><ele>443.0</ele><time>2026-04-24T16:23:12Z</time></trkpt><trkpt lat="36.998980120009044" lon="15.014108798100601"><ele>443.3333333333333</ele><time>2026-04-24T16:23:13Z</time></trkpt><trkpt lat="36.99907769200002" lon="15.01403011462206"><ele>443.66666666666663</ele><time>2026-04-24T16:23:14Z</time></trkpt><trkpt lat="36.99914441299085" lon="15.013947170608652"><ele>444.0</ele><time>2026-04-24T16:23:15Z</time></trkpt><trkpt lat="36.99920796341616" lon="15.013884551959025"><ele>444.33333333333337</ele><time>2026-04-24T16:23:16Z</time></trkpt><trkpt lat="36.999266443366785" lon="15.013831116346266"><ele>444.6666666666667</ele><time>2026-04-24T16:23:17Z</time></trkpt><trkpt lat="36.999301406219736" lon="15.01376345300927"><ele>445.0</ele><time>2026-04-24T16:23:18Z</time></trkpt><trkpt lat="36.99931885152093" lon="15.01367046872494"><ele>446.2</ele><time>2026-04-24T16:23:19Z</time></trkpt><trkpt lat="36.9993412299149" lon="15.013545728182773"><ele>447.4</ele><time>2026-04-24T16:23:20Z</time></trkpt><trkpt lat="36.99935634190866" lon="15.013436441784949"><ele>448.6</ele><time>2026-04-24T16:23:21Z</time></trkpt><trkpt lat="36.999382556762455" lon="15.013307049352829"><ele>449.8</ele><time>2026-04-24T16:23:22Z</time></trkpt><trkpt lat="36.999426943927354" lon="15.013156553698751"><ele>451.0</ele><time>2026-04-24T16:23:23Z</time></trkpt><trkpt lat="36.9994731828182" lon="15.013007149052722"><ele>451.0</ele><time>2026-04-24T16:23:24Z</time></trkpt><trkpt lat="36.99949016518754" lon="15.012890650857026"><ele>451.0</ele><time>2026-04-24T16:23:25Z</time></trkpt><trkpt lat="36.99949169065732" lon="15.012806929163204"><ele>451.0</ele><time>2026-04-24T16:23:26Z</time></trkpt><trkpt lat="36.99949975270138" lon="15.012683238967334"><ele>451.0</ele><time>2026-04-24T16:23:27Z</time></trkpt><trkpt lat="36.999527439851676" lon="15.012538544503887"><ele>451.0</ele><time>2026-04-24T16:23:28Z</time></trkpt><trkpt lat="36.99956713479201" lon="15.012456093801783"><ele>450.20000000000005</ele><time>2026-04-24T16:23:29Z</time></trkpt><trkpt lat="36.99961538191676" lon="15.012362849523894"><ele>449.40000000000003</ele><time>2026-04-24T16:23:30Z</time></trkpt><trkpt lat="36.999656159733746" lon="15.012288363950951"><ele>448.6</ele><time>2026-04-24T16:23:32Z</time></trkpt><trkpt lat="36.99972134921072" lon="15.012176080000023"><ele>447.8</ele><time>2026-04-24T16:23:34.999Z</time></trkpt><trkpt lat="36.99977360306162" lon="15.012091617917058"><ele>447.0</ele><time>2026-04-24T16:23:35.999Z</time></trkpt><trkpt lat="36.999844965060554" lon="15.011961665262652"><ele>447.0</ele><time>2026-04-24T16:23:36.999Z</time></trkpt><trkpt lat="36.99996014522501" lon="15.011790489071444"><ele>447.0</ele><time>2026-04-24T16:23:37.999Z</time></trkpt><trkpt lat="37.000045588709604" lon="15.01164974806319"><ele>447.0</ele><time>2026-04-24T16:23:38.999Z</time></trkpt><trkpt lat="37.0000880697285" lon="15.011566078842066"><ele>447.0</ele><time>2026-04-24T16:23:39.999Z</time></trkpt><trkpt lat="37.00017592943139" lon="15.011432406000628"><ele>446.8</ele><time>2026-04-24T16:23:40.999Z</time></trkpt><trkpt lat="37.00024253899834" lon="15.01131519133893"><ele>446.6</ele><time>2026-04-24T16:23:41.999Z</time></trkpt><trkpt lat="37.00030680984681" lon="15.011210552915783"><ele>446.40000000000003</ele><time>2026-04-24T16:23:42.999Z</time></trkpt><trkpt lat="37.000372888375516" lon="15.011117205475648"><ele>446.20000000000005</ele><time>2026-04-24T16:23:43.999Z</time></trkpt><trkpt lat="37.00042956790947" lon="15.011027632654748"><ele>446.0</ele><time>2026-04-24T16:23:44.999Z</time></trkpt><trkpt lat="37.00049309195337" lon="15.010933612919889"><ele>446.0</ele><time>2026-04-24T16:23:45.999Z</time></trkpt><trkpt lat="37.00053667693059" lon="15.010850887572362"><ele>446.0</ele><time>2026-04-24T16:23:46.999Z</time></trkpt><trkpt lat="37.00057348147478" lon="15.010726370650918"><ele>446.0</ele><time>2026-04-24T16:23:47.999Z</time></trkpt><trkpt lat="37.00059611003436" lon="15.010595963202626"><ele>446.0</ele><time>2026-04-24T16:23:48.999Z</time></trkpt><trkpt lat="37.000646567021185" lon="15.010432707275633"><ele>446.0</ele><time>2026-04-24T16:23:49.999Z</time></trkpt><trkpt lat="37.00070134522296" lon="15.010262830900166"><ele>445.8333333333333</ele><time>2026-04-24T16:23:50.999Z</time></trkpt><trkpt lat="37.00073970370255" lon="15.010137047651432"><ele>445.66666666666663</ele><time>2026-04-24T16:23:51.999Z</time></trkpt><trkpt lat="37.00076666968331" lon="15.01004224914683"><ele>445.5</ele><time>2026-04-24T16:23:52.999Z</time></trkpt><trkpt lat="37.00080137198964" lon="15.009962604591871"><ele>445.33333333333337</ele><time>2026-04-24T16:23:53.999Z</time></trkpt><trkpt lat="37.00081817438279" lon="15.00987688257899"><ele>445.1666666666667</ele><time>2026-04-24T16:23:54.999Z</time></trkpt><trkpt lat="37.00086495059004" lon="15.00980860422181"><ele>445.0</ele><time>2026-04-24T16:23:55.999Z</time></trkpt><trkpt lat="37.00093652026938" lon="15.009731058475698"><ele>445.4</ele><time>2026-04-24T16:23:56.999Z</time></trkpt><trkpt lat="37.00102970191819" lon="15.009642258553058"><ele>445.8</ele><time>2026-04-24T16:23:57.999Z</time></trkpt><trkpt lat="37.00112092518871" lon="15.009552252024104"><ele>446.20000000000005</ele><time>2026-04-24T16:23:58.999Z</time></trkpt><trkpt lat="37.00120781122231" lon="15.009463015320264"><ele>446.6</ele><time>2026-04-24T16:23:59.999Z</time></trkpt><trkpt lat="37.00128344474561" lon="15.009393050065759"><ele>447.0</ele><time>2026-04-24T16:24:00.999Z</time></trkpt><trkpt lat="37.00138465219078" lon="15.0093354691727"><ele>447.0</ele><time>2026-04-24T16:24:01.999Z</time></trkpt><trkpt lat="37.001489498766006" lon="15.009278348851128"><ele>447.00000000000006</ele><time>2026-04-24T16:24:02.999Z</time></trkpt><trkpt lat="37.00157135637594" lon="15.00920852158601"><ele>447.00000000000006</ele><time>2026-04-24T16:24:03.999Z</time></trkpt><trkpt lat="37.00164080111098" lon="15.00912142951236"><ele>447.0</ele><time>2026-04-24T16:24:04.999Z</time></trkpt><trkpt lat="37.001707729371006" lon="15.009018760964354"><ele>447.0</ele><time>2026-04-24T16:24:05.999Z</time></trkpt><trkpt lat="37.00177398287568" lon="15.008916598389956"><ele>447.75</ele><time>2026-04-24T16:24:06.999Z</time></trkpt><trkpt lat="37.00185985436191" lon="15.008794091150333"><ele>448.5</ele><time>2026-04-24T16:24:07.999Z</time></trkpt><trkpt lat="37.00196913184343" lon="15.00864583521358"><ele>449.25</ele><time>2026-04-24T16:24:08.999Z</time></trkpt><trkpt lat="37.0020772973117" lon="15.008507669172745"><ele>450.0</ele><time>2026-04-24T16:24:09.999Z</time></trkpt><trkpt lat="37.00218196875674" lon="15.008402815574678"><ele>450.25</ele><time>2026-04-24T16:24:10.999Z</time></trkpt><trkpt lat="37.002274374667095" lon="15.008318643925328"><ele>450.5</ele><time>2026-04-24T16:24:11.999Z</time></trkpt><trkpt lat="37.00234863671249" lon="15.008239718966157"><ele>450.75</ele><time>2026-04-24T16:24:12.999Z</time></trkpt><trkpt lat="37.00233030142023" lon="15.008093468019009"><ele>451.0</ele><time>2026-04-24T16:24:14.999Z</time></trkpt><trkpt lat="37.00230872101611" lon="15.007942876165696"><ele>451.0</ele><time>2026-04-24T16:24:15.999Z</time></trkpt><trkpt lat="37.002299276661624" lon="15.007797721061992"><ele>451.0</ele><time>2026-04-24T16:24:16.999Z</time></trkpt><trkpt lat="37.00232023012152" lon="15.00769446558188"><ele>451.0</ele><time>2026-04-24T16:24:17.999Z</time></trkpt><trkpt lat="37.00239319314988" lon="15.007606646343364"><ele>451.0</ele><time>2026-04-24T16:24:19.999Z</time></trkpt><trkpt lat="37.00245850117706" lon="15.007562764317186"><ele>451.0</ele><time>2026-04-24T16:24:20.999Z</time></trkpt><trkpt lat="37.00253995528361" lon="15.0074827786362"><ele>452.20000000000005</ele><time>2026-04-24T16:24:21.999Z</time></trkpt><trkpt lat="37.00262482946914" lon="15.007396230404185"><ele>453.40000000000003</ele><time>2026-04-24T16:24:22.999Z</time></trkpt><trkpt lat="37.002701953282866" lon="15.007330243844207"><ele>454.6</ele><time>2026-04-24T16:24:23.999Z</time></trkpt><trkpt lat="37.00276930725257" lon="15.007250295530193"><ele>455.8</ele><time>2026-04-24T16:24:24.999Z</time></trkpt><trkpt lat="37.002829902476265" lon="15.00718973970143"><ele>457.0</ele><time>2026-04-24T16:24:25.999Z</time></trkpt><trkpt lat="37.002932017182104" lon="15.007147968081028"><ele>457.0</ele><time>2026-04-24T16:24:27.999Z</time></trkpt><trkpt lat="37.003038428226496" lon="15.00713753647573"><ele>457.00000000000006</ele><time>2026-04-24T16:24:28.999Z</time></trkpt><trkpt lat="37.00310195398219" lon="15.007108735565351"><ele>457.00000000000006</ele><time>2026-04-24T16:24:29.999Z</time></trkpt><trkpt lat="37.00316458225024" lon="15.007083645972536"><ele>457.0</ele><time>2026-04-24T16:24:30.999Z</time></trkpt><trkpt lat="37.00329374140609" lon="15.006982928122056"><ele>457.0</ele><time>2026-04-24T16:24:32.999Z</time></trkpt><trkpt lat="37.00335576985646" lon="15.00694622137535"><ele>457.40000000000003</ele><time>2026-04-24T16:24:33.999Z</time></trkpt><trkpt lat="37.003449497317995" lon="15.006857929366332"><ele>457.80000000000007</ele><time>2026-04-24T16:24:34.999Z</time></trkpt><trkpt lat="37.0035310290296" lon="15.006807345882818"><ele>458.2</ele><time>2026-04-24T16:24:35.999Z</time></trkpt><trkpt lat="37.00363124404158" lon="15.00674856458621"><ele>458.6</ele><time>2026-04-24T16:24:37.999Z</time></trkpt><trkpt lat="37.003703991257034" lon="15.006722021030312"><ele>459.0</ele><time>2026-04-24T16:24:38.999Z</time></trkpt><trkpt lat="37.003808724353064" lon="15.006710069943821"><ele>459.0</ele><time>2026-04-24T16:24:39.999Z</time></trkpt><trkpt lat="37.003963959904404" lon="15.006722124442243"><ele>459.0</ele><time>2026-04-24T16:24:40.999Z</time></trkpt><trkpt lat="37.004086641618656" lon="15.006691127145917"><ele>459.0</ele><time>2026-04-24T16:24:41.999Z</time></trkpt><trkpt lat="37.004210107815254" lon="15.006660524235171"><ele>459.0</ele><time>2026-04-24T16:24:42.999Z</time></trkpt><trkpt lat="37.00436473316775" lon="15.006548829129693"><ele>460.66666666666663</ele><time>2026-04-24T16:24:43.999Z</time></trkpt><trkpt lat="37.00451415289271" lon="15.006449615140378"><ele>462.3333333333333</ele><time>2026-04-24T16:24:44.999Z</time></trkpt><trkpt lat="37.00466637148699" lon="15.006358557910714"><ele>464.0</ele><time>2026-04-24T16:24:45.999Z</time></trkpt><trkpt lat="37.004819129474406" lon="15.006245504818544"><ele>460.66666666666663</ele><time>2026-04-24T16:24:46.998Z</time></trkpt><trkpt lat="37.004996115714015" lon="15.006159690775906"><ele>457.33333333333337</ele><time>2026-04-24T16:24:47.998Z</time></trkpt><trkpt lat="37.00514570461404" lon="15.00607149184984"><ele>454.0</ele><time>2026-04-24T16:24:48.998Z</time></trkpt><trkpt lat="37.005289796516955" lon="15.00598322197876"><ele>454.0</ele><time>2026-04-24T16:24:49.998Z</time></trkpt><trkpt lat="37.00543303136978" lon="15.005898131359208"><ele>454.0</ele><time>2026-04-24T16:24:50.998Z</time></trkpt><trkpt lat="37.00558886823038" lon="15.005812913490386"><ele>454.0</ele><time>2026-04-24T16:24:51.998Z</time></trkpt><trkpt lat="37.00574285457188" lon="15.005726765520658"><ele>453.0</ele><time>2026-04-24T16:24:52.998Z</time></trkpt><trkpt lat="37.00586819817506" lon="15.005663703340298"><ele>452.0</ele><time>2026-04-24T16:24:54Z</time></trkpt><trkpt lat="37.00598469392379" lon="15.005638984049021"><ele>451.0</ele><time>2026-04-24T16:24:55Z</time></trkpt><trkpt lat="37.006099285299726" lon="15.005675673789971"><ele>450.0</ele><time>2026-04-24T16:24:56Z</time></trkpt><trkpt lat="37.00620535278981" lon="15.005753370065866"><ele>449.0</ele><time>2026-04-24T16:24:57Z</time></trkpt><trkpt lat="37.00626088088794" lon="15.005884621477758"><ele>448.0</ele><time>2026-04-24T16:24:58Z</time></trkpt><trkpt lat="37.00631021626896" lon="15.006021647893416"><ele>447.0</ele><time>2026-04-24T16:24:59Z</time></trkpt><trkpt lat="37.00632168728387" lon="15.006178021597423"><ele>446.0</ele><time>2026-04-24T16:25:00Z</time></trkpt><trkpt lat="37.00629937479945" lon="15.00635496305968"><ele>446.0</ele><time>2026-04-24T16:25:01Z</time></trkpt><trkpt lat="37.00626823601736" lon="15.006576431614146"><ele>446.0</ele><time>2026-04-24T16:25:02Z</time></trkpt><trkpt lat="37.006232105508936" lon="15.006830256447959"><ele>446.0</ele><time>2026-04-24T16:25:03Z</time></trkpt><trkpt lat="37.00619651494379" lon="15.007081378248596"><ele>444.66666666666663</ele><time>2026-04-24T16:25:04Z</time></trkpt><trkpt lat="37.006158756529246" lon="15.007348328163959"><ele>443.33333333333337</ele><time>2026-04-24T16:25:05Z</time></trkpt><trkpt lat="37.006122483912286" lon="15.007602925591714"><ele>442.0</ele><time>2026-04-24T16:25:06Z</time></trkpt><trkpt lat="37.00608666360057" lon="15.007855428623374"><ele>440.33333333333337</ele><time>2026-04-24T16:25:07Z</time></trkpt><trkpt lat="37.00604951603502" lon="15.008117529008205"><ele>438.66666666666663</ele><time>2026-04-24T16:25:08Z</time></trkpt><trkpt lat="37.006011796481374" lon="15.008379374066095"><ele>437.0</ele><time>2026-04-24T16:25:09Z</time></trkpt><trkpt lat="37.005973180009924" lon="15.008647918157598"><ele>437.0</ele><time>2026-04-24T16:25:10Z</time></trkpt><trkpt lat="37.005934000002505" lon="15.008914206094197"><ele>437.0</ele><time>2026-04-24T16:25:11Z</time></trkpt><trkpt lat="37.00590983776202" lon="15.009182681645084"><ele>437.0</ele><time>2026-04-24T16:25:12Z</time></trkpt><trkpt lat="37.00585927749323" lon="15.009438854427394"><ele>438.66666666666663</ele><time>2026-04-24T16:25:13Z</time></trkpt><trkpt lat="37.00584583922348" lon="15.00966117134017"><ele>440.33333333333337</ele><time>2026-04-24T16:25:14Z</time></trkpt><trkpt lat="37.00583468810603" lon="15.009896321714264"><ele>442.0</ele><time>2026-04-24T16:25:15Z</time></trkpt><trkpt lat="37.00583791688128" lon="15.0101358359696"><ele>443.33333333333337</ele><time>2026-04-24T16:25:16Z</time></trkpt><trkpt lat="37.00585431284866" lon="15.01037835457789"><ele>444.66666666666663</ele><time>2026-04-24T16:25:17Z</time></trkpt><trkpt lat="37.00587520403986" lon="15.010621684447717"><ele>446.0</ele><time>2026-04-24T16:25:18Z</time></trkpt><trkpt lat="37.00590325319504" lon="15.010858062431591"><ele>446.0</ele><time>2026-04-24T16:25:19Z</time></trkpt><trkpt lat="37.00592503218675" lon="15.011090793555917"><ele>446.0</ele><time>2026-04-24T16:25:20Z</time></trkpt><trkpt lat="37.005940266267665" lon="15.01132061382224"><ele>446.0</ele><time>2026-04-24T16:25:21Z</time></trkpt><trkpt lat="37.00596494531965" lon="15.011554159504376"><ele>448.0</ele><time>2026-04-24T16:25:22Z</time></trkpt><trkpt lat="37.005976482945954" lon="15.011802743609008"><ele>450.0</ele><time>2026-04-24T16:25:23Z</time></trkpt><trkpt lat="37.00599613368324" lon="15.012018901689904"><ele>452.0</ele><time>2026-04-24T16:25:24Z</time></trkpt><trkpt lat="37.006014908335516" lon="15.012255497471513"><ele>452.0</ele><time>2026-04-24T16:25:25Z</time></trkpt><trkpt lat="37.00604965740309" lon="15.01248418077543"><ele>452.0</ele><time>2026-04-24T16:25:26Z</time></trkpt><trkpt lat="37.00607799747026" lon="15.012704787735696"><ele>452.0</ele><time>2026-04-24T16:25:27Z</time></trkpt><trkpt lat="37.006125077154714" lon="15.012911662135638"><ele>453.66666666666663</ele><time>2026-04-24T16:25:28Z</time></trkpt><trkpt lat="37.006190627995" lon="15.013124649593184"><ele>455.33333333333337</ele><time>2026-04-24T16:25:29Z</time></trkpt><trkpt lat="37.00626716367015" lon="15.013340057140372"><ele>457.0</ele><time>2026-04-24T16:25:30Z</time></trkpt><trkpt lat="37.00635220970574" lon="15.013561776774312"><ele>457.6666666666667</ele><time>2026-04-24T16:25:31Z</time></trkpt><trkpt lat="37.00643284718743" lon="15.01377318297109"><ele>458.33333333333337</ele><time>2026-04-24T16:25:32Z</time></trkpt><trkpt lat="37.006476698629925" lon="15.013963171625152"><ele>459.0</ele><time>2026-04-24T16:25:33Z</time></trkpt><trkpt lat="37.00651246562316" lon="15.014153889842774"><ele>460.0</ele><time>2026-04-24T16:25:34Z</time></trkpt><trkpt lat="37.00653657791626" lon="15.014362344358332"><ele>461.0</ele><time>2026-04-24T16:25:35Z</time></trkpt><trkpt lat="37.00654710676155" lon="15.014579541911685"><ele>462.0</ele><time>2026-04-24T16:25:36Z</time></trkpt><trkpt lat="37.00657586836424" lon="15.014786318750199"><ele>462.0</ele><time>2026-04-24T16:25:37Z</time></trkpt><trkpt lat="37.00663210792672" lon="15.014956956089904"><ele>462.0</ele><time>2026-04-24T16:25:38Z</time></trkpt><trkpt lat="37.0067045631814" lon="15.015119117037324"><ele>462.0</ele><time>2026-04-24T16:25:39Z</time></trkpt><trkpt lat="37.006797931609455" lon="15.015267465026888"><ele>462.0</ele><time>2026-04-24T16:25:40Z</time></trkpt><trkpt lat="37.00688906080066" lon="15.015368039133453"><ele>460.25</ele><time>2026-04-24T16:25:40.999Z</time></trkpt><trkpt lat="37.006946937230886" lon="15.01546351838279"><ele>458.5</ele><time>2026-04-24T16:25:41.999Z</time></trkpt><trkpt lat="37.00698685765284" lon="15.01552816781891"><ele>456.75</ele><time>2026-04-24T16:25:42.999Z</time></trkpt><trkpt lat="37.007066975632746" lon="15.015601232657827"><ele>455.0</ele><time>2026-04-24T16:25:46.999Z</time></trkpt><trkpt lat="37.007229616309424" lon="15.015452612470815"><ele>455.0</ele><time>2026-04-24T16:25:47.999Z</time></trkpt><trkpt lat="37.00736182922126" lon="15.015340061725267"><ele>455.0</ele><time>2026-04-24T16:25:48.999Z</time></trkpt><trkpt lat="37.0075143585697" lon="15.015230583830752"><ele>455.0</ele><time>2026-04-24T16:25:49.999Z</time></trkpt><trkpt lat="37.007709914398966" lon="15.015096608206273"><ele>455.0</ele><time>2026-04-24T16:25:50.999Z</time></trkpt><trkpt lat="37.00790491059884" lon="15.014969514852705"><ele>455.0</ele><time>2026-04-24T16:25:51.999Z</time></trkpt><trkpt lat="37.00809312007928" lon="15.01483611742137"><ele>455.0</ele><time>2026-04-24T16:25:52.999Z</time></trkpt><trkpt lat="37.008270165641534" lon="15.014694002026895"><ele>455.3333333333333</ele><time>2026-04-24T16:25:53.999Z</time></trkpt><trkpt lat="37.008417001053324" lon="15.014534598723882"><ele>455.66666666666663</ele><time>2026-04-24T16:25:54.999Z</time></trkpt><trkpt lat="37.00856985643916" lon="15.014400402045306"><ele>456.0</ele><time>2026-04-24T16:25:55.999Z</time></trkpt><trkpt lat="37.008688621888254" lon="15.014217821447891"><ele>455.0</ele><time>2026-04-24T16:25:56.999Z</time></trkpt><trkpt lat="37.00880052524117" lon="15.014012744380306"><ele>454.0</ele><time>2026-04-24T16:25:57.999Z</time></trkpt><trkpt lat="37.00891829110069" lon="15.013818564675049"><ele>453.0</ele><time>2026-04-24T16:25:58.999Z</time></trkpt><trkpt lat="37.00904112402" lon="15.013626636190283"><ele>454.66666666666663</ele><time>2026-04-24T16:25:59.999Z</time></trkpt><trkpt lat="37.00916123975495" lon="15.013439184589407"><ele>456.3333333333333</ele><time>2026-04-24T16:26:00.999Z</time></trkpt><trkpt lat="37.00927958505971" lon="15.013265727827115"><ele>458.0</ele><time>2026-04-24T16:26:01.999Z</time></trkpt><trkpt lat="37.009394750563814" lon="15.01310872998146"><ele>458.0</ele><time>2026-04-24T16:26:02.999Z</time></trkpt><trkpt lat="37.0095185300115" lon="15.012956305849208"><ele>458.0</ele><time>2026-04-24T16:26:03.999Z</time></trkpt><trkpt lat="37.00960677613836" lon="15.012862195231397"><ele>458.0</ele><time>2026-04-24T16:26:04.999Z</time></trkpt><trkpt lat="37.009703642894365" lon="15.012800533839274"><ele>458.0</ele><time>2026-04-24T16:26:05.999Z</time></trkpt><trkpt lat="37.009831670508916" lon="15.012746186924934"><ele>458.0</ele><time>2026-04-24T16:26:06.999Z</time></trkpt><trkpt lat="37.009936800311" lon="15.012772593897216"><ele>458.0</ele><time>2026-04-24T16:26:07.999Z</time></trkpt><trkpt lat="37.010043407045664" lon="15.01282269159234"><ele>458.0</ele><time>2026-04-24T16:26:08.999Z</time></trkpt><trkpt lat="37.01018579277322" lon="15.012861430334096"><ele>458.0</ele><time>2026-04-24T16:26:09.999Z</time></trkpt><trkpt lat="37.01032533343631" lon="15.012916649501623"><ele>459.3333333333333</ele><time>2026-04-24T16:26:10.999Z</time></trkpt><trkpt lat="37.01047747542621" lon="15.012980072153836"><ele>460.66666666666663</ele><time>2026-04-24T16:26:11.999Z</time></trkpt><trkpt lat="37.01063826921073" lon="15.01304923156929"><ele>462.0</ele><time>2026-04-24T16:26:12.999Z</time></trkpt><trkpt lat="37.01080767184586" lon="15.013115275735027"><ele>461.33333333333337</ele><time>2026-04-24T16:26:13.999Z</time></trkpt><trkpt lat="37.01098156625239" lon="15.013192054144872"><ele>460.6666666666667</ele><time>2026-04-24T16:26:14.999Z</time></trkpt><trkpt lat="37.01116425815101" lon="15.0132664584298"><ele>460.0</ele><time>2026-04-24T16:26:15.999Z</time></trkpt><trkpt lat="37.01135062833155" lon="15.013337744027236"><ele>460.0</ele><time>2026-04-24T16:26:16.999Z</time></trkpt><trkpt lat="37.01153980779746" lon="15.013404807674192"><ele>460.0</ele><time>2026-04-24T16:26:17.999Z</time></trkpt><trkpt lat="37.01172637952283" lon="15.013466418938787"><ele>460.0</ele><time>2026-04-24T16:26:18.999Z</time></trkpt><trkpt lat="37.01192136398041" lon="15.013516277325968"><ele>459.33333333333337</ele><time>2026-04-24T16:26:19.999Z</time></trkpt><trkpt lat="37.01211834177099" lon="15.01355249319159"><ele>458.66666666666663</ele><time>2026-04-24T16:26:20.999Z</time></trkpt><trkpt lat="37.012315990197614" lon="15.013583296417979"><ele>458.0</ele><time>2026-04-24T16:26:21.999Z</time></trkpt><trkpt lat="37.012514708204634" lon="15.013607439801385"><ele>456.66666666666663</ele><time>2026-04-24T16:26:22.999Z</time></trkpt><trkpt lat="37.01271738435338" lon="15.01362661565292"><ele>455.33333333333337</ele><time>2026-04-24T16:26:23.999Z</time></trkpt><trkpt lat="37.01291982985126" lon="15.013643099906396"><ele>454.0</ele><time>2026-04-24T16:26:24.999Z</time></trkpt><trkpt lat="37.01312423633339" lon="15.01366353022041"><ele>454.0</ele><time>2026-04-24T16:26:25.999Z</time></trkpt><trkpt lat="37.01332077734714" lon="15.013674279107894"><ele>454.0</ele><time>2026-04-24T16:26:26.999Z</time></trkpt><trkpt lat="37.01352075638833" lon="15.013694353755136"><ele>454.0</ele><time>2026-04-24T16:26:27.999Z</time></trkpt><trkpt lat="37.013719674048694" lon="15.013711835040395"><ele>453.33333333333337</ele><time>2026-04-24T16:26:28.999Z</time></trkpt><trkpt lat="37.013919270578256" lon="15.01372082626968"><ele>452.66666666666663</ele><time>2026-04-24T16:26:29.999Z</time></trkpt><trkpt lat="37.01411642051081" lon="15.013737413433676"><ele>452.0</ele><time>2026-04-24T16:26:30.999Z</time></trkpt><trkpt lat="37.0143121685276" lon="15.01375465087343"><ele>452.0</ele><time>2026-04-24T16:26:31.999Z</time></trkpt><trkpt lat="37.01450948384448" lon="15.013766765297596"><ele>452.0</ele><time>2026-04-24T16:26:32.999Z</time></trkpt><trkpt lat="37.01470505018354" lon="15.01377834504713"><ele>452.0</ele><time>2026-04-24T16:26:33.999Z</time></trkpt><trkpt lat="37.014895733831615" lon="15.013784911445068"><ele>452.66666666666663</ele><time>2026-04-24T16:26:34.999Z</time></trkpt><trkpt lat="37.01509395351315" lon="15.01378074677637"><ele>453.33333333333337</ele><time>2026-04-24T16:26:35.999Z</time></trkpt><trkpt lat="37.01529007479768" lon="15.013764553153946"><ele>454.0</ele><time>2026-04-24T16:26:36.999Z</time></trkpt><trkpt lat="37.01548942856927" lon="15.013742441470587"><ele>454.0</ele><time>2026-04-24T16:26:37.999Z</time></trkpt><trkpt lat="37.0156863390113" lon="15.013717920714779"><ele>454.0</ele><time>2026-04-24T16:26:38.999Z</time></trkpt><trkpt lat="37.01588365708015" lon="15.01368006732874"><ele>454.0</ele><time>2026-04-24T16:26:39.999Z</time></trkpt><trkpt lat="37.016084262926" lon="15.01360311652871"><ele>454.33333333333337</ele><time>2026-04-24T16:26:40.999Z</time></trkpt><trkpt lat="37.01627518013217" lon="15.013542795055285"><ele>454.66666666666663</ele><time>2026-04-24T16:26:41.999Z</time></trkpt><trkpt lat="37.01646288489779" lon="15.013456247574092"><ele>455.0</ele><time>2026-04-24T16:26:42.999Z</time></trkpt><trkpt lat="37.01664875582183" lon="15.013356169147434"><ele>455.0</ele><time>2026-04-24T16:26:43.999Z</time></trkpt><trkpt lat="37.01683557429196" lon="15.013244022282194"><ele>455.0</ele><time>2026-04-24T16:26:44.999Z</time></trkpt><trkpt lat="37.017010904948414" lon="15.013118264004106"><ele>455.0</ele><time>2026-04-24T16:26:45.999Z</time></trkpt><trkpt lat="37.0171811185327" lon="15.012979747302468"><ele>455.0</ele><time>2026-04-24T16:26:46.999Z</time></trkpt><trkpt lat="37.01736235275628" lon="15.012871931296697"><ele>455.0</ele><time>2026-04-24T16:26:47.999Z</time></trkpt><trkpt lat="37.017519243133" lon="15.012698396100067"><ele>455.0</ele><time>2026-04-24T16:26:48.999Z</time></trkpt><trkpt lat="37.01767443120629" lon="15.012549362933614"><ele>454.66666666666663</ele><time>2026-04-24T16:26:49.999Z</time></trkpt><trkpt lat="37.01780777835153" lon="15.012405721755718"><ele>454.33333333333337</ele><time>2026-04-24T16:26:50.999Z</time></trkpt><trkpt lat="37.017947727724625" lon="15.012275594893106"><ele>454.0</ele><time>2026-04-24T16:26:51.999Z</time></trkpt><trkpt lat="37.018081641213165" lon="15.01214600705698"><ele>454.0</ele><time>2026-04-24T16:26:52.999Z</time></trkpt><trkpt lat="37.018199208616906" lon="15.012027083083971"><ele>454.0</ele><time>2026-04-24T16:26:53.999Z</time></trkpt><trkpt lat="37.01830788520961" lon="15.011920250433267"><ele>454.0</ele><time>2026-04-24T16:26:54.998Z</time></trkpt><trkpt lat="37.018423034179555" lon="15.011803272587795"><ele>454.0</ele><time>2026-04-24T16:26:55.998Z</time></trkpt><trkpt lat="37.01854363725967" lon="15.011676987133592"><ele>453.6666666666667</ele><time>2026-04-24T16:26:56.998Z</time></trkpt><trkpt lat="37.0186648186759" lon="15.011536567168438"><ele>453.33333333333337</ele><time>2026-04-24T16:26:57.998Z</time></trkpt><trkpt lat="37.01878457558478" lon="15.011419562422613"><ele>453.0</ele><time>2026-04-24T16:26:58.998Z</time></trkpt><trkpt lat="37.01892670518189" lon="15.01128702499149"><ele>453.0</ele><time>2026-04-24T16:27:00Z</time></trkpt><trkpt lat="37.01905531354424" lon="15.011153847529537"><ele>453.0</ele><time>2026-04-24T16:27:01Z</time></trkpt><trkpt lat="37.01918443600391" lon="15.011019039292638"><ele>453.0</ele><time>2026-04-24T16:27:02Z</time></trkpt><trkpt lat="37.019308273028145" lon="15.010893479977248"><ele>453.25</ele><time>2026-04-24T16:27:03Z</time></trkpt><trkpt lat="37.01943745330064" lon="15.010770258071325"><ele>453.5</ele><time>2026-04-24T16:27:04Z</time></trkpt><trkpt lat="37.01954576861843" lon="15.010656226631196"><ele>453.75</ele><time>2026-04-24T16:27:05Z</time></trkpt><trkpt lat="37.019651735383" lon="15.010551934073627"><ele>454.0</ele><time>2026-04-24T16:27:06Z</time></trkpt><trkpt lat="37.019753336133675" lon="15.010447760021966"><ele>454.00000000000006</ele><time>2026-04-24T16:27:07Z</time></trkpt><trkpt lat="37.01984231413548" lon="15.010351471056442"><ele>454.0</ele><time>2026-04-24T16:27:08Z</time></trkpt><trkpt lat="37.019910180960785" lon="15.010282451469264"><ele>454.0</ele><time>2026-04-24T16:27:09Z</time></trkpt><trkpt lat="37.019991279782964" lon="15.010218112068843"><ele>454.0</ele><time>2026-04-24T16:27:11Z</time></trkpt><trkpt lat="37.020054081613466" lon="15.010227268118275"><ele>454.00000000000006</ele><time>2026-04-24T16:27:27Z</time></trkpt><trkpt lat="37.01998696520763" lon="15.010233812896276"><ele>454.0</ele><time>2026-04-24T16:27:33Z</time></trkpt><trkpt lat="37.02002797548527" lon="15.010171373582402"><ele>454.75</ele><time>2026-04-24T16:27:46Z</time></trkpt><trkpt lat="37.02008875542557" lon="15.010099727632163"><ele>455.5</ele><time>2026-04-24T16:27:47Z</time></trkpt><trkpt lat="37.0201884014326" lon="15.010018030729759"><ele>456.25</ele><time>2026-04-24T16:27:48Z</time></trkpt><trkpt lat="37.02033051316211" lon="15.009940808888233"><ele>457.0</ele><time>2026-04-24T16:27:49Z</time></trkpt><trkpt lat="37.020471232101855" lon="15.009824642524709"><ele>457.0</ele><time>2026-04-24T16:27:50Z</time></trkpt><trkpt lat="37.02061447716035" lon="15.009702744595293"><ele>457.0</ele><time>2026-04-24T16:27:51Z</time></trkpt><trkpt lat="37.020818689355195" lon="15.009585573425822"><ele>457.0</ele><time>2026-04-24T16:27:52Z</time></trkpt><trkpt lat="37.02103513374809" lon="15.009473221281883"><ele>457.0</ele><time>2026-04-24T16:27:53Z</time></trkpt><trkpt lat="37.02093907439693" lon="15.009239579740008"><ele>457.0</ele><time>2026-04-24T16:27:53.999Z</time></trkpt><trkpt lat="37.021081789569315" lon="15.00909315603979"><ele>457.0</ele><time>2026-04-24T16:27:54.999Z</time></trkpt><trkpt lat="37.02122576089083" lon="15.008959502147961"><ele>457.6666666666667</ele><time>2026-04-24T16:27:55.999Z</time></trkpt><trkpt lat="37.02135941618812" lon="15.008827869760568"><ele>458.33333333333337</ele><time>2026-04-24T16:27:56.999Z</time></trkpt><trkpt lat="37.0214883201047" lon="15.008693204108187"><ele>459.0</ele><time>2026-04-24T16:27:57.999Z</time></trkpt><trkpt lat="37.02162170447377" lon="15.008562517053468"><ele>458.66666666666663</ele><time>2026-04-24T16:27:58.999Z</time></trkpt><trkpt lat="37.021767904055665" lon="15.008433934121882"><ele>458.3333333333333</ele><time>2026-04-24T16:27:59.999Z</time></trkpt><trkpt lat="37.021916458335525" lon="15.008297960833232"><ele>458.0</ele><time>2026-04-24T16:28:00.999Z</time></trkpt><trkpt lat="37.02207883656053" lon="15.008154334074842"><ele>458.0</ele><time>2026-04-24T16:28:01.999Z</time></trkpt><trkpt lat="37.022244719019724" lon="15.008023092454348"><ele>458.0</ele><time>2026-04-24T16:28:02.999Z</time></trkpt><trkpt lat="37.02240293351775" lon="15.007892200235375"><ele>458.0</ele><time>2026-04-24T16:28:03.999Z</time></trkpt><trkpt lat="37.02257034419893" lon="15.007764963001705"><ele>458.3333333333333</ele><time>2026-04-24T16:28:04.999Z</time></trkpt><trkpt lat="37.02274354939167" lon="15.007648652579249"><ele>458.66666666666663</ele><time>2026-04-24T16:28:05.999Z</time></trkpt><trkpt lat="37.02291967968294" lon="15.007533097766023"><ele>459.0</ele><time>2026-04-24T16:28:06.999Z</time></trkpt><trkpt lat="37.02310121433813" lon="15.007421692748476"><ele>459.0</ele><time>2026-04-24T16:28:07.999Z</time></trkpt><trkpt lat="37.023285188781294" lon="15.007301017642432"><ele>459.0</ele><time>2026-04-24T16:28:08.999Z</time></trkpt><trkpt lat="37.0234701696664" lon="15.007178957409229"><ele>459.0</ele><time>2026-04-24T16:28:09.999Z</time></trkpt><trkpt lat="37.02364684259881" lon="15.007059517675739"><ele>460.33333333333337</ele><time>2026-04-24T16:28:10.999Z</time></trkpt><trkpt lat="37.0238360519624" lon="15.006938549410425"><ele>461.6666666666667</ele><time>2026-04-24T16:28:11.999Z</time></trkpt><trkpt lat="37.02402187643857" lon="15.006816533573458"><ele>463.0</ele><time>2026-04-24T16:28:12.999Z</time></trkpt><trkpt lat="37.02421005449485" lon="15.00669418900307"><ele>463.6666666666667</ele><time>2026-04-24T16:28:13.999Z</time></trkpt><trkpt lat="37.02439521068101" lon="15.006566228861177"><ele>464.33333333333337</ele><time>2026-04-24T16:28:14.999Z</time></trkpt><trkpt lat="37.02457979597955" lon="15.006437835889301"><ele>465.0</ele><time>2026-04-24T16:28:15.999Z</time></trkpt><trkpt lat="37.02476199619908" lon="15.006324570076268"><ele>465.0</ele><time>2026-04-24T16:28:16.999Z</time></trkpt><trkpt lat="37.02494498422959" lon="15.006204672712618"><ele>465.0</ele><time>2026-04-24T16:28:17.999Z</time></trkpt><trkpt lat="37.02513098084365" lon="15.006085050162028"><ele>465.0</ele><time>2026-04-24T16:28:18.999Z</time></trkpt><trkpt lat="37.025317889355165" lon="15.005955342914913"><ele>465.33333333333337</ele><time>2026-04-24T16:28:19.999Z</time></trkpt><trkpt lat="37.02549545201265" lon="15.005830434333655"><ele>465.6666666666667</ele><time>2026-04-24T16:28:20.999Z</time></trkpt><trkpt lat="37.02566690842377" lon="15.005694118704236"><ele>466.0</ele><time>2026-04-24T16:28:21.999Z</time></trkpt><trkpt lat="37.02585148283537" lon="15.005541018189081"><ele>467.0</ele><time>2026-04-24T16:28:22.999Z</time></trkpt><trkpt lat="37.02601936358435" lon="15.005394621542107"><ele>468.0</ele><time>2026-04-24T16:28:23.999Z</time></trkpt><trkpt lat="37.02618852459981" lon="15.005243666934502"><ele>469.0</ele><time>2026-04-24T16:28:24.999Z</time></trkpt><trkpt lat="37.0263591391515" lon="15.005083985389563"><ele>469.6666666666667</ele><time>2026-04-24T16:28:25.999Z</time></trkpt><trkpt lat="37.02652303962448" lon="15.004940552035588"><ele>470.33333333333337</ele><time>2026-04-24T16:28:26.999Z</time></trkpt><trkpt lat="37.02668622810798" lon="15.004780711050653"><ele>471.0</ele><time>2026-04-24T16:28:27.999Z</time></trkpt><trkpt lat="37.02685306370457" lon="15.004621231477572"><ele>471.0</ele><time>2026-04-24T16:28:28.999Z</time></trkpt><trkpt lat="37.02702265344865" lon="15.004459971408961"><ele>471.0</ele><time>2026-04-24T16:28:29.999Z</time></trkpt><trkpt lat="37.02719437264923" lon="15.00430099281254"><ele>471.0</ele><time>2026-04-24T16:28:30.999Z</time></trkpt><trkpt lat="37.02736476712126" lon="15.0041432990396"><ele>471.66666666666663</ele><time>2026-04-24T16:28:31.999Z</time></trkpt><trkpt lat="37.02753466957858" lon="15.003976892126126"><ele>472.3333333333333</ele><time>2026-04-24T16:28:32.999Z</time></trkpt><trkpt lat="37.02770931123907" lon="15.003812042008288"><ele>473.0</ele><time>2026-04-24T16:28:33.999Z</time></trkpt><trkpt lat="37.027872685298064" lon="15.003627699466698"><ele>473.0</ele><time>2026-04-24T16:28:34.999Z</time></trkpt><trkpt lat="37.02803839414663" lon="15.003448615446079"><ele>473.0</ele><time>2026-04-24T16:28:35.999Z</time></trkpt><trkpt lat="37.02819876575692" lon="15.003267100983896"><ele>473.0</ele><time>2026-04-24T16:28:36.999Z</time></trkpt><trkpt lat="37.028359035668934" lon="15.003075731581752"><ele>473.3333333333333</ele><time>2026-04-24T16:28:37.999Z</time></trkpt><trkpt lat="37.0285118689706" lon="15.002884087886693"><ele>473.66666666666663</ele><time>2026-04-24T16:28:38.999Z</time></trkpt><trkpt lat="37.028662898199016" lon="15.00268013140832"><ele>474.0</ele><time>2026-04-24T16:28:39.999Z</time></trkpt><trkpt lat="37.02880472189565" lon="15.002463086366049"><ele>474.0</ele><time>2026-04-24T16:28:40.999Z</time></trkpt><trkpt lat="37.02894339987199" lon="15.002249825276882"><ele>474.0</ele><time>2026-04-24T16:28:41.999Z</time></trkpt><trkpt lat="37.02908352501685" lon="15.002033744712735"><ele>474.0</ele><time>2026-04-24T16:28:42.999Z</time></trkpt><trkpt lat="37.029224384009126" lon="15.001813214531191"><ele>476.0</ele><time>2026-04-24T16:28:43.999Z</time></trkpt><trkpt lat="37.029355603080354" lon="15.001602197583875"><ele>478.0</ele><time>2026-04-24T16:28:44.999Z</time></trkpt><trkpt lat="37.029490329954434" lon="15.001378837974066"><ele>480.0</ele><time>2026-04-24T16:28:45.999Z</time></trkpt><trkpt lat="37.029627756311854" lon="15.001140048045455"><ele>480.0</ele><time>2026-04-24T16:28:46.999Z</time></trkpt><trkpt lat="37.029773480869046" lon="15.0008974535819"><ele>480.0</ele><time>2026-04-24T16:28:47.999Z</time></trkpt><trkpt lat="37.02988951441246" lon="15.000723171914895"><ele>480.0</ele><time>2026-04-24T16:28:48.999Z</time></trkpt><trkpt lat="37.03001608825328" lon="15.000468153252484"><ele>481.0</ele><time>2026-04-24T16:28:49.999Z</time></trkpt><trkpt lat="37.030150351969965" lon="15.00024157417891"><ele>482.0</ele><time>2026-04-24T16:28:50.999Z</time></trkpt><trkpt lat="37.030279151702004" lon="15.000013443893538"><ele>483.0</ele><time>2026-04-24T16:28:51.999Z</time></trkpt><trkpt lat="37.03041058442651" lon="14.999783765197208"><ele>483.0</ele><time>2026-04-24T16:28:52.999Z</time></trkpt><trkpt lat="37.030534080684255" lon="14.99958785497173"><ele>483.0</ele><time>2026-04-24T16:28:53.999Z</time></trkpt><trkpt lat="37.03066754058399" lon="14.99933629180588"><ele>483.0</ele><time>2026-04-24T16:28:54.999Z</time></trkpt><trkpt lat="37.03079502043564" lon="14.999098749612836"><ele>488.0</ele><time>2026-04-24T16:28:55.999Z</time></trkpt><trkpt lat="37.03092358435405" lon="14.998863089872753"><ele>493.0</ele><time>2026-04-24T16:28:56.999Z</time></trkpt><trkpt lat="37.03104716838887" lon="14.998622721046356"><ele>493.0</ele><time>2026-04-24T16:28:57.999Z</time></trkpt><trkpt lat="37.031166146414925" lon="14.998380487434662"><ele>493.0</ele><time>2026-04-24T16:28:58.999Z</time></trkpt><trkpt lat="37.03127558193794" lon="14.998132716401207"><ele>491.5</ele><time>2026-04-24T16:28:59.999Z</time></trkpt><trkpt lat="37.03139194059063" lon="14.997852560083215"><ele>490.0</ele><time>2026-04-24T16:29:00.999Z</time></trkpt><trkpt lat="37.03149498458845" lon="14.997617829655548"><ele>490.0</ele><time>2026-04-24T16:29:01.999Z</time></trkpt><trkpt lat="37.031600130177345" lon="14.997371116400325"><ele>490.0</ele><time>2026-04-24T16:29:02.999Z</time></trkpt><trkpt lat="37.03170387997128" lon="14.99712357690807"><ele>490.0</ele><time>2026-04-24T16:29:03.999Z</time></trkpt><trkpt lat="37.03180748580907" lon="14.996876882801752"><ele>491.33333333333337</ele><time>2026-04-24T16:29:04.999Z</time></trkpt><trkpt lat="37.03191315427733" lon="14.996634603214195"><ele>492.66666666666663</ele><time>2026-04-24T16:29:06Z</time></trkpt><trkpt lat="37.032012511711315" lon="14.996378242297641"><ele>494.0</ele><time>2026-04-24T16:29:07Z</time></trkpt><trkpt lat="37.032098921193274" lon="14.996119657680005"><ele>494.0</ele><time>2026-04-24T16:29:08Z</time></trkpt><trkpt lat="37.03217798162851" lon="14.995853357045663"><ele>494.0</ele><time>2026-04-24T16:29:09Z</time></trkpt><trkpt lat="37.03224741713453" lon="14.995578374357937"><ele>494.3333333333333</ele><time>2026-04-24T16:29:10Z</time></trkpt><trkpt lat="37.032301113193185" lon="14.995307806604831"><ele>494.66666666666663</ele><time>2026-04-24T16:29:11Z</time></trkpt><trkpt lat="37.03234312813702" lon="14.99504186455305"><ele>495.0</ele><time>2026-04-24T16:29:12Z</time></trkpt><trkpt lat="37.03236985560581" lon="14.994755679700546"><ele>496.5</ele><time>2026-04-24T16:29:13Z</time></trkpt><trkpt lat="37.03237751493606" lon="14.994475173389382"><ele>498.0</ele><time>2026-04-24T16:29:14Z</time></trkpt><trkpt lat="37.03237227089871" lon="14.994190807863413"><ele>497.5</ele><time>2026-04-24T16:29:15Z</time></trkpt><trkpt lat="37.03235522238692" lon="14.9939079438507"><ele>497.0</ele><time>2026-04-24T16:29:16Z</time></trkpt><trkpt lat="37.032338583341335" lon="14.993624532944516"><ele>497.0</ele><time>2026-04-24T16:29:17Z</time></trkpt><trkpt lat="37.03233621137848" lon="14.993348097261318"><ele>497.0</ele><time>2026-04-24T16:29:18Z</time></trkpt><trkpt lat="37.03230872081466" lon="14.99305813045855"><ele>496.5</ele><time>2026-04-24T16:29:19Z</time></trkpt><trkpt lat="37.03228997759898" lon="14.992766672059075"><ele>496.0</ele><time>2026-04-24T16:29:20Z</time></trkpt><trkpt lat="37.03226737275435" lon="14.992477200690475"><ele>495.0</ele><time>2026-04-24T16:29:21Z</time></trkpt><trkpt lat="37.03224890556361" lon="14.992193015218675"><ele>494.0</ele><time>2026-04-24T16:29:22Z</time></trkpt><trkpt lat="37.03222913630688" lon="14.99190632277717"><ele>493.0</ele><time>2026-04-24T16:29:23Z</time></trkpt><trkpt lat="37.0322134735683" lon="14.991615598066069"><ele>492.0</ele><time>2026-04-24T16:29:24Z</time></trkpt><trkpt lat="37.032196449542425" lon="14.991332865794867"><ele>492.0</ele><time>2026-04-24T16:29:25Z</time></trkpt><trkpt lat="37.032181944948036" lon="14.99104617425839"><ele>492.0</ele><time>2026-04-24T16:29:26Z</time></trkpt><trkpt lat="37.032180670087214" lon="14.990768338377181"><ele>491.66666666666663</ele><time>2026-04-24T16:29:27Z</time></trkpt><trkpt lat="37.03218222947106" lon="14.990499019720957"><ele>491.3333333333333</ele><time>2026-04-24T16:29:28Z</time></trkpt><trkpt lat="37.03219287174723" lon="14.99022539347138"><ele>491.0</ele><time>2026-04-24T16:29:29Z</time></trkpt><trkpt lat="37.032220476689425" lon="14.98995392826706"><ele>491.0</ele><time>2026-04-24T16:29:30Z</time></trkpt><trkpt lat="37.03226032612815" lon="14.989686780516536"><ele>491.0</ele><time>2026-04-24T16:29:31Z</time></trkpt><trkpt lat="37.03231800293725" lon="14.989417820174708"><ele>491.0</ele><time>2026-04-24T16:29:32Z</time></trkpt><trkpt lat="37.03239696891953" lon="14.98916547279844"><ele>493.66666666666663</ele><time>2026-04-24T16:29:33Z</time></trkpt><trkpt lat="37.03248637205971" lon="14.988915287571563"><ele>496.33333333333337</ele><time>2026-04-24T16:29:34Z</time></trkpt><trkpt lat="37.03258943860462" lon="14.98867396154756"><ele>499.0</ele><time>2026-04-24T16:29:35Z</time></trkpt><trkpt lat="37.032688470467946" lon="14.988432077529788"><ele>498.33333333333337</ele><time>2026-04-24T16:29:36Z</time></trkpt><trkpt lat="37.03279679776938" lon="14.988194003742112"><ele>497.66666666666663</ele><time>2026-04-24T16:29:37Z</time></trkpt><trkpt lat="37.03290943368434" lon="14.987954976273"><ele>497.0</ele><time>2026-04-24T16:29:38Z</time></trkpt><trkpt lat="37.03302889640514" lon="14.987721668314602"><ele>497.0</ele><time>2026-04-24T16:29:39Z</time></trkpt><trkpt lat="37.03314373047271" lon="14.987486614583226"><ele>497.0</ele><time>2026-04-24T16:29:40Z</time></trkpt><trkpt lat="37.03325089687821" lon="14.98724523392624"><ele>497.0</ele><time>2026-04-24T16:29:41Z</time></trkpt><trkpt lat="37.03335215616864" lon="14.98699808740286"><ele>497.66666666666663</ele><time>2026-04-24T16:29:42Z</time></trkpt><trkpt lat="37.03344130631184" lon="14.986747790548433"><ele>498.33333333333337</ele><time>2026-04-24T16:29:43Z</time></trkpt><trkpt lat="37.03351985699619" lon="14.986492920126024"><ele>499.0</ele><time>2026-04-24T16:29:44Z</time></trkpt><trkpt lat="37.0335902876376" lon="14.98624049052641"><ele>499.0</ele><time>2026-04-24T16:29:45Z</time></trkpt><trkpt lat="37.03365365543352" lon="14.985987429183877"><ele>499.0</ele><time>2026-04-24T16:29:46Z</time></trkpt><trkpt lat="37.03371669724208" lon="14.985736391476816"><ele>499.0</ele><time>2026-04-24T16:29:47Z</time></trkpt><trkpt lat="37.03377867547581" lon="14.985481031748103"><ele>498.6666666666667</ele><time>2026-04-24T16:29:48Z</time></trkpt><trkpt lat="37.033844859402976" lon="14.985234351569265"><ele>498.33333333333337</ele><time>2026-04-24T16:29:49Z</time></trkpt><trkpt lat="37.033911584192296" lon="14.984990699854604"><ele>498.0</ele><time>2026-04-24T16:29:50Z</time></trkpt><trkpt lat="37.033980074705525" lon="14.98474072736742"><ele>498.0</ele><time>2026-04-24T16:29:51Z</time></trkpt><trkpt lat="37.034049168162" lon="14.984486757211055"><ele>498.0</ele><time>2026-04-24T16:29:52Z</time></trkpt><trkpt lat="37.034111500719376" lon="14.984243736450486"><ele>498.0</ele><time>2026-04-24T16:29:53Z</time></trkpt><trkpt lat="37.034178276032684" lon="14.983994782517938"><ele>498.0</ele><time>2026-04-24T16:29:54Z</time></trkpt><trkpt lat="37.03424350073462" lon="14.983744575851427"><ele>498.0</ele><time>2026-04-24T16:29:55Z</time></trkpt><trkpt lat="37.03430185537281" lon="14.983521474487798"><ele>498.0</ele><time>2026-04-24T16:29:56Z</time></trkpt><trkpt lat="37.0343622399777" lon="14.983305057741157"><ele>498.0</ele><time>2026-04-24T16:29:57Z</time></trkpt><trkpt lat="37.03442335754667" lon="14.983075865398048"><ele>498.0</ele><time>2026-04-24T16:29:57.999Z</time></trkpt><trkpt lat="37.034483768159284" lon="14.982833932275712"><ele>498.0</ele><time>2026-04-24T16:29:58.999Z</time></trkpt><trkpt lat="37.03454545840772" lon="14.98259295854149"><ele>500.0</ele><time>2026-04-24T16:29:59.999Z</time></trkpt><trkpt lat="37.03460772116775" lon="14.98235661468221"><ele>502.0</ele><time>2026-04-24T16:30:00.999Z</time></trkpt><trkpt lat="37.03467356683499" lon="14.982124868135156"><ele>504.0</ele><time>2026-04-24T16:30:01.999Z</time></trkpt><trkpt lat="37.03473390625191" lon="14.981889333820623"><ele>505.0</ele><time>2026-04-24T16:30:02.999Z</time></trkpt><trkpt lat="37.03479368790514" lon="14.981653391488086"><ele>506.0</ele><time>2026-04-24T16:30:03.999Z</time></trkpt><trkpt lat="37.034849186175556" lon="14.981421862446963"><ele>507.0</ele><time>2026-04-24T16:30:04.999Z</time></trkpt><trkpt lat="37.03490483064078" lon="14.981186475343723"><ele>507.0</ele><time>2026-04-24T16:30:05.999Z</time></trkpt><trkpt lat="37.03496062347323" lon="14.98096214924109"><ele>507.0</ele><time>2026-04-24T16:30:06.999Z</time></trkpt><trkpt lat="37.03500393152568" lon="14.980719186750093"><ele>507.0</ele><time>2026-04-24T16:30:07.999Z</time></trkpt><trkpt lat="37.03505159002696" lon="14.980485516032914"><ele>505.66666666666663</ele><time>2026-04-24T16:30:08.999Z</time></trkpt><trkpt lat="37.035092145585686" lon="14.980251077711078"><ele>504.3333333333333</ele><time>2026-04-24T16:30:09.999Z</time></trkpt><trkpt lat="37.03512875767673" lon="14.980016940148662"><ele>503.0</ele><time>2026-04-24T16:30:10.999Z</time></trkpt><trkpt lat="37.03516671464728" lon="14.979784295826873"><ele>503.0</ele><time>2026-04-24T16:30:11.999Z</time></trkpt><trkpt lat="37.035203071163636" lon="14.97954312906687"><ele>503.0</ele><time>2026-04-24T16:30:12.999Z</time></trkpt><trkpt lat="37.035241381318194" lon="14.979305084960043"><ele>503.0</ele><time>2026-04-24T16:30:13.999Z</time></trkpt><trkpt lat="37.03527298753809" lon="14.979070390518853"><ele>503.0</ele><time>2026-04-24T16:30:14.999Z</time></trkpt><trkpt lat="37.03530962699364" lon="14.978838892968177"><ele>503.0</ele><time>2026-04-24T16:30:15.999Z</time></trkpt><trkpt lat="37.0353373939027" lon="14.978605476599965"><ele>503.0</ele><time>2026-04-24T16:30:16.999Z</time></trkpt><trkpt lat="37.0353501972355" lon="14.978377162786693"><ele>502.66666666666663</ele><time>2026-04-24T16:30:17.999Z</time></trkpt><trkpt lat="37.035396931526684" lon="14.978132435970599"><ele>502.33333333333337</ele><time>2026-04-24T16:30:18.999Z</time></trkpt><trkpt lat="37.03544335984559" lon="14.97788914181786"><ele>502.0</ele><time>2026-04-24T16:30:19.999Z</time></trkpt><trkpt lat="37.03546658685349" lon="14.977653134862612"><ele>501.6666666666667</ele><time>2026-04-24T16:30:20.999Z</time></trkpt><trkpt lat="37.03550053658245" lon="14.977423363169303"><ele>501.33333333333337</ele><time>2026-04-24T16:30:21.999Z</time></trkpt><trkpt lat="37.03552972614343" lon="14.977207526670247"><ele>501.0</ele><time>2026-04-24T16:30:22.999Z</time></trkpt><trkpt lat="37.03556615606806" lon="14.976988625013334"><ele>501.0</ele><time>2026-04-24T16:30:23.999Z</time></trkpt><trkpt lat="37.03559976774768" lon="14.97677996652664"><ele>501.0</ele><time>2026-04-24T16:30:24.999Z</time></trkpt><trkpt lat="37.035626132436825" lon="14.976524494623844"><ele>501.0</ele><time>2026-04-24T16:30:25.999Z</time></trkpt><trkpt lat="37.035653401324346" lon="14.976288964918055"><ele>501.66666666666663</ele><time>2026-04-24T16:30:26.999Z</time></trkpt><trkpt lat="37.03568576902743" lon="14.976049314864206"><ele>502.3333333333333</ele><time>2026-04-24T16:30:27.999Z</time></trkpt><trkpt lat="37.035718537288155" lon="14.975805670391413"><ele>503.0</ele><time>2026-04-24T16:30:28.999Z</time></trkpt><trkpt lat="37.035754088994445" lon="14.975566211827568"><ele>503.3333333333333</ele><time>2026-04-24T16:30:29.999Z</time></trkpt><trkpt lat="37.03578512893479" lon="14.975330530519836"><ele>503.66666666666663</ele><time>2026-04-24T16:30:30.999Z</time></trkpt><trkpt lat="37.03581916106187" lon="14.975091346992826"><ele>504.0</ele><time>2026-04-24T16:30:31.999Z</time></trkpt><trkpt lat="37.03584892973827" lon="14.974853743127372"><ele>505.0</ele><time>2026-04-24T16:30:32.999Z</time></trkpt><trkpt lat="37.035886050665276" lon="14.974617650837528"><ele>506.0</ele><time>2026-04-24T16:30:33.999Z</time></trkpt><trkpt lat="37.03591532859341" lon="14.974389806417129"><ele>507.0</ele><time>2026-04-24T16:30:34.999Z</time></trkpt><trkpt lat="37.03594512587007" lon="14.974168070036523"><ele>507.0</ele><time>2026-04-24T16:30:35.999Z</time></trkpt><trkpt lat="37.035973071975015" lon="14.973934488201902"><ele>507.0</ele><time>2026-04-24T16:30:36.999Z</time></trkpt><trkpt lat="37.03600760298187" lon="14.97368556835521"><ele>507.0</ele><time>2026-04-24T16:30:37.999Z</time></trkpt><trkpt lat="37.03603940924651" lon="14.973448754073685"><ele>507.0</ele><time>2026-04-24T16:30:38.999Z</time></trkpt><trkpt lat="37.03607159207641" lon="14.973212484001142"><ele>507.0</ele><time>2026-04-24T16:30:39.999Z</time></trkpt><trkpt lat="37.03610441298864" lon="14.972980495914115"><ele>507.0</ele><time>2026-04-24T16:30:40.999Z</time></trkpt><trkpt lat="37.03613849188951" lon="14.972750960427025"><ele>507.66666666666663</ele><time>2026-04-24T16:30:41.999Z</time></trkpt><trkpt lat="37.03617751590495" lon="14.972512572840667"><ele>508.3333333333333</ele><time>2026-04-24T16:30:42.999Z</time></trkpt><trkpt lat="37.036220991376176" lon="14.972281879305093"><ele>509.0</ele><time>2026-04-24T16:30:43.999Z</time></trkpt><trkpt lat="37.03626167078146" lon="14.972060723309475"><ele>509.0</ele><time>2026-04-24T16:30:44.999Z</time></trkpt><trkpt lat="37.03630572054615" lon="14.971818230413387"><ele>509.0</ele><time>2026-04-24T16:30:45.999Z</time></trkpt><trkpt lat="37.036355457964895" lon="14.971591095820012"><ele>509.0</ele><time>2026-04-24T16:30:46.999Z</time></trkpt><trkpt lat="37.03641571351576" lon="14.971360918967928"><ele>509.0</ele><time>2026-04-24T16:30:47.999Z</time></trkpt><trkpt lat="37.03647433368539" lon="14.971135716422399"><ele>509.0</ele><time>2026-04-24T16:30:48.999Z</time></trkpt><trkpt lat="37.036535442898945" lon="14.970913810617775"><ele>509.0</ele><time>2026-04-24T16:30:49.999Z</time></trkpt><trkpt lat="37.03660359834556" lon="14.970693390456809"><ele>509.3333333333333</ele><time>2026-04-24T16:30:50.999Z</time></trkpt><trkpt lat="37.03667225829184" lon="14.970476260299233"><ele>509.66666666666663</ele><time>2026-04-24T16:30:51.999Z</time></trkpt><trkpt lat="37.03673768040238" lon="14.970266678604618"><ele>510.0</ele><time>2026-04-24T16:30:52.999Z</time></trkpt><trkpt lat="37.03680688157891" lon="14.970049870387472"><ele>510.33333333333337</ele><time>2026-04-24T16:30:53.999Z</time></trkpt><trkpt lat="37.036878165394114" lon="14.969828986925247"><ele>510.6666666666667</ele><time>2026-04-24T16:30:54.999Z</time></trkpt><trkpt lat="37.03694778649545" lon="14.969613124703933"><ele>511.0</ele><time>2026-04-24T16:30:55.999Z</time></trkpt><trkpt lat="37.03701550911159" lon="14.969395593178495"><ele>511.33333333333337</ele><time>2026-04-24T16:30:56.999Z</time></trkpt><trkpt lat="37.03708360233031" lon="14.969179514564216"><ele>511.66666666666663</ele><time>2026-04-24T16:30:57.999Z</time></trkpt><trkpt lat="37.037149762836854" lon="14.96896650974786"><ele>512.0</ele><time>2026-04-24T16:30:58.999Z</time></trkpt><trkpt lat="37.03722175683057" lon="14.96875643978768"><ele>512.0</ele><time>2026-04-24T16:30:59.999Z</time></trkpt><trkpt lat="37.037283157270444" lon="14.968572412124626"><ele>512.0</ele><time>2026-04-24T16:31:00.999Z</time></trkpt><trkpt lat="37.03734168227205" lon="14.968399312485289"><ele>512.0</ele><time>2026-04-24T16:31:01.999Z</time></trkpt><trkpt lat="37.03739673454441" lon="14.968222656485874"><ele>512.3333333333333</ele><time>2026-04-24T16:31:02.999Z</time></trkpt><trkpt lat="37.03744949835039" lon="14.968035745831802"><ele>512.6666666666666</ele><time>2026-04-24T16:31:03.999Z</time></trkpt><trkpt lat="37.03750405775999" lon="14.967847803721906"><ele>513.0</ele><time>2026-04-24T16:31:04.999Z</time></trkpt><trkpt lat="37.0375553674389" lon="14.967674267487046"><ele>513.0</ele><time>2026-04-24T16:31:05.999Z</time></trkpt><trkpt lat="37.03759638355042" lon="14.967523282140705"><ele>513.0</ele><time>2026-04-24T16:31:06.999Z</time></trkpt><trkpt lat="37.03763363971118" lon="14.967390965616117"><ele>513.0</ele><time>2026-04-24T16:31:07.999Z</time></trkpt><trkpt lat="37.0376612406281" lon="14.967270655743045"><ele>513.0</ele><time>2026-04-24T16:31:08.999Z</time></trkpt><trkpt lat="37.037712556587515" lon="14.967155997446186"><ele>513.0</ele><time>2026-04-24T16:31:09.998Z</time></trkpt><trkpt lat="37.03767571674797" lon="14.967025468967355"><ele>513.0</ele><time>2026-04-24T16:31:10.998Z</time></trkpt><trkpt lat="37.03757303640735" lon="14.966956613371776"><ele>513.0</ele><time>2026-04-24T16:31:12Z</time></trkpt><trkpt lat="37.03752292697013" lon="14.9668744263496"><ele>513.0</ele><time>2026-04-24T16:31:14Z</time></trkpt><trkpt lat="37.0374810059738" lon="14.966966710330313"><ele>513.0</ele><time>2026-04-24T16:31:15Z</time></trkpt><trkpt lat="37.03754137750482" lon="14.966801027498196"><ele>513.0</ele><time>2026-04-24T16:31:17Z</time></trkpt><trkpt lat="37.0376333209924" lon="14.966748400723349"><ele>513.0</ele><time>2026-04-24T16:34:06Z</time></trkpt><trkpt lat="37.03771127388858" lon="14.966666135211584"><ele>513.0</ele><time>2026-04-24T16:34:08Z</time></trkpt><trkpt lat="37.03780807931702" lon="14.966686098541457"><ele>513.0</ele><time>2026-04-24T16:34:09Z</time></trkpt><trkpt lat="37.03787375319631" lon="14.96671261384425"><ele>513.0</ele><time>2026-04-24T16:34:19.999Z</time></trkpt><trkpt lat="37.03793457558409" lon="14.966654578696023"><ele>513.0</ele><time>2026-04-24T16:34:20.999Z</time></trkpt><trkpt lat="37.03797158259557" lon="14.96654505222095"><ele>513.0</ele><time>2026-04-24T16:34:21.999Z</time></trkpt><trkpt lat="37.03801100202515" lon="14.966391645049493"><ele>513.0</ele><time>2026-04-24T16:34:22.999Z</time></trkpt><trkpt lat="37.038106452379246" lon="14.966212712429988"><ele>513.0</ele><time>2026-04-24T16:34:23.999Z</time></trkpt><trkpt lat="37.03817086923918" lon="14.965984489913364"><ele>513.0</ele><time>2026-04-24T16:34:24.999Z</time></trkpt><trkpt lat="37.038250297386575" lon="14.965737745655806"><ele>513.0</ele><time>2026-04-24T16:34:25.999Z</time></trkpt><trkpt lat="37.038190558572296" lon="14.96569315184434"><ele>513.0</ele><time>2026-04-24T16:34:26.999Z</time></trkpt><trkpt lat="37.03826070106365" lon="14.965478007539614"><ele>513.0</ele><time>2026-04-24T16:34:27.999Z</time></trkpt><trkpt lat="37.03833414869569" lon="14.965251788008914"><ele>514.0</ele><time>2026-04-24T16:34:28.999Z</time></trkpt><trkpt lat="37.03841587105309" lon="14.965013451051696"><ele>515.0</ele><time>2026-04-24T16:34:29.999Z</time></trkpt><trkpt lat="37.038478961867405" lon="14.964764509796225"><ele>516.0</ele><time>2026-04-24T16:34:30.999Z</time></trkpt><trkpt lat="37.03858554607851" lon="14.964519693781812"><ele>516.0</ele><time>2026-04-24T16:34:31.999Z</time></trkpt><trkpt lat="37.038668062698065" lon="14.964255462686463"><ele>516.0</ele><time>2026-04-24T16:34:32.999Z</time></trkpt><trkpt lat="37.03875401746258" lon="14.963988597761682"><ele>515.5</ele><time>2026-04-24T16:34:33.999Z</time></trkpt><trkpt lat="37.03884424334033" lon="14.963718675147677"><ele>515.0</ele><time>2026-04-24T16:34:34.999Z</time></trkpt><trkpt lat="37.03893586721839" lon="14.963444092194147"><ele>515.3333333333333</ele><time>2026-04-24T16:34:35.999Z</time></trkpt><trkpt lat="37.03901665865582" lon="14.963183749230943"><ele>515.6666666666666</ele><time>2026-04-24T16:34:36.999Z</time></trkpt><trkpt lat="37.03909851293713" lon="14.962927605067394"><ele>516.0</ele><time>2026-04-24T16:34:37.999Z</time></trkpt><trkpt lat="37.03917653982665" lon="14.962672882794633"><ele>518.0</ele><time>2026-04-24T16:34:38.999Z</time></trkpt><trkpt lat="37.03925702038621" lon="14.962412867405751"><ele>520.0</ele><time>2026-04-24T16:34:39.999Z</time></trkpt><trkpt lat="37.039336071985794" lon="14.96215826120085"><ele>522.0</ele><time>2026-04-24T16:34:40.999Z</time></trkpt><trkpt lat="37.03941364888357" lon="14.961901284687285"><ele>521.3333333333334</ele><time>2026-04-24T16:34:41.999Z</time></trkpt><trkpt lat="37.03949429989146" lon="14.961649482208951"><ele>520.6666666666667</ele><time>2026-04-24T16:34:42.999Z</time></trkpt><trkpt lat="37.03957354070208" lon="14.961407371999863"><ele>520.0</ele><time>2026-04-24T16:34:43.999Z</time></trkpt><trkpt lat="37.03965614646285" lon="14.96115784237941"><ele>520.0</ele><time>2026-04-24T16:34:44.999Z</time></trkpt><trkpt lat="37.03973825271646" lon="14.960905079262611"><ele>520.0</ele><time>2026-04-24T16:34:45.999Z</time></trkpt><trkpt lat="37.03982160508158" lon="14.960651816034838"><ele>520.0</ele><time>2026-04-24T16:34:46.999Z</time></trkpt><trkpt lat="37.0399027528017" lon="14.960397192585726"><ele>521.3333333333334</ele><time>2026-04-24T16:34:47.999Z</time></trkpt><trkpt lat="37.03998867965523" lon="14.960142298969027"><ele>522.6666666666666</ele><time>2026-04-24T16:34:48.999Z</time></trkpt><trkpt lat="37.04007206597833" lon="14.959886986300159"><ele>524.0</ele><time>2026-04-24T16:34:49.999Z</time></trkpt><trkpt lat="37.04015194941427" lon="14.959628362714028"><ele>524.0</ele><time>2026-04-24T16:34:50.999Z</time></trkpt><trkpt lat="37.04023196516237" lon="14.959373154772695"><ele>524.0</ele><time>2026-04-24T16:34:51.999Z</time></trkpt><trkpt lat="37.04031192954751" lon="14.959118740485023"><ele>524.0</ele><time>2026-04-24T16:34:52.999Z</time></trkpt><trkpt lat="37.04041701610325" lon="14.958870774602337"><ele>525.6666666666666</ele><time>2026-04-24T16:34:53.999Z</time></trkpt><trkpt lat="37.04048733785686" lon="14.958617508247391"><ele>527.3333333333334</ele><time>2026-04-24T16:34:54.999Z</time></trkpt><trkpt lat="37.04056536596407" lon="14.958358513686324"><ele>529.0</ele><time>2026-04-24T16:34:55.999Z</time></trkpt><trkpt lat="37.04064485157083" lon="14.958100739746959"><ele>529.6666666666667</ele><time>2026-04-24T16:34:56.999Z</time></trkpt><trkpt lat="37.040723988239264" lon="14.957839736640858"><ele>530.3333333333334</ele><time>2026-04-24T16:34:57.999Z</time></trkpt><trkpt lat="37.04081073257768" lon="14.957578286021864"><ele>531.0</ele><time>2026-04-24T16:34:58.999Z</time></trkpt><trkpt lat="37.040898284680516" lon="14.957312471516344"><ele>532.0</ele><time>2026-04-24T16:34:59.999Z</time></trkpt><trkpt lat="37.04098277615871" lon="14.95700479299986"><ele>533.0</ele><time>2026-04-24T16:35:00.999Z</time></trkpt><trkpt lat="37.04109255675707" lon="14.956663173328268"><ele>533.5</ele><time>2026-04-24T16:35:01.999Z</time></trkpt><trkpt lat="37.04119971270135" lon="14.956328276323127"><ele>534.0</ele><time>2026-04-24T16:35:02.999Z</time></trkpt><trkpt lat="37.04132194852413" lon="14.956014045521089"><ele>534.6666666666666</ele><time>2026-04-24T16:35:04.999Z</time></trkpt><trkpt lat="37.04140900459918" lon="14.955753596465238"><ele>535.3333333333333</ele><time>2026-04-24T16:35:05.999Z</time></trkpt><trkpt lat="37.04149532452614" lon="14.955505125764228"><ele>536.0</ele><time>2026-04-24T16:35:06.999Z</time></trkpt><trkpt lat="37.04157567295123" lon="14.955254986124578"><ele>536.6666666666666</ele><time>2026-04-24T16:35:07.999Z</time></trkpt><trkpt lat="37.04165536605094" lon="14.955010328150253"><ele>537.3333333333334</ele><time>2026-04-24T16:35:08.999Z</time></trkpt><trkpt lat="37.04172204629644" lon="14.95475860774845"><ele>538.0</ele><time>2026-04-24T16:35:09.999Z</time></trkpt><trkpt lat="37.041788413413244" lon="14.9544955281567"><ele>538.0</ele><time>2026-04-24T16:35:10.999Z</time></trkpt><trkpt lat="37.04186325661724" lon="14.954233601274309"><ele>538.0</ele><time>2026-04-24T16:35:11.999Z</time></trkpt><trkpt lat="37.04194732564944" lon="14.953957515901871"><ele>539.5</ele><time>2026-04-24T16:35:12.999Z</time></trkpt><trkpt lat="37.042035558947966" lon="14.95368304486568"><ele>541.0</ele><time>2026-04-24T16:35:13.999Z</time></trkpt><trkpt lat="37.04213289001837" lon="14.953395449662963"><ele>542.5</ele><time>2026-04-24T16:35:14.999Z</time></trkpt><trkpt lat="37.042239083156495" lon="14.95311152811707"><ele>544.0</ele><time>2026-04-24T16:35:15.999Z</time></trkpt><trkpt lat="37.04234609199805" lon="14.952822140997831"><ele>543.5</ele><time>2026-04-24T16:35:16.999Z</time></trkpt><trkpt lat="37.04244716477684" lon="14.952535463329896"><ele>543.0</ele><time>2026-04-24T16:35:17.999Z</time></trkpt><trkpt lat="37.042542177581744" lon="14.952243080915165"><ele>544.5</ele><time>2026-04-24T16:35:18.999Z</time></trkpt><trkpt lat="37.042636885836195" lon="14.95195176398566"><ele>546.0</ele><time>2026-04-24T16:35:19.999Z</time></trkpt><trkpt lat="37.04273102953557" lon="14.951658782546968"><ele>546.5</ele><time>2026-04-24T16:35:20.999Z</time></trkpt><trkpt lat="37.04282300919109" lon="14.951365108327481"><ele>547.0</ele><time>2026-04-24T16:35:21.998Z</time></trkpt><trkpt lat="37.04291670003998" lon="14.951073072107448"><ele>547.0</ele><time>2026-04-24T16:35:22.998Z</time></trkpt><trkpt lat="37.04301067314602" lon="14.950784931675472"><ele>547.0</ele><time>2026-04-24T16:35:24Z</time></trkpt><trkpt lat="37.04310113032363" lon="14.950502871906668"><ele>547.0</ele><time>2026-04-24T16:35:25Z</time></trkpt><trkpt lat="37.04319462272313" lon="14.950216879068527"><ele>547.0</ele><time>2026-04-24T16:35:26Z</time></trkpt><trkpt lat="37.043285263676225" lon="14.949931938468833"><ele>548.0</ele><time>2026-04-24T16:35:27Z</time></trkpt><trkpt lat="37.04338397571861" lon="14.949635411235993"><ele>549.0</ele><time>2026-04-24T16:35:28Z</time></trkpt><trkpt lat="37.04347645549786" lon="14.94934452636557"><ele>549.5</ele><time>2026-04-24T16:35:29Z</time></trkpt><trkpt lat="37.04356093720506" lon="14.949056342882248"><ele>550.0</ele><time>2026-04-24T16:35:30Z</time></trkpt><trkpt lat="37.04364992310659" lon="14.948765548128382"><ele>550.0</ele><time>2026-04-24T16:35:31Z</time></trkpt><trkpt lat="37.04374433561844" lon="14.948472190254892"><ele>550.0</ele><time>2026-04-24T16:35:32Z</time></trkpt><trkpt lat="37.04382936379099" lon="14.948182640947481"><ele>550.5</ele><time>2026-04-24T16:35:33Z</time></trkpt><trkpt lat="37.04391837554134" lon="14.94789050714924"><ele>551.0</ele><time>2026-04-24T16:35:34Z</time></trkpt><trkpt lat="37.04401196891761" lon="14.947617235453368"><ele>551.5</ele><time>2026-04-24T16:35:35Z</time></trkpt><trkpt lat="37.044115321044615" lon="14.947350801527495"><ele>552.0</ele><time>2026-04-24T16:35:36Z</time></trkpt><trkpt lat="37.04422089120882" lon="14.947085443114423"><ele>552.5</ele><time>2026-04-24T16:35:37Z</time></trkpt><trkpt lat="37.044335809401886" lon="14.94682330177002"><ele>553.0</ele><time>2026-04-24T16:35:38Z</time></trkpt><trkpt lat="37.04445935685904" lon="14.946575635590746"><ele>553.5</ele><time>2026-04-24T16:35:39Z</time></trkpt><trkpt lat="37.044589267422644" lon="14.946322669998503"><ele>554.0</ele><time>2026-04-24T16:35:40Z</time></trkpt><trkpt lat="37.044728024568855" lon="14.94607946195826"><ele>554.5</ele><time>2026-04-24T16:35:41Z</time></trkpt><trkpt lat="37.044873542979246" lon="14.945839131399861"><ele>555.0</ele><time>2026-04-24T16:35:42Z</time></trkpt><trkpt lat="37.04502464120675" lon="14.94560324981115"><ele>555.0</ele><time>2026-04-24T16:35:43Z</time></trkpt><trkpt lat="37.04518510830216" lon="14.945363610628469"><ele>555.0</ele><time>2026-04-24T16:35:44Z</time></trkpt><trkpt lat="37.04534638377971" lon="14.945130401427807"><ele>555.0</ele><time>2026-04-24T16:35:45Z</time></trkpt><trkpt lat="37.04550522314381" lon="14.944897304975818"><ele>555.0</ele><time>2026-04-24T16:35:46Z</time></trkpt><trkpt lat="37.045667315340154" lon="14.94466010899835"><ele>556.0</ele><time>2026-04-24T16:35:47Z</time></trkpt><trkpt lat="37.045830329442396" lon="14.94441444897588"><ele>557.0</ele><time>2026-04-24T16:35:48Z</time></trkpt><trkpt lat="37.04599308885918" lon="14.94417040497444"><ele>557.5</ele><time>2026-04-24T16:35:49Z</time></trkpt><trkpt lat="37.0461550376577" lon="14.943929125812534"><ele>558.0</ele><time>2026-04-24T16:35:50Z</time></trkpt><trkpt lat="37.046315362155966" lon="14.943685529038616"><ele>558.0</ele><time>2026-04-24T16:35:51Z</time></trkpt><trkpt lat="37.04647926224257" lon="14.943436332393855"><ele>558.0</ele><time>2026-04-24T16:35:52Z</time></trkpt><trkpt lat="37.046642180066385" lon="14.943197121981333"><ele>559.0</ele><time>2026-04-24T16:35:53Z</time></trkpt><trkpt lat="37.046805882320996" lon="14.942954559621032"><ele>560.0</ele><time>2026-04-24T16:35:54Z</time></trkpt><trkpt lat="37.046965682401854" lon="14.942708982327034"><ele>559.5</ele><time>2026-04-24T16:35:55Z</time></trkpt><trkpt lat="37.04712221573672" lon="14.942465255582453"><ele>559.0</ele><time>2026-04-24T16:35:56Z</time></trkpt><trkpt lat="37.04727234605541" lon="14.942222317376205"><ele>559.0</ele><time>2026-04-24T16:35:57Z</time></trkpt><trkpt lat="37.04741739786461" lon="14.941974149608738"><ele>559.0</ele><time>2026-04-24T16:35:58Z</time></trkpt><trkpt lat="37.047546355015484" lon="14.941709787338558"><ele>563.5</ele><time>2026-04-24T16:35:59Z</time></trkpt><trkpt lat="37.047680021676975" lon="14.941448153966038"><ele>568.0</ele><time>2026-04-24T16:36:00Z</time></trkpt><trkpt lat="37.04779246739326" lon="14.941171572130932"><ele>568.0</ele><time>2026-04-24T16:36:01Z</time></trkpt><trkpt lat="37.04790637094591" lon="14.940897933813364"><ele>568.0</ele><time>2026-04-24T16:36:02Z</time></trkpt><trkpt lat="37.048019777427946" lon="14.940621893199108"><ele>568.0</ele><time>2026-04-24T16:36:03Z</time></trkpt><trkpt lat="37.04812475065222" lon="14.940350915631644"><ele>568.0</ele><time>2026-04-24T16:36:04Z</time></trkpt><trkpt lat="37.04817864198809" lon="14.940117372600897"><ele>568.0</ele><time>2026-04-24T16:36:05Z</time></trkpt><trkpt lat="37.048294307939905" lon="14.9398780090434"><ele>569.75</ele><time>2026-04-24T16:36:06Z</time></trkpt><trkpt lat="37.04836786362279" lon="14.939686896247421"><ele>571.5</ele><time>2026-04-24T16:36:07Z</time></trkpt><trkpt lat="37.0484472106821" lon="14.93955390481947"><ele>573.25</ele><time>2026-04-24T16:36:08Z</time></trkpt><trkpt lat="37.048541264066" lon="14.939484797667285"><ele>575.0</ele><time>2026-04-24T16:36:09Z</time></trkpt><trkpt lat="37.0486514614254" lon="14.939446168420647"><ele>575.0</ele><time>2026-04-24T16:36:10Z</time></trkpt><trkpt lat="37.0487833938124" lon="14.939401236178583"><ele>575.0</ele><time>2026-04-24T16:36:11Z</time></trkpt><trkpt lat="37.04893641420421" lon="14.939317145113023"><ele>575.0</ele><time>2026-04-24T16:36:12Z</time></trkpt><trkpt lat="37.04909316669924" lon="14.939209440153745"><ele>576.0</ele><time>2026-04-24T16:36:12.999Z</time></trkpt><trkpt lat="37.04924942635311" lon="14.939110012391636"><ele>577.0</ele><time>2026-04-24T16:36:13.999Z</time></trkpt><trkpt lat="37.04941517810836" lon="14.939027678575822"><ele>578.0</ele><time>2026-04-24T16:36:14.999Z</time></trkpt><trkpt lat="37.049603302336685" lon="14.938950755407364"><ele>578.0</ele><time>2026-04-24T16:36:15.999Z</time></trkpt><trkpt lat="37.04979970552007" lon="14.93886713291309"><ele>578.0</ele><time>2026-04-24T16:36:16.999Z</time></trkpt><trkpt lat="37.05000459713093" lon="14.938774616080956"><ele>578.0</ele><time>2026-04-24T16:36:17.999Z</time></trkpt><trkpt lat="37.05022353022264" lon="14.938673424662497"><ele>580.5</ele><time>2026-04-24T16:36:18.999Z</time></trkpt><trkpt lat="37.050466861665136" lon="14.938567747140763"><ele>583.0</ele><time>2026-04-24T16:36:19.999Z</time></trkpt><trkpt lat="37.050735047055156" lon="14.938442820726408"><ele>584.0</ele><time>2026-04-24T16:36:20.999Z</time></trkpt><trkpt lat="37.05096690042152" lon="14.93833407859724"><ele>585.0</ele><time>2026-04-24T16:36:21.999Z</time></trkpt><trkpt lat="37.05117219374299" lon="14.938251855655125"><ele>585.0</ele><time>2026-04-24T16:36:22.999Z</time></trkpt><trkpt lat="37.05134103612492" lon="14.938169346361933"><ele>585.0</ele><time>2026-04-24T16:36:23.999Z</time></trkpt><trkpt lat="37.05149886161583" lon="14.938086320196145"><ele>585.0</ele><time>2026-04-24T16:36:24.999Z</time></trkpt><trkpt lat="37.05162479570635" lon="14.937977959745284"><ele>585.6666666666666</ele><time>2026-04-24T16:36:25.999Z</time></trkpt><trkpt lat="37.051730722943766" lon="14.937838017479997"><ele>586.3333333333333</ele><time>2026-04-24T16:36:26.999Z</time></trkpt><trkpt lat="37.05181032799317" lon="14.937667655858483"><ele>587.0</ele><time>2026-04-24T16:36:27.999Z</time></trkpt><trkpt lat="37.05181799129827" lon="14.937452547395456"><ele>587.25</ele><time>2026-04-24T16:36:28.999Z</time></trkpt><trkpt lat="37.05185607172462" lon="14.937277699954244"><ele>587.5</ele><time>2026-04-24T16:36:29.999Z</time></trkpt><trkpt lat="37.05188695228589" lon="14.93717292672312"><ele>587.75</ele><time>2026-04-24T16:36:30.999Z</time></trkpt><trkpt lat="37.05196667040384" lon="14.93714708610638"><ele>588.0</ele><time>2026-04-24T16:36:32.999Z</time></trkpt><trkpt lat="37.052038618397695" lon="14.937287979646245"><ele>588.0</ele><time>2026-04-24T16:36:34.999Z</time></trkpt><trkpt lat="37.052065560170504" lon="14.937443078052743"><ele>588.0</ele><time>2026-04-24T16:36:35.999Z</time></trkpt><trkpt lat="37.05209592734293" lon="14.937668712763365"><ele>588.0</ele><time>2026-04-24T16:36:36.999Z</time></trkpt><trkpt lat="37.0521580887812" lon="14.937931928999625"><ele>587.6666666666666</ele><time>2026-04-24T16:36:37.999Z</time></trkpt><trkpt lat="37.05221991453825" lon="14.938157402239186"><ele>587.3333333333333</ele><time>2026-04-24T16:36:38.999Z</time></trkpt><trkpt lat="37.052254475719465" lon="14.938362779034067"><ele>587.0</ele><time>2026-04-24T16:36:39.999Z</time></trkpt><trkpt lat="37.052287871020425" lon="14.938530903734497"><ele>587.0</ele><time>2026-04-24T16:36:40.999Z</time></trkpt><trkpt lat="37.052335841012365" lon="14.938694251151563"><ele>587.0</ele><time>2026-04-24T16:36:41.999Z</time></trkpt><trkpt lat="37.05242146786797" lon="14.938847633449958"><ele>587.0</ele><time>2026-04-24T16:36:42.999Z</time></trkpt><trkpt lat="37.05251840272209" lon="14.939013470385802"><ele>587.0</ele><time>2026-04-24T16:36:43.999Z</time></trkpt><trkpt lat="37.052601045892814" lon="14.939197290307611"><ele>587.0</ele><time>2026-04-24T16:36:44.999Z</time></trkpt><trkpt lat="37.052672737086475" lon="14.939379736407005"><ele>587.0</ele><time>2026-04-24T16:36:45.999Z</time></trkpt><trkpt lat="37.0527460832325" lon="14.939572106755032"><ele>587.0</ele><time>2026-04-24T16:36:46.999Z</time></trkpt><trkpt lat="37.052819470609826" lon="14.93975319608958"><ele>587.0</ele><time>2026-04-24T16:36:47.999Z</time></trkpt><trkpt lat="37.052890866079814" lon="14.93993987326704"><ele>587.0</ele><time>2026-04-24T16:36:48.999Z</time></trkpt><trkpt lat="37.05294956575256" lon="14.940133415332063"><ele>587.0</ele><time>2026-04-24T16:36:49.999Z</time></trkpt><trkpt lat="37.05301567589042" lon="14.940309234998168"><ele>587.0</ele><time>2026-04-24T16:36:50.999Z</time></trkpt><trkpt lat="37.05309130500469" lon="14.940487439288713"><ele>587.0</ele><time>2026-04-24T16:36:51.999Z</time></trkpt><trkpt lat="37.053142910905635" lon="14.940649184147706"><ele>587.0</ele><time>2026-04-24T16:36:52.999Z</time></trkpt><trkpt lat="37.05318871950295" lon="14.940827716957408"><ele>587.0</ele><time>2026-04-24T16:36:53.999Z</time></trkpt><trkpt lat="37.053239376827015" lon="14.941022161824502"><ele>587.0</ele><time>2026-04-24T16:36:54.999Z</time></trkpt><trkpt lat="37.053281987587624" lon="14.941213373538634"><ele>585.6666666666666</ele><time>2026-04-24T16:36:55.999Z</time></trkpt><trkpt lat="37.05331822207973" lon="14.941411094070146"><ele>584.3333333333334</ele><time>2026-04-24T16:36:56.999Z</time></trkpt><trkpt lat="37.053339108520596" lon="14.941629551973083"><ele>583.0</ele><time>2026-04-24T16:36:57.999Z</time></trkpt><trkpt lat="37.05335164053612" lon="14.941856098597965"><ele>582.3333333333334</ele><time>2026-04-24T16:36:58.999Z</time></trkpt><trkpt lat="37.053369450597536" lon="14.942093442502625"><ele>581.6666666666666</ele><time>2026-04-24T16:36:59.999Z</time></trkpt><trkpt lat="37.05338326267011" lon="14.942330218970138"><ele>581.0</ele><time>2026-04-24T16:37:00.999Z</time></trkpt><trkpt lat="37.05338667633631" lon="14.942572873664792"><ele>580.0</ele><time>2026-04-24T16:37:01.999Z</time></trkpt><trkpt lat="37.053397798869774" lon="14.94282222283641"><ele>579.0</ele><time>2026-04-24T16:37:02.999Z</time></trkpt><trkpt lat="37.05340500668751" lon="14.943078409150718"><ele>578.0</ele><time>2026-04-24T16:37:03.999Z</time></trkpt><trkpt lat="37.05341646398236" lon="14.943335161235028"><ele>577.6666666666666</ele><time>2026-04-24T16:37:04.999Z</time></trkpt><trkpt lat="37.053431480265054" lon="14.943588766046373"><ele>577.3333333333334</ele><time>2026-04-24T16:37:05.999Z</time></trkpt><trkpt lat="37.05343590669111" lon="14.943834674448379"><ele>577.0</ele><time>2026-04-24T16:37:06.999Z</time></trkpt><trkpt lat="37.05344119831662" lon="14.944100678427377"><ele>577.3333333333334</ele><time>2026-04-24T16:37:07.999Z</time></trkpt><trkpt lat="37.0534498683443" lon="14.944363316125255"><ele>577.6666666666666</ele><time>2026-04-24T16:37:08.999Z</time></trkpt><trkpt lat="37.05346433344942" lon="14.944622026487451"><ele>578.0</ele><time>2026-04-24T16:37:09.999Z</time></trkpt><trkpt lat="37.053474001490336" lon="14.944886072976104"><ele>578.3333333333333</ele><time>2026-04-24T16:37:10.999Z</time></trkpt><trkpt lat="37.0534798120715" lon="14.945152346028642"><ele>578.6666666666666</ele><time>2026-04-24T16:37:11.999Z</time></trkpt><trkpt lat="37.05347944708424" lon="14.945420131604985"><ele>579.0</ele><time>2026-04-24T16:37:12.999Z</time></trkpt><trkpt lat="37.053470137408944" lon="14.945690828269836"><ele>578.6666666666666</ele><time>2026-04-24T16:37:13.999Z</time></trkpt><trkpt lat="37.053466099326435" lon="14.945955694247266"><ele>578.3333333333333</ele><time>2026-04-24T16:37:14.999Z</time></trkpt><trkpt lat="37.0534674897101" lon="14.946171140045339"><ele>578.0</ele><time>2026-04-24T16:37:15.999Z</time></trkpt><trkpt lat="37.05343130052697" lon="14.946417526420309"><ele>578.0</ele><time>2026-04-24T16:37:16.999Z</time></trkpt><trkpt lat="37.053405852743516" lon="14.946659362160956"><ele>578.0</ele><time>2026-04-24T16:37:17.999Z</time></trkpt><trkpt lat="37.05339498225306" lon="14.946897574863135"><ele>578.0</ele><time>2026-04-24T16:37:18.999Z</time></trkpt><trkpt lat="37.05338512694081" lon="14.947132871533066"><ele>578.3333333333333</ele><time>2026-04-24T16:37:19.999Z</time></trkpt><trkpt lat="37.05338796183632" lon="14.947349808751543"><ele>578.6666666666666</ele><time>2026-04-24T16:37:20.999Z</time></trkpt><trkpt lat="37.05341414443087" lon="14.947568551929502"><ele>579.0</ele><time>2026-04-24T16:37:21.998Z</time></trkpt><trkpt lat="37.05345156079463" lon="14.947773378108762"><ele>578.0</ele><time>2026-04-24T16:37:22.998Z</time></trkpt><trkpt lat="37.05350989147562" lon="14.94799147345246"><ele>577.0</ele><time>2026-04-24T16:37:23.998Z</time></trkpt><trkpt lat="37.05356210073068" lon="14.948218441092564"><ele>576.0</ele><time>2026-04-24T16:37:24.998Z</time></trkpt><trkpt lat="37.05361924725697" lon="14.948451127076654"><ele>576.0</ele><time>2026-04-24T16:37:25.998Z</time></trkpt><trkpt lat="37.05368375094333" lon="14.948673867892685"><ele>576.0</ele><time>2026-04-24T16:37:26.998Z</time></trkpt><trkpt lat="37.05375314593989" lon="14.948868197675978"><ele>576.0</ele><time>2026-04-24T16:37:27.998Z</time></trkpt><trkpt lat="37.053803721958516" lon="14.94902310801031"><ele>576.0</ele><time>2026-04-24T16:37:28.998Z</time></trkpt><trkpt lat="37.053834073336375" lon="14.949188169895775"><ele>576.0</ele><time>2026-04-24T16:37:30Z</time></trkpt><trkpt lat="37.05383687826633" lon="14.949383549988944"><ele>576.0</ele><time>2026-04-24T16:37:31Z</time></trkpt><trkpt lat="37.05377514487074" lon="14.949591730399552"><ele>576.6666666666666</ele><time>2026-04-24T16:37:32Z</time></trkpt><trkpt lat="37.05374175153352" lon="14.949803560923947"><ele>577.3333333333333</ele><time>2026-04-24T16:37:33Z</time></trkpt><trkpt lat="37.053681400349426" lon="14.950013104184405"><ele>578.0</ele><time>2026-04-24T16:37:34Z</time></trkpt><trkpt lat="37.05361153410581" lon="14.950232857515118"><ele>578.6666666666666</ele><time>2026-04-24T16:37:35Z</time></trkpt><trkpt lat="37.053531542289114" lon="14.950473900717116"><ele>579.3333333333334</ele><time>2026-04-24T16:37:36Z</time></trkpt><trkpt lat="37.05344552235172" lon="14.950727843600955"><ele>580.0</ele><time>2026-04-24T16:37:37Z</time></trkpt><trkpt lat="37.05339653264643" lon="14.95090919622345"><ele>580.3333333333334</ele><time>2026-04-24T16:37:38Z</time></trkpt><trkpt lat="37.05334388847453" lon="14.95109339359438"><ele>580.6666666666666</ele><time>2026-04-24T16:37:39Z</time></trkpt><trkpt lat="37.05329032077767" lon="14.951283563733005"><ele>581.0</ele><time>2026-04-24T16:37:40Z</time></trkpt><trkpt lat="37.05325930478794" lon="14.95150469316118"><ele>580.6666666666666</ele><time>2026-04-24T16:37:41Z</time></trkpt><trkpt lat="37.053248871641316" lon="14.95174506096432"><ele>580.3333333333334</ele><time>2026-04-24T16:37:42Z</time></trkpt><trkpt lat="37.053274962908816" lon="14.951986659978648"><ele>580.0</ele><time>2026-04-24T16:37:43Z</time></trkpt><trkpt lat="37.05326359016125" lon="14.952230509736902"><ele>580.0</ele><time>2026-04-24T16:37:44Z</time></trkpt><trkpt lat="37.053254743624464" lon="14.952483681420082"><ele>580.0</ele><time>2026-04-24T16:37:45Z</time></trkpt><trkpt lat="37.05325851352796" lon="14.952748932281557"><ele>580.0</ele><time>2026-04-24T16:37:46Z</time></trkpt><trkpt lat="37.05326938504436" lon="14.953002922490649"><ele>579.0</ele><time>2026-04-24T16:37:47Z</time></trkpt><trkpt lat="37.05329615238619" lon="14.953243240307328"><ele>578.0</ele><time>2026-04-24T16:37:48Z</time></trkpt><trkpt lat="37.05327489233778" lon="14.953453682327195"><ele>577.0</ele><time>2026-04-24T16:37:49Z</time></trkpt><trkpt lat="37.053257905927" lon="14.953666352413327"><ele>577.0</ele><time>2026-04-24T16:37:50Z</time></trkpt><trkpt lat="37.05323326708929" lon="14.953899782378587"><ele>577.0</ele><time>2026-04-24T16:37:51Z</time></trkpt><trkpt lat="37.05320588414558" lon="14.954131140955027"><ele>577.0</ele><time>2026-04-24T16:37:52Z</time></trkpt><trkpt lat="37.05319331521601" lon="14.954312724099088"><ele>577.3333333333334</ele><time>2026-04-24T16:37:53Z</time></trkpt><trkpt lat="37.05320525641339" lon="14.954552132984436"><ele>577.6666666666666</ele><time>2026-04-24T16:37:54Z</time></trkpt><trkpt lat="37.05323586032329" lon="14.954765411754543"><ele>578.0</ele><time>2026-04-24T16:37:55Z</time></trkpt><trkpt lat="37.05327155975616" lon="14.954987902157807"><ele>578.0</ele><time>2026-04-24T16:37:56Z</time></trkpt><trkpt lat="37.05329704960742" lon="14.955146763228637"><ele>578.0</ele><time>2026-04-24T16:37:57Z</time></trkpt><trkpt lat="37.05330863162883" lon="14.955337236512301"><ele>578.0</ele><time>2026-04-24T16:37:58Z</time></trkpt><trkpt lat="37.05328839573981" lon="14.95550939577278"><ele>578.0</ele><time>2026-04-24T16:37:59Z</time></trkpt><trkpt lat="37.05330230090521" lon="14.955688549892866"><ele>578.25</ele><time>2026-04-24T16:38:00Z</time></trkpt><trkpt lat="37.05331512103224" lon="14.955854770840878"><ele>578.5</ele><time>2026-04-24T16:38:01Z</time></trkpt><trkpt lat="37.053374357244046" lon="14.956020384398192"><ele>578.75</ele><time>2026-04-24T16:38:02Z</time></trkpt><trkpt lat="37.05346118313452" lon="14.956171025922762"><ele>579.0</ele><time>2026-04-24T16:38:03Z</time></trkpt><trkpt lat="37.05357474893365" lon="14.95630618239614"><ele>579.0</ele><time>2026-04-24T16:38:04Z</time></trkpt><trkpt lat="37.053715108788836" lon="14.956402195439892"><ele>579.0</ele><time>2026-04-24T16:38:05Z</time></trkpt><trkpt lat="37.05383499116826" lon="14.956485644014045"><ele>579.0</ele><time>2026-04-24T16:38:06Z</time></trkpt><trkpt lat="37.05399880549239" lon="14.956592551918654"><ele>579.5</ele><time>2026-04-24T16:38:07Z</time></trkpt><trkpt lat="37.054128220581816" lon="14.95670311550939"><ele>580.0</ele><time>2026-04-24T16:38:08Z</time></trkpt><trkpt lat="37.05423449017663" lon="14.956824025415328"><ele>580.5</ele><time>2026-04-24T16:38:09Z</time></trkpt><trkpt lat="37.0543096242239" lon="14.956955894254456"><ele>581.0</ele><time>2026-04-24T16:38:10Z</time></trkpt><trkpt lat="37.05437797082123" lon="14.957123668704707"><ele>581.0</ele><time>2026-04-24T16:38:11Z</time></trkpt><trkpt lat="37.054416472475616" lon="14.957303987409153"><ele>581.0</ele><time>2026-04-24T16:38:12Z</time></trkpt><trkpt lat="37.05445724803108" lon="14.957498966331968"><ele>581.0</ele><time>2026-04-24T16:38:13Z</time></trkpt><trkpt lat="37.05448992610696" lon="14.957707031419837"><ele>581.3333333333333</ele><time>2026-04-24T16:38:14Z</time></trkpt><trkpt lat="37.05451389161738" lon="14.957923241982531"><ele>581.6666666666666</ele><time>2026-04-24T16:38:15Z</time></trkpt><trkpt lat="37.05452143164541" lon="14.958136928340279"><ele>582.0</ele><time>2026-04-24T16:38:16Z</time></trkpt><trkpt lat="37.05452355140001" lon="14.95837727314179"><ele>582.0</ele><time>2026-04-24T16:38:17Z</time></trkpt><trkpt lat="37.05454924847663" lon="14.958613269504887"><ele>582.0</ele><time>2026-04-24T16:38:17.999Z</time></trkpt><trkpt lat="37.05456840604817" lon="14.958862700538049"><ele>582.0</ele><time>2026-04-24T16:38:18.999Z</time></trkpt><trkpt lat="37.054577926478885" lon="14.959117339907996"><ele>582.3333333333334</ele><time>2026-04-24T16:38:19.999Z</time></trkpt><trkpt lat="37.05460644928818" lon="14.959368526670486"><ele>582.6666666666667</ele><time>2026-04-24T16:38:20.999Z</time></trkpt><trkpt lat="37.05463863945996" lon="14.959627201019815"><ele>583.0</ele><time>2026-04-24T16:38:21.999Z</time></trkpt><trkpt lat="37.054678360597435" lon="14.959876923873358"><ele>583.3333333333334</ele><time>2026-04-24T16:38:22.999Z</time></trkpt><trkpt lat="37.05474464970793" lon="14.960118910066676"><ele>583.6666666666666</ele><time>2026-04-24T16:38:23.999Z</time></trkpt><trkpt lat="37.05480874506477" lon="14.960349348459514"><ele>584.0</ele><time>2026-04-24T16:38:24.999Z</time></trkpt><trkpt lat="37.05487738614491" lon="14.960559063163323"><ele>584.0</ele><time>2026-04-24T16:38:25.999Z</time></trkpt><trkpt lat="37.054936901786576" lon="14.960762687594393"><ele>584.0</ele><time>2026-04-24T16:38:26.999Z</time></trkpt><trkpt lat="37.054996861152084" lon="14.960950006971943"><ele>584.0</ele><time>2026-04-24T16:38:27.999Z</time></trkpt><trkpt lat="37.055081937708366" lon="14.96115920804255"><ele>582.6666666666666</ele><time>2026-04-24T16:38:28.999Z</time></trkpt><trkpt lat="37.05517830440132" lon="14.961382132629096"><ele>581.3333333333334</ele><time>2026-04-24T16:38:29.999Z</time></trkpt><trkpt lat="37.05528567248592" lon="14.961593287092844"><ele>580.0</ele><time>2026-04-24T16:38:30.999Z</time></trkpt><trkpt lat="37.055377152253776" lon="14.961807716325508"><ele>579.6666666666667</ele><time>2026-04-24T16:38:31.999Z</time></trkpt><trkpt lat="37.05546607410682" lon="14.962025904291451"><ele>579.3333333333334</ele><time>2026-04-24T16:38:32.999Z</time></trkpt><trkpt lat="37.05555439000589" lon="14.962222436818498"><ele>579.0</ele><time>2026-04-24T16:38:33.999Z</time></trkpt><trkpt lat="37.05564343813822" lon="14.962453905617181"><ele>578.3333333333334</ele><time>2026-04-24T16:38:34.999Z</time></trkpt><trkpt lat="37.05575474492513" lon="14.962646246068552"><ele>577.6666666666667</ele><time>2026-04-24T16:38:35.999Z</time></trkpt><trkpt lat="37.0558697141867" lon="14.962829181566036"><ele>577.0</ele><time>2026-04-24T16:38:36.999Z</time></trkpt><trkpt lat="37.05599808562499" lon="14.962926310130188"><ele>576.3333333333334</ele><time>2026-04-24T16:38:37.999Z</time></trkpt><trkpt lat="37.05612692761436" lon="14.963032895037523"><ele>575.6666666666666</ele><time>2026-04-24T16:38:38.999Z</time></trkpt><trkpt lat="37.056208357423785" lon="14.963203295886597"><ele>575.0</ele><time>2026-04-24T16:38:39.999Z</time></trkpt><trkpt lat="37.05629872204422" lon="14.963383483768085"><ele>575.0</ele><time>2026-04-24T16:38:40.999Z</time></trkpt><trkpt lat="37.05638366300609" lon="14.963566971291923"><ele>575.0</ele><time>2026-04-24T16:38:41.999Z</time></trkpt><trkpt lat="37.056473140050656" lon="14.963766375895629"><ele>575.0</ele><time>2026-04-24T16:38:42.999Z</time></trkpt><trkpt lat="37.05655710302202" lon="14.963967274156447"><ele>574.6666666666666</ele><time>2026-04-24T16:38:43.999Z</time></trkpt><trkpt lat="37.056643190543" lon="14.964180994806517"><ele>574.3333333333334</ele><time>2026-04-24T16:38:44.999Z</time></trkpt><trkpt lat="37.05674032459932" lon="14.96439251868626"><ele>574.0</ele><time>2026-04-24T16:38:45.999Z</time></trkpt><trkpt lat="37.056841481809215" lon="14.964597699120272"><ele>574.0</ele><time>2026-04-24T16:38:46.999Z</time></trkpt><trkpt lat="37.0569589966876" lon="14.964795523166801"><ele>574.0</ele><time>2026-04-24T16:38:47.999Z</time></trkpt><trkpt lat="37.057064316255875" lon="14.964994071307212"><ele>574.0</ele><time>2026-04-24T16:38:48.999Z</time></trkpt><trkpt lat="37.057173899193224" lon="14.965207665769327"><ele>573.6666666666667</ele><time>2026-04-24T16:38:49.999Z</time></trkpt><trkpt lat="37.0572875556709" lon="14.965414997671635"><ele>573.3333333333334</ele><time>2026-04-24T16:38:50.999Z</time></trkpt><trkpt lat="37.057396971549004" lon="14.965616930695123"><ele>573.0</ele><time>2026-04-24T16:38:51.999Z</time></trkpt><trkpt lat="37.057511333972" lon="14.96582517124138"><ele>572.0</ele><time>2026-04-24T16:38:52.999Z</time></trkpt><trkpt lat="37.05763705597385" lon="14.966025070860912"><ele>571.0</ele><time>2026-04-24T16:38:53.999Z</time></trkpt><trkpt lat="37.057764907852686" lon="14.96622038255351"><ele>570.0</ele><time>2026-04-24T16:38:54.999Z</time></trkpt><trkpt lat="37.05788138726677" lon="14.96643209445211"><ele>570.0</ele><time>2026-04-24T16:38:55.999Z</time></trkpt><trkpt lat="37.05801797893581" lon="14.966591477209334"><ele>570.0</ele><time>2026-04-24T16:38:56.999Z</time></trkpt><trkpt lat="37.05814137733697" lon="14.966739976546938"><ele>570.0</ele><time>2026-04-24T16:38:57.999Z</time></trkpt><trkpt lat="37.05828295743636" lon="14.96684520227927"><ele>569.75</ele><time>2026-04-24T16:38:58.999Z</time></trkpt><trkpt lat="37.05840651723907" lon="14.966960363546324"><ele>569.5</ele><time>2026-04-24T16:38:59.999Z</time></trkpt><trkpt lat="37.05849327458702" lon="14.967085016292646"><ele>569.25</ele><time>2026-04-24T16:39:00.999Z</time></trkpt><trkpt lat="37.05856206049512" lon="14.967236066857266"><ele>569.0</ele><time>2026-04-24T16:39:01.999Z</time></trkpt><trkpt lat="37.058618090468435" lon="14.967418133464383"><ele>567.6666666666666</ele><time>2026-04-24T16:39:02.999Z</time></trkpt><trkpt lat="37.058665122754924" lon="14.96762071094479"><ele>566.3333333333334</ele><time>2026-04-24T16:39:03.999Z</time></trkpt><trkpt lat="37.05870885585497" lon="14.967828419235433"><ele>565.0</ele><time>2026-04-24T16:39:04.999Z</time></trkpt><trkpt lat="37.05875110094229" lon="14.968049985337904"><ele>565.0</ele><time>2026-04-24T16:39:05.999Z</time></trkpt><trkpt lat="37.05879554398132" lon="14.968252859745833"><ele>565.0</ele><time>2026-04-24T16:39:06.999Z</time></trkpt><trkpt lat="37.058862835887346" lon="14.96845784069113"><ele>565.0</ele><time>2026-04-24T16:39:07.999Z</time></trkpt><trkpt lat="37.058953481337305" lon="14.968624495039881"><ele>565.6666666666667</ele><time>2026-04-24T16:39:08.999Z</time></trkpt><trkpt lat="37.059055732912256" lon="14.9687999742495"><ele>566.3333333333334</ele><time>2026-04-24T16:39:09.999Z</time></trkpt><trkpt lat="37.0591531045199" lon="14.968988988513535"><ele>567.0</ele><time>2026-04-24T16:39:10.999Z</time></trkpt><trkpt lat="37.05924902901512" lon="14.969164040498027"><ele>568.0</ele><time>2026-04-24T16:39:11.999Z</time></trkpt><trkpt lat="37.05934186794079" lon="14.969343742686966"><ele>569.0</ele><time>2026-04-24T16:39:12.999Z</time></trkpt><trkpt lat="37.05942152494554" lon="14.969527358813782"><ele>570.0</ele><time>2026-04-24T16:39:13.999Z</time></trkpt><trkpt lat="37.059488665607304" lon="14.969719961883012"><ele>570.0</ele><time>2026-04-24T16:39:14.999Z</time></trkpt><trkpt lat="37.059556119397016" lon="14.96992838719555"><ele>570.0</ele><time>2026-04-24T16:39:15.999Z</time></trkpt><trkpt lat="37.05962022672297" lon="14.970134415972925"><ele>570.0</ele><time>2026-04-24T16:39:16.999Z</time></trkpt><trkpt lat="37.059685724820994" lon="14.970351269892463"><ele>570.0</ele><time>2026-04-24T16:39:17.999Z</time></trkpt><trkpt lat="37.05974254021392" lon="14.970541456214095"><ele>570.0</ele><time>2026-04-24T16:39:18.999Z</time></trkpt><trkpt lat="37.05979277600151" lon="14.970709617681727"><ele>570.0</ele><time>2026-04-24T16:39:19.999Z</time></trkpt><trkpt lat="37.05984113517705" lon="14.97087149739486"><ele>570.0</ele><time>2026-04-24T16:39:20.999Z</time></trkpt><trkpt lat="37.05989833402116" lon="14.971041263954167"><ele>570.3333333333334</ele><time>2026-04-24T16:39:21.999Z</time></trkpt><trkpt lat="37.05997432061349" lon="14.971214465241667"><ele>570.6666666666667</ele><time>2026-04-24T16:39:22.999Z</time></trkpt><trkpt lat="37.060057779235116" lon="14.971381864227487"><ele>571.0</ele><time>2026-04-24T16:39:23.999Z</time></trkpt><trkpt lat="37.06013949226675" lon="14.971550880119299"><ele>571.75</ele><time>2026-04-24T16:39:24.999Z</time></trkpt><trkpt lat="37.06020926036026" lon="14.971696644848581"><ele>572.5</ele><time>2026-04-24T16:39:25.999Z</time></trkpt><trkpt lat="37.06028752408886" lon="14.971859041658208"><ele>573.25</ele><time>2026-04-24T16:39:26.999Z</time></trkpt><trkpt lat="37.06036205854386" lon="14.97200866566532"><ele>574.0</ele><time>2026-04-24T16:39:27.999Z</time></trkpt><trkpt lat="37.06044594572012" lon="14.972178474407785"><ele>574.0</ele><time>2026-04-24T16:39:28.998Z</time></trkpt><trkpt lat="37.060520452671156" lon="14.972337808459345"><ele>574.0</ele><time>2026-04-24T16:39:29.998Z</time></trkpt><trkpt lat="37.06058989989909" lon="14.972498030201256"><ele>574.0</ele><time>2026-04-24T16:39:30.998Z</time></trkpt><trkpt lat="37.0606500223608" lon="14.972637133545946"><ele>574.0</ele><time>2026-04-24T16:39:31.998Z</time></trkpt><trkpt lat="37.06071657646717" lon="14.972775923007706"><ele>572.5</ele><time>2026-04-24T16:39:32.998Z</time></trkpt><trkpt lat="37.0607865760986" lon="14.97290374672599"><ele>571.0</ele><time>2026-04-24T16:39:33.998Z</time></trkpt><trkpt lat="37.06087370476137" lon="14.973006842955229"><ele>569.5</ele><time>2026-04-24T16:39:34.998Z</time></trkpt><trkpt lat="37.06097253219703" lon="14.973096967375996"><ele>568.0</ele><time>2026-04-24T16:39:36Z</time></trkpt><trkpt lat="37.061051664190614" lon="14.973238894400858"><ele>568.0</ele><time>2026-04-24T16:39:37Z</time></trkpt><trkpt lat="37.061132725518526" lon="14.973390095914404"><ele>568.0</ele><time>2026-04-24T16:39:38Z</time></trkpt><trkpt lat="37.06122335214352" lon="14.97355371987207"><ele>568.0</ele><time>2026-04-24T16:39:39Z</time></trkpt><trkpt lat="37.06130384064104" lon="14.973699039717587"><ele>568.0</ele><time>2026-04-24T16:39:40Z</time></trkpt><trkpt lat="37.06140291840956" lon="14.973845140574943"><ele>568.0</ele><time>2026-04-24T16:39:41Z</time></trkpt><trkpt lat="37.06148692620707" lon="14.973999628947825"><ele>568.0</ele><time>2026-04-24T16:39:42Z</time></trkpt><trkpt lat="37.06156775631338" lon="14.97417271180584"><ele>568.0</ele><time>2026-04-24T16:39:43Z</time></trkpt><trkpt lat="37.061657429194106" lon="14.974330341919906"><ele>567.0</ele><time>2026-04-24T16:39:44Z</time></trkpt><trkpt lat="37.06173697362229" lon="14.974479163654289"><ele>566.0</ele><time>2026-04-24T16:39:45Z</time></trkpt><trkpt lat="37.061838631896535" lon="14.97462475704093"><ele>565.0</ele><time>2026-04-24T16:39:46Z</time></trkpt><trkpt lat="37.061931880643584" lon="14.974779105723579"><ele>565.0</ele><time>2026-04-24T16:39:47Z</time></trkpt><trkpt lat="37.06203309260064" lon="14.974926265138185"><ele>565.0</ele><time>2026-04-24T16:39:48Z</time></trkpt><trkpt lat="37.062121934235606" lon="14.975055286975051"><ele>565.0</ele><time>2026-04-24T16:39:49Z</time></trkpt><trkpt lat="37.06222316166575" lon="14.975246233650841"><ele>565.3333333333334</ele><time>2026-04-24T16:39:50Z</time></trkpt><trkpt lat="37.06231671128906" lon="14.975406105846403"><ele>565.6666666666666</ele><time>2026-04-24T16:39:51Z</time></trkpt><trkpt lat="37.06241975138787" lon="14.975540365686422"><ele>566.0</ele><time>2026-04-24T16:39:52Z</time></trkpt><trkpt lat="37.06251454335734" lon="14.975699528075006"><ele>564.75</ele><time>2026-04-24T16:39:53Z</time></trkpt><trkpt lat="37.06260329948104" lon="14.97584462172475"><ele>563.5</ele><time>2026-04-24T16:39:54Z</time></trkpt><trkpt lat="37.062670233569406" lon="14.9759909227479"><ele>562.25</ele><time>2026-04-24T16:39:55Z</time></trkpt><trkpt lat="37.06274608666483" lon="14.976116927660307"><ele>561.0</ele><time>2026-04-24T16:39:56Z</time></trkpt><trkpt lat="37.06284491966043" lon="14.97623493377287"><ele>561.0</ele><time>2026-04-24T16:39:57Z</time></trkpt><trkpt lat="37.06292258778637" lon="14.976362812575436"><ele>561.0</ele><time>2026-04-24T16:39:58Z</time></trkpt><trkpt lat="37.06299509842775" lon="14.9764897642486"><ele>561.0</ele><time>2026-04-24T16:39:59Z</time></trkpt><trkpt lat="37.063071832880105" lon="14.97663201221785"><ele>561.0</ele><time>2026-04-24T16:40:00Z</time></trkpt><trkpt lat="37.06314003630197" lon="14.97678478295446"><ele>561.5</ele><time>2026-04-24T16:40:01Z</time></trkpt><trkpt lat="37.06320973931573" lon="14.976949402630307"><ele>562.0</ele><time>2026-04-24T16:40:02Z</time></trkpt><trkpt lat="37.063275906264074" lon="14.977113892610388"><ele>562.5</ele><time>2026-04-24T16:40:03Z</time></trkpt><trkpt lat="37.06332120596901" lon="14.977271285316972"><ele>563.0</ele><time>2026-04-24T16:40:04Z</time></trkpt><trkpt lat="37.063374237841224" lon="14.97741749468661"><ele>561.75</ele><time>2026-04-24T16:40:05Z</time></trkpt><trkpt lat="37.06343121190007" lon="14.977576010126178"><ele>560.5</ele><time>2026-04-24T16:40:06Z</time></trkpt><trkpt lat="37.06348853552713" lon="14.977744220379652"><ele>559.25</ele><time>2026-04-24T16:40:07Z</time></trkpt><trkpt lat="37.063550561592315" lon="14.977906865134486"><ele>558.0</ele><time>2026-04-24T16:40:08Z</time></trkpt><trkpt lat="37.06357605823361" lon="14.97808497631393"><ele>558.0</ele><time>2026-04-24T16:40:09Z</time></trkpt><trkpt lat="37.06363058153734" lon="14.978234890602407"><ele>558.0</ele><time>2026-04-24T16:40:10Z</time></trkpt><trkpt lat="37.063678283771466" lon="14.97837980984608"><ele>558.0</ele><time>2026-04-24T16:40:11Z</time></trkpt><trkpt lat="37.06374550883943" lon="14.978518163948454"><ele>558.0</ele><time>2026-04-24T16:40:12Z</time></trkpt><trkpt lat="37.06382006405961" lon="14.978670104176727"><ele>559.0</ele><time>2026-04-24T16:40:13Z</time></trkpt><trkpt lat="37.06388917699902" lon="14.97882147337627"><ele>560.0</ele><time>2026-04-24T16:40:14Z</time></trkpt><trkpt lat="37.063942401902246" lon="14.978956943484302"><ele>561.0</ele><time>2026-04-24T16:40:15Z</time></trkpt><trkpt lat="37.064002905657446" lon="14.979075857451"><ele>562.0</ele><time>2026-04-24T16:40:16Z</time></trkpt><trkpt lat="37.06402648530345" lon="14.979203281588655"><ele>562.5</ele><time>2026-04-24T16:40:17Z</time></trkpt><trkpt lat="37.0640799432275" lon="14.979329592336603"><ele>563.0</ele><time>2026-04-24T16:40:18Z</time></trkpt><trkpt lat="37.06411898406392" lon="14.979488230935564"><ele>563.5</ele><time>2026-04-24T16:40:19Z</time></trkpt><trkpt lat="37.06416211099414" lon="14.97966255337053"><ele>564.0</ele><time>2026-04-24T16:40:20Z</time></trkpt><trkpt lat="37.06420842024046" lon="14.979851760513554"><ele>561.3333333333334</ele><time>2026-04-24T16:40:21Z</time></trkpt><trkpt lat="37.06426922321384" lon="14.98002681094986"><ele>558.6666666666667</ele><time>2026-04-24T16:40:22Z</time></trkpt><trkpt lat="37.06433615748263" lon="14.980220882060166"><ele>556.0</ele><time>2026-04-24T16:40:23Z</time></trkpt><trkpt lat="37.06439784010939" lon="14.980396349099204"><ele>556.0</ele><time>2026-04-24T16:40:24Z</time></trkpt><trkpt lat="37.06444926509266" lon="14.980560569290272"><ele>556.0</ele><time>2026-04-24T16:40:25Z</time></trkpt><trkpt lat="37.064496340267056" lon="14.980702063843603"><ele>556.0</ele><time>2026-04-24T16:40:26Z</time></trkpt><trkpt lat="37.064542779281915" lon="14.980851322041877"><ele>556.0</ele><time>2026-04-24T16:40:27Z</time></trkpt><trkpt lat="37.064598457530884" lon="14.981003704249765"><ele>556.2</ele><time>2026-04-24T16:40:27.999Z</time></trkpt><trkpt lat="37.06462203335144" lon="14.981147477069829"><ele>556.4000000000001</ele><time>2026-04-24T16:40:28.999Z</time></trkpt><trkpt lat="37.06467150317325" lon="14.981274336546173"><ele>556.6</ele><time>2026-04-24T16:40:29.999Z</time></trkpt><trkpt lat="37.06469271384643" lon="14.98139617783009"><ele>556.8000000000001</ele><time>2026-04-24T16:40:30.999Z</time></trkpt><trkpt lat="37.064744643542156" lon="14.981522663202895"><ele>557.0</ele><time>2026-04-24T16:40:31.999Z</time></trkpt><trkpt lat="37.064795108681196" lon="14.981635048493821"><ele>557.0</ele><time>2026-04-24T16:40:32.999Z</time></trkpt><trkpt lat="37.06486639394593" lon="14.981734042437575"><ele>557.0</ele><time>2026-04-24T16:40:33.999Z</time></trkpt><trkpt lat="37.064956783544865" lon="14.981824319623252"><ele>557.0</ele><time>2026-04-24T16:40:34.999Z</time></trkpt><trkpt lat="37.06505307282831" lon="14.981941288378367"><ele>557.0</ele><time>2026-04-24T16:40:35.999Z</time></trkpt><trkpt lat="37.065143727835334" lon="14.982053258365415"><ele>557.0</ele><time>2026-04-24T16:40:36.999Z</time></trkpt><trkpt lat="37.065220333429686" lon="14.98214451158225"><ele>557.0</ele><time>2026-04-24T16:40:37.999Z</time></trkpt><trkpt lat="37.065270184234265" lon="14.982212181407338"><ele>557.0</ele><time>2026-04-24T16:40:38.999Z</time></trkpt><trkpt lat="37.06533067251171" lon="14.982306740334513"><ele>557.0</ele><time>2026-04-24T16:40:39.999Z</time></trkpt><trkpt lat="37.06536921306103" lon="14.982380674994582"><ele>557.0</ele><time>2026-04-24T16:40:40.999Z</time></trkpt><trkpt lat="37.06540827751792" lon="14.982465484002056"><ele>557.0</ele><time>2026-04-24T16:40:41.999Z</time></trkpt><trkpt lat="37.06544754075467" lon="14.982563610450072"><ele>557.0</ele><time>2026-04-24T16:40:42.999Z</time></trkpt><trkpt lat="37.065478302359075" lon="14.982654354665346"><ele>557.0</ele><time>2026-04-24T16:40:43.999Z</time></trkpt><trkpt lat="37.0655189950476" lon="14.982796598084715"><ele>557.0</ele><time>2026-04-24T16:40:45.999Z</time></trkpt><trkpt lat="37.065561830745395" lon="14.98295203045933"><ele>557.0</ele><time>2026-04-24T16:40:46.999Z</time></trkpt><trkpt lat="37.065629428655825" lon="14.983103133566912"><ele>557.0</ele><time>2026-04-24T16:40:47.999Z</time></trkpt><trkpt lat="37.06566064883235" lon="14.983237789742672"><ele>557.0</ele><time>2026-04-24T16:40:48.999Z</time></trkpt><trkpt lat="37.06569795334527" lon="14.983357100079608"><ele>557.0</ele><time>2026-04-24T16:40:49.999Z</time></trkpt><trkpt lat="37.06575192329417" lon="14.983447157359047"><ele>557.0</ele><time>2026-04-24T16:40:50.999Z</time></trkpt><trkpt lat="37.065789000428815" lon="14.983559542395923"><ele>557.0</ele><time>2026-04-24T16:40:51.999Z</time></trkpt><trkpt lat="37.065823676762854" lon="14.983647513784494"><ele>556.8000000000001</ele><time>2026-04-24T16:40:52.999Z</time></trkpt><trkpt lat="37.06590424987021" lon="14.983733894036536"><ele>556.6</ele><time>2026-04-24T16:40:53.999Z</time></trkpt><trkpt lat="37.066025200274474" lon="14.983832004004306"><ele>556.4000000000001</ele><time>2026-04-24T16:40:54.999Z</time></trkpt><trkpt lat="37.06610865133113" lon="14.983900950069708"><ele>556.2</ele><time>2026-04-24T16:40:55.999Z</time></trkpt><trkpt lat="37.06618039286085" lon="14.983968524566944"><ele>556.0</ele><time>2026-04-24T16:40:56.999Z</time></trkpt><trkpt lat="37.06624971285175" lon="14.984026046986658"><ele>556.0</ele><time>2026-04-24T16:40:57.999Z</time></trkpt><trkpt lat="37.066331393347895" lon="14.984092868188776"><ele>556.0</ele><time>2026-04-24T16:40:58.999Z</time></trkpt><trkpt lat="37.06642493849505" lon="14.984166032848215"><ele>556.0</ele><time>2026-04-24T16:40:59.999Z</time></trkpt><trkpt lat="37.066529502603295" lon="14.984237933082827"><ele>556.0</ele><time>2026-04-24T16:41:00.999Z</time></trkpt><trkpt lat="37.06657400916781" lon="14.984307487505827"><ele>556.0</ele><time>2026-04-24T16:41:02.999Z</time></trkpt><trkpt lat="37.06662021039678" lon="14.984366395965402"><ele>556.8333333333334</ele><time>2026-04-24T16:41:03.999Z</time></trkpt><trkpt lat="37.0666573404567" lon="14.984460991380535"><ele>557.6666666666667</ele><time>2026-04-24T16:41:04.999Z</time></trkpt><trkpt lat="37.06672519880006" lon="14.984554774451416"><ele>558.5</ele><time>2026-04-24T16:41:05.999Z</time></trkpt><trkpt lat="37.0667715060113" lon="14.984626576690612"><ele>559.3333333333334</ele><time>2026-04-24T16:41:06.999Z</time></trkpt><trkpt lat="37.06681545366104" lon="14.984698225822429"><ele>560.1666666666666</ele><time>2026-04-24T16:41:07.999Z</time></trkpt><trkpt lat="37.06686911853557" lon="14.984793722207662"><ele>561.0</ele><time>2026-04-24T16:41:08.999Z</time></trkpt><trkpt lat="37.06692622424601" lon="14.984899927258093"><ele>561.0</ele><time>2026-04-24T16:41:09.999Z</time></trkpt><trkpt lat="37.06698526434679" lon="14.985010899294236"><ele>561.0</ele><time>2026-04-24T16:41:10.999Z</time></trkpt><trkpt lat="37.067041079620225" lon="14.985114420101512"><ele>561.0</ele><time>2026-04-24T16:41:11.999Z</time></trkpt><trkpt lat="37.067098905460625" lon="14.985187145692922"><ele>561.0</ele><time>2026-04-24T16:41:12.999Z</time></trkpt><trkpt lat="37.067157552554335" lon="14.985295519461452"><ele>561.0</ele><time>2026-04-24T16:41:13.999Z</time></trkpt><trkpt lat="37.06722022477454" lon="14.985421862011252"><ele>561.0</ele><time>2026-04-24T16:41:14.999Z</time></trkpt><trkpt lat="37.06729053665985" lon="14.985516008131182"><ele>561.0</ele><time>2026-04-24T16:41:15.999Z</time></trkpt><trkpt lat="37.06737925748781" lon="14.98560000519337"><ele>561.0</ele><time>2026-04-24T16:41:16.999Z</time></trkpt><trkpt lat="37.06746009174652" lon="14.985700907987159"><ele>561.0</ele><time>2026-04-24T16:41:17.999Z</time></trkpt><trkpt lat="37.0675388604873" lon="14.985755992619211"><ele>561.0</ele><time>2026-04-24T16:41:18.999Z</time></trkpt><trkpt lat="37.067642216874006" lon="14.985844484645526"><ele>562.0</ele><time>2026-04-24T16:41:19.999Z</time></trkpt><trkpt lat="37.06771870180531" lon="14.985941365678062"><ele>563.0</ele><time>2026-04-24T16:41:20.999Z</time></trkpt><trkpt lat="37.06778828813696" lon="14.986013494863407"><ele>564.0</ele><time>2026-04-24T16:41:21.999Z</time></trkpt><trkpt lat="37.067864088898716" lon="14.98609021384223"><ele>565.0</ele><time>2026-04-24T16:41:22.999Z</time></trkpt><trkpt lat="37.06792774583102" lon="14.98615316615261"><ele>566.0</ele><time>2026-04-24T16:41:23.999Z</time></trkpt><trkpt lat="37.068022883345314" lon="14.986247250552472"><ele>566.0</ele><time>2026-04-24T16:41:24.999Z</time></trkpt><trkpt lat="37.06808121178701" lon="14.986304933343757"><ele>566.0</ele><time>2026-04-24T16:41:25.999Z</time></trkpt><trkpt lat="37.06815632272396" lon="14.986379212838035"><ele>566.0</ele><time>2026-04-24T16:41:26.999Z</time></trkpt><trkpt lat="37.068253526548716" lon="14.98645005770007"><ele>566.0</ele><time>2026-04-24T16:41:27.999Z</time></trkpt><trkpt lat="37.0683087054383" lon="14.986532360065052"><ele>566.0</ele><time>2026-04-24T16:41:28.999Z</time></trkpt><trkpt lat="37.068369754332345" lon="14.986601126232541"><ele>565.6</ele><time>2026-04-24T16:41:29.999Z</time></trkpt><trkpt lat="37.06842840750024" lon="14.986672034002606"><ele>565.2</ele><time>2026-04-24T16:41:30.999Z</time></trkpt><trkpt lat="37.068495821858264" lon="14.986755791168015"><ele>564.8</ele><time>2026-04-24T16:41:31.999Z</time></trkpt><trkpt lat="37.06855932120332" lon="14.986837229461372"><ele>564.4</ele><time>2026-04-24T16:41:32.999Z</time></trkpt><trkpt lat="37.06863505646135" lon="14.986935694092438"><ele>564.0</ele><time>2026-04-24T16:41:33.999Z</time></trkpt><trkpt lat="37.06869974731455" lon="14.987005559966496"><ele>565.8333333333334</ele><time>2026-04-24T16:41:34.999Z</time></trkpt><trkpt lat="37.068743925482465" lon="14.987070681915082"><ele>567.6666666666666</ele><time>2026-04-24T16:41:35.999Z</time></trkpt><trkpt lat="37.06879735869773" lon="14.987130528209775"><ele>569.5</ele><time>2026-04-24T16:41:36.999Z</time></trkpt><trkpt lat="37.06885461843482" lon="14.987213326079408"><ele>571.3333333333333</ele><time>2026-04-24T16:41:37.999Z</time></trkpt><trkpt lat="37.068910413057786" lon="14.987280504090068"><ele>573.1666666666666</ele><time>2026-04-24T16:41:38.998Z</time></trkpt><trkpt lat="37.068981400069475" lon="14.987381221068963"><ele>575.0</ele><time>2026-04-24T16:41:40.998Z</time></trkpt><trkpt lat="37.0690496189587" lon="14.987496926727472"><ele>574.4</ele><time>2026-04-24T16:41:43Z</time></trkpt><trkpt lat="37.06909739858984" lon="14.987583484286215"><ele>573.8</ele><time>2026-04-24T16:41:44Z</time></trkpt><trkpt lat="37.06915846202316" lon="14.987695440410612"><ele>573.2</ele><time>2026-04-24T16:41:45Z</time></trkpt><trkpt lat="37.069197538510345" lon="14.987767084755365"><ele>572.6</ele><time>2026-04-24T16:41:46Z</time></trkpt><trkpt lat="37.069244496984325" lon="14.987854321517794"><ele>572.0</ele><time>2026-04-24T16:41:47Z</time></trkpt><trkpt lat="37.06930759155312" lon="14.987972561849721"><ele>572.0</ele><time>2026-04-24T16:41:48Z</time></trkpt><trkpt lat="37.069375705147955" lon="14.988100207951765"><ele>572.0</ele><time>2026-04-24T16:41:49Z</time></trkpt><trkpt lat="37.069449591010205" lon="14.988238671412432"><ele>572.0</ele><time>2026-04-24T16:41:50Z</time></trkpt><trkpt lat="37.06951689677617" lon="14.988364803596815"><ele>572.0</ele><time>2026-04-24T16:41:51Z</time></trkpt><trkpt lat="37.06957855015411" lon="14.988479611611893"><ele>574.0</ele><time>2026-04-24T16:41:52Z</time></trkpt><trkpt lat="37.06964202567775" lon="14.98858954298297"><ele>576.0</ele><time>2026-04-24T16:41:53Z</time></trkpt><trkpt lat="37.069716122920596" lon="14.988711869142614"><ele>578.0</ele><time>2026-04-24T16:41:54Z</time></trkpt><trkpt lat="37.06980667573808" lon="14.988852341575173"><ele>580.0</ele><time>2026-04-24T16:41:55Z</time></trkpt><trkpt lat="37.069888917103825" lon="14.988978758785194"><ele>578.5</ele><time>2026-04-24T16:41:56Z</time></trkpt><trkpt lat="37.06996856333908" lon="14.989097382520592"><ele>577.0</ele><time>2026-04-24T16:41:57Z</time></trkpt><trkpt lat="37.07004275168344" lon="14.989201758011404"><ele>575.5</ele><time>2026-04-24T16:41:58Z</time></trkpt><trkpt lat="37.07010444097704" lon="14.989287371854232"><ele>574.0</ele><time>2026-04-24T16:41:59Z</time></trkpt><trkpt lat="37.07018600044415" lon="14.98940255911523"><ele>574.0</ele><time>2026-04-24T16:42:00Z</time></trkpt><trkpt lat="37.070252818887546" lon="14.989497613595292"><ele>574.0</ele><time>2026-04-24T16:42:01Z</time></trkpt><trkpt lat="37.07031298902819" lon="14.989583210341094"><ele>574.0</ele><time>2026-04-24T16:42:02Z</time></trkpt><trkpt lat="37.070374112758984" lon="14.989670163635974"><ele>574.0</ele><time>2026-04-24T16:42:03Z</time></trkpt><trkpt lat="37.07043069864636" lon="14.989751155066463"><ele>574.0</ele><time>2026-04-24T16:42:04Z</time></trkpt><trkpt lat="37.070494461453734" lon="14.989815305511396"><ele>574.0</ele><time>2026-04-24T16:42:05Z</time></trkpt><trkpt lat="37.07056145321003" lon="14.989916950903687"><ele>574.0</ele><time>2026-04-24T16:42:06Z</time></trkpt><trkpt lat="37.07061768545753" lon="14.99003248055232"><ele>574.0</ele><time>2026-04-24T16:42:07Z</time></trkpt><trkpt lat="37.07071709268071" lon="14.990157536735444"><ele>574.0</ele><time>2026-04-24T16:42:08Z</time></trkpt><trkpt lat="37.0707976283541" lon="14.990312018277816"><ele>570.0</ele><time>2026-04-24T16:42:09Z</time></trkpt><trkpt lat="37.070909465036706" lon="14.990449289845115"><ele>566.0</ele><time>2026-04-24T16:42:10Z</time></trkpt><trkpt lat="37.07100663965149" lon="14.990592910166248"><ele>562.0</ele><time>2026-04-24T16:42:11Z</time></trkpt><trkpt lat="37.071091248970866" lon="14.990751770404822"><ele>561.0</ele><time>2026-04-24T16:42:12Z</time></trkpt><trkpt lat="37.07119488809176" lon="14.9908803685872"><ele>560.0</ele><time>2026-04-24T16:42:13Z</time></trkpt><trkpt lat="37.071268291691" lon="14.991020967751432"><ele>559.0</ele><time>2026-04-24T16:42:14Z</time></trkpt><trkpt lat="37.071356284118565" lon="14.991155714917479"><ele>558.0</ele><time>2026-04-24T16:42:15Z</time></trkpt><trkpt lat="37.0714509090246" lon="14.991271624883279"><ele>558.0</ele><time>2026-04-24T16:42:16Z</time></trkpt><trkpt lat="37.07153546220575" lon="14.991401593495974"><ele>558.0</ele><time>2026-04-24T16:42:17Z</time></trkpt><trkpt lat="37.071610622349574" lon="14.991545195500784"><ele>558.0</ele><time>2026-04-24T16:42:18Z</time></trkpt><trkpt lat="37.07170613280132" lon="14.991662792439858"><ele>558.0</ele><time>2026-04-24T16:42:19Z</time></trkpt><trkpt lat="37.07178707413099" lon="14.991791074901583"><ele>559.5</ele><time>2026-04-24T16:42:20Z</time></trkpt><trkpt lat="37.07186947465248" lon="14.99191010078098"><ele>561.0</ele><time>2026-04-24T16:42:21Z</time></trkpt><trkpt lat="37.07193712812728" lon="14.992044760778871"><ele>562.5</ele><time>2026-04-24T16:42:22Z</time></trkpt><trkpt lat="37.07202492754386" lon="14.992163631907824"><ele>564.0</ele><time>2026-04-24T16:42:23Z</time></trkpt><trkpt lat="37.07210373953946" lon="14.99228928423266"><ele>564.0</ele><time>2026-04-24T16:42:24Z</time></trkpt><trkpt lat="37.07217144475765" lon="14.992417688544109"><ele>564.0</ele><time>2026-04-24T16:42:25Z</time></trkpt><trkpt lat="37.07223912004426" lon="14.992527748459588"><ele>564.0</ele><time>2026-04-24T16:42:26Z</time></trkpt><trkpt lat="37.072306559323906" lon="14.992637608061708"><ele>564.0</ele><time>2026-04-24T16:42:27Z</time></trkpt><trkpt lat="37.07237342331189" lon="14.992741031756918"><ele>564.6</ele><time>2026-04-24T16:42:28Z</time></trkpt><trkpt lat="37.072446696403006" lon="14.992840121935041"><ele>565.2</ele><time>2026-04-24T16:42:29Z</time></trkpt><trkpt lat="37.0725299116104" lon="14.992907739610539"><ele>565.8000000000001</ele><time>2026-04-24T16:42:30Z</time></trkpt><trkpt lat="37.072579454509246" lon="14.99298447222084"><ele>566.4</ele><time>2026-04-24T16:42:31Z</time></trkpt><trkpt lat="37.07265239889727" lon="14.993078357242597"><ele>567.0</ele><time>2026-04-24T16:42:31.999Z</time></trkpt><trkpt lat="37.07272802692045" lon="14.993209247361248"><ele>568.75</ele><time>2026-04-24T16:42:32.999Z</time></trkpt><trkpt lat="37.072816712212536" lon="14.993360996978085"><ele>570.5</ele><time>2026-04-24T16:42:33.999Z</time></trkpt><trkpt lat="37.07291024382869" lon="14.99350338328583"><ele>572.25</ele><time>2026-04-24T16:42:34.999Z</time></trkpt><trkpt lat="37.07299798229884" lon="14.993606995919635"><ele>574.0</ele><time>2026-04-24T16:42:35.999Z</time></trkpt><trkpt lat="37.07310882704635" lon="14.993705071864648"><ele>574.0</ele><time>2026-04-24T16:42:36.999Z</time></trkpt><trkpt lat="37.07320298202592" lon="14.9937865745701"><ele>574.0</ele><time>2026-04-24T16:42:37.999Z</time></trkpt><trkpt lat="37.07327976226256" lon="14.993850597764085"><ele>574.0</ele><time>2026-04-24T16:42:38.999Z</time></trkpt><trkpt lat="37.073352701195155" lon="14.993885823308469"><ele>574.0</ele><time>2026-04-24T16:42:39.999Z</time></trkpt><trkpt lat="37.07344370464443" lon="14.993925378757577"><ele>574.0</ele><time>2026-04-24T16:42:40.999Z</time></trkpt><trkpt lat="37.0735705506788" lon="14.993982078142734"><ele>572.6666666666667</ele><time>2026-04-24T16:42:41.999Z</time></trkpt><trkpt lat="37.07370516386139" lon="14.994051229008916"><ele>571.3333333333334</ele><time>2026-04-24T16:42:42.999Z</time></trkpt><trkpt lat="37.07386125944265" lon="14.994102117962557"><ele>570.0</ele><time>2026-04-24T16:42:43.999Z</time></trkpt><trkpt lat="37.07407805337455" lon="14.994142623992655"><ele>570.0</ele><time>2026-04-24T16:42:44.999Z</time></trkpt><trkpt lat="37.07426863177205" lon="14.994164760004386"><ele>570.0</ele><time>2026-04-24T16:42:45.999Z</time></trkpt><trkpt lat="37.074438710109746" lon="14.99419662763096"><ele>570.0</ele><time>2026-04-24T16:42:46.999Z</time></trkpt><trkpt lat="37.074508046951806" lon="14.994227022417817"><ele>570.0</ele><time>2026-04-24T16:42:47.999Z</time></trkpt><trkpt lat="37.074605197984184" lon="14.99427547877774"><ele>569.75</ele><time>2026-04-24T16:42:50.999Z</time></trkpt><trkpt lat="37.07456145765159" lon="14.994481913652342"><ele>569.5</ele><time>2026-04-24T16:42:51.999Z</time></trkpt><trkpt lat="37.074589017055544" lon="14.994639320262644"><ele>569.25</ele><time>2026-04-24T16:42:52.999Z</time></trkpt><trkpt lat="37.07461627638604" lon="14.994804372875649"><ele>569.0</ele><time>2026-04-24T16:42:53.999Z</time></trkpt><trkpt lat="37.07464650085819" lon="14.994972435543547"><ele>569.75</ele><time>2026-04-24T16:42:54.999Z</time></trkpt><trkpt lat="37.0746903992233" lon="14.995115944027303"><ele>570.5</ele><time>2026-04-24T16:42:55.999Z</time></trkpt><trkpt lat="37.074753859662515" lon="14.995241105754106"><ele>571.25</ele><time>2026-04-24T16:42:56.999Z</time></trkpt><trkpt lat="37.07480019297901" lon="14.995387819408982"><ele>572.0</ele><time>2026-04-24T16:42:57.999Z</time></trkpt><trkpt lat="37.074855802297535" lon="14.995519135984017"><ele>572.0</ele><time>2026-04-24T16:42:58.999Z</time></trkpt><trkpt lat="37.07491102521438" lon="14.995632513361558"><ele>572.0</ele><time>2026-04-24T16:42:59.999Z</time></trkpt><trkpt lat="37.074976722505674" lon="14.995717286519305"><ele>572.0</ele><time>2026-04-24T16:43:00.999Z</time></trkpt><trkpt lat="37.075064353493055" lon="14.99578663018471"><ele>572.0</ele><time>2026-04-24T16:43:01.999Z</time></trkpt><trkpt lat="37.075177089659846" lon="14.995873128476811"><ele>572.0</ele><time>2026-04-24T16:43:02.999Z</time></trkpt><trkpt lat="37.07529066086196" lon="14.99597236714353"><ele>575.25</ele><time>2026-04-24T16:43:03.999Z</time></trkpt><trkpt lat="37.07541220675179" lon="14.996064238612176"><ele>578.5</ele><time>2026-04-24T16:43:04.999Z</time></trkpt><trkpt lat="37.075518916509274" lon="14.996182831057371"><ele>581.75</ele><time>2026-04-24T16:43:05.999Z</time></trkpt><trkpt lat="37.07562251505486" lon="14.996294906872379"><ele>585.0</ele><time>2026-04-24T16:43:06.999Z</time></trkpt><trkpt lat="37.07571234491352" lon="14.99640967392763"><ele>582.0</ele><time>2026-04-24T16:43:07.999Z</time></trkpt><trkpt lat="37.07578833902961" lon="14.996514582164219"><ele>579.0</ele><time>2026-04-24T16:43:08.999Z</time></trkpt><trkpt lat="37.07583713295264" lon="14.9966409665617"><ele>576.0</ele><time>2026-04-24T16:43:09.999Z</time></trkpt><trkpt lat="37.07592169728539" lon="14.99675641568712"><ele>573.0</ele><time>2026-04-24T16:43:10.999Z</time></trkpt><trkpt lat="37.076005291170944" lon="14.996880878554512"><ele>573.0</ele><time>2026-04-24T16:43:11.999Z</time></trkpt><trkpt lat="37.07610280527968" lon="14.996995682563233"><ele>573.0</ele><time>2026-04-24T16:43:12.999Z</time></trkpt><trkpt lat="37.07618998907669" lon="14.997095762342393"><ele>573.0</ele><time>2026-04-24T16:43:13.999Z</time></trkpt><trkpt lat="37.07627532686542" lon="14.997190557257207"><ele>573.0</ele><time>2026-04-24T16:43:14.999Z</time></trkpt><trkpt lat="37.07633538472601" lon="14.99727039472879"><ele>573.0</ele><time>2026-04-24T16:43:15.999Z</time></trkpt><trkpt lat="37.07636646108897" lon="14.99736347116967"><ele>573.0</ele><time>2026-04-24T16:43:16.999Z</time></trkpt><trkpt lat="37.076334431667085" lon="14.997473226266171"><ele>573.0</ele><time>2026-04-24T16:43:17.999Z</time></trkpt><trkpt lat="37.07632015399477" lon="14.99760941869616"><ele>573.0</ele><time>2026-04-24T16:43:18.999Z</time></trkpt><trkpt lat="37.07630755030439" lon="14.997785377117289"><ele>573.0</ele><time>2026-04-24T16:43:19.999Z</time></trkpt><trkpt lat="37.07631468681819" lon="14.997982522628112"><ele>571.6666666666666</ele><time>2026-04-24T16:43:20.999Z</time></trkpt><trkpt lat="37.07631530952657" lon="14.998193753925339"><ele>570.3333333333333</ele><time>2026-04-24T16:43:21.999Z</time></trkpt><trkpt lat="37.07630868281857" lon="14.998415776337136"><ele>569.0</ele><time>2026-04-24T16:43:22.999Z</time></trkpt><trkpt lat="37.07631336843405" lon="14.998634755258811"><ele>568.2</ele><time>2026-04-24T16:43:23.999Z</time></trkpt><trkpt lat="37.076344423320094" lon="14.998718434648902"><ele>567.4</ele><time>2026-04-24T16:43:24.999Z</time></trkpt><trkpt lat="37.07635204821466" lon="14.998806868069076"><ele>566.6</ele><time>2026-04-24T16:43:25.999Z</time></trkpt><trkpt lat="37.07627276207878" lon="14.998862934168143"><ele>565.8</ele><time>2026-04-24T16:43:28.999Z</time></trkpt><trkpt lat="37.07620906920123" lon="14.998955946183662"><ele>565.0</ele><time>2026-04-24T16:43:29.999Z</time></trkpt><trkpt lat="37.07613840190661" lon="14.999096193246503"><ele>563.0</ele><time>2026-04-24T16:43:30.999Z</time></trkpt><trkpt lat="37.07609250364814" lon="14.999276399811205"><ele>561.0</ele><time>2026-04-24T16:43:31.999Z</time></trkpt><trkpt lat="37.07604068055304" lon="14.999450520134255"><ele>559.0</ele><time>2026-04-24T16:43:32.999Z</time></trkpt><trkpt lat="37.07601078357523" lon="14.999636229407844"><ele>559.0</ele><time>2026-04-24T16:43:33.999Z</time></trkpt><trkpt lat="37.07599107770733" lon="14.999835924030075"><ele>559.0</ele><time>2026-04-24T16:43:34.999Z</time></trkpt><trkpt lat="37.07597651373065" lon="15.000052710756536"><ele>559.0</ele><time>2026-04-24T16:43:35.999Z</time></trkpt><trkpt lat="37.07595770188632" lon="15.00027298531005"><ele>559.0</ele><time>2026-04-24T16:43:36.999Z</time></trkpt><trkpt lat="37.075913382333425" lon="15.000496505244126"><ele>559.0</ele><time>2026-04-24T16:43:37.999Z</time></trkpt><trkpt lat="37.075894745331965" lon="15.000723528745294"><ele>559.0</ele><time>2026-04-24T16:43:38.999Z</time></trkpt><trkpt lat="37.07584652477926" lon="15.000947916697603"><ele>558.6666666666667</ele><time>2026-04-24T16:43:39.999Z</time></trkpt><trkpt lat="37.0757987126664" lon="15.001178972002224"><ele>558.3333333333334</ele><time>2026-04-24T16:43:40.999Z</time></trkpt><trkpt lat="37.075749182145195" lon="15.001385571291278"><ele>558.0</ele><time>2026-04-24T16:43:41.999Z</time></trkpt><trkpt lat="37.07570338244287" lon="15.001579220902011"><ele>562.0</ele><time>2026-04-24T16:43:42.998Z</time></trkpt><trkpt lat="37.075640980848846" lon="15.001780155889463"><ele>566.0</ele><time>2026-04-24T16:43:43.998Z</time></trkpt><trkpt lat="37.07557112991901" lon="15.001996040916971"><ele>570.0</ele><time>2026-04-24T16:43:44.998Z</time></trkpt><trkpt lat="37.075484731127816" lon="15.002203679029686"><ele>570.0</ele><time>2026-04-24T16:43:45.998Z</time></trkpt><trkpt lat="37.075418123799864" lon="15.002415937636847"><ele>570.0</ele><time>2026-04-24T16:43:46.998Z</time></trkpt><trkpt lat="37.07535175070048" lon="15.002625941690551"><ele>570.0</ele><time>2026-04-24T16:43:48Z</time></trkpt><trkpt lat="37.07529420335785" lon="15.00282761591738"><ele>568.5</ele><time>2026-04-24T16:43:49Z</time></trkpt><trkpt lat="37.07525779179566" lon="15.003014022705571"><ele>567.0</ele><time>2026-04-24T16:43:50Z</time></trkpt><trkpt lat="37.07520741296147" lon="15.003163827521675"><ele>565.5</ele><time>2026-04-24T16:43:51Z</time></trkpt><trkpt lat="37.07516716010881" lon="15.003306434954709"><ele>564.0</ele><time>2026-04-24T16:43:52Z</time></trkpt><trkpt lat="37.07514566906609" lon="15.003461301843444"><ele>562.3333333333334</ele><time>2026-04-24T16:43:53Z</time></trkpt><trkpt lat="37.075157751960724" lon="15.003637128789679"><ele>560.6666666666667</ele><time>2026-04-24T16:43:54Z</time></trkpt><trkpt lat="37.075192380899466" lon="15.003835533523317"><ele>559.0</ele><time>2026-04-24T16:43:55Z</time></trkpt><trkpt lat="37.07523832345205" lon="15.004045582075953"><ele>558.3333333333334</ele><time>2026-04-24T16:43:56Z</time></trkpt><trkpt lat="37.07528909568973" lon="15.004266234820458"><ele>557.6666666666666</ele><time>2026-04-24T16:43:57Z</time></trkpt><trkpt lat="37.07534607559301" lon="15.004486842884805"><ele>557.0</ele><time>2026-04-24T16:43:58Z</time></trkpt><trkpt lat="37.075403043614415" lon="15.004711095878074"><ele>557.0</ele><time>2026-04-24T16:43:59Z</time></trkpt><trkpt lat="37.07545970407484" lon="15.004931004847762"><ele>557.0</ele><time>2026-04-24T16:44:00Z</time></trkpt><trkpt lat="37.075508046478724" lon="15.005123085794468"><ele>557.0</ele><time>2026-04-24T16:44:01Z</time></trkpt><trkpt lat="37.07551727557267" lon="15.00529059611937"><ele>557.0</ele><time>2026-04-24T16:44:02Z</time></trkpt><trkpt lat="37.07553436466793" lon="15.005483767161266"><ele>557.0</ele><time>2026-04-24T16:44:03Z</time></trkpt><trkpt lat="37.07553585033747" lon="15.005650836362275"><ele>557.0</ele><time>2026-04-24T16:44:04Z</time></trkpt><trkpt lat="37.07552324593471" lon="15.005842494730647"><ele>557.0</ele><time>2026-04-24T16:44:05Z</time></trkpt><trkpt lat="37.0755185082608" lon="15.00604280373077"><ele>557.0</ele><time>2026-04-24T16:44:06Z</time></trkpt><trkpt lat="37.07555345499474" lon="15.006246969915342"><ele>557.0</ele><time>2026-04-24T16:44:07Z</time></trkpt><trkpt lat="37.07557491899387" lon="15.006457000475661"><ele>557.0</ele><time>2026-04-24T16:44:08Z</time></trkpt><trkpt lat="37.07559676136307" lon="15.006669947718562"><ele>557.3333333333333</ele><time>2026-04-24T16:44:09Z</time></trkpt><trkpt lat="37.07561564297987" lon="15.00689207638191"><ele>557.6666666666666</ele><time>2026-04-24T16:44:10Z</time></trkpt><trkpt lat="37.07564004189771" lon="15.00710445631423"><ele>558.0</ele><time>2026-04-24T16:44:11Z</time></trkpt><trkpt lat="37.07566266181699" lon="15.00732645220162"><ele>559.3333333333334</ele><time>2026-04-24T16:44:12Z</time></trkpt><trkpt lat="37.07567275898755" lon="15.00754680109012"><ele>560.6666666666667</ele><time>2026-04-24T16:44:13Z</time></trkpt><trkpt lat="37.07566545503723" lon="15.007755817488226"><ele>562.0</ele><time>2026-04-24T16:44:14Z</time></trkpt><trkpt lat="37.075684478582" lon="15.007966239550223"><ele>562.0</ele><time>2026-04-24T16:44:15Z</time></trkpt><trkpt lat="37.07572250942466" lon="15.008164522589503"><ele>562.0</ele><time>2026-04-24T16:44:16Z</time></trkpt><trkpt lat="37.075709135185974" lon="15.008349325295606"><ele>562.0</ele><time>2026-04-24T16:44:17Z</time></trkpt><trkpt lat="37.07568818036989" lon="15.008534422627664"><ele>563.3333333333334</ele><time>2026-04-24T16:44:18Z</time></trkpt><trkpt lat="37.07565294245137" lon="15.008736514021102"><ele>564.6666666666666</ele><time>2026-04-24T16:44:19Z</time></trkpt><trkpt lat="37.075632127188506" lon="15.008956203172877"><ele>566.0</ele><time>2026-04-24T16:44:20Z</time></trkpt><trkpt lat="37.07559378179117" lon="15.009178329268057"><ele>562.6666666666666</ele><time>2026-04-24T16:44:21Z</time></trkpt><trkpt lat="37.07556134526152" lon="15.009380471403833"><ele>559.3333333333334</ele><time>2026-04-24T16:44:22Z</time></trkpt><trkpt lat="37.07551815157637" lon="15.009565334181437"><ele>556.0</ele><time>2026-04-24T16:44:23Z</time></trkpt><trkpt lat="37.07543689884612" lon="15.009726671718209"><ele>556.0</ele><time>2026-04-24T16:44:24Z</time></trkpt><trkpt lat="37.07535731311965" lon="15.009903510677635"><ele>556.0</ele><time>2026-04-24T16:44:25Z</time></trkpt><trkpt lat="37.07529344432976" lon="15.010082323784157"><ele>556.0</ele><time>2026-04-24T16:44:26Z</time></trkpt><trkpt lat="37.075236431542265" lon="15.010246549344963"><ele>555.3333333333334</ele><time>2026-04-24T16:44:27Z</time></trkpt><trkpt lat="37.07520485814721" lon="15.010422176796856"><ele>554.6666666666666</ele><time>2026-04-24T16:44:28Z</time></trkpt><trkpt lat="37.07519607470389" lon="15.010620317775116"><ele>554.0</ele><time>2026-04-24T16:44:29Z</time></trkpt><trkpt lat="37.075217142440295" lon="15.010816759267836"><ele>553.6666666666666</ele><time>2026-04-24T16:44:30Z</time></trkpt><trkpt lat="37.075259569299504" lon="15.011030251981293"><ele>553.3333333333334</ele><time>2026-04-24T16:44:31Z</time></trkpt><trkpt lat="37.075311653155445" lon="15.011233437663128"><ele>553.0</ele><time>2026-04-24T16:44:32Z</time></trkpt><trkpt lat="37.075371710613176" lon="15.011442623448561"><ele>553.0</ele><time>2026-04-24T16:44:33Z</time></trkpt><trkpt lat="37.07542420507207" lon="15.011661801289824"><ele>553.0</ele><time>2026-04-24T16:44:34Z</time></trkpt><trkpt lat="37.07550541701522" lon="15.011865679248688"><ele>553.0</ele><time>2026-04-24T16:44:35Z</time></trkpt><trkpt lat="37.07554386998927" lon="15.012073275587731"><ele>553.0</ele><time>2026-04-24T16:44:36Z</time></trkpt><trkpt lat="37.07559938334272" lon="15.012277828677743"><ele>553.0</ele><time>2026-04-24T16:44:37Z</time></trkpt><trkpt lat="37.07567131904229" lon="15.012457570771558"><ele>553.0</ele><time>2026-04-24T16:44:38Z</time></trkpt><trkpt lat="37.0757158960658" lon="15.012638071980886"><ele>553.0</ele><time>2026-04-24T16:44:39Z</time></trkpt><trkpt lat="37.07572229898679" lon="15.01281379914215"><ele>553.0</ele><time>2026-04-24T16:44:39.999Z</time></trkpt><trkpt lat="37.07573336138185" lon="15.012992710640498"><ele>553.0</ele><time>2026-04-24T16:44:40.999Z</time></trkpt><trkpt lat="37.07572796721393" lon="15.013188341657724"><ele>553.0</ele><time>2026-04-24T16:44:41.999Z</time></trkpt><trkpt lat="37.0757041254972" lon="15.013388091679913"><ele>553.3333333333334</ele><time>2026-04-24T16:44:42.999Z</time></trkpt><trkpt lat="37.07569123163817" lon="15.013604260755184"><ele>553.6666666666666</ele><time>2026-04-24T16:44:43.999Z</time></trkpt><trkpt lat="37.07570192082157" lon="15.013817855452496"><ele>554.0</ele><time>2026-04-24T16:44:44.999Z</time></trkpt><trkpt lat="37.07571416219338" lon="15.014025282535698"><ele>555.0</ele><time>2026-04-24T16:44:45.999Z</time></trkpt><trkpt lat="37.07572117963257" lon="15.014216063330803"><ele>556.0</ele><time>2026-04-24T16:44:46.999Z</time></trkpt><trkpt lat="37.075754328753185" lon="15.01439876642267"><ele>557.0</ele><time>2026-04-24T16:44:47.999Z</time></trkpt><trkpt lat="37.07579518873161" lon="15.014578569458097"><ele>557.0</ele><time>2026-04-24T16:44:48.999Z</time></trkpt><trkpt lat="37.07586711965008" lon="15.014753192278052"><ele>557.0</ele><time>2026-04-24T16:44:49.999Z</time></trkpt><trkpt lat="37.07592423842529" lon="15.014951272896713"><ele>557.0</ele><time>2026-04-24T16:44:50.999Z</time></trkpt><trkpt lat="37.07597738311435" lon="15.015152004635349"><ele>556.6666666666666</ele><time>2026-04-24T16:44:51.999Z</time></trkpt><trkpt lat="37.07602087730941" lon="15.015364258420961"><ele>556.3333333333334</ele><time>2026-04-24T16:44:52.999Z</time></trkpt><trkpt lat="37.076067861718116" lon="15.015581770512341"><ele>556.0</ele><time>2026-04-24T16:44:53.999Z</time></trkpt><trkpt lat="37.07611399579737" lon="15.01579534614242"><ele>555.6666666666667</ele><time>2026-04-24T16:44:54.999Z</time></trkpt><trkpt lat="37.07616217030583" lon="15.01600439228323"><ele>555.3333333333334</ele><time>2026-04-24T16:44:55.999Z</time></trkpt><trkpt lat="37.07621570755305" lon="15.016221635328385"><ele>555.0</ele><time>2026-04-24T16:44:56.999Z</time></trkpt><trkpt lat="37.07626161495623" lon="15.016442442971066"><ele>555.6666666666666</ele><time>2026-04-24T16:44:57.999Z</time></trkpt><trkpt lat="37.07631305215033" lon="15.016655716476137"><ele>556.3333333333333</ele><time>2026-04-24T16:44:58.999Z</time></trkpt><trkpt lat="37.07638668271553" lon="15.016878572564023"><ele>557.0</ele><time>2026-04-24T16:44:59.999Z</time></trkpt><trkpt lat="37.07641759931891" lon="15.01708479457432"><ele>557.0</ele><time>2026-04-24T16:45:00.999Z</time></trkpt><trkpt lat="37.07644773352944" lon="15.0172640595877"><ele>557.0</ele><time>2026-04-24T16:45:01.999Z</time></trkpt><trkpt lat="37.07647568343092" lon="15.01746232164688"><ele>557.0</ele><time>2026-04-24T16:45:02.999Z</time></trkpt><trkpt lat="37.07649681522518" lon="15.017679846051049"><ele>558.0</ele><time>2026-04-24T16:45:03.999Z</time></trkpt><trkpt lat="37.076510022149805" lon="15.017897809901022"><ele>559.0</ele><time>2026-04-24T16:45:04.999Z</time></trkpt><trkpt lat="37.0765166731508" lon="15.018105551302847"><ele>560.0</ele><time>2026-04-24T16:45:05.999Z</time></trkpt><trkpt lat="37.076518431644196" lon="15.018319182913132"><ele>560.5</ele><time>2026-04-24T16:45:06.999Z</time></trkpt><trkpt lat="37.07650503193294" lon="15.018501825443302"><ele>561.0</ele><time>2026-04-24T16:45:07.999Z</time></trkpt><trkpt lat="37.07648413083597" lon="15.018684090439942"><ele>561.5</ele><time>2026-04-24T16:45:08.999Z</time></trkpt><trkpt lat="37.0764641797064" lon="15.018860352676716"><ele>562.0</ele><time>2026-04-24T16:45:09.999Z</time></trkpt><trkpt lat="37.076447232381774" lon="15.019024082915777"><ele>562.0</ele><time>2026-04-24T16:45:10.999Z</time></trkpt><trkpt lat="37.07646353261221" lon="15.019190753068909"><ele>562.0</ele><time>2026-04-24T16:45:11.999Z</time></trkpt><trkpt lat="37.07648715871812" lon="15.019360380884821"><ele>562.0</ele><time>2026-04-24T16:45:12.999Z</time></trkpt><trkpt lat="37.07653197191738" lon="15.019519014185953"><ele>562.0</ele><time>2026-04-24T16:45:13.999Z</time></trkpt><trkpt lat="37.07659980723326" lon="15.019680715194278"><ele>561.0</ele><time>2026-04-24T16:45:14.999Z</time></trkpt><trkpt lat="37.07666273241045" lon="15.019853368931365"><ele>560.0</ele><time>2026-04-24T16:45:15.999Z</time></trkpt><trkpt lat="37.07672397543562" lon="15.020011303441375"><ele>559.0</ele><time>2026-04-24T16:45:16.999Z</time></trkpt><trkpt lat="37.07676687891828" lon="15.020183767047829"><ele>558.0</ele><time>2026-04-24T16:45:17.999Z</time></trkpt><trkpt lat="37.07679593845777" lon="15.02037080021894"><ele>556.6666666666666</ele><time>2026-04-24T16:45:18.999Z</time></trkpt><trkpt lat="37.076822607255984" lon="15.02056974540504"><ele>555.3333333333333</ele><time>2026-04-24T16:45:19.999Z</time></trkpt><trkpt lat="37.076850333591224" lon="15.020776579982403"><ele>554.0</ele><time>2026-04-24T16:45:20.999Z</time></trkpt><trkpt lat="37.07687231630001" lon="15.020971653586633"><ele>553.25</ele><time>2026-04-24T16:45:21.999Z</time></trkpt><trkpt lat="37.076890542448" lon="15.021149869633813"><ele>552.5</ele><time>2026-04-24T16:45:22.999Z</time></trkpt><trkpt lat="37.076920523997124" lon="15.021285714764078"><ele>551.75</ele><time>2026-04-24T16:45:23.999Z</time></trkpt><trkpt lat="37.07693804007197" lon="15.021399699026457"><ele>551.0</ele><time>2026-04-24T16:45:24.999Z</time></trkpt><trkpt lat="37.07699307321539" lon="15.021524327800414"><ele>551.0</ele><time>2026-04-24T16:45:25.999Z</time></trkpt><trkpt lat="37.07708053456996" lon="15.021659946408976"><ele>551.0</ele><time>2026-04-24T16:45:26.999Z</time></trkpt><trkpt lat="37.07713356037762" lon="15.021819660410697"><ele>551.0</ele><time>2026-04-24T16:45:27.999Z</time></trkpt><trkpt lat="37.077173950396734" lon="15.021960658036269"><ele>551.0</ele><time>2026-04-24T16:45:28.999Z</time></trkpt><trkpt lat="37.07718653995335" lon="15.022085668676498"><ele>551.0</ele><time>2026-04-24T16:45:29.999Z</time></trkpt><trkpt lat="37.07719389811571" lon="15.022235653470464"><ele>551.0</ele><time>2026-04-24T16:45:30.999Z</time></trkpt><trkpt lat="37.07720867220197" lon="15.022411519062292"><ele>551.0</ele><time>2026-04-24T16:45:31.999Z</time></trkpt><trkpt lat="37.077188386635385" lon="15.022600177873457"><ele>551.0</ele><time>2026-04-24T16:45:32.999Z</time></trkpt><trkpt lat="37.077192434083386" lon="15.022805309616956"><ele>550.6666666666666</ele><time>2026-04-24T16:45:33.999Z</time></trkpt><trkpt lat="37.07716863552209" lon="15.023012199016698"><ele>550.3333333333334</ele><time>2026-04-24T16:45:34.999Z</time></trkpt><trkpt lat="37.07716239905425" lon="15.023228365476111"><ele>550.0</ele><time>2026-04-24T16:45:35.999Z</time></trkpt><trkpt lat="37.0771472713425" lon="15.023440163618938"><ele>549.2</ele><time>2026-04-24T16:45:36.999Z</time></trkpt><trkpt lat="37.07713202157735" lon="15.02362379795819"><ele>548.4</ele><time>2026-04-24T16:45:37.999Z</time></trkpt><trkpt lat="37.07711935436976" lon="15.023777601593162"><ele>547.6</ele><time>2026-04-24T16:45:38.999Z</time></trkpt><trkpt lat="37.07711557370635" lon="15.023890810434851"><ele>546.8</ele><time>2026-04-24T16:45:39.999Z</time></trkpt><trkpt lat="37.077113163460254" lon="15.023981159300547"><ele>546.0</ele><time>2026-04-24T16:45:40.999Z</time></trkpt><trkpt lat="37.0771265217592" lon="15.024080802059792"><ele>544.25</ele><time>2026-04-24T16:45:41.999Z</time></trkpt><trkpt lat="37.07708087777554" lon="15.024203531508817"><ele>542.5</ele><time>2026-04-24T16:45:42.999Z</time></trkpt><trkpt lat="37.07703888330668" lon="15.024358445484268"><ele>540.75</ele><time>2026-04-24T16:45:43.999Z</time></trkpt><trkpt lat="37.07701435925861" lon="15.02454293189285"><ele>539.0</ele><time>2026-04-24T16:45:44.999Z</time></trkpt><trkpt lat="37.07699508359437" lon="15.024749958065222"><ele>539.0</ele><time>2026-04-24T16:45:45.999Z</time></trkpt><trkpt lat="37.07696412095372" lon="15.024972070932531"><ele>539.0</ele><time>2026-04-24T16:45:46.999Z</time></trkpt><trkpt lat="37.07694541306646" lon="15.025147813660993"><ele>539.0</ele><time>2026-04-24T16:45:47.999Z</time></trkpt><trkpt lat="37.07693986412387" lon="15.025341890603672"><ele>538.0</ele><time>2026-04-24T16:45:48.999Z</time></trkpt><trkpt lat="37.076965250240114" lon="15.025540905067054"><ele>537.0</ele><time>2026-04-24T16:45:49.999Z</time></trkpt><trkpt lat="37.07700822867339" lon="15.025759443681054"><ele>536.0</ele><time>2026-04-24T16:45:50.999Z</time></trkpt><trkpt lat="37.07705661869164" lon="15.025977572808177"><ele>535.0</ele><time>2026-04-24T16:45:51.998Z</time></trkpt><trkpt lat="37.077105800756" lon="15.026216868099278"><ele>534.0</ele><time>2026-04-24T16:45:52.998Z</time></trkpt><trkpt lat="37.07715447269057" lon="15.026448669483417"><ele>533.0</ele><time>2026-04-24T16:45:54Z</time></trkpt><trkpt lat="37.07720566853842" lon="15.026702030310085"><ele>532.0</ele><time>2026-04-24T16:45:55Z</time></trkpt><trkpt lat="37.077257364349826" lon="15.026962102071437"><ele>531.0</ele><time>2026-04-24T16:45:56Z</time></trkpt><trkpt lat="37.07730873853022" lon="15.027213202655652"><ele>530.0</ele><time>2026-04-24T16:45:57Z</time></trkpt><trkpt lat="37.07735853031016" lon="15.02746947720653"><ele>529.6666666666666</ele><time>2026-04-24T16:45:58Z</time></trkpt><trkpt lat="37.07740331704945" lon="15.027711567393775"><ele>529.3333333333334</ele><time>2026-04-24T16:45:59Z</time></trkpt><trkpt lat="37.07745114199735" lon="15.027951077846813"><ele>529.0</ele><time>2026-04-24T16:46:00Z</time></trkpt><trkpt lat="37.07746878549187" lon="15.028177547434307"><ele>529.0</ele><time>2026-04-24T16:46:01Z</time></trkpt><trkpt lat="37.07749080129715" lon="15.028379965116423"><ele>529.0</ele><time>2026-04-24T16:46:02Z</time></trkpt><trkpt lat="37.077494678101964" lon="15.0285315970487"><ele>529.0</ele><time>2026-04-24T16:46:03Z</time></trkpt><trkpt lat="37.07748666941713" lon="15.028637693271092"><ele>529.0</ele><time>2026-04-24T16:46:04Z</time></trkpt><trkpt lat="37.07746239978233" lon="15.028720424612493"><ele>529.0</ele><time>2026-04-24T16:46:05Z</time></trkpt><trkpt lat="37.07741815980161" lon="15.028815931012348"><ele>529.0</ele><time>2026-04-24T16:46:06Z</time></trkpt><trkpt lat="37.07734220092386" lon="15.02889447333894"><ele>529.0</ele><time>2026-04-24T16:46:07Z</time></trkpt><trkpt lat="37.07724754115546" lon="15.028921433006944"><ele>529.0</ele><time>2026-04-24T16:46:08Z</time></trkpt><trkpt lat="37.077135819114694" lon="15.028958546537346"><ele>529.0</ele><time>2026-04-24T16:46:09Z</time></trkpt><trkpt lat="37.07701411354223" lon="15.028947011393338"><ele>529.0</ele><time>2026-04-24T16:46:10Z</time></trkpt><trkpt lat="37.07690315186196" lon="15.028938265212613"><ele>529.0</ele><time>2026-04-24T16:46:11Z</time></trkpt><trkpt lat="37.07680771112724" lon="15.028949028144504"><ele>529.0</ele><time>2026-04-24T16:46:12Z</time></trkpt><trkpt lat="37.07671834807852" lon="15.02893887767087"><ele>529.0</ele><time>2026-04-24T16:46:13Z</time></trkpt><trkpt lat="37.07665334800417" lon="15.02893962320495"><ele>529.0</ele><time>2026-04-24T16:46:14Z</time></trkpt><trkpt lat="37.076604995329745" lon="15.029194385039563"><ele>528.75</ele><time>2026-04-24T16:46:16Z</time></trkpt><trkpt lat="37.07660589799675" lon="15.029339783693878"><ele>528.5</ele><time>2026-04-24T16:46:17Z</time></trkpt><trkpt lat="37.07656969116948" lon="15.029504393401325"><ele>528.25</ele><time>2026-04-24T16:46:18Z</time></trkpt><trkpt lat="37.07654033086086" lon="15.029688918212832"><ele>528.0</ele><time>2026-04-24T16:46:19Z</time></trkpt><trkpt lat="37.076510360366676" lon="15.029875615813292"><ele>527.3333333333334</ele><time>2026-04-24T16:46:20Z</time></trkpt><trkpt lat="37.07647811654452" lon="15.030078934013394"><ele>526.6666666666667</ele><time>2026-04-24T16:46:21Z</time></trkpt><trkpt lat="37.07644875323934" lon="15.030279461554404"><ele>526.0</ele><time>2026-04-24T16:46:22Z</time></trkpt><trkpt lat="37.076439391748494" lon="15.030495589280536"><ele>526.0</ele><time>2026-04-24T16:46:23Z</time></trkpt><trkpt lat="37.076413377218735" lon="15.03071612163876"><ele>526.0</ele><time>2026-04-24T16:46:24Z</time></trkpt><trkpt lat="37.0763963109475" lon="15.03093116465774"><ele>526.0</ele><time>2026-04-24T16:46:25Z</time></trkpt><trkpt lat="37.07635997583908" lon="15.031146036710343"><ele>525.6666666666667</ele><time>2026-04-24T16:46:26Z</time></trkpt><trkpt lat="37.076344801696195" lon="15.03139000886503"><ele>525.3333333333334</ele><time>2026-04-24T16:46:27Z</time></trkpt><trkpt lat="37.07631592797408" lon="15.03163732088718"><ele>525.0</ele><time>2026-04-24T16:46:28Z</time></trkpt><trkpt lat="37.07629084798565" lon="15.031859914150768"><ele>524.0</ele><time>2026-04-24T16:46:29Z</time></trkpt><trkpt lat="37.07625088278844" lon="15.032055344994657"><ele>523.0</ele><time>2026-04-24T16:46:30Z</time></trkpt><trkpt lat="37.076228818527724" lon="15.032244799153565"><ele>522.0</ele><time>2026-04-24T16:46:31Z</time></trkpt><trkpt lat="37.076208670448146" lon="15.032420006517038"><ele>521.3333333333334</ele><time>2026-04-24T16:46:32Z</time></trkpt><trkpt lat="37.07619084185522" lon="15.03259606391593"><ele>520.6666666666667</ele><time>2026-04-24T16:46:33Z</time></trkpt><trkpt lat="37.076179359416706" lon="15.032800100131231"><ele>520.0</ele><time>2026-04-24T16:46:34Z</time></trkpt><trkpt lat="37.07612785857029" lon="15.03297682519946"><ele>520.0</ele><time>2026-04-24T16:46:35Z</time></trkpt><trkpt lat="37.07607989339665" lon="15.033175276817687"><ele>520.0</ele><time>2026-04-24T16:46:36Z</time></trkpt><trkpt lat="37.076029793501554" lon="15.033376703693326"><ele>520.0</ele><time>2026-04-24T16:46:37Z</time></trkpt><trkpt lat="37.07597802879763" lon="15.033584823986029"><ele>519.3333333333334</ele><time>2026-04-24T16:46:38Z</time></trkpt><trkpt lat="37.07594164180283" lon="15.033801276214703"><ele>518.6666666666666</ele><time>2026-04-24T16:46:39Z</time></trkpt><trkpt lat="37.075872688366644" lon="15.03401141326053"><ele>518.0</ele><time>2026-04-24T16:46:40Z</time></trkpt><trkpt lat="37.075817830436094" lon="15.034234539621728"><ele>516.6666666666666</ele><time>2026-04-24T16:46:41Z</time></trkpt><trkpt lat="37.075764366650354" lon="15.0344519954775"><ele>515.3333333333334</ele><time>2026-04-24T16:46:42Z</time></trkpt><trkpt lat="37.07570822202403" lon="15.034680355156297"><ele>514.0</ele><time>2026-04-24T16:46:42.999Z</time></trkpt><trkpt lat="37.07565581153563" lon="15.034893527008085"><ele>514.3333333333334</ele><time>2026-04-24T16:46:43.999Z</time></trkpt><trkpt lat="37.075607411556334" lon="15.035084591105935"><ele>514.6666666666666</ele><time>2026-04-24T16:46:44.999Z</time></trkpt><trkpt lat="37.07557825343921" lon="15.035264546169167"><ele>515.0</ele><time>2026-04-24T16:46:45.999Z</time></trkpt><trkpt lat="37.07551969589754" lon="15.035446429102514"><ele>515.0</ele><time>2026-04-24T16:46:46.999Z</time></trkpt><trkpt lat="37.07543310838158" lon="15.035632130604654"><ele>515.0</ele><time>2026-04-24T16:46:47.999Z</time></trkpt><trkpt lat="37.07535438031956" lon="15.035826995498354"><ele>515.0</ele><time>2026-04-24T16:46:48.999Z</time></trkpt><trkpt lat="37.075276197725316" lon="15.036025466012088"><ele>514.6666666666666</ele><time>2026-04-24T16:46:49.999Z</time></trkpt><trkpt lat="37.075198835213804" lon="15.036221262106395"><ele>514.3333333333334</ele><time>2026-04-24T16:46:50.999Z</time></trkpt><trkpt lat="37.075115605536" lon="15.036429196337336"><ele>514.0</ele><time>2026-04-24T16:46:51.999Z</time></trkpt><trkpt lat="37.07503198067005" lon="15.03663713203609"><ele>514.3333333333334</ele><time>2026-04-24T16:46:52.999Z</time></trkpt><trkpt lat="37.07494523036265" lon="15.03685126441168"><ele>514.6666666666666</ele><time>2026-04-24T16:46:53.999Z</time></trkpt><trkpt lat="37.07486123086024" lon="15.03705904040579"><ele>515.0</ele><time>2026-04-24T16:46:54.999Z</time></trkpt><trkpt lat="37.07478148550043" lon="15.037257108783669"><ele>515.0</ele><time>2026-04-24T16:46:55.999Z</time></trkpt><trkpt lat="37.07470964232979" lon="15.03743523303221"><ele>515.0</ele><time>2026-04-24T16:46:56.999Z</time></trkpt><trkpt lat="37.07463695629308" lon="15.037610420470546"><ele>515.0</ele><time>2026-04-24T16:46:57.999Z</time></trkpt><trkpt lat="37.07455934071412" lon="15.037793983658121"><ele>515.0</ele><time>2026-04-24T16:46:58.999Z</time></trkpt><trkpt lat="37.07447452985225" lon="15.037990594317824"><ele>515.0</ele><time>2026-04-24T16:46:59.999Z</time></trkpt><trkpt lat="37.07439020463592" lon="15.038185460778012"><ele>515.0</ele><time>2026-04-24T16:47:00.999Z</time></trkpt><trkpt lat="37.074309656318455" lon="15.038371599127274"><ele>514.3333333333333</ele><time>2026-04-24T16:47:01.999Z</time></trkpt><trkpt lat="37.07422921440074" lon="15.038556121794086"><ele>513.6666666666666</ele><time>2026-04-24T16:47:02.999Z</time></trkpt><trkpt lat="37.07415747864629" lon="15.0387203934707"><ele>513.0</ele><time>2026-04-24T16:47:03.999Z</time></trkpt><trkpt lat="37.07409218364983" lon="15.038869916254923"><ele>513.0</ele><time>2026-04-24T16:47:04.999Z</time></trkpt><trkpt lat="37.074027123427406" lon="15.039017549385344"><ele>513.0</ele><time>2026-04-24T16:47:05.999Z</time></trkpt><trkpt lat="37.073967857814836" lon="15.039151187555516"><ele>513.0</ele><time>2026-04-24T16:47:06.999Z</time></trkpt><trkpt lat="37.07390887294141" lon="15.039284192612445"><ele>513.0</ele><time>2026-04-24T16:47:07.999Z</time></trkpt><trkpt lat="37.073853124372896" lon="15.039409900180852"><ele>512.1999999999999</ele><time>2026-04-24T16:47:08.999Z</time></trkpt><trkpt lat="37.07379841416207" lon="15.03953326633688"><ele>511.4</ele><time>2026-04-24T16:47:09.999Z</time></trkpt><trkpt lat="37.07374779975122" lon="15.039647396869807"><ele>510.59999999999997</ele><time>2026-04-24T16:47:10.999Z</time></trkpt><trkpt lat="37.07369699793499" lon="15.039761950526549"><ele>509.79999999999995</ele><time>2026-04-24T16:47:11.999Z</time></trkpt><trkpt lat="37.07364225247171" lon="15.039881170247616"><ele>509.0</ele><time>2026-04-24T16:47:12.999Z</time></trkpt><trkpt lat="37.073587908491206" lon="15.040000432868517"><ele>508.25</ele><time>2026-04-24T16:47:13.999Z</time></trkpt><trkpt lat="37.07353296072438" lon="15.040120598311725"><ele>507.5</ele><time>2026-04-24T16:47:14.999Z</time></trkpt><trkpt lat="37.07347255861668" lon="15.040252691913269"><ele>506.75</ele><time>2026-04-24T16:47:15.999Z</time></trkpt><trkpt lat="37.07341368878804" lon="15.04037948357437"><ele>506.0</ele><time>2026-04-24T16:47:16.999Z</time></trkpt><trkpt lat="37.073355019865154" lon="15.040505482291616"><ele>506.0</ele><time>2026-04-24T16:47:17.999Z</time></trkpt><trkpt lat="37.07329615892413" lon="15.040632577961896"><ele>506.0</ele><time>2026-04-24T16:47:18.999Z</time></trkpt><trkpt lat="37.073235869371146" lon="15.040762929435703"><ele>506.0</ele><time>2026-04-24T16:47:19.999Z</time></trkpt><trkpt lat="37.07319148243371" lon="15.040898759509064"><ele>506.0</ele><time>2026-04-24T16:47:20.999Z</time></trkpt><trkpt lat="37.07312880375738" lon="15.041029475536302"><ele>505.5</ele><time>2026-04-24T16:47:21.999Z</time></trkpt><trkpt lat="37.07306727340654" lon="15.041157391318627"><ele>505.0</ele><time>2026-04-24T16:47:22.999Z</time></trkpt><trkpt lat="37.07302641164226" lon="15.041262138777055"><ele>504.5</ele><time>2026-04-24T16:47:23.999Z</time></trkpt><trkpt lat="37.0729666141866" lon="15.041432113414235"><ele>504.0</ele><time>2026-04-24T16:47:24.999Z</time></trkpt><trkpt lat="37.07293352307276" lon="15.041593973064495"><ele>502.75</ele><time>2026-04-24T16:47:25.999Z</time></trkpt><trkpt lat="37.07288141745258" lon="15.041745852052061"><ele>501.5</ele><time>2026-04-24T16:47:26.999Z</time></trkpt><trkpt lat="37.072837577874196" lon="15.041910744135789"><ele>500.25</ele><time>2026-04-24T16:47:27.999Z</time></trkpt><trkpt lat="37.07280306560364" lon="15.042065845364714"><ele>499.0</ele><time>2026-04-24T16:47:28.999Z</time></trkpt><trkpt lat="37.07276407821438" lon="15.042215218566028"><ele>499.0</ele><time>2026-04-24T16:47:29.999Z</time></trkpt><trkpt lat="37.07272111027551" lon="15.04236257629387"><ele>499.0</ele><time>2026-04-24T16:47:30.999Z</time></trkpt><trkpt lat="37.0726763839659" lon="15.042518991063492"><ele>499.0</ele><time>2026-04-24T16:47:31.999Z</time></trkpt><trkpt lat="37.07262840389277" lon="15.04268715352481"><ele>499.0</ele><time>2026-04-24T16:47:32.999Z</time></trkpt><trkpt lat="37.07258187925002" lon="15.042866557043856"><ele>499.25</ele><time>2026-04-24T16:47:33.999Z</time></trkpt><trkpt lat="37.07253804073501" lon="15.043047210259717"><ele>499.5</ele><time>2026-04-24T16:47:34.999Z</time></trkpt><trkpt lat="37.0724852061568" lon="15.04321527247209"><ele>499.75</ele><time>2026-04-24T16:47:35.999Z</time></trkpt><trkpt lat="37.07244519774713" lon="15.043385009119481"><ele>500.0</ele><time>2026-04-24T16:47:36.999Z</time></trkpt><trkpt lat="37.07240211891103" lon="15.043552333962149"><ele>499.5</ele><time>2026-04-24T16:47:37.999Z</time></trkpt><trkpt lat="37.072349548414756" lon="15.04371254860928"><ele>499.0</ele><time>2026-04-24T16:47:38.999Z</time></trkpt><trkpt lat="37.07228937534005" lon="15.043888682279869"><ele>498.5</ele><time>2026-04-24T16:47:39.999Z</time></trkpt><trkpt lat="37.07222566398302" lon="15.044059148089831"><ele>498.0</ele><time>2026-04-24T16:47:40.999Z</time></trkpt><trkpt lat="37.07216086425649" lon="15.044237416511466"><ele>497.0</ele><time>2026-04-24T16:47:41.999Z</time></trkpt><trkpt lat="37.07208649729776" lon="15.044422915920487"><ele>496.0</ele><time>2026-04-24T16:47:42.999Z</time></trkpt><trkpt lat="37.07200234818965" lon="15.044601701282607"><ele>495.0</ele><time>2026-04-24T16:47:43.999Z</time></trkpt><trkpt lat="37.0718952080693" lon="15.044767787405732"><ele>495.0</ele><time>2026-04-24T16:47:44.999Z</time></trkpt><trkpt lat="37.07179717229059" lon="15.044951599101168"><ele>495.0</ele><time>2026-04-24T16:47:45.999Z</time></trkpt><trkpt lat="37.07170328482574" lon="15.045130734652956"><ele>495.0</ele><time>2026-04-24T16:47:46.999Z</time></trkpt><trkpt lat="37.07162844692946" lon="15.045310449465614"><ele>493.0</ele><time>2026-04-24T16:47:47.999Z</time></trkpt><trkpt lat="37.0715435015297" lon="15.0454725586404"><ele>491.0</ele><time>2026-04-24T16:47:48.999Z</time></trkpt><trkpt lat="37.07145792647647" lon="15.0456511868588"><ele>489.0</ele><time>2026-04-24T16:47:49.999Z</time></trkpt><trkpt lat="37.071389792047825" lon="15.045839643817079"><ele>488.33333333333337</ele><time>2026-04-24T16:47:50.999Z</time></trkpt><trkpt lat="37.071310130580265" lon="15.046037623611618"><ele>487.6666666666667</ele><time>2026-04-24T16:47:51.999Z</time></trkpt><trkpt lat="37.07125999025613" lon="15.046246400882639"><ele>487.0</ele><time>2026-04-24T16:47:52.999Z</time></trkpt><trkpt lat="37.07120362387275" lon="15.046461255442516"><ele>486.0</ele><time>2026-04-24T16:47:53.998Z</time></trkpt><trkpt lat="37.07115323992662" lon="15.046679374080997"><ele>485.0</ele><time>2026-04-24T16:47:54.998Z</time></trkpt><trkpt lat="37.07110243267245" lon="15.046900517427058"><ele>484.0</ele><time>2026-04-24T16:47:55.998Z</time></trkpt><trkpt lat="37.0710565364474" lon="15.047128703688545"><ele>484.0</ele><time>2026-04-24T16:47:56.998Z</time></trkpt><trkpt lat="37.07101743633256" lon="15.047359189071964"><ele>484.0</ele><time>2026-04-24T16:47:57.998Z</time></trkpt><trkpt lat="37.07098164865735" lon="15.047605531513568"><ele>484.0</ele><time>2026-04-24T16:47:58.998Z</time></trkpt><trkpt lat="37.0709363618725" lon="15.0478495768206"><ele>483.6666666666667</ele><time>2026-04-24T16:48:00Z</time></trkpt><trkpt lat="37.0708990588724" lon="15.048066774872174"><ele>483.33333333333337</ele><time>2026-04-24T16:48:01Z</time></trkpt><trkpt lat="37.07087162487843" lon="15.048261756940752"><ele>483.0</ele><time>2026-04-24T16:48:02Z</time></trkpt><trkpt lat="37.070844708526195" lon="15.048461422368684"><ele>483.0</ele><time>2026-04-24T16:48:03Z</time></trkpt><trkpt lat="37.07077997235045" lon="15.048672552381419"><ele>483.0</ele><time>2026-04-24T16:48:04Z</time></trkpt><trkpt lat="37.070720180924546" lon="15.048888599788917"><ele>483.0</ele><time>2026-04-24T16:48:05Z</time></trkpt><trkpt lat="37.07065841384781" lon="15.049115872964324"><ele>482.0</ele><time>2026-04-24T16:48:06Z</time></trkpt><trkpt lat="37.070612791113604" lon="15.049354229590644"><ele>481.0</ele><time>2026-04-24T16:48:07Z</time></trkpt><trkpt lat="37.07054651627751" lon="15.049587020179917"><ele>480.0</ele><time>2026-04-24T16:48:08Z</time></trkpt><trkpt lat="37.07047721949757" lon="15.049830974318136"><ele>479.66666666666663</ele><time>2026-04-24T16:48:09Z</time></trkpt><trkpt lat="37.07041617896958" lon="15.050076578432003"><ele>479.3333333333333</ele><time>2026-04-24T16:48:10Z</time></trkpt><trkpt lat="37.07035392135983" lon="15.050321345282583"><ele>479.0</ele><time>2026-04-24T16:48:11Z</time></trkpt><trkpt lat="37.07029182489442" lon="15.050562610655136"><ele>477.66666666666663</ele><time>2026-04-24T16:48:12Z</time></trkpt><trkpt lat="37.0702224762609" lon="15.05081819415194"><ele>476.33333333333337</ele><time>2026-04-24T16:48:13Z</time></trkpt><trkpt lat="37.07014260435125" lon="15.051062415557356"><ele>475.0</ele><time>2026-04-24T16:48:14Z</time></trkpt><trkpt lat="37.07009039853088" lon="15.0513175419371"><ele>475.0</ele><time>2026-04-24T16:48:15Z</time></trkpt><trkpt lat="37.070021344142134" lon="15.051572403175133"><ele>475.0</ele><time>2026-04-24T16:48:16Z</time></trkpt><trkpt lat="37.06995543918572" lon="15.051812593483449"><ele>475.0</ele><time>2026-04-24T16:48:17Z</time></trkpt><trkpt lat="37.06989708525349" lon="15.052032458078106"><ele>470.0</ele><time>2026-04-24T16:48:18Z</time></trkpt><trkpt lat="37.06984126700108" lon="15.052250359761794"><ele>465.0</ele><time>2026-04-24T16:48:19Z</time></trkpt><trkpt lat="37.06976991969174" lon="15.052472806561816"><ele>460.0</ele><time>2026-04-24T16:48:20Z</time></trkpt><trkpt lat="37.06973421413204" lon="15.052725206821707"><ele>457.0</ele><time>2026-04-24T16:48:21Z</time></trkpt><trkpt lat="37.06971738840051" lon="15.05298449268286"><ele>454.0</ele><time>2026-04-24T16:48:22Z</time></trkpt><trkpt lat="37.06968225612074" lon="15.053226815524328"><ele>451.0</ele><time>2026-04-24T16:48:23Z</time></trkpt><trkpt lat="37.069612712215346" lon="15.053462626416863"><ele>451.0</ele><time>2026-04-24T16:48:24Z</time></trkpt><trkpt lat="37.06956331078042" lon="15.053704636910526"><ele>451.0</ele><time>2026-04-24T16:48:25Z</time></trkpt><trkpt lat="37.06948598139456" lon="15.053967129924038"><ele>451.0</ele><time>2026-04-24T16:48:26Z</time></trkpt><trkpt lat="37.06941979656977" lon="15.054209954153059"><ele>454.0</ele><time>2026-04-24T16:48:27Z</time></trkpt><trkpt lat="37.06934404199119" lon="15.05446142839755"><ele>457.0</ele><time>2026-04-24T16:48:28Z</time></trkpt><trkpt lat="37.06925151576618" lon="15.05470545885131"><ele>460.0</ele><time>2026-04-24T16:48:29Z</time></trkpt><trkpt lat="37.06916923073834" lon="15.054959974956166"><ele>463.0</ele><time>2026-04-24T16:48:30Z</time></trkpt><trkpt lat="37.06909767952007" lon="15.055212606008723"><ele>466.0</ele><time>2026-04-24T16:48:31Z</time></trkpt><trkpt lat="37.06901962038803" lon="15.055468979630966"><ele>469.0</ele><time>2026-04-24T16:48:32Z</time></trkpt><trkpt lat="37.068934304545564" lon="15.055721799391295"><ele>467.6666666666667</ele><time>2026-04-24T16:48:33Z</time></trkpt><trkpt lat="37.06885493598826" lon="15.055970075320065"><ele>466.33333333333337</ele><time>2026-04-24T16:48:34Z</time></trkpt><trkpt lat="37.06877974754678" lon="15.056193613966235"><ele>465.0</ele><time>2026-04-24T16:48:35Z</time></trkpt><trkpt lat="37.06870593488399" lon="15.056431974351634"><ele>463.66666666666663</ele><time>2026-04-24T16:48:36Z</time></trkpt><trkpt lat="37.068626760193936" lon="15.056670663041782"><ele>462.3333333333333</ele><time>2026-04-24T16:48:37Z</time></trkpt><trkpt lat="37.06853334430926" lon="15.056904897329897"><ele>461.0</ele><time>2026-04-24T16:48:38Z</time></trkpt><trkpt lat="37.06846760670731" lon="15.057156541670997"><ele>461.0</ele><time>2026-04-24T16:48:39Z</time></trkpt><trkpt lat="37.068388545145574" lon="15.057391764645965"><ele>461.0</ele><time>2026-04-24T16:48:40Z</time></trkpt><trkpt lat="37.06832617292485" lon="15.05760447843613"><ele>461.0</ele><time>2026-04-24T16:48:41Z</time></trkpt><trkpt lat="37.06825325398329" lon="15.057789865113882"><ele>461.25</ele><time>2026-04-24T16:48:42Z</time></trkpt><trkpt lat="37.06821688971905" lon="15.057973012210228"><ele>461.5</ele><time>2026-04-24T16:48:43Z</time></trkpt><trkpt lat="37.06814646065425" lon="15.058102040532622"><ele>461.75</ele><time>2026-04-24T16:48:44Z</time></trkpt><trkpt lat="37.068086312020775" lon="15.058202039551528"><ele>462.0</ele><time>2026-04-24T16:48:45Z</time></trkpt><trkpt lat="37.06800486198004" lon="15.058279075559474"><ele>461.0</ele><time>2026-04-24T16:48:45.999Z</time></trkpt><trkpt lat="37.06791201587498" lon="15.058385800630395"><ele>460.0</ele><time>2026-04-24T16:48:46.999Z</time></trkpt><trkpt lat="37.06781384365979" lon="15.058506751483167"><ele>459.0</ele><time>2026-04-24T16:48:47.999Z</time></trkpt><trkpt lat="37.06770139279921" lon="15.058631204622447"><ele>458.0</ele><time>2026-04-24T16:48:48.999Z</time></trkpt><trkpt lat="37.06758752286109" lon="15.058751447889001"><ele>458.0</ele><time>2026-04-24T16:48:49.999Z</time></trkpt><trkpt lat="37.0674867093028" lon="15.058865597655325"><ele>457.99999999999994</ele><time>2026-04-24T16:48:50.999Z</time></trkpt><trkpt lat="37.06739292600122" lon="15.05897268562386"><ele>457.99999999999994</ele><time>2026-04-24T16:48:51.999Z</time></trkpt><trkpt lat="37.06729949415001" lon="15.059000943168"><ele>458.0</ele><time>2026-04-24T16:48:52.999Z</time></trkpt><trkpt lat="37.06722940298039" lon="15.058996865477813"><ele>458.0</ele><time>2026-04-24T16:48:53.999Z</time></trkpt><trkpt lat="37.06712209512552" lon="15.059006500528243"><ele>457.5</ele><time>2026-04-24T16:48:54.999Z</time></trkpt><trkpt lat="37.06698623382755" lon="15.058995630850928"><ele>457.0</ele><time>2026-04-24T16:48:55.999Z</time></trkpt><trkpt lat="37.06684338284014" lon="15.058985076595542"><ele>456.5</ele><time>2026-04-24T16:48:56.999Z</time></trkpt><trkpt lat="37.06673497695532" lon="15.058993077318936"><ele>456.0</ele><time>2026-04-24T16:48:57.999Z</time></trkpt><trkpt lat="37.06665444286134" lon="15.059042515509184"><ele>456.4</ele><time>2026-04-24T16:48:58.999Z</time></trkpt><trkpt lat="37.066599305097284" lon="15.059114111587869"><ele>456.8</ele><time>2026-04-24T16:48:59.999Z</time></trkpt><trkpt lat="37.066526240990115" lon="15.059156131066189"><ele>457.19999999999993</ele><time>2026-04-24T16:49:00.999Z</time></trkpt><trkpt lat="37.06646885870447" lon="15.059271067058273"><ele>457.59999999999997</ele><time>2026-04-24T16:49:01.999Z</time></trkpt><trkpt lat="37.06638919845989" lon="15.05939204174937"><ele>458.0</ele><time>2026-04-24T16:49:02.999Z</time></trkpt><trkpt lat="37.06634947700909" lon="15.059765712760782"><ele>456.66666666666663</ele><time>2026-04-24T16:49:03.999Z</time></trkpt><trkpt lat="37.06628815532768" lon="15.059881339713757"><ele>455.33333333333337</ele><time>2026-04-24T16:49:04.999Z</time></trkpt><trkpt lat="37.066188007270895" lon="15.060105664460362"><ele>454.0</ele><time>2026-04-24T16:49:05.999Z</time></trkpt><trkpt lat="37.06612097850555" lon="15.060276128017811"><ele>454.0</ele><time>2026-04-24T16:49:06.999Z</time></trkpt><trkpt lat="37.0660929050299" lon="15.060437398059028"><ele>454.0</ele><time>2026-04-24T16:49:08.999Z</time></trkpt><trkpt lat="37.06613212814941" lon="15.060532352667456"><ele>454.0</ele><time>2026-04-24T16:49:09.999Z</time></trkpt><trkpt lat="37.06619092908552" lon="15.060617711560262"><ele>454.0</ele><time>2026-04-24T16:49:10.999Z</time></trkpt><trkpt lat="37.06621147459428" lon="15.060720377804454"><ele>454.0</ele><time>2026-04-24T16:49:11.999Z</time></trkpt><trkpt lat="37.06630173450531" lon="15.060873803324315"><ele>453.5</ele><time>2026-04-24T16:49:12.999Z</time></trkpt><trkpt lat="37.066359071637116" lon="15.061003264587372"><ele>453.0</ele><time>2026-04-24T16:49:13.999Z</time></trkpt><trkpt lat="37.06641936676233" lon="15.061137158281566"><ele>452.5</ele><time>2026-04-24T16:49:14.999Z</time></trkpt><trkpt lat="37.06648689076432" lon="15.06130120218367"><ele>452.0</ele><time>2026-04-24T16:49:15.999Z</time></trkpt><trkpt lat="37.06653954792503" lon="15.061491375176784"><ele>451.3333333333333</ele><time>2026-04-24T16:49:16.999Z</time></trkpt><trkpt lat="37.066599246672915" lon="15.061696843906583"><ele>450.66666666666663</ele><time>2026-04-24T16:49:17.999Z</time></trkpt><trkpt lat="37.06666959581003" lon="15.061889921696281"><ele>450.0</ele><time>2026-04-24T16:49:18.999Z</time></trkpt><trkpt lat="37.066711677433275" lon="15.062068122141701"><ele>449.33333333333337</ele><time>2026-04-24T16:49:19.999Z</time></trkpt><trkpt lat="37.066780680682825" lon="15.062239138904244"><ele>448.6666666666667</ele><time>2026-04-24T16:49:20.999Z</time></trkpt><trkpt lat="37.066830144445035" lon="15.062434037002387"><ele>448.0</ele><time>2026-04-24T16:49:21.999Z</time></trkpt><trkpt lat="37.06687476491237" lon="15.062596644164577"><ele>447.4</ele><time>2026-04-24T16:49:22.999Z</time></trkpt><trkpt lat="37.06691121760246" lon="15.062724580504806"><ele>446.79999999999995</ele><time>2026-04-24T16:49:23.999Z</time></trkpt><trkpt lat="37.06695456166891" lon="15.062851687261459"><ele>446.2</ele><time>2026-04-24T16:49:24.999Z</time></trkpt><trkpt lat="37.06699616050759" lon="15.062976336297101"><ele>445.6</ele><time>2026-04-24T16:49:25.999Z</time></trkpt><trkpt lat="37.06704146685539" lon="15.063098463534837"><ele>445.0</ele><time>2026-04-24T16:49:26.999Z</time></trkpt><trkpt lat="37.06709859102765" lon="15.063213850122573"><ele>444.5</ele><time>2026-04-24T16:49:27.999Z</time></trkpt><trkpt lat="37.06715450902072" lon="15.063337420805519"><ele>444.0</ele><time>2026-04-24T16:49:28.999Z</time></trkpt><trkpt lat="37.06721287266557" lon="15.063459458708536"><ele>443.5</ele><time>2026-04-24T16:49:29.999Z</time></trkpt><trkpt lat="37.06726821342655" lon="15.063582291309775"><ele>443.0</ele><time>2026-04-24T16:49:30.999Z</time></trkpt><trkpt lat="37.06733086607475" lon="15.063709606751015"><ele>443.0</ele><time>2026-04-24T16:49:31.999Z</time></trkpt><trkpt lat="37.067409693263635" lon="15.063819755405268"><ele>443.0</ele><time>2026-04-24T16:49:32.999Z</time></trkpt><trkpt lat="37.06749382205005" lon="15.063940574330438"><ele>443.0</ele><time>2026-04-24T16:49:33.999Z</time></trkpt><trkpt lat="37.06758565297124" lon="15.064062774449367"><ele>443.0</ele><time>2026-04-24T16:49:34.999Z</time></trkpt><trkpt lat="37.06767026851062" lon="15.064192498217393"><ele>441.75</ele><time>2026-04-24T16:49:35.999Z</time></trkpt><trkpt lat="37.06775406031984" lon="15.06430447739795"><ele>440.5</ele><time>2026-04-24T16:49:36.999Z</time></trkpt><trkpt lat="37.06783073286877" lon="15.064433340671023"><ele>439.25</ele><time>2026-04-24T16:49:37.999Z</time></trkpt><trkpt lat="37.06788444393675" lon="15.064590681973831"><ele>438.0</ele><time>2026-04-24T16:49:38.999Z</time></trkpt><trkpt lat="37.067961850755644" lon="15.064653381021733"><ele>438.0</ele><time>2026-04-24T16:49:39.999Z</time></trkpt><trkpt lat="37.06802668796181" lon="15.064751040867248"><ele>437.99999999999994</ele><time>2026-04-24T16:49:40.999Z</time></trkpt><trkpt lat="37.068081038421695" lon="15.064825763607201"><ele>437.99999999999994</ele><time>2026-04-24T16:49:41.999Z</time></trkpt><trkpt lat="37.0681530315535" lon="15.064935893521545"><ele>438.0</ele><time>2026-04-24T16:49:42.999Z</time></trkpt><trkpt lat="37.06818652859456" lon="15.06508242779463"><ele>438.0</ele><time>2026-04-24T16:49:43.999Z</time></trkpt><trkpt lat="37.06822237690308" lon="15.065212007453296"><ele>437.0</ele><time>2026-04-24T16:49:44.999Z</time></trkpt><trkpt lat="37.068246489465416" lon="15.065333034506587"><ele>435.99999999999994</ele><time>2026-04-24T16:49:45.999Z</time></trkpt><trkpt lat="37.06827156856225" lon="15.065472133956971"><ele>434.99999999999994</ele><time>2026-04-24T16:49:46.999Z</time></trkpt><trkpt lat="37.06830409439894" lon="15.065581416890923"><ele>434.0</ele><time>2026-04-24T16:49:47.999Z</time></trkpt><trkpt lat="37.068317159648316" lon="15.065692474382642"><ele>433.0</ele><time>2026-04-24T16:49:48.999Z</time></trkpt><trkpt lat="37.068367661115616" lon="15.065777419895175"><ele>432.79999999999995</ele><time>2026-04-24T16:49:50.999Z</time></trkpt><trkpt lat="37.06847365044658" lon="15.065754334992343"><ele>432.59999999999997</ele><time>2026-04-24T16:49:52.999Z</time></trkpt><trkpt lat="37.0685989623784" lon="15.065743683343827"><ele>432.40000000000003</ele><time>2026-04-24T16:49:54.999Z</time></trkpt><trkpt lat="37.06868186903258" lon="15.065733965043535"><ele>432.20000000000005</ele><time>2026-04-24T16:49:55.999Z</time></trkpt><trkpt lat="37.06874768961339" lon="15.065727633466052"><ele>432.0</ele><time>2026-04-24T16:49:56.998Z</time></trkpt><trkpt lat="37.06885792680416" lon="15.06577426364498"><ele>430.6666666666667</ele><time>2026-04-24T16:49:58.998Z</time></trkpt><trkpt lat="37.068909746167385" lon="15.065940265226065"><ele>429.33333333333337</ele><time>2026-04-24T16:50:00.998Z</time></trkpt><trkpt lat="37.06894639602458" lon="15.06604167871277"><ele>428.0</ele><time>2026-04-24T16:50:01.998Z</time></trkpt><trkpt lat="37.068966510898846" lon="15.0661299783734"><ele>426.6666666666667</ele><time>2026-04-24T16:50:02.998Z</time></trkpt><trkpt lat="37.06897234966049" lon="15.066214609895983"><ele>425.33333333333337</ele><time>2026-04-24T16:50:03.998Z</time></trkpt><trkpt lat="37.06896743127115" lon="15.066306896926823"><ele>424.0</ele><time>2026-04-24T16:50:04.998Z</time></trkpt><trkpt lat="37.06893748447189" lon="15.06638872891259"><ele>424.0</ele><time>2026-04-24T16:50:06Z</time></trkpt><trkpt lat="37.06890110344409" lon="15.066505659346639"><ele>424.0</ele><time>2026-04-24T16:50:07Z</time></trkpt><trkpt lat="37.06885271392242" lon="15.066635576592358"><ele>424.0</ele><time>2026-04-24T16:50:08Z</time></trkpt><trkpt lat="37.06879197854045" lon="15.066790881808814"><ele>424.0</ele><time>2026-04-24T16:50:09Z</time></trkpt><trkpt lat="37.06873420967195" lon="15.066937124064282"><ele>422.2</ele><time>2026-04-24T16:50:10Z</time></trkpt><trkpt lat="37.06870017086153" lon="15.067067419301928"><ele>420.4</ele><time>2026-04-24T16:50:11Z</time></trkpt><trkpt lat="37.06865583797224" lon="15.06717749549916"><ele>418.6</ele><time>2026-04-24T16:50:12Z</time></trkpt><trkpt lat="37.06860299399722" lon="15.06726591734139"><ele>416.8</ele><time>2026-04-24T16:50:13Z</time></trkpt><trkpt lat="37.06855764939969" lon="15.06743598709999"><ele>415.0</ele><time>2026-04-24T16:50:14Z</time></trkpt><trkpt lat="37.06851208824099" lon="15.067560451256872"><ele>414.4</ele><time>2026-04-24T16:50:15Z</time></trkpt><trkpt lat="37.06846823102836" lon="15.067678151130133"><ele>413.8</ele><time>2026-04-24T16:50:16Z</time></trkpt><trkpt lat="37.06839650179194" lon="15.067790580253728"><ele>413.20000000000005</ele><time>2026-04-24T16:50:17Z</time></trkpt><trkpt lat="37.06835722473823" lon="15.067932226052722"><ele>412.6</ele><time>2026-04-24T16:50:18Z</time></trkpt><trkpt lat="37.06830737507743" lon="15.068048124481034"><ele>412.0</ele><time>2026-04-24T16:50:19Z</time></trkpt><trkpt lat="37.06826632119558" lon="15.068163471635016"><ele>411.40000000000003</ele><time>2026-04-24T16:50:20Z</time></trkpt><trkpt lat="37.068226410145456" lon="15.06825613161975"><ele>410.8</ele><time>2026-04-24T16:50:21Z</time></trkpt><trkpt lat="37.06818992966082" lon="15.068345997011024"><ele>410.2</ele><time>2026-04-24T16:50:22Z</time></trkpt><trkpt lat="37.06815272412128" lon="15.0684342830542"><ele>409.6</ele><time>2026-04-24T16:50:23Z</time></trkpt><trkpt lat="37.0681645085603" lon="15.068577692662217"><ele>409.0</ele><time>2026-04-24T16:50:25Z</time></trkpt><trkpt lat="37.06822131975518" lon="15.06873577926886"><ele>409.6</ele><time>2026-04-24T16:50:27Z</time></trkpt><trkpt lat="37.06827512407913" lon="15.068805130000346"><ele>410.2</ele><time>2026-04-24T16:50:28Z</time></trkpt><trkpt lat="37.06834775181081" lon="15.068863167946896"><ele>410.8</ele><time>2026-04-24T16:50:29Z</time></trkpt><trkpt lat="37.06842253958108" lon="15.068908495833522"><ele>411.40000000000003</ele><time>2026-04-24T16:50:30Z</time></trkpt><trkpt lat="37.068503698587016" lon="15.068955596184416"><ele>412.0</ele><time>2026-04-24T16:50:31Z</time></trkpt><trkpt lat="37.06860677617411" lon="15.069029937549526"><ele>412.0</ele><time>2026-04-24T16:50:32Z</time></trkpt><trkpt lat="37.06869607646457" lon="15.069083893216103"><ele>412.0</ele><time>2026-04-24T16:50:33Z</time></trkpt><trkpt lat="37.068783228075254" lon="15.06913827558846"><ele>412.0</ele><time>2026-04-24T16:50:34Z</time></trkpt><trkpt lat="37.068864971680924" lon="15.069188698336637"><ele>412.0</ele><time>2026-04-24T16:50:35Z</time></trkpt><trkpt lat="37.06895441830856" lon="15.069252120433168"><ele>412.0</ele><time>2026-04-24T16:50:37Z</time></trkpt><trkpt lat="37.06901006863806" lon="15.06934522630879"><ele>411.20000000000005</ele><time>2026-04-24T16:50:39Z</time></trkpt><trkpt lat="37.06893619782955" lon="15.069431593682262"><ele>410.4</ele><time>2026-04-24T16:50:41Z</time></trkpt><trkpt lat="37.06894886918126" lon="15.069540390776444"><ele>409.6</ele><time>2026-04-24T16:50:42Z</time></trkpt><trkpt lat="37.06890136218405" lon="15.069646662008841"><ele>408.79999999999995</ele><time>2026-04-24T16:50:43Z</time></trkpt><trkpt lat="37.06885124787087" lon="15.06975273615454"><ele>408.0</ele><time>2026-04-24T16:50:44Z</time></trkpt><trkpt lat="37.06880479599206" lon="15.069865133621894"><ele>406.59999999999997</ele><time>2026-04-24T16:50:45Z</time></trkpt><trkpt lat="37.068761573098385" lon="15.06996418228028"><ele>405.2</ele><time>2026-04-24T16:50:46Z</time></trkpt><trkpt lat="37.06871166963207" lon="15.070080396641112"><ele>403.8</ele><time>2026-04-24T16:50:47Z</time></trkpt><trkpt lat="37.06866680647547" lon="15.070186289983987"><ele>402.4</ele><time>2026-04-24T16:50:48Z</time></trkpt><trkpt lat="37.0685919184962" lon="15.070272966388055"><ele>401.0</ele><time>2026-04-24T16:50:49Z</time></trkpt><trkpt lat="37.06855205562576" lon="15.070365541198903"><ele>401.0</ele><time>2026-04-24T16:50:50Z</time></trkpt><trkpt lat="37.06851236510137" lon="15.070457715746128"><ele>401.0</ele><time>2026-04-24T16:50:50.999Z</time></trkpt><trkpt lat="37.0684723105035" lon="15.070550735759774"><ele>401.0</ele><time>2026-04-24T16:50:51.999Z</time></trkpt><trkpt lat="37.068426964364825" lon="15.070656044584513"><ele>401.0</ele><time>2026-04-24T16:50:52.999Z</time></trkpt><trkpt lat="37.068378713756566" lon="15.070767801859425"><ele>401.0</ele><time>2026-04-24T16:50:53.999Z</time></trkpt><trkpt lat="37.068335767327405" lon="15.070867111891049"><ele>399.20000000000005</ele><time>2026-04-24T16:50:54.999Z</time></trkpt><trkpt lat="37.06828750416723" lon="15.070978716351478"><ele>397.40000000000003</ele><time>2026-04-24T16:50:55.999Z</time></trkpt><trkpt lat="37.06823530339793" lon="15.071099426194452"><ele>395.6</ele><time>2026-04-24T16:50:56.999Z</time></trkpt><trkpt lat="37.06818995318536" lon="15.071204294750562"><ele>393.8</ele><time>2026-04-24T16:50:57.999Z</time></trkpt><trkpt lat="37.068144129822" lon="15.071310257430067"><ele>392.0</ele><time>2026-04-24T16:50:58.999Z</time></trkpt><trkpt lat="37.068103724847674" lon="15.071404692634763"><ele>391.40000000000003</ele><time>2026-04-24T16:50:59.999Z</time></trkpt><trkpt lat="37.06806693570465" lon="15.071504212225143"><ele>390.8</ele><time>2026-04-24T16:51:00.999Z</time></trkpt><trkpt lat="37.06804276917485" lon="15.071605821679034"><ele>390.2</ele><time>2026-04-24T16:51:01.999Z</time></trkpt><trkpt lat="37.068055754786045" lon="15.07175421780287"><ele>389.6</ele><time>2026-04-24T16:51:03.999Z</time></trkpt><trkpt lat="37.068105861690924" lon="15.071869405791478"><ele>389.0</ele><time>2026-04-24T16:51:04.999Z</time></trkpt><trkpt lat="37.0681653617572" lon="15.071983832351625"><ele>388.2</ele><time>2026-04-24T16:51:05.999Z</time></trkpt><trkpt lat="37.068198289495555" lon="15.072120965315426"><ele>387.4</ele><time>2026-04-24T16:51:06.999Z</time></trkpt><trkpt lat="37.06824473849329" lon="15.072242980889138"><ele>386.6</ele><time>2026-04-24T16:51:07.999Z</time></trkpt><trkpt lat="37.06830774567658" lon="15.072353577690825"><ele>385.8</ele><time>2026-04-24T16:51:08.999Z</time></trkpt><trkpt lat="37.06835216860615" lon="15.072467546536267"><ele>385.0</ele><time>2026-04-24T16:51:09.999Z</time></trkpt><trkpt lat="37.06840466910729" lon="15.072575902671439"><ele>383.6</ele><time>2026-04-24T16:51:10.999Z</time></trkpt><trkpt lat="37.06845590893622" lon="15.072667736914894"><ele>382.2</ele><time>2026-04-24T16:51:11.999Z</time></trkpt><trkpt lat="37.06851221061352" lon="15.072761732669646"><ele>380.79999999999995</ele><time>2026-04-24T16:51:12.999Z</time></trkpt><trkpt lat="37.06860576768342" lon="15.072844112270861"><ele>379.4</ele><time>2026-04-24T16:51:13.999Z</time></trkpt><trkpt lat="37.06866405220059" lon="15.072936298073444"><ele>378.0</ele><time>2026-04-24T16:51:14.999Z</time></trkpt><trkpt lat="37.06874014228226" lon="15.073022297749793"><ele>378.0</ele><time>2026-04-24T16:51:15.999Z</time></trkpt><trkpt lat="37.068820372228494" lon="15.073112976475041"><ele>378.0</ele><time>2026-04-24T16:51:16.999Z</time></trkpt><trkpt lat="37.06891094050781" lon="15.073220240445613"><ele>378.0</ele><time>2026-04-24T16:51:17.999Z</time></trkpt><trkpt lat="37.06900360072445" lon="15.073318827263106"><ele>378.0</ele><time>2026-04-24T16:51:18.999Z</time></trkpt><trkpt lat="37.06906772581467" lon="15.073431771516477"><ele>376.5</ele><time>2026-04-24T16:51:19.999Z</time></trkpt><trkpt lat="37.06913959006633" lon="15.073540727024643"><ele>375.0</ele><time>2026-04-24T16:51:20.999Z</time></trkpt><trkpt lat="37.06921438099425" lon="15.073660408983487"><ele>373.5</ele><time>2026-04-24T16:51:21.999Z</time></trkpt><trkpt lat="37.06929009925494" lon="15.073785108351055"><ele>372.0</ele><time>2026-04-24T16:51:22.999Z</time></trkpt><trkpt lat="37.06934398095794" lon="15.073880275162333"><ele>372.0</ele><time>2026-04-24T16:51:23.999Z</time></trkpt><trkpt lat="37.06940704073825" lon="15.07400151310031"><ele>372.0</ele><time>2026-04-24T16:51:24.999Z</time></trkpt><trkpt lat="37.06946467286397" lon="15.074131081894299"><ele>372.0</ele><time>2026-04-24T16:51:25.999Z</time></trkpt><trkpt lat="37.069518613513566" lon="15.074260472213053"><ele>372.0</ele><time>2026-04-24T16:51:26.999Z</time></trkpt><trkpt lat="37.069576127328915" lon="15.07440249150922"><ele>370.6666666666667</ele><time>2026-04-24T16:51:27.999Z</time></trkpt><trkpt lat="37.0696386747698" lon="15.074553675027635"><ele>369.33333333333337</ele><time>2026-04-24T16:51:28.999Z</time></trkpt><trkpt lat="37.06972796094946" lon="15.074723398821563"><ele>368.0</ele><time>2026-04-24T16:51:29.999Z</time></trkpt><trkpt lat="37.06979746727852" lon="15.074896339255115"><ele>366.6666666666667</ele><time>2026-04-24T16:51:30.999Z</time></trkpt><trkpt lat="37.06986592112569" lon="15.07507732922998"><ele>365.3333333333333</ele><time>2026-04-24T16:51:31.999Z</time></trkpt><trkpt lat="37.06993792794108" lon="15.075251448767228"><ele>364.0</ele><time>2026-04-24T16:51:32.999Z</time></trkpt><trkpt lat="37.06999132261864" lon="15.075425444638034"><ele>364.0</ele><time>2026-04-24T16:51:33.999Z</time></trkpt><trkpt lat="37.07005421052754" lon="15.075583707016468"><ele>364.0</ele><time>2026-04-24T16:51:34.999Z</time></trkpt><trkpt lat="37.07011623381773" lon="15.075739793495487"><ele>364.0</ele><time>2026-04-24T16:51:35.999Z</time></trkpt><trkpt lat="37.070194487534565" lon="15.075895415229047"><ele>364.0</ele><time>2026-04-24T16:51:36.999Z</time></trkpt><trkpt lat="37.07024218851679" lon="15.076039153433431"><ele>363.4</ele><time>2026-04-24T16:51:37.999Z</time></trkpt><trkpt lat="37.07029576760785" lon="15.076169093966573"><ele>362.79999999999995</ele><time>2026-04-24T16:51:38.999Z</time></trkpt><trkpt lat="37.07034782752649" lon="15.076293592541267"><ele>362.20000000000005</ele><time>2026-04-24T16:51:39.999Z</time></trkpt><trkpt lat="37.0704003858551" lon="15.07640336417035"><ele>361.6</ele><time>2026-04-24T16:51:40.999Z</time></trkpt><trkpt lat="37.070453758303955" lon="15.076522124451724"><ele>361.0</ele><time>2026-04-24T16:51:41.999Z</time></trkpt><trkpt lat="37.07050800918714" lon="15.076646190428335"><ele>361.0</ele><time>2026-04-24T16:51:42.999Z</time></trkpt><trkpt lat="37.07057066630875" lon="15.076774231315532"><ele>361.0</ele><time>2026-04-24T16:51:43.999Z</time></trkpt><trkpt lat="37.070620714386514" lon="15.07688851824649"><ele>361.0</ele><time>2026-04-24T16:51:44.999Z</time></trkpt><trkpt lat="37.070649924429794" lon="15.077018897134398"><ele>361.0</ele><time>2026-04-24T16:51:45.999Z</time></trkpt><trkpt lat="37.07071251609666" lon="15.07717246770231"><ele>361.0</ele><time>2026-04-24T16:51:46.999Z</time></trkpt><trkpt lat="37.07075925219565" lon="15.077326176358868"><ele>361.0</ele><time>2026-04-24T16:51:47.999Z</time></trkpt><trkpt lat="37.07078220263453" lon="15.077474270587341"><ele>361.0</ele><time>2026-04-24T16:51:48.999Z</time></trkpt><trkpt lat="37.07082803447073" lon="15.07761709216341"><ele>361.0</ele><time>2026-04-24T16:51:49.999Z</time></trkpt><trkpt lat="37.0708577589552" lon="15.077770430520472"><ele>361.25</ele><time>2026-04-24T16:51:50.999Z</time></trkpt><trkpt lat="37.07087911946005" lon="15.077921320957987"><ele>361.5</ele><time>2026-04-24T16:51:51.999Z</time></trkpt><trkpt lat="37.07090491453814" lon="15.07805179654091"><ele>361.75</ele><time>2026-04-24T16:51:52.999Z</time></trkpt><trkpt lat="37.07090479606483" lon="15.078205061756975"><ele>362.0</ele><time>2026-04-24T16:51:53.999Z</time></trkpt><trkpt lat="37.07090873111758" lon="15.078343020912625"><ele>361.25</ele><time>2026-04-24T16:51:54.999Z</time></trkpt><trkpt lat="37.07090578493624" lon="15.07848361299511"><ele>360.5</ele><time>2026-04-24T16:51:55.999Z</time></trkpt><trkpt lat="37.0708978729459" lon="15.078624942363573"><ele>359.75</ele><time>2026-04-24T16:51:56.999Z</time></trkpt><trkpt lat="37.070886704985114" lon="15.07878292194829"><ele>359.0</ele><time>2026-04-24T16:51:57.999Z</time></trkpt><trkpt lat="37.07087630586009" lon="15.07893002579962"><ele>359.0</ele><time>2026-04-24T16:51:58.999Z</time></trkpt><trkpt lat="37.070866206044336" lon="15.079072895598419"><ele>359.0</ele><time>2026-04-24T16:51:59.999Z</time></trkpt><trkpt lat="37.07086744860404" lon="15.079238663414317"><ele>359.0</ele><time>2026-04-24T16:52:00.999Z</time></trkpt><trkpt lat="37.070855424530386" lon="15.079395267105177"><ele>359.0</ele><time>2026-04-24T16:52:01.998Z</time></trkpt><trkpt lat="37.07082996824152" lon="15.079550661877276"><ele>358.79999999999995</ele><time>2026-04-24T16:52:02.998Z</time></trkpt><trkpt lat="37.07080320405424" lon="15.079688182663649"><ele>358.59999999999997</ele><time>2026-04-24T16:52:03.998Z</time></trkpt><trkpt lat="37.07078266001017" lon="15.079813632807777"><ele>358.4</ele><time>2026-04-24T16:52:04.998Z</time></trkpt><trkpt lat="37.07075310626645" lon="15.079944821927304"><ele>358.2</ele><time>2026-04-24T16:52:05.998Z</time></trkpt><trkpt lat="37.070724293056124" lon="15.08006816437435"><ele>358.0</ele><time>2026-04-24T16:52:06.998Z</time></trkpt><trkpt lat="37.07069909039936" lon="15.080198013082173"><ele>356.0</ele><time>2026-04-24T16:52:07.998Z</time></trkpt><trkpt lat="37.07068088357004" lon="15.080320621495384"><ele>354.0</ele><time>2026-04-24T16:52:08.998Z</time></trkpt><trkpt lat="37.07066773855566" lon="15.080441909886408"><ele>352.0</ele><time>2026-04-24T16:52:09.998Z</time></trkpt><trkpt lat="37.07065868257615" lon="15.080572652187286"><ele>350.0</ele><time>2026-04-24T16:52:10.998Z</time></trkpt><trkpt lat="37.07062903747832" lon="15.080721353627954"><ele>348.0</ele><time>2026-04-24T16:52:12Z</time></trkpt><trkpt lat="37.07062880125081" lon="15.08087315244245"><ele>348.0</ele><time>2026-04-24T16:52:13Z</time></trkpt><trkpt lat="37.07060845997066" lon="15.081011130772831"><ele>348.0</ele><time>2026-04-24T16:52:14Z</time></trkpt><trkpt lat="37.070594530915756" lon="15.081149427085453"><ele>348.0</ele><time>2026-04-24T16:52:15Z</time></trkpt><trkpt lat="37.07057758571541" lon="15.081290090558173"><ele>348.0</ele><time>2026-04-24T16:52:16Z</time></trkpt><trkpt lat="37.070563755361746" lon="15.081423202772925"><ele>348.0</ele><time>2026-04-24T16:52:17Z</time></trkpt><trkpt lat="37.070564308396534" lon="15.08155110059854"><ele>347.59999999999997</ele><time>2026-04-24T16:52:18Z</time></trkpt><trkpt lat="37.07057274942658" lon="15.081670372805656"><ele>347.2</ele><time>2026-04-24T16:52:19Z</time></trkpt><trkpt lat="37.07057854039232" lon="15.08178182719647"><ele>346.8</ele><time>2026-04-24T16:52:20Z</time></trkpt><trkpt lat="37.070563746635294" lon="15.081893190585527"><ele>346.4</ele><time>2026-04-24T16:52:21Z</time></trkpt><trkpt lat="37.07056643588646" lon="15.081998169574867"><ele>346.0</ele><time>2026-04-24T16:52:22Z</time></trkpt><trkpt lat="37.07057163058764" lon="15.082131873193639"><ele>346.0</ele><time>2026-04-24T16:52:23Z</time></trkpt><trkpt lat="37.07058998328916" lon="15.082257719409142"><ele>346.0</ele><time>2026-04-24T16:52:24Z</time></trkpt><trkpt lat="37.070597901577926" lon="15.082391872016915"><ele>346.0</ele><time>2026-04-24T16:52:25Z</time></trkpt><trkpt lat="37.07061183643386" lon="15.082524238605352"><ele>346.0</ele><time>2026-04-24T16:52:26Z</time></trkpt><trkpt lat="37.07061944349405" lon="15.082654925319774"><ele>346.0</ele><time>2026-04-24T16:52:27Z</time></trkpt><trkpt lat="37.07062588578367" lon="15.082772876845846"><ele>345.8</ele><time>2026-04-24T16:52:28Z</time></trkpt><trkpt lat="37.070639050410605" lon="15.082894836854363"><ele>345.6</ele><time>2026-04-24T16:52:29Z</time></trkpt><trkpt lat="37.07064905576487" lon="15.083009566855022"><ele>345.4</ele><time>2026-04-24T16:52:30Z</time></trkpt><trkpt lat="37.07065911616502" lon="15.083126069569234"><ele>345.2</ele><time>2026-04-24T16:52:31Z</time></trkpt><trkpt lat="37.07067775362492" lon="15.08324895380697"><ele>345.0</ele><time>2026-04-24T16:52:32Z</time></trkpt><trkpt lat="37.07069484073945" lon="15.083377623156201"><ele>345.6</ele><time>2026-04-24T16:52:33Z</time></trkpt><trkpt lat="37.070712521786724" lon="15.083501081219788"><ele>346.2</ele><time>2026-04-24T16:52:34Z</time></trkpt><trkpt lat="37.07072448805428" lon="15.083624905789431"><ele>346.79999999999995</ele><time>2026-04-24T16:52:35Z</time></trkpt><trkpt lat="37.07074101569526" lon="15.083736150760444"><ele>347.4</ele><time>2026-04-24T16:52:36Z</time></trkpt><trkpt lat="37.0707560151666" lon="15.083855567864317"><ele>348.0</ele><time>2026-04-24T16:52:37Z</time></trkpt><trkpt lat="37.0707774966043" lon="15.083992912412743"><ele>347.5</ele><time>2026-04-24T16:52:38Z</time></trkpt><trkpt lat="37.070793864491044" lon="15.084104112347754"><ele>347.0</ele><time>2026-04-24T16:52:39Z</time></trkpt><trkpt lat="37.070810511429414" lon="15.084225931963017"><ele>346.5</ele><time>2026-04-24T16:52:40Z</time></trkpt><trkpt lat="37.07082486101434" lon="15.084327348768117"><ele>346.0</ele><time>2026-04-24T16:52:41Z</time></trkpt><trkpt lat="37.07083626146874" lon="15.084422458863685"><ele>345.5</ele><time>2026-04-24T16:52:42Z</time></trkpt><trkpt lat="37.07084848446529" lon="15.084524140185124"><ele>345.0</ele><time>2026-04-24T16:52:43Z</time></trkpt><trkpt lat="37.07084464597833" lon="15.08462811136357"><ele>345.0</ele><time>2026-04-24T16:52:44Z</time></trkpt><trkpt lat="37.07085293348304" lon="15.084711284903268"><ele>345.0</ele><time>2026-04-24T16:52:45Z</time></trkpt><trkpt lat="37.07085908876757" lon="15.084809205304898"><ele>345.0</ele><time>2026-04-24T16:52:46Z</time></trkpt><trkpt lat="37.07086464862519" lon="15.084905433787908"><ele>345.0</ele><time>2026-04-24T16:52:47Z</time></trkpt><trkpt lat="37.070871160271956" lon="15.085051169092788"><ele>345.0</ele><time>2026-04-24T16:52:49Z</time></trkpt><trkpt lat="37.070875935261626" lon="15.085180094021686"><ele>345.0</ele><time>2026-04-24T16:52:51Z</time></trkpt><trkpt lat="37.07089393197087" lon="15.08530107461937"><ele>344.4</ele><time>2026-04-24T16:52:53Z</time></trkpt><trkpt lat="37.070879616368394" lon="15.085509046944376"><ele>343.8</ele><time>2026-04-24T16:52:55Z</time></trkpt><trkpt lat="37.07087939373098" lon="15.085597771590843"><ele>343.20000000000005</ele><time>2026-04-24T16:52:55.999Z</time></trkpt><trkpt lat="37.070877715380334" lon="15.085746745159147"><ele>342.6</ele><time>2026-04-24T16:52:57.999Z</time></trkpt><trkpt lat="37.07087643200649" lon="15.085860659704542"><ele>342.0</ele><time>2026-04-24T16:52:59.999Z</time></trkpt><trkpt lat="37.07087458637379" lon="15.085983874338481"><ele>340.8</ele><time>2026-04-24T16:53:01.999Z</time></trkpt><trkpt lat="37.070872998930746" lon="15.086063246626926"><ele>339.6</ele><time>2026-04-24T16:53:02.999Z</time></trkpt><trkpt lat="37.070884047312255" lon="15.086197957569029"><ele>338.40000000000003</ele><time>2026-04-24T16:53:04.999Z</time></trkpt><trkpt lat="37.07086542576503" lon="15.086327253131941"><ele>337.20000000000005</ele><time>2026-04-24T16:53:06.999Z</time></trkpt><trkpt lat="37.070861061105155" lon="15.086473099057455"><ele>336.0</ele><time>2026-04-24T16:53:08.999Z</time></trkpt><trkpt lat="37.0708703827229" lon="15.08659154688485"><ele>335.20000000000005</ele><time>2026-04-24T16:53:10.999Z</time></trkpt><trkpt lat="37.0708629708588" lon="15.086699618252055"><ele>334.40000000000003</ele><time>2026-04-24T16:53:12.999Z</time></trkpt><trkpt lat="37.0708476828876" lon="15.086850681541561"><ele>333.6</ele><time>2026-04-24T16:53:14.999Z</time></trkpt><trkpt lat="37.0708443333779" lon="15.086931851239056"><ele>332.8</ele><time>2026-04-24T16:53:15.999Z</time></trkpt><trkpt lat="37.070839001566135" lon="15.08705924231976"><ele>332.0</ele><time>2026-04-24T16:53:17.999Z</time></trkpt><trkpt lat="37.07083314701057" lon="15.087192630334778"><ele>332.0</ele><time>2026-04-24T16:53:19.999Z</time></trkpt><trkpt lat="37.07084359040883" lon="15.087276948503971"><ele>332.0</ele><time>2026-04-24T16:53:20.999Z</time></trkpt><trkpt lat="37.07083064655164" lon="15.087409562523387"><ele>332.0</ele><time>2026-04-24T16:53:22.999Z</time></trkpt><trkpt lat="37.070819009058354" lon="15.087514744200917"><ele>332.0</ele><time>2026-04-24T16:53:24.999Z</time></trkpt><trkpt lat="37.07081397336125" lon="15.087629475584286"><ele>332.0</ele><time>2026-04-24T16:53:26.999Z</time></trkpt><trkpt lat="37.07082480708906" lon="15.087736597287643"><ele>332.0</ele><time>2026-04-24T16:53:28.999Z</time></trkpt><trkpt lat="37.07081483964928" lon="15.087839351799586"><ele>331.33333333333337</ele><time>2026-04-24T16:53:30.999Z</time></trkpt><trkpt lat="37.07082654730885" lon="15.087931794572954"><ele>330.6666666666667</ele><time>2026-04-24T16:53:32.999Z</time></trkpt><trkpt lat="37.0708179509863" lon="15.088016353066484"><ele>330.0</ele><time>2026-04-24T16:53:34.999Z</time></trkpt><trkpt lat="37.07081251666873" lon="15.088123859626444"><ele>329.3333333333333</ele><time>2026-04-24T16:53:36.999Z</time></trkpt><trkpt lat="37.07080550931742" lon="15.088245950591222"><ele>328.66666666666663</ele><time>2026-04-24T16:53:38.999Z</time></trkpt><trkpt lat="37.07080742597086" lon="15.088342032360028"><ele>328.0</ele><time>2026-04-24T16:53:39.999Z</time></trkpt><trkpt lat="37.07080081889868" lon="15.088467795796985"><ele>327.3333333333333</ele><time>2026-04-24T16:53:41.999Z</time></trkpt><trkpt lat="37.07079624776934" lon="15.088565087649828"><ele>326.66666666666663</ele><time>2026-04-24T16:53:43.999Z</time></trkpt><trkpt lat="37.0707794716127" lon="15.088671770184488"><ele>326.0</ele><time>2026-04-24T16:53:45.999Z</time></trkpt><trkpt lat="37.070784895565694" lon="15.088789229676067"><ele>325.3333333333333</ele><time>2026-04-24T16:53:47.999Z</time></trkpt><trkpt lat="37.07078063340352" lon="15.088868600895697"><ele>324.6666666666667</ele><time>2026-04-24T16:53:49.999Z</time></trkpt><trkpt lat="37.07078486731053" lon="15.08896306374973"><ele>324.0</ele><time>2026-04-24T16:53:51.999Z</time></trkpt><trkpt lat="37.07076834747614" lon="15.08904051982867"><ele>323.2857142857143</ele><time>2026-04-24T16:54:17Z</time></trkpt><trkpt lat="37.07077681301821" lon="15.089124548296168"><ele>322.57142857142856</ele><time>2026-04-24T16:54:28Z</time></trkpt><trkpt lat="37.070772153212744" lon="15.089210555673471"><ele>321.8571428571429</ele><time>2026-04-24T16:54:33Z</time></trkpt><trkpt lat="37.070764112785014" lon="15.089306004780836"><ele>321.1428571428571</ele><time>2026-04-24T16:54:39Z</time></trkpt><trkpt lat="37.0707574180881" lon="15.089391392620348"><ele>320.4285714285714</ele><time>2026-04-24T16:54:45Z</time></trkpt><trkpt lat="37.07073468641057" lon="15.089515367162072"><ele>319.7142857142857</ele><time>2026-04-24T16:54:49Z</time></trkpt><trkpt lat="37.07075280803926" lon="15.089595573515828"><ele>319.0</ele><time>2026-04-24T16:54:52Z</time></trkpt><trkpt lat="37.070755325360516" lon="15.089708101596369"><ele>318.14285714285717</ele><time>2026-04-24T16:54:55Z</time></trkpt><trkpt lat="37.070758276520344" lon="15.089810936656804"><ele>317.2857142857143</ele><time>2026-04-24T16:54:58Z</time></trkpt><trkpt lat="37.07074558808594" lon="15.08989320524008"><ele>316.42857142857144</ele><time>2026-04-24T16:55:07Z</time></trkpt><trkpt lat="37.07077117871598" lon="15.089973824346393"><ele>315.57142857142856</ele><time>2026-04-24T16:55:13.999Z</time></trkpt><trkpt lat="37.07076416002896" lon="15.09005861454399"><ele>314.7142857142857</ele><time>2026-04-24T16:55:17.999Z</time></trkpt><trkpt lat="37.07076506234088" lon="15.09014737198937"><ele>313.85714285714283</ele><time>2026-04-24T16:55:24.999Z</time></trkpt><trkpt lat="37.070777054247955" lon="15.09023559742516"><ele>313.0</ele><time>2026-04-24T16:55:30.999Z</time></trkpt><trkpt lat="37.0707614867998" lon="15.090315296053541"><ele>312.85714285714283</ele><time>2026-04-24T16:55:34.999Z</time></trkpt><trkpt lat="37.07074588786574" lon="15.090397038584506"><ele>312.7142857142857</ele><time>2026-04-24T16:55:38.999Z</time></trkpt><trkpt lat="37.07076739853613" lon="15.090491218975473"><ele>312.57142857142856</ele><time>2026-04-24T16:55:42.999Z</time></trkpt><trkpt lat="37.07077147703789" lon="15.090585043604753"><ele>312.42857142857144</ele><time>2026-04-24T16:55:46.999Z</time></trkpt><trkpt lat="37.070776233237105" lon="15.090678983683752"><ele>312.2857142857143</ele><time>2026-04-24T16:55:48.999Z</time></trkpt><trkpt lat="37.07077967426839" lon="15.090775448996018"><ele>312.14285714285717</ele><time>2026-04-24T16:55:50.999Z</time></trkpt><trkpt lat="37.07078621666198" lon="15.09086164443156"><ele>312.0</ele><time>2026-04-24T16:55:52.999Z</time></trkpt><trkpt lat="37.070798425436095" lon="15.090961442021555"><ele>311.0</ele><time>2026-04-24T16:55:54.999Z</time></trkpt><trkpt lat="37.070789322775525" lon="15.091058964066164"><ele>310.0</ele><time>2026-04-24T16:55:56.999Z</time></trkpt><trkpt lat="37.07078694705617" lon="15.091158529612214"><ele>309.0</ele><time>2026-04-24T16:55:58.999Z</time></trkpt><trkpt lat="37.070777565011085" lon="15.091292538038877"><ele>308.0</ele><time>2026-04-24T16:56:00.999Z</time></trkpt><trkpt lat="37.070758434279924" lon="15.091408551249655"><ele>307.0</ele><time>2026-04-24T16:56:02.999Z</time></trkpt><trkpt lat="37.07077116834319" lon="15.091506551118227"><ele>306.0</ele><time>2026-04-24T16:56:05.999Z</time></trkpt><trkpt lat="37.07080604363127" lon="15.091576852016791"><ele>305.0</ele><time>2026-04-24T16:56:09.999Z</time></trkpt><trkpt lat="37.07080771156304" lon="15.091670807557929"><ele>304.0</ele><time>2026-04-24T16:56:17.999Z</time></trkpt><trkpt lat="37.07078399659091" lon="15.091751464860199"><ele>303.0</ele><time>2026-04-24T16:56:25Z</time></trkpt><trkpt lat="37.07081018733536" lon="15.09182760018125"><ele>302.0</ele><time>2026-04-24T16:56:30Z</time></trkpt><trkpt lat="37.07079202849224" lon="15.091936757310554"><ele>301.0</ele><time>2026-04-24T16:56:53Z</time></trkpt><trkpt lat="37.07079830774595" lon="15.092017301081345"><ele>300.0</ele><time>2026-04-24T16:57:02Z</time></trkpt><trkpt lat="37.070800327029744" lon="15.092111021326113"><ele>299.0</ele><time>2026-04-24T16:57:09Z</time></trkpt><trkpt lat="37.07080759974155" lon="15.092195280397267"><ele>299.0</ele><time>2026-04-24T16:57:12Z</time></trkpt><trkpt lat="37.07079162112326" lon="15.092272105775521"><ele>299.0</ele><time>2026-04-24T16:57:28.999Z</time></trkpt><trkpt lat="37.070799948148355" lon="15.092350877015255"><ele>299.0</ele><time>2026-04-24T16:57:39.999Z</time></trkpt><trkpt lat="37.07078181765494" lon="15.092432421814845"><ele>299.0</ele><time>2026-04-24T16:58:44Z</time></trkpt><trkpt lat="37.070783445454886" lon="15.092519028577456"><ele>299.0</ele><time>2026-04-24T16:59:47.999Z</time></trkpt><trkpt lat="37.07077649073673" lon="15.09261013084971"><ele>299.0</ele><time>2026-04-24T17:00:24.999Z</time></trkpt><trkpt lat="37.07080511125189" lon="15.092691613490015"><ele>299.0</ele><time>2026-04-24T17:01:39.999Z</time></trkpt><trkpt lat="37.07078101976046" lon="15.092766067051263"><ele>297.57142857142856</ele><time>2026-04-24T17:02:10.999Z</time></trkpt><trkpt lat="37.070790525774704" lon="15.092849966526686"><ele>296.14285714285717</ele><time>2026-04-24T17:02:16.999Z</time></trkpt><trkpt lat="37.07079542856977" lon="15.092944992523687"><ele>294.7142857142857</ele><time>2026-04-24T17:02:19.999Z</time></trkpt><trkpt lat="37.07080513673946" lon="15.093035651897406"><ele>293.2857142857143</ele><time>2026-04-24T17:02:25.999Z</time></trkpt><trkpt lat="37.07080294739457" lon="15.09313888285105"><ele>291.85714285714283</ele><time>2026-04-24T17:02:33.999Z</time></trkpt><trkpt lat="37.07080918771935" lon="15.093227866418799"><ele>290.42857142857144</ele><time>2026-04-24T17:02:36.998Z</time></trkpt><trkpt lat="37.07081193128968" lon="15.093319477730047"><ele>289.0</ele><time>2026-04-24T17:02:42Z</time></trkpt><trkpt lat="37.07080386416934" lon="15.093412657778185"><ele>287.42857142857144</ele><time>2026-04-24T17:02:46Z</time></trkpt><trkpt lat="37.07080944564739" lon="15.093509982679919"><ele>285.85714285714283</ele><time>2026-04-24T17:02:53Z</time></trkpt><trkpt lat="37.07081535630782" lon="15.093592154080405"><ele>284.2857142857143</ele><time>2026-04-24T17:02:59Z</time></trkpt><trkpt lat="37.07082928791891" lon="15.093693558767663"><ele>282.7142857142857</ele><time>2026-04-24T17:03:03Z</time></trkpt><trkpt lat="37.07079573259467" lon="15.093760849813405"><ele>281.14285714285717</ele><time>2026-04-24T17:03:07Z</time></trkpt><trkpt lat="37.070828090908954" lon="15.093847165039705"><ele>279.57142857142856</ele><time>2026-04-24T17:03:10Z</time></trkpt><trkpt lat="37.07080600299749" lon="15.093943333309353"><ele>278.0</ele><time>2026-04-24T17:03:13Z</time></trkpt><trkpt lat="37.07079988152946" lon="15.094047449039387"><ele>277.57142857142856</ele><time>2026-04-24T17:03:16Z</time></trkpt><trkpt lat="37.070795161068155" lon="15.094145636240855"><ele>277.14285714285717</ele><time>2026-04-24T17:03:18Z</time></trkpt><trkpt lat="37.070809084860656" lon="15.094239512922906"><ele>276.7142857142857</ele><time>2026-04-24T17:03:20Z</time></trkpt><trkpt lat="37.070815330124866" lon="15.094349054487317"><ele>276.2857142857143</ele><time>2026-04-24T17:03:22Z</time></trkpt><trkpt lat="37.07079731085212" lon="15.094425490192627"><ele>275.85714285714283</ele><time>2026-04-24T17:03:24Z</time></trkpt><trkpt lat="37.07080275301871" lon="15.094522084983597"><ele>275.42857142857144</ele><time>2026-04-24T17:03:26Z</time></trkpt><trkpt lat="37.07079799939455" lon="15.09460494348472"><ele>275.0</ele><time>2026-04-24T17:03:28Z</time></trkpt><trkpt lat="37.070799616418945" lon="15.094687826358088"><ele>275.0</ele><time>2026-04-24T17:03:30Z</time></trkpt><trkpt lat="37.0707802587356" lon="15.094767910133298"><ele>275.0</ele><time>2026-04-24T17:03:32Z</time></trkpt><trkpt lat="37.0707397005046" lon="15.094843878846383"><ele>275.0</ele><time>2026-04-24T17:03:34.999Z</time></trkpt><trkpt lat="37.07070975972446" lon="15.094916848186557"><ele>275.0</ele><time>2026-04-24T17:03:36.999Z</time></trkpt><trkpt lat="37.07065819308754" lon="15.095024426350346"><ele>275.0</ele><time>2026-04-24T17:03:46.999Z</time></trkpt><trkpt lat="37.07058850082405" lon="15.095202957347169"><ele>271.2</ele><time>2026-04-24T17:03:48.999Z</time></trkpt><trkpt lat="37.070538972588906" lon="15.095331559524382"><ele>267.4</ele><time>2026-04-24T17:03:49.999Z</time></trkpt><trkpt lat="37.07050768475465" lon="15.09543591116453"><ele>263.6</ele><time>2026-04-24T17:03:50.999Z</time></trkpt><trkpt lat="37.07047448355041" lon="15.095526376683551"><ele>259.8</ele><time>2026-04-24T17:03:51.999Z</time></trkpt><trkpt lat="37.07043343018661" lon="15.095625300438098"><ele>256.0</ele><time>2026-04-24T17:03:52.999Z</time></trkpt><trkpt lat="37.070384679513914" lon="15.095724981540096"><ele>257.0</ele><time>2026-04-24T17:03:53.999Z</time></trkpt><trkpt lat="37.07034912888667" lon="15.09582001757079"><ele>258.0</ele><time>2026-04-24T17:03:54.999Z</time></trkpt><trkpt lat="37.070326025370555" lon="15.095917575256003"><ele>259.0</ele><time>2026-04-24T17:03:55.999Z</time></trkpt><trkpt lat="37.07032007919631" lon="15.096018243830235"><ele>260.0</ele><time>2026-04-24T17:03:56.999Z</time></trkpt><trkpt lat="37.07030593120902" lon="15.096137632728503"><ele>261.0</ele><time>2026-04-24T17:03:57.999Z</time></trkpt><trkpt lat="37.070282790624624" lon="15.096273016755234"><ele>261.0</ele><time>2026-04-24T17:03:58.999Z</time></trkpt><trkpt lat="37.07026376929897" lon="15.096399548164747"><ele>261.0</ele><time>2026-04-24T17:03:59.999Z</time></trkpt><trkpt lat="37.070240194689376" lon="15.096535544367754"><ele>261.0</ele><time>2026-04-24T17:04:00.999Z</time></trkpt><trkpt lat="37.07021893663598" lon="15.096670645657571"><ele>261.0</ele><time>2026-04-24T17:04:01.999Z</time></trkpt><trkpt lat="37.070196425183354" lon="15.096788388076959"><ele>261.0</ele><time>2026-04-24T17:04:02.999Z</time></trkpt><trkpt lat="37.07017756049507" lon="15.096901779327007"><ele>262.1666666666667</ele><time>2026-04-24T17:04:03.999Z</time></trkpt><trkpt lat="37.07015827051574" lon="15.097017409102394"><ele>263.3333333333333</ele><time>2026-04-24T17:04:04.999Z</time></trkpt><trkpt lat="37.07014177279856" lon="15.097122293762753"><ele>264.5</ele><time>2026-04-24T17:04:05.999Z</time></trkpt><trkpt lat="37.07012710212202" lon="15.097212621676587"><ele>265.66666666666663</ele><time>2026-04-24T17:04:06.999Z</time></trkpt><trkpt lat="37.07011754862126" lon="15.097319883782763"><ele>266.8333333333333</ele><time>2026-04-24T17:04:07.999Z</time></trkpt><trkpt lat="37.07012008971864" lon="15.097409259059582"><ele>268.0</ele><time>2026-04-24T17:04:08.999Z</time></trkpt><trkpt lat="37.07012116873715" lon="15.097527262239078"><ele>268.0</ele><time>2026-04-24T17:04:09.999Z</time></trkpt><trkpt lat="37.07006267385001" lon="15.097661192920256"><ele>268.0</ele><time>2026-04-24T17:04:11.999Z</time></trkpt><trkpt lat="37.06997875275841" lon="15.097769678410831"><ele>268.0</ele><time>2026-04-24T17:04:13.999Z</time></trkpt><trkpt lat="37.06988606421064" lon="15.097820256029575"><ele>268.0</ele><time>2026-04-24T17:04:15.999Z</time></trkpt><trkpt lat="37.06979471394942" lon="15.097867544912058"><ele>268.0</ele><time>2026-04-24T17:04:16.999Z</time></trkpt><trkpt lat="37.06972993963186" lon="15.09789180261475"><ele>268.0</ele><time>2026-04-24T17:04:17.999Z</time></trkpt><trkpt lat="37.06966783254213" lon="15.097943665412847"><ele>268.0</ele><time>2026-04-24T17:04:19.999Z</time></trkpt><trkpt lat="37.06973131034821" lon="15.098011067892903"><ele>268.0</ele><time>2026-04-24T17:04:38.999Z</time></trkpt><trkpt lat="37.06980985444548" lon="15.098060765463828"><ele>268.0</ele><time>2026-04-24T17:04:39.999Z</time></trkpt><trkpt lat="37.06989957371748" lon="15.098151358212817"><ele>268.0</ele><time>2026-04-24T17:04:41.999Z</time></trkpt><trkpt lat="37.0699556706133" lon="15.098209929758323"><ele>268.0</ele><time>2026-04-24T17:04:42.999Z</time></trkpt><trkpt lat="37.07004951352469" lon="15.098304901659601"><ele>267.0</ele><time>2026-04-24T17:04:44.998Z</time></trkpt><trkpt lat="37.0701422551553" lon="15.098392483726556"><ele>266.0</ele><time>2026-04-24T17:04:47Z</time></trkpt><trkpt lat="37.070182226939046" lon="15.098457315947643"><ele>265.0</ele><time>2026-04-24T17:04:48Z</time></trkpt><trkpt lat="37.07018935171274" lon="15.09861931817445"><ele>264.0</ele><time>2026-04-24T17:04:50Z</time></trkpt><trkpt lat="37.070228072386286" lon="15.098716275571036"><ele>263.0</ele><time>2026-04-24T17:04:51Z</time></trkpt><trkpt lat="37.070218893669264" lon="15.098795052412203"><ele>263.0</ele><time>2026-04-24T17:04:52Z</time></trkpt><trkpt lat="37.07020230513299" lon="15.09894067810559"><ele>263.0</ele><time>2026-04-24T17:04:54Z</time></trkpt><trkpt lat="37.07021166118678" lon="15.09909817205166"><ele>263.0</ele><time>2026-04-24T17:04:56Z</time></trkpt><trkpt lat="37.07021225017943" lon="15.099221704018165"><ele>263.0</ele><time>2026-04-24T17:04:59Z</time></trkpt><trkpt lat="37.07016609756758" lon="15.099120713538072"><ele>263.0</ele><time>2026-04-24T17:05:22Z</time></trkpt><trkpt lat="37.070192103079314" lon="15.098983420470628"><ele>263.0</ele><time>2026-04-24T17:05:24Z</time></trkpt><trkpt lat="37.07026615467493" lon="15.098845316745642"><ele>263.0</ele><time>2026-04-24T17:05:26Z</time></trkpt><trkpt lat="37.07019249489142" lon="15.098786515385285"><ele>263.0</ele><time>2026-04-24T17:05:27Z</time></trkpt><trkpt lat="37.07018475123846" lon="15.09866582847648"><ele>263.0</ele><time>2026-04-24T17:05:29Z</time></trkpt><trkpt lat="37.07029207783647" lon="15.098618918163284"><ele>263.0</ele><time>2026-04-24T17:05:30Z</time></trkpt><trkpt lat="37.07017837963403" lon="15.098465771593649"><ele>263.0</ele><time>2026-04-24T17:05:36.999Z</time></trkpt><trkpt lat="37.07009196011888" lon="15.09831682474823"><ele>263.0</ele><time>2026-04-24T17:05:38.999Z</time></trkpt><trkpt lat="37.07001765374533" lon="15.098249328960387"><ele>263.0</ele><time>2026-04-24T17:05:39.999Z</time></trkpt><trkpt lat="37.06994837555241" lon="15.098197219190117"><ele>263.0</ele><time>2026-04-24T17:05:40.999Z</time></trkpt><trkpt lat="37.069890443219414" lon="15.098145318108855"><ele>263.0</ele><time>2026-04-24T17:05:41.999Z</time></trkpt><trkpt lat="37.06982129158127" lon="15.098084021182297"><ele>262.33333333333337</ele><time>2026-04-24T17:05:42.999Z</time></trkpt><trkpt lat="37.0697283838798" lon="15.098038819019019"><ele>261.6666666666667</ele><time>2026-04-24T17:05:43.999Z</time></trkpt><trkpt lat="37.06967807920088" lon="15.09797433098581"><ele>261.0</ele><time>2026-04-24T17:05:44.999Z</time></trkpt><trkpt lat="37.06967750124625" lon="15.097879799476088"><ele>260.3333333333333</ele><time>2026-04-24T17:05:46.999Z</time></trkpt><trkpt lat="37.069704551109226" lon="15.097951840311286"><ele>259.66666666666663</ele><time>2026-04-24T17:05:48.999Z</time></trkpt><trkpt lat="37.06975905633383" lon="15.098005202571152"><ele>259.0</ele><time>2026-04-24T17:05:49.999Z</time></trkpt><trkpt lat="37.06983413063223" lon="15.098064363657064"><ele>259.0</ele><time>2026-04-24T17:05:50.999Z</time></trkpt><trkpt lat="37.06988864537374" lon="15.098127325970848"><ele>259.0</ele><time>2026-04-24T17:05:51.999Z</time></trkpt><trkpt lat="37.069938772836714" lon="15.098197234977565"><ele>259.0</ele><time>2026-04-24T17:05:52.999Z</time></trkpt><trkpt lat="37.06999323389683" lon="15.098244387834107"><ele>259.0</ele><time>2026-04-24T17:05:53.999Z</time></trkpt><trkpt lat="37.070098750881414" lon="15.098343053264783"><ele>259.0</ele><time>2026-04-24T17:05:55.999Z</time></trkpt><trkpt lat="37.07016792257107" lon="15.098435710560903"><ele>259.0</ele><time>2026-04-24T17:05:57.999Z</time></trkpt><trkpt lat="37.0701817989982" lon="15.098547403792429"><ele>259.8</ele><time>2026-04-24T17:05:59.999Z</time></trkpt><trkpt lat="37.07023925230857" lon="15.09860553518598"><ele>260.59999999999997</ele><time>2026-04-24T17:06:05.999Z</time></trkpt><trkpt lat="37.07029891517601" lon="15.09871141195944"><ele>261.4</ele><time>2026-04-24T17:06:07.999Z</time></trkpt><trkpt lat="37.07027133776081" lon="15.098792970816472"><ele>262.2</ele><time>2026-04-24T17:06:09.999Z</time></trkpt><trkpt lat="37.070249574862586" lon="15.098927610242292"><ele>263.0</ele><time>2026-04-24T17:06:13.999Z</time></trkpt><trkpt lat="37.07025702576897" lon="15.099058300300694"><ele>261.5</ele><time>2026-04-24T17:06:15.999Z</time></trkpt><trkpt lat="37.0702565185028" lon="15.099206173060212"><ele>260.0</ele><time>2026-04-24T17:06:17.999Z</time></trkpt><trkpt lat="37.07022924939414" lon="15.099290859993436"><ele>258.5</ele><time>2026-04-24T17:06:18.999Z</time></trkpt><trkpt lat="37.0702325650599" lon="15.099380488258062"><ele>257.0</ele><time>2026-04-24T17:06:19.999Z</time></trkpt><trkpt lat="37.07023591317271" lon="15.099473999162756"><ele>255.50000000000003</ele><time>2026-04-24T17:06:20.999Z</time></trkpt><trkpt lat="37.07023980970825" lon="15.099579126629575"><ele>254.0</ele><time>2026-04-24T17:06:21.999Z</time></trkpt><trkpt lat="37.07024405977188" lon="15.099690197902262"><ele>254.0</ele><time>2026-04-24T17:06:22.999Z</time></trkpt><trkpt lat="37.070247665167145" lon="15.099806355118641"><ele>253.99999999999997</ele><time>2026-04-24T17:06:23.999Z</time></trkpt><trkpt lat="37.070248636049214" lon="15.099924202112303"><ele>253.99999999999997</ele><time>2026-04-24T17:06:24.999Z</time></trkpt><trkpt lat="37.07024989314752" lon="15.100049650518159"><ele>254.0</ele><time>2026-04-24T17:06:25.999Z</time></trkpt><trkpt lat="37.07026776651316" lon="15.100178330864274"><ele>254.0</ele><time>2026-04-24T17:06:26.999Z</time></trkpt><trkpt lat="37.070278276664624" lon="15.100306773089478"><ele>252.66666666666669</ele><time>2026-04-24T17:06:27.999Z</time></trkpt><trkpt lat="37.070276847988886" lon="15.100437570816394"><ele>251.33333333333334</ele><time>2026-04-24T17:06:28.999Z</time></trkpt><trkpt lat="37.070284591238384" lon="15.100541500540524"><ele>250.0</ele><time>2026-04-24T17:06:29.999Z</time></trkpt><trkpt lat="37.070286434535745" lon="15.100640151490655"><ele>248.66666666666669</ele><time>2026-04-24T17:06:30.999Z</time></trkpt><trkpt lat="37.0702867155097" lon="15.100732219633505"><ele>247.33333333333334</ele><time>2026-04-24T17:06:31.999Z</time></trkpt><trkpt lat="37.07028590776963" lon="15.10082709219028"><ele>246.0</ele><time>2026-04-24T17:06:32.999Z</time></trkpt><trkpt lat="37.07028509151841" lon="15.100922964491865"><ele>244.60000000000002</ele><time>2026-04-24T17:06:33.999Z</time></trkpt><trkpt lat="37.0702838841917" lon="15.101092648492571"><ele>243.20000000000002</ele><time>2026-04-24T17:06:35.999Z</time></trkpt><trkpt lat="37.07029795908546" lon="15.101196006938414"><ele>241.79999999999998</ele><time>2026-04-24T17:06:36.999Z</time></trkpt><trkpt lat="37.07029400177624" lon="15.101297917830442"><ele>240.39999999999998</ele><time>2026-04-24T17:06:37.999Z</time></trkpt><trkpt lat="37.07028839675443" lon="15.101401663261287"><ele>239.0</ele><time>2026-04-24T17:06:38.999Z</time></trkpt><trkpt lat="37.07027926306214" lon="15.101524377239425"><ele>238.0</ele><time>2026-04-24T17:06:39.999Z</time></trkpt><trkpt lat="37.070267929271694" lon="15.101630578260307"><ele>236.99999999999997</ele><time>2026-04-24T17:06:40.999Z</time></trkpt><trkpt lat="37.07024114253171" lon="15.10173409445347"><ele>235.99999999999997</ele><time>2026-04-24T17:06:41.999Z</time></trkpt><trkpt lat="37.070235563018585" lon="15.101867008188496"><ele>235.0</ele><time>2026-04-24T17:06:42.999Z</time></trkpt><trkpt lat="37.07020475572784" lon="15.102018326762865"><ele>234.0</ele><time>2026-04-24T17:06:43.999Z</time></trkpt><trkpt lat="37.07020423807441" lon="15.10219288961685"><ele>234.0</ele><time>2026-04-24T17:06:44.999Z</time></trkpt><trkpt lat="37.07020207316984" lon="15.102408549151926"><ele>234.0</ele><time>2026-04-24T17:06:45.999Z</time></trkpt><trkpt lat="37.07020605100093" lon="15.102521928850916"><ele>234.0</ele><time>2026-04-24T17:06:46.998Z</time></trkpt><trkpt lat="37.07020239794777" lon="15.102665073023907"><ele>234.0</ele><time>2026-04-24T17:06:47.998Z</time></trkpt><trkpt lat="37.07020304165739" lon="15.102811268183663"><ele>233.6</ele><time>2026-04-24T17:06:48.998Z</time></trkpt><trkpt lat="37.070208909974774" lon="15.102952201504884"><ele>233.2</ele><time>2026-04-24T17:06:49.998Z</time></trkpt><trkpt lat="37.07019653134563" lon="15.103083281400325"><ele>232.79999999999998</ele><time>2026-04-24T17:06:50.998Z</time></trkpt><trkpt lat="37.07017303475502" lon="15.103216702555287"><ele>232.39999999999998</ele><time>2026-04-24T17:06:51.998Z</time></trkpt><trkpt lat="37.070160960179" lon="15.103349598200952"><ele>232.0</ele><time>2026-04-24T17:06:53Z</time></trkpt><trkpt lat="37.07016711070596" lon="15.103505001951273"><ele>231.39999999999998</ele><time>2026-04-24T17:06:54Z</time></trkpt><trkpt lat="37.07016738879784" lon="15.10366622261348"><ele>230.79999999999998</ele><time>2026-04-24T17:06:55Z</time></trkpt><trkpt lat="37.07015473482512" lon="15.103800178189395"><ele>230.2</ele><time>2026-04-24T17:06:56Z</time></trkpt><trkpt lat="37.07015349944708" lon="15.103880777394407"><ele>229.6</ele><time>2026-04-24T17:06:57Z</time></trkpt><trkpt lat="37.07014599579882" lon="15.10400350836757"><ele>229.0</ele><time>2026-04-24T17:06:58Z</time></trkpt><trkpt lat="37.07013560862718" lon="15.104132026821208"><ele>227.57142857142856</ele><time>2026-04-24T17:07:00Z</time></trkpt><trkpt lat="37.07008948006664" lon="15.104189623296401"><ele>226.14285714285717</ele><time>2026-04-24T17:07:01Z</time></trkpt><trkpt lat="37.0700529570605" lon="15.104330042509702"><ele>224.71428571428572</ele><time>2026-04-24T17:07:03Z</time></trkpt><trkpt lat="37.07003195924" lon="15.104414179088938"><ele>223.28571428571428</ele><time>2026-04-24T17:07:04Z</time></trkpt><trkpt lat="37.07002858598054" lon="15.10449539269788"><ele>221.85714285714283</ele><time>2026-04-24T17:07:05Z</time></trkpt><trkpt lat="37.07000026016423" lon="15.10456923040204"><ele>220.42857142857144</ele><time>2026-04-24T17:07:06Z</time></trkpt><trkpt lat="37.069982592734064" lon="15.104646065758594"><ele>219.0</ele><time>2026-04-24T17:07:07Z</time></trkpt><trkpt lat="37.069961887424675" lon="15.104726584287281"><ele>219.6</ele><time>2026-04-24T17:07:08Z</time></trkpt><trkpt lat="37.06994097177669" lon="15.104818823759478"><ele>220.2</ele><time>2026-04-24T17:07:09Z</time></trkpt><trkpt lat="37.06989546764106" lon="15.10491135907397"><ele>220.79999999999998</ele><time>2026-04-24T17:07:10Z</time></trkpt><trkpt lat="37.069857103652" lon="15.105028398376435"><ele>221.39999999999998</ele><time>2026-04-24T17:07:11Z</time></trkpt><trkpt lat="37.069821204940695" lon="15.105139701419416"><ele>222.0</ele><time>2026-04-24T17:07:12Z</time></trkpt><trkpt lat="37.06978797998272" lon="15.105254289447236"><ele>222.0</ele><time>2026-04-24T17:07:13Z</time></trkpt><trkpt lat="37.069771436562405" lon="15.105374123822134"><ele>222.0</ele><time>2026-04-24T17:07:14Z</time></trkpt><trkpt lat="37.06974222022513" lon="15.10548353031638"><ele>222.0</ele><time>2026-04-24T17:07:15Z</time></trkpt><trkpt lat="37.06972016169497" lon="15.105593763150344"><ele>222.0</ele><time>2026-04-24T17:07:16Z</time></trkpt><trkpt lat="37.06971647880571" lon="15.10569308861401"><ele>222.0</ele><time>2026-04-24T17:07:17Z</time></trkpt><trkpt lat="37.06970990487369" lon="15.105802721777312"><ele>222.0</ele><time>2026-04-24T17:07:18Z</time></trkpt><trkpt lat="37.06970674950682" lon="15.105925033311111"><ele>219.8</ele><time>2026-04-24T17:07:19Z</time></trkpt><trkpt lat="37.06970161886703" lon="15.106067082818003"><ele>217.6</ele><time>2026-04-24T17:07:20Z</time></trkpt><trkpt lat="37.069713554768214" lon="15.106211956469002"><ele>215.4</ele><time>2026-04-24T17:07:21Z</time></trkpt><trkpt lat="37.06971660805455" lon="15.106310100039984"><ele>213.20000000000002</ele><time>2026-04-24T17:07:22Z</time></trkpt><trkpt lat="37.06972136285758" lon="15.106402615231774"><ele>211.0</ele><time>2026-04-24T17:07:23Z</time></trkpt><trkpt lat="37.0697322133212" lon="15.106517812670672"><ele>209.0</ele><time>2026-04-24T17:07:24Z</time></trkpt><trkpt lat="37.069747194027244" lon="15.106651663250553"><ele>207.0</ele><time>2026-04-24T17:07:25Z</time></trkpt><trkpt lat="37.0697594563984" lon="15.106756230058545"><ele>205.0</ele><time>2026-04-24T17:07:26Z</time></trkpt><trkpt lat="37.0697726543054" lon="15.106866142789958"><ele>203.0</ele><time>2026-04-24T17:07:27Z</time></trkpt><trkpt lat="37.06978426989194" lon="15.106985257332777"><ele>201.0</ele><time>2026-04-24T17:07:28Z</time></trkpt><trkpt lat="37.069738453697475" lon="15.107103148516497"><ele>201.0</ele><time>2026-04-24T17:07:29Z</time></trkpt><trkpt lat="37.06975124076251" lon="15.107247636353444"><ele>201.0</ele><time>2026-04-24T17:07:30Z</time></trkpt><trkpt lat="37.06974101120872" lon="15.10737743993354"><ele>201.0</ele><time>2026-04-24T17:07:31Z</time></trkpt><trkpt lat="37.06975727140623" lon="15.107508785539784"><ele>201.0</ele><time>2026-04-24T17:07:32Z</time></trkpt><trkpt lat="37.06975951271576" lon="15.107666425458213"><ele>199.0</ele><time>2026-04-24T17:07:33Z</time></trkpt><trkpt lat="37.069797728193" lon="15.107928059501427"><ele>197.0</ele><time>2026-04-24T17:07:34Z</time></trkpt><trkpt lat="37.069817904507815" lon="15.108096673875579"><ele>195.0</ele><time>2026-04-24T17:07:35Z</time></trkpt><trkpt lat="37.06982439781208" lon="15.108211471314151"><ele>193.0</ele><time>2026-04-24T17:07:36Z</time></trkpt><trkpt lat="37.06981968895314" lon="15.108334681738402"><ele>192.0</ele><time>2026-04-24T17:07:37Z</time></trkpt><trkpt lat="37.069820339893084" lon="15.108491396483862"><ele>191.0</ele><time>2026-04-24T17:07:38Z</time></trkpt><trkpt lat="37.069827936654434" lon="15.10864309170985"><ele>190.0</ele><time>2026-04-24T17:07:39Z</time></trkpt><trkpt lat="37.06984572470613" lon="15.108778320977216"><ele>189.0</ele><time>2026-04-24T17:07:39.999Z</time></trkpt><trkpt lat="37.06987663048796" lon="15.108880748009778"><ele>188.0</ele><time>2026-04-24T17:07:40.999Z</time></trkpt><trkpt lat="37.06991957585926" lon="15.108943624733735"><ele>188.4</ele><time>2026-04-24T17:07:41.999Z</time></trkpt><trkpt lat="37.069974597376685" lon="15.109071520727245"><ele>188.8</ele><time>2026-04-24T17:07:43.999Z</time></trkpt><trkpt lat="37.06998322342008" lon="15.10917010901845"><ele>189.2</ele><time>2026-04-24T17:07:44.999Z</time></trkpt><trkpt lat="37.069992695335515" lon="15.109297448466595"><ele>189.6</ele><time>2026-04-24T17:07:45.999Z</time></trkpt><trkpt lat="37.069990470137704" lon="15.109437028813288"><ele>190.0</ele><time>2026-04-24T17:07:46.999Z</time></trkpt><trkpt lat="37.0699852306359" lon="15.109580796452088"><ele>188.0</ele><time>2026-04-24T17:07:47.999Z</time></trkpt><trkpt lat="37.069993596718426" lon="15.109717789486623"><ele>186.0</ele><time>2026-04-24T17:07:48.999Z</time></trkpt><trkpt lat="37.07004853879358" lon="15.109851090483346"><ele>184.0</ele><time>2026-04-24T17:07:49.999Z</time></trkpt><trkpt lat="37.07007501976434" lon="15.110020461575916"><ele>182.0</ele><time>2026-04-24T17:07:50.999Z</time></trkpt><trkpt lat="37.07008436835876" lon="15.110162623720255"><ele>180.83333333333331</ele><time>2026-04-24T17:07:51.999Z</time></trkpt><trkpt lat="37.070088429549955" lon="15.110289114484464"><ele>179.66666666666666</ele><time>2026-04-24T17:07:52.999Z</time></trkpt><trkpt lat="37.07009873476795" lon="15.110404655154426"><ele>178.5</ele><time>2026-04-24T17:07:53.999Z</time></trkpt><trkpt lat="37.07011865642402" lon="15.11051528429549"><ele>177.33333333333334</ele><time>2026-04-24T17:07:54.999Z</time></trkpt><trkpt lat="37.070148037068726" lon="15.110604636220119"><ele>176.16666666666669</ele><time>2026-04-24T17:07:55.999Z</time></trkpt><trkpt lat="37.07017413117907" lon="15.110700177441549"><ele>175.0</ele><time>2026-04-24T17:07:57.999Z</time></trkpt><trkpt lat="37.0701703250874" lon="15.110786978109525"><ele>174.0</ele><time>2026-04-24T17:08:38.999Z</time></trkpt><trkpt lat="37.07019368654236" lon="15.110944198369971"><ele>173.0</ele><time>2026-04-24T17:08:54.998Z</time></trkpt><trkpt lat="37.07019462532228" lon="15.111059451907192"><ele>172.0</ele><time>2026-04-24T17:08:55.998Z</time></trkpt><trkpt lat="37.07018192930488" lon="15.11117238856454"><ele>171.0</ele><time>2026-04-24T17:08:56.998Z</time></trkpt><trkpt lat="37.07018367098875" lon="15.111275082773913"><ele>170.0</ele><time>2026-04-24T17:08:57.998Z</time></trkpt><trkpt lat="37.070218466331795" lon="15.111371223392043"><ele>170.0</ele><time>2026-04-24T17:08:59Z</time></trkpt><trkpt lat="37.070257255578646" lon="15.111462698983432"><ele>170.0</ele><time>2026-04-24T17:09:00Z</time></trkpt><trkpt lat="37.070296630267904" lon="15.111534647390505"><ele>170.0</ele><time>2026-04-24T17:09:01Z</time></trkpt><trkpt lat="37.070300363377015" lon="15.111614552751744"><ele>170.0</ele><time>2026-04-24T17:09:02Z</time></trkpt><trkpt lat="37.07030065567781" lon="15.111741619147248"><ele>170.0</ele><time>2026-04-24T17:09:04Z</time></trkpt><trkpt lat="37.07024775584702" lon="15.111909133757177"><ele>169.4</ele><time>2026-04-24T17:09:06Z</time></trkpt><trkpt lat="37.07022445252916" lon="15.112002588292896"><ele>168.8</ele><time>2026-04-24T17:09:07Z</time></trkpt><trkpt lat="37.07028329167222" lon="15.11211492857446"><ele>168.2</ele><time>2026-04-24T17:09:09Z</time></trkpt><trkpt lat="37.07043391907047" lon="15.112038368424273"><ele>167.6</ele><time>2026-04-24T17:09:11Z</time></trkpt><trkpt lat="37.07051332725154" lon="15.111965234514205"><ele>167.0</ele><time>2026-04-24T17:09:12Z</time></trkpt><trkpt lat="37.07058152235146" lon="15.111894141781276"><ele>167.0</ele><time>2026-04-24T17:09:13Z</time></trkpt><trkpt lat="37.07067000372741" lon="15.11187098267013"><ele>167.0</ele><time>2026-04-24T17:09:15Z</time></trkpt><trkpt lat="37.07064859319237" lon="15.112041783734899"><ele>167.0</ele><time>2026-04-24T17:09:18Z</time></trkpt><trkpt lat="37.07060076109069" lon="15.1121094788176"><ele>167.0</ele><time>2026-04-24T17:09:19Z</time></trkpt><trkpt lat="37.07055771456832" lon="15.112212258435695"><ele>167.0</ele><time>2026-04-24T17:09:20Z</time></trkpt><trkpt lat="37.07054527030887" lon="15.112338215983536"><ele>165.6</ele><time>2026-04-24T17:09:21Z</time></trkpt><trkpt lat="37.07050394271298" lon="15.112448386772067"><ele>164.2</ele><time>2026-04-24T17:09:22Z</time></trkpt><trkpt lat="37.07047583288966" lon="15.11257199591426"><ele>162.8</ele><time>2026-04-24T17:09:23Z</time></trkpt><trkpt lat="37.07044865876349" lon="15.112692127835762"><ele>161.4</ele><time>2026-04-24T17:09:24Z</time></trkpt><trkpt lat="37.070421713295616" lon="15.112796687612251"><ele>160.0</ele><time>2026-04-24T17:09:25Z</time></trkpt><trkpt lat="37.07038619197081" lon="15.112884005621916"><ele>160.0</ele><time>2026-04-24T17:09:26Z</time></trkpt><trkpt lat="37.07034401757854" lon="15.112983824840875"><ele>160.0</ele><time>2026-04-24T17:09:27Z</time></trkpt><trkpt lat="37.07028142014735" lon="15.11306836379986"><ele>160.0</ele><time>2026-04-24T17:09:28Z</time></trkpt><trkpt lat="37.07021906812106" lon="15.11317544113118"><ele>160.0</ele><time>2026-04-24T17:09:29Z</time></trkpt><trkpt lat="37.070151285944036" lon="15.113296703175237"><ele>160.0</ele><time>2026-04-24T17:09:30Z</time></trkpt><trkpt lat="37.0700790049321" lon="15.113427488742602"><ele>160.75</ele><time>2026-04-24T17:09:31Z</time></trkpt><trkpt lat="37.0699973106778" lon="15.113577261562474"><ele>161.5</ele><time>2026-04-24T17:09:32Z</time></trkpt><trkpt lat="37.069918626798895" lon="15.113726834297358"><ele>162.25</ele><time>2026-04-24T17:09:33Z</time></trkpt><trkpt lat="37.06985739080787" lon="15.113870016332722"><ele>163.0</ele><time>2026-04-24T17:09:34Z</time></trkpt><trkpt lat="37.069806799574025" lon="15.114014524762093"><ele>161.0</ele><time>2026-04-24T17:09:35Z</time></trkpt><trkpt lat="37.06975940429677" lon="15.114180870001897"><ele>159.0</ele><time>2026-04-24T17:09:36Z</time></trkpt><trkpt lat="37.0697432721555" lon="15.11433761610409"><ele>157.0</ele><time>2026-04-24T17:09:37Z</time></trkpt><trkpt lat="37.069694861542146" lon="15.114457039134402"><ele>155.0</ele><time>2026-04-24T17:09:38Z</time></trkpt><trkpt lat="37.069646424300515" lon="15.114565942310714"><ele>155.0</ele><time>2026-04-24T17:09:39Z</time></trkpt><trkpt lat="37.06957220004068" lon="15.114665369436432"><ele>155.0</ele><time>2026-04-24T17:09:40Z</time></trkpt><trkpt lat="37.06950739239906" lon="15.114791165661101"><ele>155.0</ele><time>2026-04-24T17:09:41Z</time></trkpt><trkpt lat="37.06942271866304" lon="15.114899448650059"><ele>155.0</ele><time>2026-04-24T17:09:42Z</time></trkpt><trkpt lat="37.06939245048618" lon="15.115055962071736"><ele>153.0</ele><time>2026-04-24T17:09:43Z</time></trkpt><trkpt lat="37.06936459333697" lon="15.115229311812673"><ele>151.0</ele><time>2026-04-24T17:09:44Z</time></trkpt><trkpt lat="37.0693150631586" lon="15.115398128029295"><ele>149.0</ele><time>2026-04-24T17:09:45Z</time></trkpt><trkpt lat="37.069287152213604" lon="15.115564439777394"><ele>147.0</ele><time>2026-04-24T17:09:46Z</time></trkpt><trkpt lat="37.06927736217345" lon="15.11572912029582"><ele>146.0</ele><time>2026-04-24T17:09:47Z</time></trkpt><trkpt lat="37.06926939607509" lon="15.115874068539163"><ele>145.0</ele><time>2026-04-24T17:09:48Z</time></trkpt><trkpt lat="37.0692557707753" lon="15.11598986742932"><ele>144.0</ele><time>2026-04-24T17:09:48.999Z</time></trkpt><trkpt lat="37.06922807918462" lon="15.116070064841876"><ele>143.0</ele><time>2026-04-24T17:09:49.999Z</time></trkpt><trkpt lat="37.06918175812546" lon="15.11617074775845"><ele>142.0</ele><time>2026-04-24T17:09:50.999Z</time></trkpt><trkpt lat="37.06912222820309" lon="15.116283841197141"><ele>142.25</ele><time>2026-04-24T17:09:51.999Z</time></trkpt><trkpt lat="37.06904738554355" lon="15.116392884519936"><ele>142.5</ele><time>2026-04-24T17:09:52.999Z</time></trkpt><trkpt lat="37.06897297242326" lon="15.116507673181072"><ele>142.75</ele><time>2026-04-24T17:09:53.999Z</time></trkpt><trkpt lat="37.06889773215454" lon="15.116634988878085"><ele>143.0</ele><time>2026-04-24T17:09:54.999Z</time></trkpt><trkpt lat="37.06882364326745" lon="15.11676323374788"><ele>142.25</ele><time>2026-04-24T17:09:55.999Z</time></trkpt><trkpt lat="37.06874517039191" lon="15.116903704833124"><ele>141.5</ele><time>2026-04-24T17:09:56.999Z</time></trkpt><trkpt lat="37.068682687517004" lon="15.117053672219148"><ele>140.75</ele><time>2026-04-24T17:09:57.999Z</time></trkpt><trkpt lat="37.06861726470128" lon="15.117220697549651"><ele>140.0</ele><time>2026-04-24T17:09:58.999Z</time></trkpt><trkpt lat="37.068536583509456" lon="15.117391518537207"><ele>139.33333333333331</ele><time>2026-04-24T17:09:59.999Z</time></trkpt><trkpt lat="37.06847087211127" lon="15.117574099778722"><ele>138.66666666666666</ele><time>2026-04-24T17:10:00.999Z</time></trkpt><trkpt lat="37.068404974921" lon="15.11775719706066"><ele>138.0</ele><time>2026-04-24T17:10:01.999Z</time></trkpt><trkpt lat="37.06833598113441" lon="15.117948898533152"><ele>138.0</ele><time>2026-04-24T17:10:02.999Z</time></trkpt><trkpt lat="37.06826999563526" lon="15.118132242135445"><ele>138.0</ele><time>2026-04-24T17:10:03.999Z</time></trkpt><trkpt lat="37.06821553117504" lon="15.118291771064843"><ele>138.0</ele><time>2026-04-24T17:10:04.999Z</time></trkpt><trkpt lat="37.06810919636302" lon="15.118510840505275"><ele>137.0</ele><time>2026-04-24T17:10:05.999Z</time></trkpt><trkpt lat="37.06804496381354" lon="15.11866261526077"><ele>136.0</ele><time>2026-04-24T17:10:06.999Z</time></trkpt><trkpt lat="37.0679842575301" lon="15.118806169271677"><ele>135.0</ele><time>2026-04-24T17:10:07.999Z</time></trkpt><trkpt lat="37.06793614831276" lon="15.118968864823785"><ele>134.0</ele><time>2026-04-24T17:10:08.999Z</time></trkpt><trkpt lat="37.067888458741336" lon="15.119131968115951"><ele>132.66666666666666</ele><time>2026-04-24T17:10:09.999Z</time></trkpt><trkpt lat="37.06783105714533" lon="15.119306314326463"><ele>131.33333333333334</ele><time>2026-04-24T17:10:10.999Z</time></trkpt><trkpt lat="37.0677924802753" lon="15.119500770748637"><ele>130.0</ele><time>2026-04-24T17:10:11.999Z</time></trkpt><trkpt lat="37.06775686830945" lon="15.119705273481154"><ele>130.0</ele><time>2026-04-24T17:10:12.999Z</time></trkpt><trkpt lat="37.06773305287351" lon="15.119898496956766"><ele>130.0</ele><time>2026-04-24T17:10:13.999Z</time></trkpt><trkpt lat="37.06770945975346" lon="15.120098040416178"><ele>130.0</ele><time>2026-04-24T17:10:14.999Z</time></trkpt><trkpt lat="37.06768092745174" lon="15.120290876495865"><ele>129.75</ele><time>2026-04-24T17:10:15.999Z</time></trkpt><trkpt lat="37.067651258116484" lon="15.120472893986111"><ele>129.5</ele><time>2026-04-24T17:10:16.999Z</time></trkpt><trkpt lat="37.067596216621" lon="15.120637608042934"><ele>129.25</ele><time>2026-04-24T17:10:17.999Z</time></trkpt><trkpt lat="37.06754365353222" lon="15.12081240649314"><ele>129.0</ele><time>2026-04-24T17:10:18.999Z</time></trkpt><trkpt lat="37.06749598292499" lon="15.120971563396083"><ele>128.75</ele><time>2026-04-24T17:10:19.999Z</time></trkpt><trkpt lat="37.0674580044176" lon="15.121127955144988"><ele>128.5</ele><time>2026-04-24T17:10:20.999Z</time></trkpt><trkpt lat="37.06741233066826" lon="15.12126923816516"><ele>128.25</ele><time>2026-04-24T17:10:21.999Z</time></trkpt><trkpt lat="37.06738434391477" lon="15.121429179650345"><ele>128.0</ele><time>2026-04-24T17:10:22.999Z</time></trkpt><trkpt lat="37.067381911624196" lon="15.121605119677506"><ele>127.5</ele><time>2026-04-24T17:10:23.999Z</time></trkpt><trkpt lat="37.067379794929444" lon="15.121762888694583"><ele>127.0</ele><time>2026-04-24T17:10:24.999Z</time></trkpt><trkpt lat="37.0673338280797" lon="15.121899275228182"><ele>126.5</ele><time>2026-04-24T17:10:25.999Z</time></trkpt><trkpt lat="37.06728849130274" lon="15.122026172278709"><ele>126.0</ele><time>2026-04-24T17:10:26.999Z</time></trkpt><trkpt lat="37.06724721371451" lon="15.122146527952998"><ele>126.0</ele><time>2026-04-24T17:10:27.999Z</time></trkpt><trkpt lat="37.067224590115394" lon="15.12226192867479"><ele>126.0</ele><time>2026-04-24T17:10:28.999Z</time></trkpt><trkpt lat="37.067230836525404" lon="15.122363843734973"><ele>126.0</ele><time>2026-04-24T17:10:30.999Z</time></trkpt><trkpt lat="37.06720359442693" lon="15.12245044648681"><ele>126.0</ele><time>2026-04-24T17:10:32.999Z</time></trkpt><trkpt lat="37.067157481962774" lon="15.122570169059884"><ele>126.0</ele><time>2026-04-24T17:10:34.999Z</time></trkpt><trkpt lat="37.06712752676974" lon="15.122642289269445"><ele>126.0</ele><time>2026-04-24T17:10:35.999Z</time></trkpt><trkpt lat="37.067094358847314" lon="15.122718758802396"><ele>125.6</ele><time>2026-04-24T17:10:36.999Z</time></trkpt><trkpt lat="37.06706294349501" lon="15.122791187791998"><ele>125.19999999999999</ele><time>2026-04-24T17:10:37.999Z</time></trkpt><trkpt lat="37.067023800202534" lon="15.12287770013545"><ele>124.80000000000001</ele><time>2026-04-24T17:10:38.999Z</time></trkpt><trkpt lat="37.06697535907151" lon="15.122988675466777"><ele>124.4</ele><time>2026-04-24T17:10:39.999Z</time></trkpt><trkpt lat="37.066926283074466" lon="15.123112134429876"><ele>124.0</ele><time>2026-04-24T17:10:40.999Z</time></trkpt><trkpt lat="37.06691189611395" lon="15.123255654939737"><ele>123.75</ele><time>2026-04-24T17:10:41.999Z</time></trkpt><trkpt lat="37.06688335026067" lon="15.123411982160071"><ele>123.5</ele><time>2026-04-24T17:10:42.999Z</time></trkpt><trkpt lat="37.06685562609386" lon="15.123574354199738"><ele>123.25</ele><time>2026-04-24T17:10:43.999Z</time></trkpt><trkpt lat="37.06682314198676" lon="15.123737952902067"><ele>123.0</ele><time>2026-04-24T17:10:44.999Z</time></trkpt><trkpt lat="37.066784396639996" lon="15.123898868076436"><ele>123.0</ele><time>2026-04-24T17:10:45.999Z</time></trkpt><trkpt lat="37.066727671039004" lon="15.12404907152805"><ele>123.0</ele><time>2026-04-24T17:10:46.999Z</time></trkpt><trkpt lat="37.066679170037844" lon="15.124198836636792"><ele>123.0</ele><time>2026-04-24T17:10:47.999Z</time></trkpt><trkpt lat="37.06663147806498" lon="15.12435119018362"><ele>123.0</ele><time>2026-04-24T17:10:48.999Z</time></trkpt><trkpt lat="37.066603036596604" lon="15.124505685995995"><ele>122.75</ele><time>2026-04-24T17:10:49.999Z</time></trkpt><trkpt lat="37.0665619476414" lon="15.124646888395008"><ele>122.5</ele><time>2026-04-24T17:10:50.999Z</time></trkpt><trkpt lat="37.0665239307811" lon="15.124797759965253"><ele>122.25</ele><time>2026-04-24T17:10:51.999Z</time></trkpt><trkpt lat="37.06649044092009" lon="15.124959260223816"><ele>122.0</ele><time>2026-04-24T17:10:52.999Z</time></trkpt><trkpt lat="37.06645802653369" lon="15.125115720531696"><ele>121.6</ele><time>2026-04-24T17:10:53.999Z</time></trkpt><trkpt lat="37.06642648994833" lon="15.125265066515157"><ele>121.19999999999999</ele><time>2026-04-24T17:10:54.999Z</time></trkpt><trkpt lat="37.06639667176534" lon="15.125399775269782"><ele>120.8</ele><time>2026-04-24T17:10:55.999Z</time></trkpt><trkpt lat="37.06636880146728" lon="15.125519172745015"><ele>120.4</ele><time>2026-04-24T17:10:56.999Z</time></trkpt><trkpt lat="37.066355234721414" lon="15.125637994775174"><ele>120.0</ele><time>2026-04-24T17:10:57.999Z</time></trkpt><trkpt lat="37.06632499910873" lon="15.12576443529903"><ele>119.75</ele><time>2026-04-24T17:10:58.998Z</time></trkpt><trkpt lat="37.06627721393166" lon="15.125892668873483"><ele>119.5</ele><time>2026-04-24T17:10:59.998Z</time></trkpt><trkpt lat="37.066240369333855" lon="15.12603761567289"><ele>119.25</ele><time>2026-04-24T17:11:00.998Z</time></trkpt><trkpt lat="37.06621352382148" lon="15.126180718544582"><ele>119.0</ele><time>2026-04-24T17:11:01.998Z</time></trkpt><trkpt lat="37.06617841822234" lon="15.12629944259771"><ele>119.0</ele><time>2026-04-24T17:11:02.998Z</time></trkpt><trkpt lat="37.06614692653229" lon="15.126400292755138"><ele>119.0</ele><time>2026-04-24T17:11:03.998Z</time></trkpt><trkpt lat="37.066111750897235" lon="15.12649557859222"><ele>119.0</ele><time>2026-04-24T17:11:06Z</time></trkpt><trkpt lat="37.06606255831304" lon="15.126578370758738"><ele>119.0</ele><time>2026-04-24T17:11:49Z</time></trkpt><trkpt lat="37.066001546939574" lon="15.12671654913772"><ele>119.0</ele><time>2026-04-24T17:11:51Z</time></trkpt><trkpt lat="37.065962862613965" lon="15.126801716170867"><ele>118.75</ele><time>2026-04-24T17:11:52Z</time></trkpt><trkpt lat="37.065898252946546" lon="15.126990197667396"><ele>118.5</ele><time>2026-04-24T17:11:53Z</time></trkpt><trkpt lat="37.065848103621136" lon="15.127162665909875"><ele>118.25</ele><time>2026-04-24T17:11:54Z</time></trkpt><trkpt lat="37.065813397005584" lon="15.127277466346381"><ele>118.0</ele><time>2026-04-24T17:11:55Z</time></trkpt><trkpt lat="37.06576365370357" lon="15.127408125807642"><ele>117.75</ele><time>2026-04-24T17:11:56Z</time></trkpt><trkpt lat="37.06570459860301" lon="15.127582166308857"><ele>117.5</ele><time>2026-04-24T17:11:58Z</time></trkpt><trkpt lat="37.06568623386353" lon="15.127739960519277"><ele>117.25</ele><time>2026-04-24T17:11:58.999Z</time></trkpt><trkpt lat="37.06566392237944" lon="15.127880434065323"><ele>117.0</ele><time>2026-04-24T17:11:59.999Z</time></trkpt><trkpt lat="37.06564833144265" lon="15.128025245421254"><ele>117.0</ele><time>2026-04-24T17:12:00.999Z</time></trkpt><trkpt lat="37.06563193568544" lon="15.12817834699157"><ele>117.0</ele><time>2026-04-24T17:12:01.999Z</time></trkpt><trkpt lat="37.0656027061189" lon="15.128326418657137"><ele>117.0</ele><time>2026-04-24T17:12:02.999Z</time></trkpt><trkpt lat="37.065593767562156" lon="15.128484722140325"><ele>117.0</ele><time>2026-04-24T17:12:03.999Z</time></trkpt><trkpt lat="37.0655912280623" lon="15.128647516808094"><ele>116.75</ele><time>2026-04-24T17:12:04.999Z</time></trkpt><trkpt lat="37.0655924766155" lon="15.128816521933347"><ele>116.5</ele><time>2026-04-24T17:12:05.999Z</time></trkpt><trkpt lat="37.06559847149903" lon="15.128987758223877"><ele>116.25</ele><time>2026-04-24T17:12:06.999Z</time></trkpt><trkpt lat="37.06560568224554" lon="15.129171416465297"><ele>116.0</ele><time>2026-04-24T17:12:07.999Z</time></trkpt><trkpt lat="37.06561408933532" lon="15.129357450396695"><ele>115.25</ele><time>2026-04-24T17:12:08.999Z</time></trkpt><trkpt lat="37.06564357628557" lon="15.129549159604968"><ele>114.5</ele><time>2026-04-24T17:12:09.999Z</time></trkpt><trkpt lat="37.06564614622312" lon="15.129733193925547"><ele>113.75</ele><time>2026-04-24T17:12:10.999Z</time></trkpt><trkpt lat="37.065664682905485" lon="15.129905271627429"><ele>113.0</ele><time>2026-04-24T17:12:11.999Z</time></trkpt><trkpt lat="37.06567764929139" lon="15.130064388220523"><ele>112.75</ele><time>2026-04-24T17:12:12.999Z</time></trkpt><trkpt lat="37.065692655384765" lon="15.13022439496159"><ele>112.5</ele><time>2026-04-24T17:12:13.999Z</time></trkpt><trkpt lat="37.065711437644865" lon="15.130394835585928"><ele>112.25</ele><time>2026-04-24T17:12:14.999Z</time></trkpt><trkpt lat="37.06573543804622" lon="15.130567288562412"><ele>112.0</ele><time>2026-04-24T17:12:15.999Z</time></trkpt><trkpt lat="37.06575863217391" lon="15.130745953485832"><ele>112.0</ele><time>2026-04-24T17:12:16.999Z</time></trkpt><trkpt lat="37.0657780735595" lon="15.130911037085133"><ele>112.0</ele><time>2026-04-24T17:12:17.999Z</time></trkpt><trkpt lat="37.065792674150494" lon="15.13107400349475"><ele>112.0</ele><time>2026-04-24T17:12:18.999Z</time></trkpt><trkpt lat="37.065800479710404" lon="15.13123340108717"><ele>112.0</ele><time>2026-04-24T17:12:19.999Z</time></trkpt><trkpt lat="37.06579953044546" lon="15.131390552352963"><ele>112.0</ele><time>2026-04-24T17:12:20.999Z</time></trkpt><trkpt lat="37.06577880112663" lon="15.131531964311158"><ele>112.0</ele><time>2026-04-24T17:12:21.999Z</time></trkpt><trkpt lat="37.06576072243245" lon="15.131705425483343"><ele>112.0</ele><time>2026-04-24T17:12:22.999Z</time></trkpt><trkpt lat="37.065773848050846" lon="15.131889193286254"><ele>112.0</ele><time>2026-04-24T17:12:23.999Z</time></trkpt><trkpt lat="37.06576796534488" lon="15.132075702780565"><ele>111.66666666666667</ele><time>2026-04-24T17:12:24.999Z</time></trkpt><trkpt lat="37.06577221539562" lon="15.132271266073117"><ele>111.33333333333334</ele><time>2026-04-24T17:12:25.999Z</time></trkpt><trkpt lat="37.065766731377664" lon="15.13246137166703"><ele>111.0</ele><time>2026-04-24T17:12:26.999Z</time></trkpt><trkpt lat="37.06575787784634" lon="15.132654919088989"><ele>110.66666666666666</ele><time>2026-04-24T17:12:27.999Z</time></trkpt><trkpt lat="37.06578687890732" lon="15.132852763463367"><ele>110.33333333333333</ele><time>2026-04-24T17:12:28.999Z</time></trkpt><trkpt lat="37.06580317369519" lon="15.133045423811241"><ele>110.0</ele><time>2026-04-24T17:12:29.999Z</time></trkpt><trkpt lat="37.06580665606513" lon="15.133214399428686"><ele>109.75</ele><time>2026-04-24T17:12:30.999Z</time></trkpt><trkpt lat="37.06576732891278" lon="15.13338093842787"><ele>109.5</ele><time>2026-04-24T17:12:31.999Z</time></trkpt><trkpt lat="37.06575911966812" lon="15.133552544872638"><ele>109.25</ele><time>2026-04-24T17:12:32.999Z</time></trkpt><trkpt lat="37.065727219090306" lon="15.13372019559513"><ele>109.0</ele><time>2026-04-24T17:12:33.999Z</time></trkpt><trkpt lat="37.06571295131182" lon="15.133893720604263"><ele>109.25</ele><time>2026-04-24T17:12:34.999Z</time></trkpt><trkpt lat="37.06573037699285" lon="15.134065305502075"><ele>109.5</ele><time>2026-04-24T17:12:35.999Z</time></trkpt><trkpt lat="37.065766139259125" lon="15.134225153362726"><ele>109.75</ele><time>2026-04-24T17:12:36.999Z</time></trkpt><trkpt lat="37.065794608705765" lon="15.134408025614585"><ele>110.0</ele><time>2026-04-24T17:12:37.999Z</time></trkpt><trkpt lat="37.06580685212081" lon="15.134587313775382"><ele>110.25</ele><time>2026-04-24T17:12:38.999Z</time></trkpt><trkpt lat="37.065818790058586" lon="15.134761551157812"><ele>110.5</ele><time>2026-04-24T17:12:39.999Z</time></trkpt><trkpt lat="37.065849860395936" lon="15.134942631430501"><ele>110.75</ele><time>2026-04-24T17:12:40.999Z</time></trkpt><trkpt lat="37.06586829147155" lon="15.135121613106154"><ele>111.0</ele><time>2026-04-24T17:12:41.999Z</time></trkpt><trkpt lat="37.06587267548414" lon="15.135308070999322"><ele>111.25</ele><time>2026-04-24T17:12:42.999Z</time></trkpt><trkpt lat="37.06586801520748" lon="15.135502816941754"><ele>111.5</ele><time>2026-04-24T17:12:43.999Z</time></trkpt><trkpt lat="37.06586845724703" lon="15.135678184721845"><ele>111.75</ele><time>2026-04-24T17:12:44.999Z</time></trkpt><trkpt lat="37.065862185168534" lon="15.135848522592243"><ele>112.0</ele><time>2026-04-24T17:12:45.999Z</time></trkpt><trkpt lat="37.06585056761776" lon="15.136002901186838"><ele>111.5</ele><time>2026-04-24T17:12:46.999Z</time></trkpt><trkpt lat="37.06583352090165" lon="15.136150019102512"><ele>111.0</ele><time>2026-04-24T17:12:47.999Z</time></trkpt><trkpt lat="37.06579501633764" lon="15.136306348017174"><ele>110.5</ele><time>2026-04-24T17:12:48.999Z</time></trkpt><trkpt lat="37.06574720800746" lon="15.136463506085004"><ele>110.0</ele><time>2026-04-24T17:12:49.999Z</time></trkpt><trkpt lat="37.06570123915862" lon="15.136636185118164"><ele>109.33333333333333</ele><time>2026-04-24T17:12:50.999Z</time></trkpt><trkpt lat="37.06567590977744" lon="15.13681786195726"><ele>108.66666666666666</ele><time>2026-04-24T17:12:51.999Z</time></trkpt><trkpt lat="37.0656733055137" lon="15.137020786455372"><ele>108.0</ele><time>2026-04-24T17:12:52.999Z</time></trkpt><trkpt lat="37.06567851114983" lon="15.137216554917428"><ele>107.66666666666666</ele><time>2026-04-24T17:12:53.999Z</time></trkpt><trkpt lat="37.06567065319443" lon="15.137422930395639"><ele>107.33333333333333</ele><time>2026-04-24T17:12:54.999Z</time></trkpt><trkpt lat="37.06566863578338" lon="15.137658026611932"><ele>107.0</ele><time>2026-04-24T17:12:55.999Z</time></trkpt><trkpt lat="37.0656793096997" lon="15.137879605207061"><ele>107.0</ele><time>2026-04-24T17:12:56.999Z</time></trkpt><trkpt lat="37.06569365526624" lon="15.138084528830914"><ele>107.0</ele><time>2026-04-24T17:12:57.999Z</time></trkpt><trkpt lat="37.065691950402275" lon="15.138276578849672"><ele>107.0</ele><time>2026-04-24T17:12:58.999Z</time></trkpt><trkpt lat="37.065676940029086" lon="15.138459541889686"><ele>106.5</ele><time>2026-04-24T17:12:59.999Z</time></trkpt><trkpt lat="37.06567560368017" lon="15.138629757712357"><ele>106.0</ele><time>2026-04-24T17:13:00.999Z</time></trkpt><trkpt lat="37.065659996769234" lon="15.13877999113111"><ele>105.5</ele><time>2026-04-24T17:13:01.999Z</time></trkpt><trkpt lat="37.065643154128814" lon="15.138921840766729"><ele>105.0</ele><time>2026-04-24T17:13:02.999Z</time></trkpt><trkpt lat="37.06562529148972" lon="15.139050675636835"><ele>104.8</ele><time>2026-04-24T17:13:03.999Z</time></trkpt><trkpt lat="37.06562033047783" lon="15.139152401844594"><ele>104.6</ele><time>2026-04-24T17:13:04.999Z</time></trkpt><trkpt lat="37.06559806032947" lon="15.139256471709897"><ele>104.4</ele><time>2026-04-24T17:13:05.999Z</time></trkpt><trkpt lat="37.06557496172226" lon="15.139424189919922"><ele>104.2</ele><time>2026-04-24T17:13:07.999Z</time></trkpt><trkpt lat="37.06556510867931" lon="15.139512369935597"><ele>104.0</ele><time>2026-04-24T17:13:08.998Z</time></trkpt><trkpt lat="37.06555139691895" lon="15.139675211904414"><ele>104.0</ele><time>2026-04-24T17:13:09.998Z</time></trkpt><trkpt lat="37.065521596447276" lon="15.139829929949665"><ele>104.0</ele><time>2026-04-24T17:13:11Z</time></trkpt><trkpt lat="37.06549818126414" lon="15.140016793246629"><ele>104.0</ele><time>2026-04-24T17:13:12Z</time></trkpt><trkpt lat="37.06548238818561" lon="15.140191446545362"><ele>104.0</ele><time>2026-04-24T17:13:13Z</time></trkpt><trkpt lat="37.06545498839752" lon="15.140341232012114"><ele>104.25</ele><time>2026-04-24T17:13:14Z</time></trkpt><trkpt lat="37.065440135977475" lon="15.140514186890938"><ele>104.5</ele><time>2026-04-24T17:13:15Z</time></trkpt><trkpt lat="37.0654135892781" lon="15.14067482522583"><ele>104.75</ele><time>2026-04-24T17:13:16Z</time></trkpt><trkpt lat="37.06538768635828" lon="15.140834030391208"><ele>105.0</ele><time>2026-04-24T17:13:17Z</time></trkpt><trkpt lat="37.0653702363284" lon="15.14099423674082"><ele>105.0</ele><time>2026-04-24T17:13:18Z</time></trkpt><trkpt lat="37.06533460128704" lon="15.141152606303903"><ele>105.0</ele><time>2026-04-24T17:13:19Z</time></trkpt><trkpt lat="37.06531118689947" lon="15.141309259349041"><ele>105.0</ele><time>2026-04-24T17:13:20Z</time></trkpt><trkpt lat="37.06528793407077" lon="15.141464831387482"><ele>105.0</ele><time>2026-04-24T17:13:21Z</time></trkpt><trkpt lat="37.065272918441316" lon="15.14161814709509"><ele>105.25</ele><time>2026-04-24T17:13:22Z</time></trkpt><trkpt lat="37.06524602793612" lon="15.14177053699019"><ele>105.5</ele><time>2026-04-24T17:13:23Z</time></trkpt><trkpt lat="37.06523484613352" lon="15.141916970420718"><ele>105.75</ele><time>2026-04-24T17:13:24Z</time></trkpt><trkpt lat="37.06521249606459" lon="15.142062497888665"><ele>106.0</ele><time>2026-04-24T17:13:25Z</time></trkpt><trkpt lat="37.065182285040606" lon="15.142171671622766"><ele>106.0</ele><time>2026-04-24T17:13:26Z</time></trkpt><trkpt lat="37.06516482427208" lon="15.142288492217562"><ele>106.0</ele><time>2026-04-24T17:13:27Z</time></trkpt><trkpt lat="37.06516038764445" lon="15.142402085193979"><ele>106.0</ele><time>2026-04-24T17:13:28Z</time></trkpt><trkpt lat="37.065145129490524" lon="15.14249390939917"><ele>106.0</ele><time>2026-04-24T17:13:29Z</time></trkpt><trkpt lat="37.065103256909175" lon="15.142568008353688"><ele>106.0</ele><time>2026-04-24T17:13:31Z</time></trkpt><trkpt lat="37.06496056227961" lon="15.1425690785969"><ele>106.33333333333334</ele><time>2026-04-24T17:13:33Z</time></trkpt><trkpt lat="37.064889214126424" lon="15.142540627752936"><ele>106.66666666666667</ele><time>2026-04-24T17:13:34Z</time></trkpt><trkpt lat="37.06481362502175" lon="15.142531755377705"><ele>107.0</ele><time>2026-04-24T17:13:35Z</time></trkpt><trkpt lat="37.06474296931402" lon="15.142528627999384"><ele>107.33333333333334</ele><time>2026-04-24T17:13:36Z</time></trkpt><trkpt lat="37.06466335044005" lon="15.142538359321286"><ele>107.66666666666667</ele><time>2026-04-24T17:13:37Z</time></trkpt><trkpt lat="37.06456570267535" lon="15.142533528013876"><ele>108.0</ele><time>2026-04-24T17:13:38Z</time></trkpt><trkpt lat="37.06447415550544" lon="15.142523294140796"><ele>108.0</ele><time>2026-04-24T17:13:39Z</time></trkpt><trkpt lat="37.064380503756716" lon="15.142498374138052"><ele>108.00000000000001</ele><time>2026-04-24T17:13:40Z</time></trkpt><trkpt lat="37.06428238447078" lon="15.142487782163837"><ele>108.00000000000001</ele><time>2026-04-24T17:13:41Z</time></trkpt><trkpt lat="37.06416697952764" lon="15.14247207694217"><ele>108.0</ele><time>2026-04-24T17:13:42Z</time></trkpt><trkpt lat="37.06405421029786" lon="15.14245142541117"><ele>108.0</ele><time>2026-04-24T17:13:43Z</time></trkpt><trkpt lat="37.06395068373627" lon="15.142440511457776"><ele>107.5</ele><time>2026-04-24T17:13:44Z</time></trkpt><trkpt lat="37.06383872263952" lon="15.142402781141147"><ele>107.0</ele><time>2026-04-24T17:13:45Z</time></trkpt><trkpt lat="37.06372727444448" lon="15.142394244774096"><ele>106.5</ele><time>2026-04-24T17:13:46Z</time></trkpt><trkpt lat="37.063613641556955" lon="15.142350224420513"><ele>106.0</ele><time>2026-04-24T17:13:47Z</time></trkpt><trkpt lat="37.06350494819499" lon="15.142308811818005"><ele>105.50000000000001</ele><time>2026-04-24T17:13:48Z</time></trkpt><trkpt lat="37.06340088767417" lon="15.142292981231218"><ele>105.0</ele><time>2026-04-24T17:13:49Z</time></trkpt><trkpt lat="37.06331704984591" lon="15.142270365168805"><ele>104.5</ele><time>2026-04-24T17:13:50Z</time></trkpt><trkpt lat="37.06324377012689" lon="15.142248808163835"><ele>104.0</ele><time>2026-04-24T17:13:51Z</time></trkpt><trkpt lat="37.063174112069426" lon="15.142227545136848"><ele>103.50000000000001</ele><time>2026-04-24T17:13:52Z</time></trkpt><trkpt lat="37.06311098511831" lon="15.142205804342277"><ele>103.0</ele><time>2026-04-24T17:13:53Z</time></trkpt><trkpt lat="37.06299168209506" lon="15.14217439564616"><ele>103.0</ele><time>2026-04-24T17:13:55Z</time></trkpt><trkpt lat="37.06291512029897" lon="15.14213143519668"><ele>103.0</ele><time>2026-04-24T17:13:56Z</time></trkpt><trkpt lat="37.062815559365774" lon="15.142100739712667"><ele>103.0</ele><time>2026-04-24T17:13:56.999Z</time></trkpt><trkpt lat="37.06271190162814" lon="15.142068781107266"><ele>103.0</ele><time>2026-04-24T17:13:57.999Z</time></trkpt><trkpt lat="37.06259870751027" lon="15.142030640253578"><ele>103.0</ele><time>2026-04-24T17:13:58.999Z</time></trkpt><trkpt lat="37.06248629472038" lon="15.14198942143729"><ele>103.5</ele><time>2026-04-24T17:13:59.999Z</time></trkpt><trkpt lat="37.062362279862256" lon="15.14194566893183"><ele>104.0</ele><time>2026-04-24T17:14:00.999Z</time></trkpt><trkpt lat="37.06223695595195" lon="15.141906722318856"><ele>104.5</ele><time>2026-04-24T17:14:01.999Z</time></trkpt><trkpt lat="37.06211345367885" lon="15.141870525151882"><ele>105.0</ele><time>2026-04-24T17:14:02.999Z</time></trkpt><trkpt lat="37.06199620328287" lon="15.141836160318087"><ele>105.0</ele><time>2026-04-24T17:14:03.999Z</time></trkpt><trkpt lat="37.06190544037464" lon="15.141814194391307"><ele>105.0</ele><time>2026-04-24T17:14:04.999Z</time></trkpt><trkpt lat="37.06182811313016" lon="15.141799401731152"><ele>105.0</ele><time>2026-04-24T17:14:05.999Z</time></trkpt><trkpt lat="37.061769983586245" lon="15.141750403138547"><ele>105.0</ele><time>2026-04-24T17:14:06.999Z</time></trkpt><trkpt lat="37.06172487075426" lon="15.141693470369725"><ele>105.0</ele><time>2026-04-24T17:14:08.999Z</time></trkpt><trkpt lat="37.06168143266277" lon="15.14160303360889"><ele>105.0</ele><time>2026-04-24T17:14:11.999Z</time></trkpt><trkpt lat="37.061635800033734" lon="15.141522423517468"><ele>105.0</ele><time>2026-04-24T17:14:13.999Z</time></trkpt><trkpt lat="37.06159058098794" lon="15.141465068263216"><ele>105.0</ele><time>2026-04-24T17:14:23.999Z</time></trkpt><trkpt lat="37.06164584907649" lon="15.141539591997311"><ele>105.0</ele><time>2026-04-24T17:14:28.999Z</time></trkpt><trkpt lat="37.06169496237437" lon="15.141627822686706"><ele>105.0</ele><time>2026-04-24T17:14:30.999Z</time></trkpt><trkpt lat="37.061549055800995" lon="15.141723441634495"><ele>105.0</ele><time>2026-04-24T17:14:36.999Z</time></trkpt><trkpt lat="37.06142782903425" lon="15.141758830193245"><ele>105.16666666666667</ele><time>2026-04-24T17:14:37.999Z</time></trkpt><trkpt lat="37.061438813349795" lon="15.141860396214248"><ele>105.33333333333334</ele><time>2026-04-24T17:14:38.999Z</time></trkpt><trkpt lat="37.06140589040297" lon="15.141936829956107"><ele>105.5</ele><time>2026-04-24T17:14:39.999Z</time></trkpt><trkpt lat="37.06132686263703" lon="15.142013806818671"><ele>105.66666666666667</ele><time>2026-04-24T17:14:41.999Z</time></trkpt><trkpt lat="37.06127668874831" lon="15.141965207509172"><ele>105.83333333333334</ele><time>2026-04-24T17:14:42.999Z</time></trkpt><trkpt lat="37.06117014868559" lon="15.141975344927664"><ele>106.0</ele><time>2026-04-24T17:14:44.999Z</time></trkpt><trkpt lat="37.06109784751509" lon="15.141920997062252"><ele>106.00000000000001</ele><time>2026-04-24T17:14:45.999Z</time></trkpt><trkpt lat="37.061048115792374" lon="15.141860692595298"><ele>106.0</ele><time>2026-04-24T17:14:47.999Z</time></trkpt><trkpt lat="37.061108217601706" lon="15.14192363695404"><ele>106.0</ele><time>2026-04-24T17:14:54.999Z</time></trkpt><trkpt lat="37.06117728257413" lon="15.141939749928389"><ele>106.0</ele><time>2026-04-24T17:14:55.999Z</time></trkpt><trkpt lat="37.0612493625239" lon="15.141977729120367"><ele>106.00000000000001</ele><time>2026-04-24T17:14:56.999Z</time></trkpt><trkpt lat="37.061323179335986" lon="15.14199187271925"><ele>106.0</ele><time>2026-04-24T17:14:57.999Z</time></trkpt><trkpt lat="37.06143802523731" lon="15.141963755668796"><ele>106.0</ele><time>2026-04-24T17:14:59.999Z</time></trkpt><trkpt lat="37.061485851047" lon="15.141829385635775"><ele>106.0</ele><time>2026-04-24T17:15:01.999Z</time></trkpt><trkpt lat="37.06154146367144" lon="15.14174236255377"><ele>106.0</ele><time>2026-04-24T17:15:03.999Z</time></trkpt><trkpt lat="37.06163775632817" lon="15.141744135371342"><ele>106.0</ele><time>2026-04-24T17:15:05.999Z</time></trkpt><trkpt lat="37.06172194385897" lon="15.141731294420579"><ele>106.0</ele><time>2026-04-24T17:15:07.998Z</time></trkpt><trkpt lat="37.061700353878635" lon="15.141610208329993"><ele>105.50000000000001</ele><time>2026-04-24T17:15:09.998Z</time></trkpt><trkpt lat="37.06165429590978" lon="15.141541368832208"><ele>105.0</ele><time>2026-04-24T17:15:10.998Z</time></trkpt><trkpt lat="37.06159607892773" lon="15.14146370629747"><ele>104.5</ele><time>2026-04-24T17:15:11.998Z</time></trkpt><trkpt lat="37.06153683539117" lon="15.141376768844918"><ele>104.0</ele><time>2026-04-24T17:15:12.998Z</time></trkpt><trkpt lat="37.061480530301694" lon="15.141287236997018"><ele>103.50000000000001</ele><time>2026-04-24T17:15:13.998Z</time></trkpt><trkpt lat="37.06142661218034" lon="15.141183449510034"><ele>103.0</ele><time>2026-04-24T17:15:14.998Z</time></trkpt><trkpt lat="37.061367810631566" lon="15.141078092085197"><ele>102.80000000000001</ele><time>2026-04-24T17:15:15.998Z</time></trkpt><trkpt lat="37.061304653699395" lon="15.140973322721038"><ele>102.6</ele><time>2026-04-24T17:15:17Z</time></trkpt><trkpt lat="37.061244817997014" lon="15.140863987771155"><ele>102.4</ele><time>2026-04-24T17:15:18Z</time></trkpt><trkpt lat="37.06118735480927" lon="15.1407458987385"><ele>102.19999999999999</ele><time>2026-04-24T17:15:19Z</time></trkpt><trkpt lat="37.06113121215527" lon="15.140630481982297"><ele>102.0</ele><time>2026-04-24T17:15:20Z</time></trkpt><trkpt lat="37.06109742384617" lon="15.14052916943864"><ele>102.0</ele><time>2026-04-24T17:15:21Z</time></trkpt><trkpt lat="37.06104797785876" lon="15.140453677363727"><ele>102.0</ele><time>2026-04-24T17:15:22Z</time></trkpt><trkpt lat="37.06098587244415" lon="15.140362720660425"><ele>102.0</ele><time>2026-04-24T17:15:23Z</time></trkpt><trkpt lat="37.06093089631683" lon="15.140274171114498"><ele>102.0</ele><time>2026-04-24T17:15:24Z</time></trkpt><trkpt lat="37.06087245197638" lon="15.140180429396095"><ele>102.0</ele><time>2026-04-24T17:15:25Z</time></trkpt><trkpt lat="37.06082600664647" lon="15.140100453382873"><ele>102.0</ele><time>2026-04-24T17:15:26Z</time></trkpt><trkpt lat="37.06077078489971" lon="15.13999561788802"><ele>101.8</ele><time>2026-04-24T17:15:28Z</time></trkpt><trkpt lat="37.06074684774339" lon="15.139919793319002"><ele>101.6</ele><time>2026-04-24T17:15:30Z</time></trkpt><trkpt lat="37.06074968428364" lon="15.139837902716426"><ele>101.39999999999999</ele><time>2026-04-24T17:15:32Z</time></trkpt><trkpt lat="37.060738970599274" lon="15.139718148142041"><ele>101.19999999999999</ele><time>2026-04-24T17:15:33Z</time></trkpt><trkpt lat="37.06072657998311" lon="15.13955736688894"><ele>101.0</ele><time>2026-04-24T17:15:35Z</time></trkpt><trkpt lat="37.060714065862086" lon="15.139385635320522"><ele>100.99999999999999</ele><time>2026-04-24T17:15:37Z</time></trkpt><trkpt lat="37.060707578677906" lon="15.139296611633103"><ele>101.0</ele><time>2026-04-24T17:15:38Z</time></trkpt><trkpt lat="37.060685608833396" lon="15.139189255197847"><ele>101.0</ele><time>2026-04-24T17:15:39Z</time></trkpt><trkpt lat="37.06069104686376" lon="15.139084287091643"><ele>101.0</ele><time>2026-04-24T17:15:40Z</time></trkpt><trkpt lat="37.06068749004185" lon="15.1389803494306"><ele>100.99999999999999</ele><time>2026-04-24T17:15:41Z</time></trkpt><trkpt lat="37.06067957392901" lon="15.138867854277002"><ele>101.0</ele><time>2026-04-24T17:15:42Z</time></trkpt><trkpt lat="37.06066956758294" lon="15.138747436415228"><ele>101.19999999999999</ele><time>2026-04-24T17:15:43Z</time></trkpt><trkpt lat="37.06066112611015" lon="15.138622083340506"><ele>101.39999999999999</ele><time>2026-04-24T17:15:44Z</time></trkpt><trkpt lat="37.06064934154037" lon="15.138496721357896"><ele>101.6</ele><time>2026-04-24T17:15:45Z</time></trkpt><trkpt lat="37.06062692398617" lon="15.138366022092345"><ele>101.8</ele><time>2026-04-24T17:15:46Z</time></trkpt><trkpt lat="37.06062481440147" lon="15.138232326307758"><ele>102.0</ele><time>2026-04-24T17:15:47Z</time></trkpt><trkpt lat="37.0606161941277" lon="15.138098003485903"><ele>102.19999999999999</ele><time>2026-04-24T17:15:48Z</time></trkpt><trkpt lat="37.0606152846392" lon="15.137960927170502"><ele>102.4</ele><time>2026-04-24T17:15:49Z</time></trkpt><trkpt lat="37.060623292617265" lon="15.13782311247444"><ele>102.6</ele><time>2026-04-24T17:15:50Z</time></trkpt><trkpt lat="37.060638769078984" lon="15.137692405799658"><ele>102.80000000000001</ele><time>2026-04-24T17:15:51Z</time></trkpt><trkpt lat="37.0606300012119" lon="15.137565453311224"><ele>103.0</ele><time>2026-04-24T17:15:52Z</time></trkpt><trkpt lat="37.06058521855607" lon="15.13743341517581"><ele>103.0</ele><time>2026-04-24T17:15:53Z</time></trkpt><trkpt lat="37.060519192131984" lon="15.137322075405505"><ele>103.0</ele><time>2026-04-24T17:15:54Z</time></trkpt><trkpt lat="37.060444323173016" lon="15.137214159410233"><ele>103.0</ele><time>2026-04-24T17:15:55Z</time></trkpt><trkpt lat="37.06037164158835" lon="15.1371038719037"><ele>103.0</ele><time>2026-04-24T17:15:56Z</time></trkpt><trkpt lat="37.06031743645427" lon="15.136987276856452"><ele>103.0</ele><time>2026-04-24T17:15:57Z</time></trkpt><trkpt lat="37.06027855849682" lon="15.136866946921065"><ele>103.0</ele><time>2026-04-24T17:15:58Z</time></trkpt><trkpt lat="37.06025359357633" lon="15.136746982425187"><ele>103.0</ele><time>2026-04-24T17:15:59Z</time></trkpt><trkpt lat="37.06025641303653" lon="15.136613576257213"><ele>103.0</ele><time>2026-04-24T17:16:00Z</time></trkpt><trkpt lat="37.06023036916157" lon="15.136470395083457"><ele>103.0</ele><time>2026-04-24T17:16:00.999Z</time></trkpt><trkpt lat="37.060217483694906" lon="15.136326730482589"><ele>103.0</ele><time>2026-04-24T17:16:01.999Z</time></trkpt><trkpt lat="37.06019908289344" lon="15.136175080576308"><ele>103.25</ele><time>2026-04-24T17:16:02.999Z</time></trkpt><trkpt lat="37.06018947606913" lon="15.136010961836822"><ele>103.5</ele><time>2026-04-24T17:16:03.999Z</time></trkpt><trkpt lat="37.06017871703549" lon="15.13583762151963"><ele>103.75</ele><time>2026-04-24T17:16:04.999Z</time></trkpt><trkpt lat="37.06016341080526" lon="15.135664468354292"><ele>104.0</ele><time>2026-04-24T17:16:05.999Z</time></trkpt><trkpt lat="37.06014398885046" lon="15.135491773342624"><ele>104.0</ele><time>2026-04-24T17:16:06.999Z</time></trkpt><trkpt lat="37.06012641398183" lon="15.135313816472676"><ele>104.0</ele><time>2026-04-24T17:16:07.999Z</time></trkpt><trkpt lat="37.06010706692391" lon="15.135132302703024"><ele>104.0</ele><time>2026-04-24T17:16:08.999Z</time></trkpt><trkpt lat="37.06008697551895" lon="15.134940461224623"><ele>104.0</ele><time>2026-04-24T17:16:09.999Z</time></trkpt><trkpt lat="37.06006814849113" lon="15.134746023108843"><ele>104.25</ele><time>2026-04-24T17:16:10.999Z</time></trkpt><trkpt lat="37.060051807548035" lon="15.134560257674845"><ele>104.5</ele><time>2026-04-24T17:16:11.999Z</time></trkpt><trkpt lat="37.06003298964979" lon="15.134365144773351"><ele>104.75</ele><time>2026-04-24T17:16:12.999Z</time></trkpt><trkpt lat="37.060024317374626" lon="15.134187934704041"><ele>105.0</ele><time>2026-04-24T17:16:13.999Z</time></trkpt><trkpt lat="37.060010068309616" lon="15.134038141885611"><ele>105.25</ele><time>2026-04-24T17:16:14.999Z</time></trkpt><trkpt lat="37.05997902614317" lon="15.13383835116097"><ele>105.5</ele><time>2026-04-24T17:16:15.999Z</time></trkpt><trkpt lat="37.059964101865916" lon="15.133671809052343"><ele>105.75</ele><time>2026-04-24T17:16:16.999Z</time></trkpt><trkpt lat="37.059949982304296" lon="15.133498249932181"><ele>106.0</ele><time>2026-04-24T17:16:17.999Z</time></trkpt><trkpt lat="37.05993907964238" lon="15.133322132275087"><ele>106.75</ele><time>2026-04-24T17:16:18.999Z</time></trkpt><trkpt lat="37.05992267785573" lon="15.133146227099019"><ele>107.5</ele><time>2026-04-24T17:16:19.999Z</time></trkpt><trkpt lat="37.05990371663191" lon="15.132967283045607"><ele>108.25</ele><time>2026-04-24T17:16:20.999Z</time></trkpt><trkpt lat="37.0598817505828" lon="15.13279850654948"><ele>109.0</ele><time>2026-04-24T17:16:21.999Z</time></trkpt><trkpt lat="37.059868991942416" lon="15.132618840629558"><ele>109.0</ele><time>2026-04-24T17:16:22.999Z</time></trkpt><trkpt lat="37.05985263899382" lon="15.132441280678073"><ele>109.0</ele><time>2026-04-24T17:16:23.999Z</time></trkpt><trkpt lat="37.059838777555036" lon="15.132267548616298"><ele>109.0</ele><time>2026-04-24T17:16:24.999Z</time></trkpt><trkpt lat="37.05982323616752" lon="15.132113370896075"><ele>109.0</ele><time>2026-04-24T17:16:25.999Z</time></trkpt><trkpt lat="37.05980894399449" lon="15.131978664669541"><ele>109.0</ele><time>2026-04-24T17:16:26.999Z</time></trkpt><trkpt lat="37.05979887832632" lon="15.131848622325432"><ele>109.0</ele><time>2026-04-24T17:16:27.999Z</time></trkpt><trkpt lat="37.059794385182684" lon="15.131712688048587"><ele>109.0</ele><time>2026-04-24T17:16:28.999Z</time></trkpt><trkpt lat="37.0597992819282" lon="15.131573186171"><ele>109.0</ele><time>2026-04-24T17:16:29.999Z</time></trkpt><trkpt lat="37.059789673776216" lon="15.131430222377832"><ele>109.0</ele><time>2026-04-24T17:16:30.999Z</time></trkpt><trkpt lat="37.05977214146446" lon="15.131288300078051"><ele>109.75</ele><time>2026-04-24T17:16:31.999Z</time></trkpt><trkpt lat="37.0597557175128" lon="15.131128319805782"><ele>110.5</ele><time>2026-04-24T17:16:32.999Z</time></trkpt><trkpt lat="37.05973974626913" lon="15.130960652055558"><ele>111.25</ele><time>2026-04-24T17:16:33.999Z</time></trkpt><trkpt lat="37.05972217759993" lon="15.130791373922346"><ele>112.0</ele><time>2026-04-24T17:16:34.999Z</time></trkpt><trkpt lat="37.059705488494686" lon="15.130614922027585"><ele>112.25</ele><time>2026-04-24T17:16:35.999Z</time></trkpt><trkpt lat="37.059690001280806" lon="15.13044012891929"><ele>112.5</ele><time>2026-04-24T17:16:36.999Z</time></trkpt><trkpt lat="37.059667872934796" lon="15.13026373128927"><ele>112.75</ele><time>2026-04-24T17:16:37.999Z</time></trkpt><trkpt lat="37.05964245272318" lon="15.130083042074341"><ele>113.0</ele><time>2026-04-24T17:16:38.999Z</time></trkpt><trkpt lat="37.059621349787214" lon="15.129897735961915"><ele>113.33333333333333</ele><time>2026-04-24T17:16:39.999Z</time></trkpt><trkpt lat="37.05960227097022" lon="15.129705335949035"><ele>113.66666666666666</ele><time>2026-04-24T17:16:40.999Z</time></trkpt><trkpt lat="37.05958685940766" lon="15.129510763740905"><ele>114.0</ele><time>2026-04-24T17:16:41.999Z</time></trkpt><trkpt lat="37.059568635081874" lon="15.12930980335353"><ele>114.0</ele><time>2026-04-24T17:16:42.999Z</time></trkpt><trkpt lat="37.05955084894744" lon="15.129108743317035"><ele>114.0</ele><time>2026-04-24T17:16:43.999Z</time></trkpt><trkpt lat="37.05953168037645" lon="15.128902028782976"><ele>114.0</ele><time>2026-04-24T17:16:44.999Z</time></trkpt><trkpt lat="37.05951166535135" lon="15.128692707680793"><ele>114.0</ele><time>2026-04-24T17:16:45.999Z</time></trkpt><trkpt lat="37.059490317144395" lon="15.128481805642407"><ele>114.0</ele><time>2026-04-24T17:16:46.999Z</time></trkpt><trkpt lat="37.059469327583855" lon="15.128277680904212"><ele>114.0</ele><time>2026-04-24T17:16:47.999Z</time></trkpt><trkpt lat="37.05944656956967" lon="15.12806330629656"><ele>114.66666666666666</ele><time>2026-04-24T17:16:48.999Z</time></trkpt><trkpt lat="37.0594142862204" lon="15.12784736178879"><ele>115.33333333333333</ele><time>2026-04-24T17:16:49.999Z</time></trkpt><trkpt lat="37.05940751389581" lon="15.127616809640228"><ele>116.0</ele><time>2026-04-24T17:16:50.999Z</time></trkpt><trkpt lat="37.059387301444886" lon="15.127408372794893"><ele>116.66666666666666</ele><time>2026-04-24T17:16:51.999Z</time></trkpt><trkpt lat="37.05936427431423" lon="15.127170910262295"><ele>117.33333333333334</ele><time>2026-04-24T17:16:52.999Z</time></trkpt><trkpt lat="37.059330923339594" lon="15.126945482384892"><ele>118.0</ele><time>2026-04-24T17:16:53.999Z</time></trkpt><trkpt lat="37.059308465245586" lon="15.126712958158807"><ele>118.33333333333334</ele><time>2026-04-24T17:16:54.999Z</time></trkpt><trkpt lat="37.05928295143764" lon="15.126477341392693"><ele>118.66666666666666</ele><time>2026-04-24T17:16:55.999Z</time></trkpt><trkpt lat="37.059258262662" lon="15.126238165875774"><ele>119.0</ele><time>2026-04-24T17:16:56.999Z</time></trkpt><trkpt lat="37.059234970620935" lon="15.126004370182562"><ele>119.0</ele><time>2026-04-24T17:16:57.999Z</time></trkpt><trkpt lat="37.059229588726" lon="15.125771369323624"><ele>119.0</ele><time>2026-04-24T17:16:58.999Z</time></trkpt><trkpt lat="37.05919362548893" lon="15.125543060187574"><ele>119.0</ele><time>2026-04-24T17:16:59.999Z</time></trkpt><trkpt lat="37.05917234695549" lon="15.125310599774453"><ele>119.66666666666666</ele><time>2026-04-24T17:17:00.999Z</time></trkpt><trkpt lat="37.05915124839849" lon="15.125072000184698"><ele>120.33333333333334</ele><time>2026-04-24T17:17:01.999Z</time></trkpt><trkpt lat="37.05912764814664" lon="15.12483912478488"><ele>121.0</ele><time>2026-04-24T17:17:02.999Z</time></trkpt><trkpt lat="37.05910464409471" lon="15.124601984178195"><ele>121.66666666666667</ele><time>2026-04-24T17:17:03.999Z</time></trkpt><trkpt lat="37.05907912939079" lon="15.124365238535145"><ele>122.33333333333334</ele><time>2026-04-24T17:17:04.999Z</time></trkpt><trkpt lat="37.059059897164346" lon="15.12412647074455"><ele>123.0</ele><time>2026-04-24T17:17:05.999Z</time></trkpt><trkpt lat="37.05903638950566" lon="15.123893575356112"><ele>123.33333333333334</ele><time>2026-04-24T17:17:06.999Z</time></trkpt><trkpt lat="37.05901543082719" lon="15.123660196308114"><ele>123.66666666666667</ele><time>2026-04-24T17:17:07.999Z</time></trkpt><trkpt lat="37.05899324062708" lon="15.123429213375319"><ele>124.0</ele><time>2026-04-24T17:17:08.999Z</time></trkpt><trkpt lat="37.058986736673106" lon="15.123198198093254"><ele>124.66666666666667</ele><time>2026-04-24T17:17:09.999Z</time></trkpt><trkpt lat="37.05896394595829" lon="15.122966094649831"><ele>125.33333333333334</ele><time>2026-04-24T17:17:10.999Z</time></trkpt><trkpt lat="37.058928077254464" lon="15.122748077757786"><ele>126.0</ele><time>2026-04-24T17:17:11.999Z</time></trkpt><trkpt lat="37.05892268955293" lon="15.122547681134165"><ele>126.66666666666666</ele><time>2026-04-24T17:17:12.999Z</time></trkpt><trkpt lat="37.058885218682235" lon="15.122330616071336"><ele>127.33333333333333</ele><time>2026-04-24T17:17:13.998Z</time></trkpt><trkpt lat="37.058879121853394" lon="15.12209604404158"><ele>128.0</ele><time>2026-04-24T17:17:14.998Z</time></trkpt><trkpt lat="37.05885609215951" lon="15.121891964530448"><ele>128.0</ele><time>2026-04-24T17:17:15.998Z</time></trkpt><trkpt lat="37.05883233961507" lon="15.121663713854018"><ele>128.0</ele><time>2026-04-24T17:17:16.998Z</time></trkpt><trkpt lat="37.05881020117374" lon="15.12145091699488"><ele>128.0</ele><time>2026-04-24T17:17:17.998Z</time></trkpt><trkpt lat="37.05877325276767" lon="15.121251150503788"><ele>128.33333333333331</ele><time>2026-04-24T17:17:18.998Z</time></trkpt><trkpt lat="37.0587659607398" lon="15.121040683760919"><ele>128.66666666666666</ele><time>2026-04-24T17:17:19.998Z</time></trkpt><trkpt lat="37.05873616193366" lon="15.120835519947342"><ele>129.0</ele><time>2026-04-24T17:17:20.998Z</time></trkpt><trkpt lat="37.05871713805528" lon="15.120626990349447"><ele>129.33333333333334</ele><time>2026-04-24T17:17:21.998Z</time></trkpt><trkpt lat="37.058689597864436" lon="15.120436381276363"><ele>129.66666666666669</ele><time>2026-04-24T17:17:23Z</time></trkpt><trkpt lat="37.05866927586063" lon="15.120195795379196"><ele>130.0</ele><time>2026-04-24T17:17:24Z</time></trkpt><trkpt lat="37.058654066109725" lon="15.119985490150004"><ele>130.33333333333334</ele><time>2026-04-24T17:17:25Z</time></trkpt><trkpt lat="37.05862998052464" lon="15.119766086165875"><ele>130.66666666666666</ele><time>2026-04-24T17:17:26Z</time></trkpt><trkpt lat="37.05860330174448" lon="15.119566592278506"><ele>131.0</ele><time>2026-04-24T17:17:27Z</time></trkpt><trkpt lat="37.05859711276963" lon="15.119357462039591"><ele>131.0</ele><time>2026-04-24T17:17:28Z</time></trkpt><trkpt lat="37.05857535917595" lon="15.11914139374337"><ele>131.0</ele><time>2026-04-24T17:17:29Z</time></trkpt><trkpt lat="37.05853877901654" lon="15.118933451991737"><ele>131.0</ele><time>2026-04-24T17:17:30Z</time></trkpt><trkpt lat="37.05853027664905" lon="15.118695319726703"><ele>131.0</ele><time>2026-04-24T17:17:31Z</time></trkpt><trkpt lat="37.058501734728466" lon="15.118417367683925"><ele>131.0</ele><time>2026-04-24T17:17:32Z</time></trkpt><trkpt lat="37.05846151272967" lon="15.118177202189376"><ele>131.0</ele><time>2026-04-24T17:17:33Z</time></trkpt><trkpt lat="37.0584391975203" lon="15.117972375627618"><ele>131.66666666666666</ele><time>2026-04-24T17:17:34Z</time></trkpt><trkpt lat="37.05841859804428" lon="15.117770530951809"><ele>132.33333333333334</ele><time>2026-04-24T17:17:35Z</time></trkpt><trkpt lat="37.05841316993882" lon="15.1175658674977"><ele>133.0</ele><time>2026-04-24T17:17:36Z</time></trkpt><trkpt lat="37.058379731150715" lon="15.117383188847082"><ele>133.8</ele><time>2026-04-24T17:17:37Z</time></trkpt><trkpt lat="37.05836840778576" lon="15.117214869201762"><ele>134.60000000000002</ele><time>2026-04-24T17:17:38Z</time></trkpt><trkpt lat="37.05836045302398" lon="15.117084256734397"><ele>135.39999999999998</ele><time>2026-04-24T17:17:39Z</time></trkpt><trkpt lat="37.058346365931335" lon="15.116965131875228"><ele>136.2</ele><time>2026-04-24T17:17:40Z</time></trkpt><trkpt lat="37.05833993953483" lon="15.116867610204292"><ele>137.0</ele><time>2026-04-24T17:17:41Z</time></trkpt><trkpt lat="37.058357483766805" lon="15.117047898214857"><ele>137.0</ele><time>2026-04-24T17:17:58Z</time></trkpt><trkpt lat="37.05838747670268" lon="15.11711941455162"><ele>137.0</ele><time>2026-04-24T17:17:59Z</time></trkpt><trkpt lat="37.05830223973551" lon="15.117240620570314"><ele>137.0</ele><time>2026-04-24T17:18:02Z</time></trkpt><trkpt lat="37.05816188963377" lon="15.117168798498247"><ele>137.0</ele><time>2026-04-24T17:18:04Z</time></trkpt><trkpt lat="37.0580532930445" lon="15.117148788861535"><ele>137.2</ele><time>2026-04-24T17:18:05Z</time></trkpt><trkpt lat="37.057939747147756" lon="15.117127554198296"><ele>137.39999999999998</ele><time>2026-04-24T17:18:06Z</time></trkpt><trkpt lat="37.0578378677991" lon="15.117111069866374"><ele>137.60000000000002</ele><time>2026-04-24T17:18:07Z</time></trkpt><trkpt lat="37.05773836476294" lon="15.117098376364904"><ele>137.8</ele><time>2026-04-24T17:18:08Z</time></trkpt><trkpt lat="37.05765175090684" lon="15.117107614628834"><ele>138.0</ele><time>2026-04-24T17:18:09Z</time></trkpt><trkpt lat="37.057518602201895" lon="15.117079955749906"><ele>138.0</ele><time>2026-04-24T17:18:10Z</time></trkpt><trkpt lat="37.057415558847076" lon="15.117127726794344"><ele>138.0</ele><time>2026-04-24T17:18:11.999Z</time></trkpt><trkpt lat="37.05735609705228" lon="15.11719192921025"><ele>138.0</ele><time>2026-04-24T17:18:12.999Z</time></trkpt><trkpt lat="37.057293490356095" lon="15.117285730840349"><ele>138.0</ele><time>2026-04-24T17:18:13.999Z</time></trkpt><trkpt lat="37.057212143436104" lon="15.117381531324316"><ele>138.0</ele><time>2026-04-24T17:18:14.999Z</time></trkpt><trkpt lat="37.05711960177455" lon="15.117461808842563"><ele>137.4</ele><time>2026-04-24T17:18:15.999Z</time></trkpt><trkpt lat="37.05702758051443" lon="15.117538111275962"><ele>136.8</ele><time>2026-04-24T17:18:16.999Z</time></trkpt><trkpt lat="37.05694837962395" lon="15.11760719504753"><ele>136.2</ele><time>2026-04-24T17:18:17.999Z</time></trkpt><trkpt lat="37.056874285538576" lon="15.117653024168334"><ele>135.6</ele><time>2026-04-24T17:18:18.999Z</time></trkpt><trkpt lat="37.05679143607082" lon="15.117681874628573"><ele>135.0</ele><time>2026-04-24T17:18:19.999Z</time></trkpt><trkpt lat="37.05670218637103" lon="15.117694698366845"><ele>134.83333333333334</ele><time>2026-04-24T17:18:20.999Z</time></trkpt><trkpt lat="37.056611951037766" lon="15.11767311553491"><ele>134.66666666666666</ele><time>2026-04-24T17:18:21.999Z</time></trkpt><trkpt lat="37.0565412527313" lon="15.117637556981206"><ele>134.5</ele><time>2026-04-24T17:18:22.999Z</time></trkpt><trkpt lat="37.056447031325916" lon="15.117628980024227"><ele>134.33333333333331</ele><time>2026-04-24T17:18:23.999Z</time></trkpt><trkpt lat="37.05646699683556" lon="15.117489413180056"><ele>134.16666666666666</ele><time>2026-04-24T17:18:24.999Z</time></trkpt><trkpt lat="37.056472156292415" lon="15.117399322970208"><ele>134.0</ele><time>2026-04-24T17:18:25.999Z</time></trkpt><trkpt lat="37.05647370488523" lon="15.117267339813148"><ele>134.4</ele><time>2026-04-24T17:18:26.999Z</time></trkpt><trkpt lat="37.05645997954843" lon="15.11711268268778"><ele>134.8</ele><time>2026-04-24T17:18:27.999Z</time></trkpt><trkpt lat="37.056441653951175" lon="15.11699173796004"><ele>135.2</ele><time>2026-04-24T17:18:28.999Z</time></trkpt><trkpt lat="37.056407725517126" lon="15.116919153760492"><ele>135.6</ele><time>2026-04-24T17:18:29.999Z</time></trkpt><trkpt lat="37.05634769574564" lon="15.116870670875556"><ele>136.0</ele><time>2026-04-24T17:18:30.999Z</time></trkpt><trkpt lat="37.05624877814851" lon="15.116841206952584"><ele>136.0</ele><time>2026-04-24T17:18:31.999Z</time></trkpt><trkpt lat="37.05612407622328" lon="15.116836867052376"><ele>136.0</ele><time>2026-04-24T17:18:32.999Z</time></trkpt><trkpt lat="37.05600769709803" lon="15.116813303964515"><ele>136.0</ele><time>2026-04-24T17:18:33.999Z</time></trkpt><trkpt lat="37.05591514137243" lon="15.116811819954197"><ele>136.0</ele><time>2026-04-24T17:18:34.999Z</time></trkpt><trkpt lat="37.05582336552532" lon="15.116800666782359"><ele>136.0</ele><time>2026-04-24T17:18:35.999Z</time></trkpt><trkpt lat="37.05568171820058" lon="15.116760717047015"><ele>136.0</ele><time>2026-04-24T17:18:36.999Z</time></trkpt><trkpt lat="37.0555559138703" lon="15.116741978088283"><ele>136.0</ele><time>2026-04-24T17:18:37.999Z</time></trkpt><trkpt lat="37.055436029936466" lon="15.116725581704966"><ele>136.0</ele><time>2026-04-24T17:18:38.999Z</time></trkpt><trkpt lat="37.05531977915674" lon="15.116707724449082"><ele>136.0</ele><time>2026-04-24T17:18:39.999Z</time></trkpt><trkpt lat="37.05521743017399" lon="15.11670093109209"><ele>136.0</ele><time>2026-04-24T17:18:40.999Z</time></trkpt><trkpt lat="37.05509117857558" lon="15.116672177104588"><ele>136.0</ele><time>2026-04-24T17:18:41.999Z</time></trkpt><trkpt lat="37.05498777938408" lon="15.116652994060628"><ele>136.0</ele><time>2026-04-24T17:18:42.999Z</time></trkpt><trkpt lat="37.05490011025915" lon="15.116640520904419"><ele>136.0</ele><time>2026-04-24T17:18:43.999Z</time></trkpt><trkpt lat="37.054821310567156" lon="15.11662763255529"><ele>136.0</ele><time>2026-04-24T17:18:44.999Z</time></trkpt><trkpt lat="37.054756584834806" lon="15.116620943028972"><ele>136.0</ele><time>2026-04-24T17:18:45.999Z</time></trkpt><trkpt lat="37.05468604262942" lon="15.116577814020353"><ele>136.0</ele><time>2026-04-24T17:19:01.999Z</time></trkpt><trkpt lat="37.05477145090788" lon="15.116580247860714"><ele>136.0</ele><time>2026-04-24T17:19:13.999Z</time></trkpt><trkpt lat="37.054862954559916" lon="15.116616646402376"><ele>136.0</ele><time>2026-04-24T17:19:14.999Z</time></trkpt><trkpt lat="37.05497037945591" lon="15.116643487922602"><ele>136.0</ele><time>2026-04-24T17:19:15.999Z</time></trkpt><trkpt lat="37.055078070332144" lon="15.116661441893747"><ele>136.0</ele><time>2026-04-24T17:19:16.999Z</time></trkpt><trkpt lat="37.05518126714031" lon="15.116678129279865"><ele>136.0</ele><time>2026-04-24T17:19:17.999Z</time></trkpt><trkpt lat="37.05529351175862" lon="15.116722413097776"><ele>136.0</ele><time>2026-04-24T17:19:18.999Z</time></trkpt><trkpt lat="37.05539714083904" lon="15.116739883535343"><ele>136.0</ele><time>2026-04-24T17:19:19.999Z</time></trkpt><trkpt lat="37.05549845403493" lon="15.116724423072093"><ele>136.0</ele><time>2026-04-24T17:19:20.999Z</time></trkpt><trkpt lat="37.05559710612739" lon="15.116740709777773"><ele>136.0</ele><time>2026-04-24T17:19:21.999Z</time></trkpt><trkpt lat="37.05568463310604" lon="15.116788350825157"><ele>136.0</ele><time>2026-04-24T17:19:22.999Z</time></trkpt><trkpt lat="37.05577616942603" lon="15.116803782625071"><ele>136.0</ele><time>2026-04-24T17:19:23.999Z</time></trkpt><trkpt lat="37.055853812439544" lon="15.116816872149546"><ele>136.0</ele><time>2026-04-24T17:19:24.998Z</time></trkpt><trkpt lat="37.055932294401465" lon="15.116830103156799"><ele>136.0</ele><time>2026-04-24T17:19:25.998Z</time></trkpt><trkpt lat="37.05605202039074" lon="15.116850287444688"><ele>135.99999999999997</ele><time>2026-04-24T17:19:27.998Z</time></trkpt><trkpt lat="37.056118729398776" lon="15.116862352252902"><ele>136.0</ele><time>2026-04-24T17:19:29Z</time></trkpt><trkpt lat="37.05619532459692" lon="15.11687600790052"><ele>136.0</ele><time>2026-04-24T17:19:30Z</time></trkpt><trkpt lat="37.05627886871069" lon="15.116892434938691"><ele>136.0</ele><time>2026-04-24T17:19:31Z</time></trkpt><trkpt lat="37.05635519665333" lon="15.116926845459474"><ele>136.0</ele><time>2026-04-24T17:19:32Z</time></trkpt><trkpt lat="37.056410641288004" lon="15.116974447406204"><ele>135.99999999999997</ele><time>2026-04-24T17:19:33Z</time></trkpt><trkpt lat="37.05643657990267" lon="15.117054380661834"><ele>136.0</ele><time>2026-04-24T17:19:34Z</time></trkpt><trkpt lat="37.05643563156215" lon="15.117134950129627"><ele>136.0</ele><time>2026-04-24T17:19:35Z</time></trkpt><trkpt lat="37.05644246704758" lon="15.117255126415673"><ele>136.0</ele><time>2026-04-24T17:19:36Z</time></trkpt><trkpt lat="37.05645508207255" lon="15.117409821752165"><ele>136.0</ele><time>2026-04-24T17:19:37Z</time></trkpt><trkpt lat="37.05647321853013" lon="15.11752713946644"><ele>136.0</ele><time>2026-04-24T17:19:38Z</time></trkpt><trkpt lat="37.05650424801137" lon="15.11759979511341"><ele>136.0</ele><time>2026-04-24T17:19:39Z</time></trkpt><trkpt lat="37.05665628442021" lon="15.117654812237701"><ele>135.8</ele><time>2026-04-24T17:19:41Z</time></trkpt><trkpt lat="37.05676120885826" lon="15.117671580773598"><ele>135.6</ele><time>2026-04-24T17:19:42Z</time></trkpt><trkpt lat="37.056860452012444" lon="15.117671494552729"><ele>135.4</ele><time>2026-04-24T17:19:43Z</time></trkpt><trkpt lat="37.056938532966925" lon="15.117637027859253"><ele>135.2</ele><time>2026-04-24T17:19:44Z</time></trkpt><trkpt lat="37.05704013937901" lon="15.117573432389962"><ele>135.0</ele><time>2026-04-24T17:19:45Z</time></trkpt><trkpt lat="37.0571363257345" lon="15.117488229174633"><ele>135.75</ele><time>2026-04-24T17:19:46Z</time></trkpt><trkpt lat="37.0572513516738" lon="15.117383654687043"><ele>136.5</ele><time>2026-04-24T17:19:47Z</time></trkpt><trkpt lat="37.057365667226506" lon="15.11728093996099"><ele>137.25</ele><time>2026-04-24T17:19:48Z</time></trkpt><trkpt lat="37.05744731119514" lon="15.117189654441862"><ele>138.0</ele><time>2026-04-24T17:19:49Z</time></trkpt><trkpt lat="37.05751933671825" lon="15.11711683454877"><ele>138.0</ele><time>2026-04-24T17:19:50Z</time></trkpt><trkpt lat="37.057655955899676" lon="15.117098510764041"><ele>138.0</ele><time>2026-04-24T17:19:52Z</time></trkpt><trkpt lat="37.05775732993789" lon="15.117111755404649"><ele>138.0</ele><time>2026-04-24T17:19:53Z</time></trkpt><trkpt lat="37.05790849224588" lon="15.11714651636272"><ele>138.0</ele><time>2026-04-24T17:19:54Z</time></trkpt><trkpt lat="37.0580920351433" lon="15.117221741202387"><ele>138.0</ele><time>2026-04-24T17:19:55Z</time></trkpt><trkpt lat="37.05821260626583" lon="15.117194775558056"><ele>138.0</ele><time>2026-04-24T17:19:56Z</time></trkpt><trkpt lat="37.05829866472191" lon="15.117216543406432"><ele>138.0</ele><time>2026-04-24T17:19:57Z</time></trkpt><trkpt lat="37.058366948419774" lon="15.117220617823381"><ele>138.0</ele><time>2026-04-24T17:19:59Z</time></trkpt><trkpt lat="37.058383057320405" lon="15.117094963997145"><ele>138.0</ele><time>2026-04-24T17:20:03Z</time></trkpt><trkpt lat="37.058372363485326" lon="15.117001198729762"><ele>138.0</ele><time>2026-04-24T17:20:04Z</time></trkpt><trkpt lat="37.058348668411064" lon="15.116877639734195"><ele>138.0</ele><time>2026-04-24T17:20:05Z</time></trkpt><trkpt lat="37.058334053187004" lon="15.116741088787"><ele>138.0</ele><time>2026-04-24T17:20:06Z</time></trkpt><trkpt lat="37.058318833992274" lon="15.116589208463438"><ele>138.0</ele><time>2026-04-24T17:20:07Z</time></trkpt><trkpt lat="37.058298348419456" lon="15.116425573060953"><ele>137.75</ele><time>2026-04-24T17:20:08Z</time></trkpt><trkpt lat="37.058280520289074" lon="15.116249400567693"><ele>137.5</ele><time>2026-04-24T17:20:09Z</time></trkpt><trkpt lat="37.05826190460307" lon="15.116077067937736"><ele>137.25</ele><time>2026-04-24T17:20:10Z</time></trkpt><trkpt lat="37.05824412167773" lon="15.115906129948357"><ele>137.0</ele><time>2026-04-24T17:20:11Z</time></trkpt><trkpt lat="37.05822597683768" lon="15.115731825592505"><ele>137.5</ele><time>2026-04-24T17:20:12Z</time></trkpt><trkpt lat="37.058207177209" lon="15.115561970031983"><ele>138.0</ele><time>2026-04-24T17:20:13Z</time></trkpt><trkpt lat="37.05819103269601" lon="15.11539470418392"><ele>138.5</ele><time>2026-04-24T17:20:14Z</time></trkpt><trkpt lat="37.05817234940283" lon="15.115230757100592"><ele>139.0</ele><time>2026-04-24T17:20:15Z</time></trkpt><trkpt lat="37.05816002228297" lon="15.115065806890906"><ele>139.0</ele><time>2026-04-24T17:20:16Z</time></trkpt><trkpt lat="37.058141168524806" lon="15.114920121971451"><ele>139.0</ele><time>2026-04-24T17:20:17Z</time></trkpt><trkpt lat="37.05813002299625" lon="15.114795456185277"><ele>139.0</ele><time>2026-04-24T17:20:18Z</time></trkpt><trkpt lat="37.05811945481752" lon="15.114691475806376"><ele>139.0</ele><time>2026-04-24T17:20:19Z</time></trkpt><trkpt lat="37.05811160221017" lon="15.114577896673646"><ele>139.0</ele><time>2026-04-24T17:20:21Z</time></trkpt><trkpt lat="37.05811444811649" lon="15.11449055592243"><ele>139.0</ele><time>2026-04-24T17:20:27.999Z</time></trkpt><trkpt lat="37.05808633652742" lon="15.114405817179843"><ele>139.0</ele><time>2026-04-24T17:20:29.999Z</time></trkpt><trkpt lat="37.05801130419133" lon="15.114342286228107"><ele>139.0</ele><time>2026-04-24T17:20:33.999Z</time></trkpt><trkpt lat="37.05794731497513" lon="15.114301809538793"><ele>139.0</ele><time>2026-04-24T17:20:35.999Z</time></trkpt><trkpt lat="37.05788721329808" lon="15.114241290212107"><ele>139.0</ele><time>2026-04-24T17:20:37.999Z</time></trkpt><trkpt lat="37.05781526035004" lon="15.114180048549164"><ele>139.0</ele><time>2026-04-24T17:20:40.999Z</time></trkpt><trkpt lat="37.057756167756736" lon="15.114135206053074"><ele>139.33333333333334</ele><time>2026-04-24T17:20:43.999Z</time></trkpt><trkpt lat="37.05768541645155" lon="15.114070607815014"><ele>139.66666666666669</ele><time>2026-04-24T17:20:45.999Z</time></trkpt><trkpt lat="37.05758991065271" lon="15.114028704622969"><ele>140.0</ele><time>2026-04-24T17:20:47.999Z</time></trkpt><trkpt lat="37.05752679196126" lon="15.114017063944388"><ele>140.33333333333334</ele><time>2026-04-24T17:20:48.999Z</time></trkpt><trkpt lat="37.05745383646526" lon="15.11401000992041"><ele>140.66666666666666</ele><time>2026-04-24T17:20:49.999Z</time></trkpt><trkpt lat="37.05737513867638" lon="15.113996984144768"><ele>141.0</ele><time>2026-04-24T17:20:50.999Z</time></trkpt><trkpt lat="37.05729183995242" lon="15.113974770940203"><ele>141.0</ele><time>2026-04-24T17:20:51.999Z</time></trkpt><trkpt lat="37.05718077508389" lon="15.113965522241948"><ele>141.0</ele><time>2026-04-24T17:20:53.999Z</time></trkpt><trkpt lat="37.057081937328284" lon="15.113954264812767"><ele>141.0</ele><time>2026-04-24T17:20:54.999Z</time></trkpt><trkpt lat="37.05696087400884" lon="15.113954719257887"><ele>141.0</ele><time>2026-04-24T17:20:55.999Z</time></trkpt><trkpt lat="37.05688310082058" lon="15.11393888439112"><ele>141.0</ele><time>2026-04-24T17:20:56.999Z</time></trkpt><trkpt lat="37.056792940698585" lon="15.113929417820465"><ele>141.0</ele><time>2026-04-24T17:20:57.999Z</time></trkpt><trkpt lat="37.05670260065487" lon="15.113915274345771"><ele>141.0</ele><time>2026-04-24T17:20:58.999Z</time></trkpt><trkpt lat="37.05660803711594" lon="15.113906515292262"><ele>141.0</ele><time>2026-04-24T17:20:59.999Z</time></trkpt><trkpt lat="37.056518602511275" lon="15.113899296303742"><ele>141.0</ele><time>2026-04-24T17:21:00.999Z</time></trkpt><trkpt lat="37.05642716836295" lon="15.113888793318464"><ele>141.0</ele><time>2026-04-24T17:21:01.999Z</time></trkpt><trkpt lat="37.056318418294076" lon="15.113874122327388"><ele>142.25</ele><time>2026-04-24T17:21:02.999Z</time></trkpt><trkpt lat="37.056209016668845" lon="15.113863955448387"><ele>143.5</ele><time>2026-04-24T17:21:03.999Z</time></trkpt><trkpt lat="37.05608637179095" lon="15.113862659474472"><ele>144.75</ele><time>2026-04-24T17:21:04.999Z</time></trkpt><trkpt lat="37.055962695590075" lon="15.113853878821372"><ele>146.0</ele><time>2026-04-24T17:21:05.999Z</time></trkpt><trkpt lat="37.055848944979445" lon="15.11384162741862"><ele>146.5</ele><time>2026-04-24T17:21:06.999Z</time></trkpt><trkpt lat="37.05575201486636" lon="15.113815749161967"><ele>147.0</ele><time>2026-04-24T17:21:07.999Z</time></trkpt><trkpt lat="37.05566628417996" lon="15.113824700540963"><ele>147.5</ele><time>2026-04-24T17:21:08.999Z</time></trkpt><trkpt lat="37.05559683993789" lon="15.113800658288355"><ele>148.0</ele><time>2026-04-24T17:21:09.999Z</time></trkpt><trkpt lat="37.05552945713205" lon="15.113812122043772"><ele>148.5</ele><time>2026-04-24T17:21:10.999Z</time></trkpt><trkpt lat="37.05542588508162" lon="15.113791312473507"><ele>149.0</ele><time>2026-04-24T17:21:12.999Z</time></trkpt><trkpt lat="37.05536369676413" lon="15.11377622493269"><ele>149.0</ele><time>2026-04-24T17:21:14.999Z</time></trkpt><trkpt lat="37.05529516153606" lon="15.11378240290649"><ele>149.0</ele><time>2026-04-24T17:22:27.999Z</time></trkpt><trkpt lat="37.055156746913696" lon="15.113774030551605"><ele>149.0</ele><time>2026-04-24T17:22:29.999Z</time></trkpt><trkpt lat="37.05506265367408" lon="15.11375905738438"><ele>149.0</ele><time>2026-04-24T17:22:30.999Z</time></trkpt><trkpt lat="37.054960771008645" lon="15.113747136741443"><ele>149.0</ele><time>2026-04-24T17:22:31.999Z</time></trkpt><trkpt lat="37.05484026530149" lon="15.11371787893161"><ele>148.33333333333331</ele><time>2026-04-24T17:22:32.999Z</time></trkpt><trkpt lat="37.05471526136468" lon="15.113676998252952"><ele>147.66666666666666</ele><time>2026-04-24T17:22:33.999Z</time></trkpt><trkpt lat="37.05459061153958" lon="15.113622370820977"><ele>147.0</ele><time>2026-04-24T17:22:34.999Z</time></trkpt><trkpt lat="37.05442057325075" lon="15.113520829147006"><ele>147.0</ele><time>2026-04-24T17:22:35.999Z</time></trkpt><trkpt lat="37.05431329804957" lon="15.113449231681127"><ele>147.0</ele><time>2026-04-24T17:22:36.999Z</time></trkpt><trkpt lat="37.05418386522863" lon="15.113310289103783"><ele>147.0</ele><time>2026-04-24T17:22:37.999Z</time></trkpt><trkpt lat="37.05404731769854" lon="15.113186558345863"><ele>148.33333333333334</ele><time>2026-04-24T17:22:38.999Z</time></trkpt><trkpt lat="37.05393272714124" lon="15.113076498629063"><ele>149.66666666666669</ele><time>2026-04-24T17:22:39.999Z</time></trkpt><trkpt lat="37.0538113274092" lon="15.112955828010639"><ele>151.0</ele><time>2026-04-24T17:22:40.999Z</time></trkpt><trkpt lat="37.053685679733995" lon="15.112844593833936"><ele>151.0</ele><time>2026-04-24T17:22:41.999Z</time></trkpt><trkpt lat="37.05357042399477" lon="15.112729475531044"><ele>151.0</ele><time>2026-04-24T17:22:42.999Z</time></trkpt><trkpt lat="37.0534509379451" lon="15.112614271910493"><ele>151.0</ele><time>2026-04-24T17:22:43.999Z</time></trkpt><trkpt lat="37.053336591462376" lon="15.112501352399281"><ele>151.0</ele><time>2026-04-24T17:22:44.999Z</time></trkpt><trkpt lat="37.05321619081795" lon="15.112396810718433"><ele>156.25</ele><time>2026-04-24T17:22:45.999Z</time></trkpt><trkpt lat="37.05310541384273" lon="15.112293731792622"><ele>161.5</ele><time>2026-04-24T17:22:46.999Z</time></trkpt><trkpt lat="37.05301439073228" lon="15.112187116163883"><ele>166.75</ele><time>2026-04-24T17:22:47.999Z</time></trkpt><trkpt lat="37.05294716649102" lon="15.112075479598715"><ele>172.0</ele><time>2026-04-24T17:22:48.999Z</time></trkpt><trkpt lat="37.05290165337159" lon="15.11194001062924"><ele>172.0</ele><time>2026-04-24T17:22:49.999Z</time></trkpt><trkpt lat="37.0528907744022" lon="15.111786379429414"><ele>172.0</ele><time>2026-04-24T17:22:50.999Z</time></trkpt><trkpt lat="37.052878626101176" lon="15.111630620596117"><ele>172.0</ele><time>2026-04-24T17:22:51.999Z</time></trkpt><trkpt lat="37.052903091175494" lon="15.111469326163919"><ele>172.0</ele><time>2026-04-24T17:22:52.999Z</time></trkpt><trkpt lat="37.05292187776936" lon="15.111312980698616"><ele>174.25</ele><time>2026-04-24T17:22:53.999Z</time></trkpt><trkpt lat="37.05293995694908" lon="15.111158768269949"><ele>176.5</ele><time>2026-04-24T17:22:54.999Z</time></trkpt><trkpt lat="37.05296041370432" lon="15.110982424406487"><ele>178.75</ele><time>2026-04-24T17:22:55.999Z</time></trkpt><trkpt lat="37.05297550401164" lon="15.11079728366861"><ele>181.0</ele><time>2026-04-24T17:22:56.999Z</time></trkpt><trkpt lat="37.052993944828515" lon="15.110603571707001"><ele>182.33333333333334</ele><time>2026-04-24T17:22:57.999Z</time></trkpt><trkpt lat="37.05301562914313" lon="15.110387112202764"><ele>183.66666666666666</ele><time>2026-04-24T17:22:58.999Z</time></trkpt><trkpt lat="37.053025021094186" lon="15.110193700547766"><ele>185.0</ele><time>2026-04-24T17:22:59.999Z</time></trkpt><trkpt lat="37.05303712222779" lon="15.109975804212333"><ele>185.25</ele><time>2026-04-24T17:23:00.999Z</time></trkpt><trkpt lat="37.05303689169002" lon="15.109799495467557"><ele>185.5</ele><time>2026-04-24T17:23:01.999Z</time></trkpt><trkpt lat="37.053009876310945" lon="15.10964901514142"><ele>185.75</ele><time>2026-04-24T17:23:02.999Z</time></trkpt><trkpt lat="37.05294649846046" lon="15.109523270482294"><ele>186.0</ele><time>2026-04-24T17:23:03.999Z</time></trkpt><trkpt lat="37.05286759605942" lon="15.10941640486474"><ele>186.0</ele><time>2026-04-24T17:23:04.999Z</time></trkpt><trkpt lat="37.05275691586261" lon="15.109347014117661"><ele>186.0</ele><time>2026-04-24T17:23:05.999Z</time></trkpt><trkpt lat="37.052650811274304" lon="15.109318578703014"><ele>186.0</ele><time>2026-04-24T17:23:06.999Z</time></trkpt><trkpt lat="37.05258748269802" lon="15.109316874510991"><ele>186.0</ele><time>2026-04-24T17:23:07.999Z</time></trkpt><trkpt lat="37.05250005909593" lon="15.109354824961763"><ele>186.0</ele><time>2026-04-24T17:23:16.999Z</time></trkpt><trkpt lat="37.052425648074575" lon="15.109393987475768"><ele>192.0</ele><time>2026-04-24T17:23:17.999Z</time></trkpt><trkpt lat="37.052338051284444" lon="15.109462294116371"><ele>198.0</ele><time>2026-04-24T17:23:18.999Z</time></trkpt><trkpt lat="37.05226366007926" lon="15.109564709775869"><ele>204.0</ele><time>2026-04-24T17:23:19.999Z</time></trkpt><trkpt lat="37.05221227378563" lon="15.109702676673479"><ele>210.0</ele><time>2026-04-24T17:23:20.999Z</time></trkpt><trkpt lat="37.05219475744112" lon="15.109861038440783"><ele>210.5</ele><time>2026-04-24T17:23:21.999Z</time></trkpt><trkpt lat="37.0521914808663" lon="15.11002834219474"><ele>211.0</ele><time>2026-04-24T17:23:22.999Z</time></trkpt><trkpt lat="37.052179673681586" lon="15.110199345814127"><ele>211.5</ele><time>2026-04-24T17:23:23.999Z</time></trkpt><trkpt lat="37.052164861090006" lon="15.11037858639577"><ele>212.0</ele><time>2026-04-24T17:23:24.999Z</time></trkpt><trkpt lat="37.052144353180296" lon="15.110559203918571"><ele>211.75</ele><time>2026-04-24T17:23:25.999Z</time></trkpt><trkpt lat="37.05211869238562" lon="15.110746897424974"><ele>211.5</ele><time>2026-04-24T17:23:26.999Z</time></trkpt><trkpt lat="37.05206749677539" lon="15.1109145722653"><ele>211.25</ele><time>2026-04-24T17:23:27.999Z</time></trkpt><trkpt lat="37.052029217504334" lon="15.11107194690222"><ele>211.0</ele><time>2026-04-24T17:23:28.999Z</time></trkpt><trkpt lat="37.05198420132279" lon="15.111222988375825"><ele>211.0</ele><time>2026-04-24T17:23:29.999Z</time></trkpt><trkpt lat="37.05192428074167" lon="15.11135356807509"><ele>211.0</ele><time>2026-04-24T17:23:30.999Z</time></trkpt><trkpt lat="37.05185267734052" lon="15.111429014472618"><ele>211.0</ele><time>2026-04-24T17:23:31.999Z</time></trkpt><trkpt lat="37.051767847978596" lon="15.111464140813585"><ele>211.0</ele><time>2026-04-24T17:23:32.999Z</time></trkpt><trkpt lat="37.051677490404984" lon="15.111478994217372"><ele>211.0</ele><time>2026-04-24T17:23:33.999Z</time></trkpt><trkpt lat="37.051609310685876" lon="15.111473001564692"><ele>216.5</ele><time>2026-04-24T17:23:34.998Z</time></trkpt><trkpt lat="37.051521683085525" lon="15.111439188231142"><ele>222.0</ele><time>2026-04-24T17:23:35.998Z</time></trkpt><trkpt lat="37.05137519263791" lon="15.111292449611762"><ele>227.5</ele><time>2026-04-24T17:23:36.998Z</time></trkpt><trkpt lat="37.051308804715916" lon="15.111181228527544"><ele>233.0</ele><time>2026-04-24T17:23:37.998Z</time></trkpt><trkpt lat="37.05129258546893" lon="15.11104218998974"><ele>233.0</ele><time>2026-04-24T17:23:38.998Z</time></trkpt><trkpt lat="37.05131730313104" lon="15.110895416722235"><ele>233.0</ele><time>2026-04-24T17:23:39.998Z</time></trkpt><trkpt lat="37.05135656871572" lon="15.110734253950262"><ele>233.0</ele><time>2026-04-24T17:23:41Z</time></trkpt><trkpt lat="37.051437425089375" lon="15.110576651889778"><ele>233.0</ele><time>2026-04-24T17:23:42Z</time></trkpt><trkpt lat="37.05152029347916" lon="15.110411901403355"><ele>233.25</ele><time>2026-04-24T17:23:43Z</time></trkpt><trkpt lat="37.05158862452215" lon="15.110240850622324"><ele>233.5</ele><time>2026-04-24T17:23:44Z</time></trkpt><trkpt lat="37.051620448821005" lon="15.11008648508975"><ele>233.75</ele><time>2026-04-24T17:23:45Z</time></trkpt><trkpt lat="37.05160736404387" lon="15.109955193353146"><ele>234.0</ele><time>2026-04-24T17:23:46Z</time></trkpt><trkpt lat="37.05156342035066" lon="15.109814296504195"><ele>233.5</ele><time>2026-04-24T17:23:47Z</time></trkpt><trkpt lat="37.05151121803126" lon="15.10966694625411"><ele>233.0</ele><time>2026-04-24T17:23:48Z</time></trkpt><trkpt lat="37.051455057519604" lon="15.109527326630348"><ele>232.5</ele><time>2026-04-24T17:23:49Z</time></trkpt><trkpt lat="37.05139304973214" lon="15.109386689813388"><ele>232.0</ele><time>2026-04-24T17:23:50Z</time></trkpt><trkpt lat="37.051323108526965" lon="15.109265735503563"><ele>232.0</ele><time>2026-04-24T17:23:51Z</time></trkpt><trkpt lat="37.05126081216772" lon="15.109175274706985"><ele>232.0</ele><time>2026-04-24T17:23:52Z</time></trkpt><trkpt lat="37.051186476393426" lon="15.10910209486735"><ele>232.0</ele><time>2026-04-24T17:23:53Z</time></trkpt><trkpt lat="37.05110560263754" lon="15.109022970940298"><ele>232.0</ele><time>2026-04-24T17:23:54Z</time></trkpt><trkpt lat="37.05102189661222" lon="15.108920021262437"><ele>232.0</ele><time>2026-04-24T17:23:55Z</time></trkpt><trkpt lat="37.05092690880519" lon="15.108797427436642"><ele>231.66666666666666</ele><time>2026-04-24T17:23:56Z</time></trkpt><trkpt lat="37.05083240577778" lon="15.108671869861157"><ele>231.33333333333331</ele><time>2026-04-24T17:23:57Z</time></trkpt><trkpt lat="37.050732740189886" lon="15.108550530346927"><ele>231.0</ele><time>2026-04-24T17:23:58Z</time></trkpt><trkpt lat="37.0506047925411" lon="15.108384066951903"><ele>234.66666666666669</ele><time>2026-04-24T17:23:59Z</time></trkpt><trkpt lat="37.050485596876115" lon="15.108231469178898"><ele>238.33333333333334</ele><time>2026-04-24T17:24:00Z</time></trkpt><trkpt lat="37.05035751209702" lon="15.10812702270072"><ele>242.0</ele><time>2026-04-24T17:24:01Z</time></trkpt><trkpt lat="37.05022312882248" lon="15.108021653240167"><ele>242.0</ele><time>2026-04-24T17:24:02Z</time></trkpt><trkpt lat="37.05007524849986" lon="15.107946643299092"><ele>242.0</ele><time>2026-04-24T17:24:03Z</time></trkpt><trkpt lat="37.049922290291306" lon="15.107875982691885"><ele>242.0</ele><time>2026-04-24T17:24:04Z</time></trkpt><trkpt lat="37.04976319635506" lon="15.107804451794495"><ele>243.66666666666669</ele><time>2026-04-24T17:24:05Z</time></trkpt><trkpt lat="37.04959937741084" lon="15.10772884231975"><ele>245.33333333333331</ele><time>2026-04-24T17:24:06Z</time></trkpt><trkpt lat="37.04943701989701" lon="15.107656770531715"><ele>247.0</ele><time>2026-04-24T17:24:07Z</time></trkpt><trkpt lat="37.04928283608624" lon="15.107577947088686"><ele>247.0</ele><time>2026-04-24T17:24:08Z</time></trkpt><trkpt lat="37.049139607670114" lon="15.107508023090988"><ele>247.0</ele><time>2026-04-24T17:24:09Z</time></trkpt><trkpt lat="37.04902167868367" lon="15.10745704837894"><ele>247.0</ele><time>2026-04-24T17:24:10Z</time></trkpt><trkpt lat="37.048893016613526" lon="15.107409965487419"><ele>247.0</ele><time>2026-04-24T17:24:11Z</time></trkpt><trkpt lat="37.04877821140913" lon="15.107374443983852"><ele>249.0</ele><time>2026-04-24T17:24:12Z</time></trkpt><trkpt lat="37.04864981625713" lon="15.107363086593693"><ele>251.0</ele><time>2026-04-24T17:24:13Z</time></trkpt><trkpt lat="37.04850657359244" lon="15.107367463221534"><ele>253.0</ele><time>2026-04-24T17:24:14Z</time></trkpt><trkpt lat="37.048370071280594" lon="15.107401616162585"><ele>255.0</ele><time>2026-04-24T17:24:15Z</time></trkpt><trkpt lat="37.04823380150502" lon="15.107453418827603"><ele>256.6666666666667</ele><time>2026-04-24T17:24:16Z</time></trkpt><trkpt lat="37.04808288543337" lon="15.107581997337714"><ele>258.33333333333337</ele><time>2026-04-24T17:24:17Z</time></trkpt><trkpt lat="37.047925053516195" lon="15.107680288753553"><ele>260.0</ele><time>2026-04-24T17:24:18Z</time></trkpt><trkpt lat="37.047769907997676" lon="15.107801322858784"><ele>260.0</ele><time>2026-04-24T17:24:19Z</time></trkpt><trkpt lat="37.04761170686912" lon="15.107924621076224"><ele>260.0</ele><time>2026-04-24T17:24:20Z</time></trkpt><trkpt lat="37.04744097169725" lon="15.108055602409763"><ele>260.0</ele><time>2026-04-24T17:24:21Z</time></trkpt><trkpt lat="37.04721547263935" lon="15.108219957172958"><ele>261.25</ele><time>2026-04-24T17:24:22Z</time></trkpt><trkpt lat="37.04706904983706" lon="15.108249541446915"><ele>262.5</ele><time>2026-04-24T17:24:24Z</time></trkpt><trkpt lat="37.046961514725915" lon="15.108243022802762"><ele>263.75</ele><time>2026-04-24T17:24:25Z</time></trkpt><trkpt lat="37.04684826324036" lon="15.10820166075051"><ele>265.0</ele><time>2026-04-24T17:24:26Z</time></trkpt><trkpt lat="37.04675030644414" lon="15.108133413073789"><ele>266.6</ele><time>2026-04-24T17:24:27Z</time></trkpt><trkpt lat="37.046679487046106" lon="15.108054770140448"><ele>268.2</ele><time>2026-04-24T17:24:28Z</time></trkpt><trkpt lat="37.0466153818499" lon="15.107928193302364"><ele>269.8</ele><time>2026-04-24T17:24:29Z</time></trkpt><trkpt lat="37.04656630734431" lon="15.107779017215876"><ele>271.4</ele><time>2026-04-24T17:24:30Z</time></trkpt><trkpt lat="37.04652973784797" lon="15.10767618213176"><ele>273.0</ele><time>2026-04-24T17:24:30.999Z</time></trkpt><trkpt lat="37.046565014278826" lon="15.10749590970772"><ele>275.25</ele><time>2026-04-24T17:24:31.999Z</time></trkpt><trkpt lat="37.046575254585555" lon="15.107324319069578"><ele>277.5</ele><time>2026-04-24T17:24:32.999Z</time></trkpt><trkpt lat="37.04661596667192" lon="15.107161691819197"><ele>279.75</ele><time>2026-04-24T17:24:33.999Z</time></trkpt><trkpt lat="37.04663296433814" lon="15.106967424915245"><ele>282.0</ele><time>2026-04-24T17:24:34.999Z</time></trkpt><trkpt lat="37.04666196611492" lon="15.10677174979176"><ele>282.0</ele><time>2026-04-24T17:24:35.999Z</time></trkpt><trkpt lat="37.04668562890339" lon="15.106582720758098"><ele>282.0</ele><time>2026-04-24T17:24:36.999Z</time></trkpt><trkpt lat="37.04673446559174" lon="15.106345976928836"><ele>282.0</ele><time>2026-04-24T17:24:37.999Z</time></trkpt><trkpt lat="37.04675589334758" lon="15.106145713608713"><ele>284.3333333333333</ele><time>2026-04-24T17:24:38.999Z</time></trkpt><trkpt lat="37.046783427893665" lon="15.105939686396704"><ele>286.66666666666663</ele><time>2026-04-24T17:24:39.999Z</time></trkpt><trkpt lat="37.046819609882036" lon="15.105736073672611"><ele>289.0</ele><time>2026-04-24T17:24:40.999Z</time></trkpt><trkpt lat="37.04685290089923" lon="15.10551616745603"><ele>290.5</ele><time>2026-04-24T17:24:41.999Z</time></trkpt><trkpt lat="37.046873197296904" lon="15.105323029006199"><ele>292.0</ele><time>2026-04-24T17:24:42.999Z</time></trkpt><trkpt lat="37.046877057618005" lon="15.105133086848664"><ele>293.5</ele><time>2026-04-24T17:24:43.999Z</time></trkpt><trkpt lat="37.04686122365074" lon="15.105007424797614"><ele>295.0</ele><time>2026-04-24T17:24:44.999Z</time></trkpt><trkpt lat="37.04682308527327" lon="15.104923106255022"><ele>296.5</ele><time>2026-04-24T17:24:45.999Z</time></trkpt><trkpt lat="37.04675191911936" lon="15.104796196798905"><ele>298.0</ele><time>2026-04-24T17:24:46.999Z</time></trkpt><trkpt lat="37.046658648749876" lon="15.104665197317178"><ele>299.5</ele><time>2026-04-24T17:24:47.999Z</time></trkpt><trkpt lat="37.046552465894436" lon="15.104582754468959"><ele>301.0</ele><time>2026-04-24T17:24:48.999Z</time></trkpt><trkpt lat="37.04643373555866" lon="15.104516251605437"><ele>301.0</ele><time>2026-04-24T17:24:49.999Z</time></trkpt><trkpt lat="37.04630131980302" lon="15.104463614890724"><ele>301.0</ele><time>2026-04-24T17:24:50.999Z</time></trkpt><trkpt lat="37.04617590704089" lon="15.104394627874534"><ele>301.0</ele><time>2026-04-24T17:24:51.999Z</time></trkpt><trkpt lat="37.04604429378433" lon="15.104330944690938"><ele>301.0</ele><time>2026-04-24T17:24:52.999Z</time></trkpt><trkpt lat="37.045905255054286" lon="15.104272891344815"><ele>301.0</ele><time>2026-04-24T17:24:53.999Z</time></trkpt><trkpt lat="37.04577315201363" lon="15.104179887263278"><ele>301.0</ele><time>2026-04-24T17:24:54.999Z</time></trkpt><trkpt lat="37.04564907902409" lon="15.104083805339208"><ele>301.0</ele><time>2026-04-24T17:24:55.999Z</time></trkpt><trkpt lat="37.04553554040767" lon="15.103980196744242"><ele>301.0</ele><time>2026-04-24T17:24:56.999Z</time></trkpt><trkpt lat="37.04543181563137" lon="15.103874668703167"><ele>301.0</ele><time>2026-04-24T17:24:57.999Z</time></trkpt><trkpt lat="37.04532761167398" lon="15.103742122592939"><ele>301.0</ele><time>2026-04-24T17:24:58.999Z</time></trkpt><trkpt lat="37.04522702097505" lon="15.103593516954504"><ele>301.0</ele><time>2026-04-24T17:24:59.999Z</time></trkpt><trkpt lat="37.04512702463165" lon="15.103426183777849"><ele>300.0</ele><time>2026-04-24T17:25:00.999Z</time></trkpt><trkpt lat="37.04504394733515" lon="15.103238709177443"><ele>299.0</ele><time>2026-04-24T17:25:01.999Z</time></trkpt><trkpt lat="37.04496195063628" lon="15.103076016553977"><ele>298.0</ele><time>2026-04-24T17:25:02.999Z</time></trkpt><trkpt lat="37.04490410466018" lon="15.102936147578864"><ele>298.0</ele><time>2026-04-24T17:25:03.999Z</time></trkpt><trkpt lat="37.0448772555512" lon="15.102815952644693"><ele>298.0</ele><time>2026-04-24T17:25:04.999Z</time></trkpt><trkpt lat="37.04487465650804" lon="15.102730448653997"><ele>298.0</ele><time>2026-04-24T17:25:05.999Z</time></trkpt><trkpt lat="37.04487749999217" lon="15.102642807487248"><ele>298.0</ele><time>2026-04-24T17:25:13.999Z</time></trkpt><trkpt lat="37.04474343624999" lon="15.10269671328441"><ele>298.0</ele><time>2026-04-24T17:25:31.999Z</time></trkpt><trkpt lat="37.04466428598598" lon="15.102712912957408"><ele>298.0</ele><time>2026-04-24T17:25:32.999Z</time></trkpt><trkpt lat="37.04456739129944" lon="15.10274213615553"><ele>298.0</ele><time>2026-04-24T17:25:33.999Z</time></trkpt><trkpt lat="37.04445508155717" lon="15.102773648494608"><ele>298.0</ele><time>2026-04-24T17:25:34.999Z</time></trkpt><trkpt lat="37.044331234099765" lon="15.102808413570159"><ele>298.0</ele><time>2026-04-24T17:25:35.999Z</time></trkpt><trkpt lat="37.0441977234422" lon="15.102848345121267"><ele>299.0</ele><time>2026-04-24T17:25:36.999Z</time></trkpt><trkpt lat="37.04406543882558" lon="15.102903252134212"><ele>300.0</ele><time>2026-04-24T17:25:37.999Z</time></trkpt><trkpt lat="37.043929515294344" lon="15.102920556762973"><ele>301.0</ele><time>2026-04-24T17:25:38.999Z</time></trkpt><trkpt lat="37.04380539181501" lon="15.102952261994915"><ele>302.0</ele><time>2026-04-24T17:25:39.998Z</time></trkpt><trkpt lat="37.04369047939766" lon="15.103005473353258"><ele>302.0</ele><time>2026-04-24T17:25:40.998Z</time></trkpt><trkpt lat="37.04356919178585" lon="15.10305364584317"><ele>302.0</ele><time>2026-04-24T17:25:41.998Z</time></trkpt><trkpt lat="37.043448112577664" lon="15.10312384546377"><ele>302.0</ele><time>2026-04-24T17:25:42.998Z</time></trkpt><trkpt lat="37.04332516430643" lon="15.103219575937214"><ele>302.0</ele><time>2026-04-24T17:25:43.998Z</time></trkpt><trkpt lat="37.04319956829664" lon="15.10330907400335"><ele>301.25</ele><time>2026-04-24T17:25:44.998Z</time></trkpt><trkpt lat="37.043065966140965" lon="15.10338315785604"><ele>300.5</ele><time>2026-04-24T17:25:46Z</time></trkpt><trkpt lat="37.042934611322856" lon="15.103473101763733"><ele>299.75</ele><time>2026-04-24T17:25:47Z</time></trkpt><trkpt lat="37.04280429118664" lon="15.103563283270361"><ele>299.0</ele><time>2026-04-24T17:25:48Z</time></trkpt><trkpt lat="37.042682750817725" lon="15.103669039006169"><ele>299.0</ele><time>2026-04-24T17:25:49Z</time></trkpt><trkpt lat="37.04254702413685" lon="15.10375937458205"><ele>299.0</ele><time>2026-04-24T17:25:50Z</time></trkpt><trkpt lat="37.042413313951286" lon="15.103833840870784"><ele>299.0</ele><time>2026-04-24T17:25:51Z</time></trkpt><trkpt lat="37.04227892614814" lon="15.103923127882297"><ele>297.0</ele><time>2026-04-24T17:25:52Z</time></trkpt><trkpt lat="37.04213873743816" lon="15.10401725348645"><ele>295.0</ele><time>2026-04-24T17:25:53Z</time></trkpt><trkpt lat="37.04200860123299" lon="15.104125696598347"><ele>293.0</ele><time>2026-04-24T17:25:54Z</time></trkpt><trkpt lat="37.04186938159154" lon="15.10421487748702"><ele>292.75</ele><time>2026-04-24T17:25:55Z</time></trkpt><trkpt lat="37.04173783979009" lon="15.104304824939636"><ele>292.5</ele><time>2026-04-24T17:25:56Z</time></trkpt><trkpt lat="37.04161780153132" lon="15.104390292732749"><ele>292.25</ele><time>2026-04-24T17:25:57Z</time></trkpt><trkpt lat="37.04151289092431" lon="15.104460870703218"><ele>292.0</ele><time>2026-04-24T17:25:58Z</time></trkpt><trkpt lat="37.04142145128732" lon="15.104541680453062"><ele>292.0</ele><time>2026-04-24T17:25:59Z</time></trkpt><trkpt lat="37.04134681315259" lon="15.104646060080617"><ele>292.0</ele><time>2026-04-24T17:26:00Z</time></trkpt><trkpt lat="37.041293931891715" lon="15.104774082381486"><ele>292.0</ele><time>2026-04-24T17:26:01Z</time></trkpt><trkpt lat="37.04126507296534" lon="15.104920178231952"><ele>292.0</ele><time>2026-04-24T17:26:02Z</time></trkpt><trkpt lat="37.041264904612866" lon="15.105091660319768"><ele>292.0</ele><time>2026-04-24T17:26:03Z</time></trkpt><trkpt lat="37.04126930341127" lon="15.10527451108506"><ele>292.0</ele><time>2026-04-24T17:26:04Z</time></trkpt><trkpt lat="37.041246609041686" lon="15.105467622172608"><ele>292.0</ele><time>2026-04-24T17:26:05Z</time></trkpt><trkpt lat="37.041237619104" lon="15.105679095641582"><ele>291.3333333333333</ele><time>2026-04-24T17:26:06Z</time></trkpt><trkpt lat="37.04122945890822" lon="15.105869507647817"><ele>290.6666666666667</ele><time>2026-04-24T17:26:07Z</time></trkpt><trkpt lat="37.04121925096905" lon="15.106078054694834"><ele>290.0</ele><time>2026-04-24T17:26:08Z</time></trkpt><trkpt lat="37.04120904289807" lon="15.106284686813067"><ele>290.0</ele><time>2026-04-24T17:26:09Z</time></trkpt><trkpt lat="37.04120122846105" lon="15.106458122362602"><ele>290.0</ele><time>2026-04-24T17:26:10Z</time></trkpt><trkpt lat="37.04118784269768" lon="15.106617535341778"><ele>290.0</ele><time>2026-04-24T17:26:11Z</time></trkpt><trkpt lat="37.041137078211364" lon="15.106746980441331"><ele>290.0</ele><time>2026-04-24T17:26:12Z</time></trkpt><trkpt lat="37.04108226458002" lon="15.106829705214773"><ele>289.25</ele><time>2026-04-24T17:26:13Z</time></trkpt><trkpt lat="37.04100856308579" lon="15.106881594061164"><ele>288.5</ele><time>2026-04-24T17:26:14Z</time></trkpt><trkpt lat="37.04091725629379" lon="15.106938637724694"><ele>287.75</ele><time>2026-04-24T17:26:15Z</time></trkpt><trkpt lat="37.04079975571746" lon="15.10699592850197"><ele>287.0</ele><time>2026-04-24T17:26:16Z</time></trkpt><trkpt lat="37.04066731124078" lon="15.107063141960314"><ele>285.75</ele><time>2026-04-24T17:26:17Z</time></trkpt><trkpt lat="37.040551819639475" lon="15.10716126175321"><ele>284.5</ele><time>2026-04-24T17:26:18Z</time></trkpt><trkpt lat="37.040446666362755" lon="15.107264826704222"><ele>283.25</ele><time>2026-04-24T17:26:19Z</time></trkpt><trkpt lat="37.04035563682034" lon="15.107410471585675"><ele>282.0</ele><time>2026-04-24T17:26:20Z</time></trkpt><trkpt lat="37.0402486363527" lon="15.107553922344552"><ele>281.6666666666667</ele><time>2026-04-24T17:26:21Z</time></trkpt><trkpt lat="37.04014938723503" lon="15.107695819075103"><ele>281.33333333333337</ele><time>2026-04-24T17:26:22Z</time></trkpt><trkpt lat="37.04004757291892" lon="15.107839990128637"><ele>281.0</ele><time>2026-04-24T17:26:23Z</time></trkpt><trkpt lat="37.03993330787208" lon="15.107992268199306"><ele>279.33333333333337</ele><time>2026-04-24T17:26:24Z</time></trkpt><trkpt lat="37.03983028694651" lon="15.108131289936498"><ele>277.6666666666667</ele><time>2026-04-24T17:26:25Z</time></trkpt><trkpt lat="37.0397201344779" lon="15.108284558873313"><ele>276.0</ele><time>2026-04-24T17:26:26Z</time></trkpt><trkpt lat="37.039626724766926" lon="15.10842266088675"><ele>275.6666666666667</ele><time>2026-04-24T17:26:27Z</time></trkpt><trkpt lat="37.03954184991239" lon="15.108581095691566"><ele>275.33333333333337</ele><time>2026-04-24T17:26:28Z</time></trkpt><trkpt lat="37.039426045019006" lon="15.108721983726301"><ele>275.0</ele><time>2026-04-24T17:26:29Z</time></trkpt><trkpt lat="37.03932295175084" lon="15.108876231820231"><ele>275.0</ele><time>2026-04-24T17:26:30Z</time></trkpt><trkpt lat="37.03921729306677" lon="15.109034318379209"><ele>275.0</ele><time>2026-04-24T17:26:31Z</time></trkpt><trkpt lat="37.039124750943614" lon="15.109173717691336"><ele>275.0</ele><time>2026-04-24T17:26:32Z</time></trkpt><trkpt lat="37.03904111104082" lon="15.109302953019391"><ele>275.0</ele><time>2026-04-24T17:26:33Z</time></trkpt><trkpt lat="37.03895993469588" lon="15.109428381839612"><ele>273.25</ele><time>2026-04-24T17:26:34Z</time></trkpt><trkpt lat="37.03889189472889" lon="15.109554785258672"><ele>271.5</ele><time>2026-04-24T17:26:34.999Z</time></trkpt><trkpt lat="37.0388210570103" lon="15.10966628870351"><ele>269.75</ele><time>2026-04-24T17:26:35.999Z</time></trkpt><trkpt lat="37.038748965796266" lon="15.109780584333961"><ele>268.0</ele><time>2026-04-24T17:26:36.999Z</time></trkpt><trkpt lat="37.03867375928056" lon="15.109887138175175"><ele>267.75</ele><time>2026-04-24T17:26:37.999Z</time></trkpt><trkpt lat="37.038584049824784" lon="15.10999922910879"><ele>267.5</ele><time>2026-04-24T17:26:38.999Z</time></trkpt><trkpt lat="37.038504280305034" lon="15.110123259891791"><ele>267.25</ele><time>2026-04-24T17:26:39.999Z</time></trkpt><trkpt lat="37.03842244126965" lon="15.110253427046585"><ele>267.0</ele><time>2026-04-24T17:26:40.999Z</time></trkpt><trkpt lat="37.038342533800915" lon="15.110386120538614"><ele>266.25</ele><time>2026-04-24T17:26:41.999Z</time></trkpt><trkpt lat="37.03826623061694" lon="15.110522125897726"><ele>265.5</ele><time>2026-04-24T17:26:42.999Z</time></trkpt><trkpt lat="37.038194443483896" lon="15.110665132150018"><ele>264.75</ele><time>2026-04-24T17:26:43.999Z</time></trkpt><trkpt lat="37.03811771509218" lon="15.110806890938449"><ele>264.0</ele><time>2026-04-24T17:26:44.999Z</time></trkpt><trkpt lat="37.03804482502161" lon="15.110971427658434"><ele>264.0</ele><time>2026-04-24T17:26:45.999Z</time></trkpt><trkpt lat="37.037962071657915" lon="15.111150536604132"><ele>264.0</ele><time>2026-04-24T17:26:46.999Z</time></trkpt><trkpt lat="37.03788366064621" lon="15.111331678491897"><ele>264.0</ele><time>2026-04-24T17:26:47.999Z</time></trkpt><trkpt lat="37.03778857616331" lon="15.111530091877649"><ele>263.3333333333333</ele><time>2026-04-24T17:26:48.999Z</time></trkpt><trkpt lat="37.03769542979951" lon="15.111720684003991"><ele>262.66666666666663</ele><time>2026-04-24T17:26:49.999Z</time></trkpt><trkpt lat="37.03760357253013" lon="15.111913844130601"><ele>262.0</ele><time>2026-04-24T17:26:50.999Z</time></trkpt><trkpt lat="37.03751243611431" lon="15.112085182520891"><ele>260.66666666666663</ele><time>2026-04-24T17:26:51.999Z</time></trkpt><trkpt lat="37.03740327745139" lon="15.112328352161638"><ele>259.3333333333333</ele><time>2026-04-24T17:26:52.999Z</time></trkpt><trkpt lat="37.037298489760055" lon="15.11254477152785"><ele>258.0</ele><time>2026-04-24T17:26:53.999Z</time></trkpt><trkpt lat="37.03724422151596" lon="15.112746888622558"><ele>258.0</ele><time>2026-04-24T17:26:54.999Z</time></trkpt><trkpt lat="37.03716250300841" lon="15.112943563326391"><ele>258.0</ele><time>2026-04-24T17:26:55.999Z</time></trkpt><trkpt lat="37.037061665861444" lon="15.113128330234101"><ele>258.0</ele><time>2026-04-24T17:26:56.999Z</time></trkpt><trkpt lat="37.03697082596026" lon="15.113329876230335"><ele>258.0</ele><time>2026-04-24T17:26:57.999Z</time></trkpt><trkpt lat="37.036882924371774" lon="15.11352618712421"><ele>258.0</ele><time>2026-04-24T17:26:58.999Z</time></trkpt><trkpt lat="37.036798415882636" lon="15.113723598922327"><ele>258.0</ele><time>2026-04-24T17:26:59.999Z</time></trkpt><trkpt lat="37.03671624101155" lon="15.113921446966192"><ele>254.66666666666669</ele><time>2026-04-24T17:27:00.999Z</time></trkpt><trkpt lat="37.03662789109023" lon="15.114136561700505"><ele>251.33333333333334</ele><time>2026-04-24T17:27:01.999Z</time></trkpt><trkpt lat="37.03654303476613" lon="15.114343170336923"><ele>248.0</ele><time>2026-04-24T17:27:02.999Z</time></trkpt><trkpt lat="37.036455594065266" lon="15.114556071401378"><ele>248.0</ele><time>2026-04-24T17:27:03.999Z</time></trkpt><trkpt lat="37.03637882292557" lon="15.114776103185475"><ele>248.0</ele><time>2026-04-24T17:27:04.999Z</time></trkpt><trkpt lat="37.03627281222769" lon="15.115001109642245"><ele>248.0</ele><time>2026-04-24T17:27:05.999Z</time></trkpt><trkpt lat="37.03617640106925" lon="15.115234939328962"><ele>248.0</ele><time>2026-04-24T17:27:06.999Z</time></trkpt><trkpt lat="37.036078399441905" lon="15.115466517461286"><ele>248.0</ele><time>2026-04-24T17:27:07.999Z</time></trkpt><trkpt lat="37.03598066557119" lon="15.115697462968068"><ele>248.0</ele><time>2026-04-24T17:27:08.999Z</time></trkpt><trkpt lat="37.03587997014164" lon="15.115931845360604"><ele>245.66666666666669</ele><time>2026-04-24T17:27:09.999Z</time></trkpt><trkpt lat="37.03577391442165" lon="15.116169771772045"><ele>243.33333333333331</ele><time>2026-04-24T17:27:10.999Z</time></trkpt><trkpt lat="37.03566500622762" lon="15.116406839194415"><ele>241.0</ele><time>2026-04-24T17:27:11.999Z</time></trkpt><trkpt lat="37.035570224855995" lon="15.116615689433813"><ele>240.66666666666666</ele><time>2026-04-24T17:27:12.999Z</time></trkpt><trkpt lat="37.03545631964156" lon="15.116869455560185"><ele>240.33333333333331</ele><time>2026-04-24T17:27:13.999Z</time></trkpt><trkpt lat="37.03537402969276" lon="15.117052787138869"><ele>240.0</ele><time>2026-04-24T17:27:14.999Z</time></trkpt><trkpt lat="37.03530711909633" lon="15.11719512712414"><ele>240.0</ele><time>2026-04-24T17:27:15.999Z</time></trkpt><trkpt lat="37.035229032170854" lon="15.117321729497176"><ele>240.0</ele><time>2026-04-24T17:27:16.999Z</time></trkpt><trkpt lat="37.035132965039956" lon="15.117426237528875"><ele>240.0</ele><time>2026-04-24T17:27:17.999Z</time></trkpt><trkpt lat="37.03500775126523" lon="15.117547091324745"><ele>240.0</ele><time>2026-04-24T17:27:18.999Z</time></trkpt><trkpt lat="37.03486569198556" lon="15.11767884349344"><ele>238.75</ele><time>2026-04-24T17:27:19.999Z</time></trkpt><trkpt lat="37.03473625488944" lon="15.11780187230868"><ele>237.5</ele><time>2026-04-24T17:27:20.999Z</time></trkpt><trkpt lat="37.03463936001246" lon="15.117917500463514"><ele>236.25</ele><time>2026-04-24T17:27:21.999Z</time></trkpt><trkpt lat="37.034558320588424" lon="15.118056593008351"><ele>235.0</ele><time>2026-04-24T17:27:22.999Z</time></trkpt><trkpt lat="37.034521953830605" lon="15.118152363839956"><ele>233.8</ele><time>2026-04-24T17:27:23.999Z</time></trkpt><trkpt lat="37.03451211567381" lon="15.11825883511448"><ele>232.6</ele><time>2026-04-24T17:27:24.999Z</time></trkpt><trkpt lat="37.034553989406376" lon="15.118352270054748"><ele>231.39999999999998</ele><time>2026-04-24T17:27:25.999Z</time></trkpt><trkpt lat="37.03463437328579" lon="15.118416260344087"><ele>230.2</ele><time>2026-04-24T17:27:26.999Z</time></trkpt><trkpt lat="37.034747662507684" lon="15.118471904415607"><ele>229.0</ele><time>2026-04-24T17:27:27.999Z</time></trkpt><trkpt lat="37.034881710680644" lon="15.118538391685323"><ele>230.66666666666666</ele><time>2026-04-24T17:27:28.999Z</time></trkpt><trkpt lat="37.035034250242035" lon="15.118615353017592"><ele>232.33333333333331</ele><time>2026-04-24T17:27:29.999Z</time></trkpt><trkpt lat="37.0351752123833" lon="15.118695414572011"><ele>234.0</ele><time>2026-04-24T17:27:30.999Z</time></trkpt><trkpt lat="37.03532554408883" lon="15.11880588199688"><ele>234.0</ele><time>2026-04-24T17:27:31.999Z</time></trkpt><trkpt lat="37.03547862350851" lon="15.11890808036505"><ele>234.0</ele><time>2026-04-24T17:27:32.999Z</time></trkpt><trkpt lat="37.035616051013214" lon="15.118976767908677"><ele>234.0</ele><time>2026-04-24T17:27:33.999Z</time></trkpt><trkpt lat="37.03573974010855" lon="15.119081477704661"><ele>232.33333333333331</ele><time>2026-04-24T17:27:34.999Z</time></trkpt><trkpt lat="37.03588113174313" lon="15.119149986588688"><ele>230.66666666666666</ele><time>2026-04-24T17:27:35.999Z</time></trkpt><trkpt lat="37.03602179489526" lon="15.119247762906166"><ele>229.0</ele><time>2026-04-24T17:27:36.999Z</time></trkpt><trkpt lat="37.036152381641635" lon="15.119330574966888"><ele>229.0</ele><time>2026-04-24T17:27:37.999Z</time></trkpt><trkpt lat="37.03630354475052" lon="15.11941864727821"><ele>229.0</ele><time>2026-04-24T17:27:38.999Z</time></trkpt><trkpt lat="37.036433024474384" lon="15.119502970317821"><ele>229.0</ele><time>2026-04-24T17:27:39.999Z</time></trkpt><trkpt lat="37.0365437438538" lon="15.119575513505028"><ele>229.0</ele><time>2026-04-24T17:27:40.999Z</time></trkpt><trkpt lat="37.036633734751234" lon="15.119640645953016"><ele>228.39999999999998</ele><time>2026-04-24T17:27:41.999Z</time></trkpt><trkpt lat="37.03667779483273" lon="15.119700489312335"><ele>227.79999999999998</ele><time>2026-04-24T17:27:42.999Z</time></trkpt><trkpt lat="37.03669955506266" lon="15.1198277740094"><ele>227.20000000000002</ele><time>2026-04-24T17:27:44.999Z</time></trkpt><trkpt lat="37.03670810492185" lon="15.119967263264286"><ele>226.60000000000002</ele><time>2026-04-24T17:27:45.998Z</time></trkpt><trkpt lat="37.03668354889111" lon="15.12011905410834"><ele>226.0</ele><time>2026-04-24T17:27:46.998Z</time></trkpt><trkpt lat="37.036686627191315" lon="15.120280260591258"><ele>225.0</ele><time>2026-04-24T17:27:47.998Z</time></trkpt><trkpt lat="37.0366769420946" lon="15.12046066915995"><ele>224.0</ele><time>2026-04-24T17:27:48.998Z</time></trkpt><trkpt lat="37.036663316162084" lon="15.120662640142143"><ele>223.0</ele><time>2026-04-24T17:27:49.998Z</time></trkpt><trkpt lat="37.03664885247446" lon="15.120876388633217"><ele>222.33333333333331</ele><time>2026-04-24T17:27:50.998Z</time></trkpt><trkpt lat="37.036622373904194" lon="15.121098557058449"><ele>221.66666666666669</ele><time>2026-04-24T17:27:52Z</time></trkpt><trkpt lat="37.03660937737865" lon="15.121331448292267"><ele>221.0</ele><time>2026-04-24T17:27:53Z</time></trkpt><trkpt lat="37.036596465561644" lon="15.121562821441305"><ele>220.0</ele><time>2026-04-24T17:27:54Z</time></trkpt><trkpt lat="37.03658503713005" lon="15.121767613036104"><ele>219.0</ele><time>2026-04-24T17:27:55Z</time></trkpt><trkpt lat="37.036573099790054" lon="15.121981523986358"><ele>218.0</ele><time>2026-04-24T17:27:56Z</time></trkpt><trkpt lat="37.03656086327433" lon="15.122200796044277"><ele>217.33333333333334</ele><time>2026-04-24T17:27:57Z</time></trkpt><trkpt lat="37.03654771969332" lon="15.122436322141771"><ele>216.66666666666669</ele><time>2026-04-24T17:27:58Z</time></trkpt><trkpt lat="37.036534510522756" lon="15.122657262147696"><ele>216.0</ele><time>2026-04-24T17:27:59Z</time></trkpt><trkpt lat="37.0365204832628" lon="15.12285295817903"><ele>216.0</ele><time>2026-04-24T17:28:00Z</time></trkpt><trkpt lat="37.03650110328325" lon="15.123043215114501"><ele>216.0</ele><time>2026-04-24T17:28:01Z</time></trkpt><trkpt lat="37.036467159828376" lon="15.123205920096307"><ele>216.0</ele><time>2026-04-24T17:28:02Z</time></trkpt><trkpt lat="37.03641389641829" lon="15.123383007179891"><ele>216.0</ele><time>2026-04-24T17:28:03Z</time></trkpt><trkpt lat="37.036351472343824" lon="15.123571800734636"><ele>215.66666666666669</ele><time>2026-04-24T17:28:04Z</time></trkpt><trkpt lat="37.03628737292723" lon="15.123766966915722"><ele>215.33333333333334</ele><time>2026-04-24T17:28:05Z</time></trkpt><trkpt lat="37.03621761169823" lon="15.123978070897197"><ele>215.0</ele><time>2026-04-24T17:28:06Z</time></trkpt><trkpt lat="37.036149747557154" lon="15.124190424342551"><ele>214.0</ele><time>2026-04-24T17:28:07Z</time></trkpt><trkpt lat="37.03608201033368" lon="15.124405416424446"><ele>213.0</ele><time>2026-04-24T17:28:08Z</time></trkpt><trkpt lat="37.03601331648799" lon="15.12461635940082"><ele>212.0</ele><time>2026-04-24T17:28:09Z</time></trkpt><trkpt lat="37.03594275037226" lon="15.124828816413054"><ele>211.33333333333334</ele><time>2026-04-24T17:28:10Z</time></trkpt><trkpt lat="37.03587392903536" lon="15.125038114370321"><ele>210.66666666666669</ele><time>2026-04-24T17:28:11Z</time></trkpt><trkpt lat="37.035812916952196" lon="15.12522555857921"><ele>210.0</ele><time>2026-04-24T17:28:12Z</time></trkpt><trkpt lat="37.03574532207137" lon="15.125436747723445"><ele>210.0</ele><time>2026-04-24T17:28:13Z</time></trkpt><trkpt lat="37.0356813684166" lon="15.125637814852352"><ele>210.0</ele><time>2026-04-24T17:28:14Z</time></trkpt><trkpt lat="37.03561552853646" lon="15.125844812043038"><ele>210.0</ele><time>2026-04-24T17:28:15Z</time></trkpt><trkpt lat="37.03554993371584" lon="15.126049970895194"><ele>208.0</ele><time>2026-04-24T17:28:16Z</time></trkpt><trkpt lat="37.03548272398518" lon="15.126253311227092"><ele>206.0</ele><time>2026-04-24T17:28:17Z</time></trkpt><trkpt lat="37.03542281562049" lon="15.126434561578572"><ele>204.0</ele><time>2026-04-24T17:28:18Z</time></trkpt><trkpt lat="37.035367898897995" lon="15.126599569182517"><ele>203.75</ele><time>2026-04-24T17:28:19Z</time></trkpt><trkpt lat="37.035313506375964" lon="15.126762883220028"><ele>203.5</ele><time>2026-04-24T17:28:20Z</time></trkpt><trkpt lat="37.035257575850444" lon="15.12693085369447"><ele>203.25</ele><time>2026-04-24T17:28:21Z</time></trkpt><trkpt lat="37.035208726594135" lon="15.12708128611571"><ele>203.0</ele><time>2026-04-24T17:28:22Z</time></trkpt><trkpt lat="37.03516372368955" lon="15.127219873577756"><ele>203.00000000000003</ele><time>2026-04-24T17:28:23Z</time></trkpt><trkpt lat="37.03512256511633" lon="15.127346620112064"><ele>203.0</ele><time>2026-04-24T17:28:24Z</time></trkpt><trkpt lat="37.03510462164837" lon="15.127482793612652"><ele>203.0</ele><time>2026-04-24T17:28:25Z</time></trkpt><trkpt lat="37.03509354454503" lon="15.127589161800682"><ele>203.0</ele><time>2026-04-24T17:28:26Z</time></trkpt><trkpt lat="37.03507342463851" lon="15.127669460253353"><ele>203.00000000000003</ele><time>2026-04-24T17:28:27Z</time></trkpt><trkpt lat="37.03506966834737" lon="15.12774918690727"><ele>203.0</ele><time>2026-04-24T17:28:29Z</time></trkpt><trkpt lat="37.035227060351744" lon="15.1273879186958"><ele>203.00000000000003</ele><time>2026-04-24T17:28:44.999Z</time></trkpt><trkpt lat="37.03512414592034" lon="15.127427695379193"><ele>203.0</ele><time>2026-04-24T17:28:45.999Z</time></trkpt><trkpt lat="37.035162017128236" lon="15.12733525828129"><ele>203.0</ele><time>2026-04-24T17:28:46.999Z</time></trkpt><trkpt lat="37.03515641230142" lon="15.127229931220358"><ele>203.0</ele><time>2026-04-24T17:28:48.999Z</time></trkpt><trkpt lat="37.03507786522033" lon="15.127183136011359"><ele>203.00000000000003</ele><time>2026-04-24T17:28:50.999Z</time></trkpt><trkpt lat="37.03513644628516" lon="15.127233102680076"><ele>203.0</ele><time>2026-04-24T17:29:07.999Z</time></trkpt><trkpt lat="37.03515550565901" lon="15.127331193520284"><ele>203.2</ele><time>2026-04-24T17:29:09.999Z</time></trkpt><trkpt lat="37.035121148883206" lon="15.127420528904532"><ele>203.4</ele><time>2026-04-24T17:29:10.999Z</time></trkpt><trkpt lat="37.03508697729411" lon="15.127543239526695"><ele>203.6</ele><time>2026-04-24T17:29:11.999Z</time></trkpt><trkpt lat="37.03507213780838" lon="15.127664514547392"><ele>203.79999999999998</ele><time>2026-04-24T17:29:12.999Z</time></trkpt><trkpt lat="37.03507613532793" lon="15.12782963085633"><ele>204.0</ele><time>2026-04-24T17:29:13.999Z</time></trkpt><trkpt lat="37.03506408865417" lon="15.128041944410084"><ele>204.0</ele><time>2026-04-24T17:29:14.999Z</time></trkpt><trkpt lat="37.03506199048762" lon="15.128259879285528"><ele>204.0</ele><time>2026-04-24T17:29:15.999Z</time></trkpt><trkpt lat="37.03503227351639" lon="15.128482313612157"><ele>204.0</ele><time>2026-04-24T17:29:16.999Z</time></trkpt><trkpt lat="37.035019979664014" lon="15.128696124535706"><ele>204.0</ele><time>2026-04-24T17:29:17.999Z</time></trkpt><trkpt lat="37.03505922189235" lon="15.128922185788326"><ele>204.0</ele><time>2026-04-24T17:29:18.999Z</time></trkpt><trkpt lat="37.03506861419045" lon="15.129145023153423"><ele>204.0</ele><time>2026-04-24T17:29:19.999Z</time></trkpt><trkpt lat="37.03506342548968" lon="15.129348461047663"><ele>204.66666666666669</ele><time>2026-04-24T17:29:20.999Z</time></trkpt><trkpt lat="37.03511129874165" lon="15.129536762445607"><ele>205.33333333333334</ele><time>2026-04-24T17:29:21.999Z</time></trkpt><trkpt lat="37.035150621975845" lon="15.129751596888445"><ele>206.0</ele><time>2026-04-24T17:29:22.999Z</time></trkpt><trkpt lat="37.03517906731261" lon="15.129971695247194"><ele>207.33333333333334</ele><time>2026-04-24T17:29:23.999Z</time></trkpt><trkpt lat="37.03521650007121" lon="15.130181812122055"><ele>208.66666666666669</ele><time>2026-04-24T17:29:24.999Z</time></trkpt><trkpt lat="37.035248487769756" lon="15.130365903391773"><ele>210.0</ele><time>2026-04-24T17:29:25.999Z</time></trkpt><trkpt lat="37.03528227287494" lon="15.130560338903846"><ele>210.0</ele><time>2026-04-24T17:29:26.999Z</time></trkpt><trkpt lat="37.03531618132257" lon="15.130757549942302"><ele>210.0</ele><time>2026-04-24T17:29:27.999Z</time></trkpt><trkpt lat="37.03535053888648" lon="15.130964631064174"><ele>210.0</ele><time>2026-04-24T17:29:28.999Z</time></trkpt><trkpt lat="37.03539839759016" lon="15.131158433063005"><ele>210.0</ele><time>2026-04-24T17:29:29.999Z</time></trkpt><trkpt lat="37.035427602123335" lon="15.131361705891957"><ele>210.0</ele><time>2026-04-24T17:29:30.999Z</time></trkpt><trkpt lat="37.03546914435429" lon="15.13156820480701"><ele>210.0</ele><time>2026-04-24T17:29:31.999Z</time></trkpt><trkpt lat="37.0355057166542" lon="15.13178412481002"><ele>210.33333333333331</ele><time>2026-04-24T17:29:32.999Z</time></trkpt><trkpt lat="37.03554658071177" lon="15.131990754491913"><ele>210.66666666666666</ele><time>2026-04-24T17:29:33.999Z</time></trkpt><trkpt lat="37.03557744685584" lon="15.132189337569114"><ele>211.0</ele><time>2026-04-24T17:29:34.999Z</time></trkpt><trkpt lat="37.03560207833337" lon="15.132356374171692"><ele>211.20000000000002</ele><time>2026-04-24T17:29:35.999Z</time></trkpt><trkpt lat="37.03562548467711" lon="15.132501115168516"><ele>211.4</ele><time>2026-04-24T17:29:36.999Z</time></trkpt><trkpt lat="37.03564489864656" lon="15.132631819454364"><ele>211.6</ele><time>2026-04-24T17:29:37.999Z</time></trkpt><trkpt lat="37.0356600538808" lon="15.132735065395305"><ele>211.8</ele><time>2026-04-24T17:29:38.999Z</time></trkpt><trkpt lat="37.03563195724281" lon="15.132827471659663"><ele>212.0</ele><time>2026-04-24T17:29:39.999Z</time></trkpt><trkpt lat="37.03561823660719" lon="15.132950540482723"><ele>212.0</ele><time>2026-04-24T17:29:40.999Z</time></trkpt><trkpt lat="37.035613034182234" lon="15.133110544224534"><ele>212.0</ele><time>2026-04-24T17:29:41.999Z</time></trkpt><trkpt lat="37.03559477536489" lon="15.13329166390015"><ele>212.0</ele><time>2026-04-24T17:29:42.999Z</time></trkpt><trkpt lat="37.035553864454805" lon="15.133479370404627"><ele>212.0</ele><time>2026-04-24T17:29:43.999Z</time></trkpt><trkpt lat="37.03552526137527" lon="15.133709660614455"><ele>212.0</ele><time>2026-04-24T17:29:44.999Z</time></trkpt><trkpt lat="37.03549310845233" lon="15.13398617913026"><ele>212.0</ele><time>2026-04-24T17:29:45.999Z</time></trkpt><trkpt lat="37.035464635304294" lon="15.134239336032183"><ele>212.0</ele><time>2026-04-24T17:29:46.999Z</time></trkpt><trkpt lat="37.035432556610694" lon="15.134524550162524"><ele>212.0</ele><time>2026-04-24T17:29:47.999Z</time></trkpt><trkpt lat="37.03539773945391" lon="15.134830740523398"><ele>212.0</ele><time>2026-04-24T17:29:48.999Z</time></trkpt><trkpt lat="37.03532548730417" lon="15.135169689626911"><ele>210.66666666666669</ele><time>2026-04-24T17:29:49.999Z</time></trkpt><trkpt lat="37.03533726175935" lon="15.13535434725079"><ele>209.33333333333331</ele><time>2026-04-24T17:29:50.999Z</time></trkpt><trkpt lat="37.03531034144118" lon="15.135587419088607"><ele>208.0</ele><time>2026-04-24T17:29:51.999Z</time></trkpt><trkpt lat="37.03528327089503" lon="15.135817842531612"><ele>207.33333333333331</ele><time>2026-04-24T17:29:52.999Z</time></trkpt><trkpt lat="37.035255640842884" lon="15.136050034660926"><ele>206.66666666666669</ele><time>2026-04-24T17:29:53.999Z</time></trkpt><trkpt lat="37.035229039798196" lon="15.136276896611065"><ele>206.0</ele><time>2026-04-24T17:29:54.998Z</time></trkpt><trkpt lat="37.03520749597417" lon="15.136479257632926"><ele>204.66666666666669</ele><time>2026-04-24T17:29:55.998Z</time></trkpt><trkpt lat="37.03518562461346" lon="15.136684695368126"><ele>203.33333333333331</ele><time>2026-04-24T17:29:56.998Z</time></trkpt><trkpt lat="37.03516094517408" lon="15.136900389601223"><ele>202.0</ele><time>2026-04-24T17:29:58Z</time></trkpt><trkpt lat="37.035131979875665" lon="15.137080998533536"><ele>202.0</ele><time>2026-04-24T17:29:59Z</time></trkpt><trkpt lat="37.03509479973788" lon="15.137230858633759"><ele>202.0</ele><time>2026-04-24T17:30:00Z</time></trkpt><trkpt lat="37.03503767350578" lon="15.137327126693352"><ele>202.0</ele><time>2026-04-24T17:30:01Z</time></trkpt><trkpt lat="37.03496461400824" lon="15.137423774871165"><ele>202.0</ele><time>2026-04-24T17:30:02Z</time></trkpt><trkpt lat="37.03490998753984" lon="15.137500209626504"><ele>202.0</ele><time>2026-04-24T17:30:03Z</time></trkpt><trkpt lat="37.034795498803085" lon="15.13751239719149"><ele>201.33333333333331</ele><time>2026-04-24T17:30:04Z</time></trkpt><trkpt lat="37.03464202999824" lon="15.137612710250316"><ele>200.66666666666669</ele><time>2026-04-24T17:30:05Z</time></trkpt><trkpt lat="37.03444630861254" lon="15.137740641186582"><ele>200.0</ele><time>2026-04-24T17:30:06Z</time></trkpt><trkpt lat="37.03427095613975" lon="15.137855258194307"><ele>199.0</ele><time>2026-04-24T17:30:07Z</time></trkpt><trkpt lat="37.03409861145974" lon="15.137969406624263"><ele>198.0</ele><time>2026-04-24T17:30:08Z</time></trkpt><trkpt lat="37.03392873121846" lon="15.138082004752771"><ele>197.0</ele><time>2026-04-24T17:30:09Z</time></trkpt><trkpt lat="37.03376897939868" lon="15.13821107441804"><ele>195.33333333333334</ele><time>2026-04-24T17:30:10Z</time></trkpt><trkpt lat="37.03358031998013" lon="15.13831071439174"><ele>193.66666666666669</ele><time>2026-04-24T17:30:11Z</time></trkpt><trkpt lat="37.03344207225594" lon="15.138408019411669"><ele>192.0</ele><time>2026-04-24T17:30:12Z</time></trkpt><trkpt lat="37.0333132522642" lon="15.138518559794234"><ele>190.25</ele><time>2026-04-24T17:30:13Z</time></trkpt><trkpt lat="37.03320010086431" lon="15.138667602029658"><ele>188.5</ele><time>2026-04-24T17:30:15Z</time></trkpt><trkpt lat="37.03313125354736" lon="15.138773075903647"><ele>186.75</ele><time>2026-04-24T17:30:16Z</time></trkpt><trkpt lat="37.03307086038612" lon="15.138904007536523"><ele>185.0</ele><time>2026-04-24T17:30:17Z</time></trkpt><trkpt lat="37.03302266062395" lon="15.139056613515853"><ele>183.0</ele><time>2026-04-24T17:30:18Z</time></trkpt><trkpt lat="37.03299169294594" lon="15.139229953628151"><ele>181.0</ele><time>2026-04-24T17:30:19Z</time></trkpt><trkpt lat="37.032956935274576" lon="15.139412082686645"><ele>179.0</ele><time>2026-04-24T17:30:20Z</time></trkpt><trkpt lat="37.032916876427066" lon="15.139616717798026"><ele>179.0</ele><time>2026-04-24T17:30:21Z</time></trkpt><trkpt lat="37.03288497451795" lon="15.139821821254698"><ele>179.0</ele><time>2026-04-24T17:30:22Z</time></trkpt><trkpt lat="37.03287437138321" lon="15.139996215638249"><ele>179.0</ele><time>2026-04-24T17:30:23Z</time></trkpt><trkpt lat="37.032823331911004" lon="15.14012248622488"><ele>179.0</ele><time>2026-04-24T17:30:24Z</time></trkpt><trkpt lat="37.03277621022668" lon="15.140248901809672"><ele>178.25</ele><time>2026-04-24T17:30:25Z</time></trkpt><trkpt lat="37.032710659429476" lon="15.140387065247998"><ele>177.5</ele><time>2026-04-24T17:30:26Z</time></trkpt><trkpt lat="37.03263561620202" lon="15.140495847540206"><ele>176.75</ele><time>2026-04-24T17:30:27Z</time></trkpt><trkpt lat="37.03254736808447" lon="15.140590347094998"><ele>176.0</ele><time>2026-04-24T17:30:28Z</time></trkpt><trkpt lat="37.032419293639315" lon="15.140658350578867"><ele>173.66666666666666</ele><time>2026-04-24T17:30:29Z</time></trkpt><trkpt lat="37.0322643131537" lon="15.140726819606478"><ele>171.33333333333334</ele><time>2026-04-24T17:30:30Z</time></trkpt><trkpt lat="37.03209179617803" lon="15.140789537056332"><ele>169.0</ele><time>2026-04-24T17:30:31Z</time></trkpt><trkpt lat="37.031897202381415" lon="15.14086515438667"><ele>169.0</ele><time>2026-04-24T17:30:32Z</time></trkpt><trkpt lat="37.031666185579375" lon="15.140938097171452"><ele>169.0</ele><time>2026-04-24T17:30:33Z</time></trkpt><trkpt lat="37.03154585778596" lon="15.141009718760007"><ele>169.0</ele><time>2026-04-24T17:30:34Z</time></trkpt><trkpt lat="37.031405381235466" lon="15.141072451962575"><ele>167.79999999999998</ele><time>2026-04-24T17:30:35Z</time></trkpt><trkpt lat="37.03129496494736" lon="15.14115313938765"><ele>166.6</ele><time>2026-04-24T17:30:36Z</time></trkpt><trkpt lat="37.03120476715401" lon="15.14120512573017"><ele>165.4</ele><time>2026-04-24T17:30:37Z</time></trkpt><trkpt lat="37.031140754531854" lon="15.141271231936116"><ele>164.2</ele><time>2026-04-24T17:30:38Z</time></trkpt><trkpt lat="37.031102127450424" lon="15.141358421407853"><ele>163.0</ele><time>2026-04-24T17:30:39Z</time></trkpt><trkpt lat="37.031084267568815" lon="15.141470565950184"><ele>159.5</ele><time>2026-04-24T17:30:40Z</time></trkpt><trkpt lat="37.031092945370965" lon="15.141605017597879"><ele>156.0</ele><time>2026-04-24T17:30:41Z</time></trkpt><trkpt lat="37.03113102357282" lon="15.141733204614695"><ele>152.5</ele><time>2026-04-24T17:30:42Z</time></trkpt><trkpt lat="37.031167800932245" lon="15.14188758012831"><ele>149.0</ele><time>2026-04-24T17:30:43Z</time></trkpt><trkpt lat="37.03121953645638" lon="15.142008129296402"><ele>149.0</ele><time>2026-04-24T17:30:44Z</time></trkpt><trkpt lat="37.03125884693753" lon="15.142105298920153"><ele>149.0</ele><time>2026-04-24T17:30:45Z</time></trkpt><trkpt lat="37.031298896588105" lon="15.142191306761124"><ele>149.0</ele><time>2026-04-24T17:30:46Z</time></trkpt><trkpt lat="37.03134738487742" lon="15.142263998872581"><ele>149.0</ele><time>2026-04-24T17:30:46.999Z</time></trkpt><trkpt lat="37.03140517048864" lon="15.142366119933985"><ele>149.0</ele><time>2026-04-24T17:30:47.999Z</time></trkpt><trkpt lat="37.031488978268534" lon="15.142346196227761"><ele>149.0</ele><time>2026-04-24T17:30:49.999Z</time></trkpt><trkpt lat="37.03159457742507" lon="15.142331835507347"><ele>152.5</ele><time>2026-04-24T17:30:52.999Z</time></trkpt><trkpt lat="37.031728212657654" lon="15.142313106361977"><ele>156.0</ele><time>2026-04-24T17:30:54.999Z</time></trkpt><trkpt lat="37.03182168142476" lon="15.14229022316212"><ele>159.5</ele><time>2026-04-24T17:30:55.999Z</time></trkpt><trkpt lat="37.03195478615755" lon="15.142235349156698"><ele>163.0</ele><time>2026-04-24T17:30:56.999Z</time></trkpt><trkpt lat="37.03206255631368" lon="15.142198182491311"><ele>163.0</ele><time>2026-04-24T17:30:57.999Z</time></trkpt><trkpt lat="37.03221211992812" lon="15.142143613926306"><ele>163.0</ele><time>2026-04-24T17:30:58.999Z</time></trkpt><trkpt lat="37.03233233389842" lon="15.14210305504404"><ele>163.0</ele><time>2026-04-24T17:30:59.999Z</time></trkpt><trkpt lat="37.032427389481214" lon="15.142106515590381"><ele>163.0</ele><time>2026-04-24T17:31:00.999Z</time></trkpt><trkpt lat="37.032490994067864" lon="15.142089477665644"><ele>163.0</ele><time>2026-04-24T17:31:01.999Z</time></trkpt><trkpt lat="37.03253465989959" lon="15.14219530697388"><ele>163.0</ele><time>2026-04-24T17:31:03.999Z</time></trkpt><trkpt lat="37.03248351688438" lon="15.142306213255862"><ele>163.0</ele><time>2026-04-24T17:31:04.999Z</time></trkpt><trkpt lat="37.032381681551335" lon="15.142318480224777"><ele>163.0</ele><time>2026-04-24T17:31:05.999Z</time></trkpt><trkpt lat="37.032270790806635" lon="15.142354700985912"><ele>163.0</ele><time>2026-04-24T17:31:06.999Z</time></trkpt><trkpt lat="37.03212670959711" lon="15.142400524905558"><ele>157.33333333333334</ele><time>2026-04-24T17:31:07.999Z</time></trkpt><trkpt lat="37.03194285065931" lon="15.142461495237699"><ele>151.66666666666666</ele><time>2026-04-24T17:31:08.999Z</time></trkpt><trkpt lat="37.03180398764791" lon="15.142512959146078"><ele>146.0</ele><time>2026-04-24T17:31:09.999Z</time></trkpt><trkpt lat="37.031680931242654" lon="15.142531246064394"><ele>140.2</ele><time>2026-04-24T17:31:10.999Z</time></trkpt><trkpt lat="37.03155788322798" lon="15.14257726316838"><ele>134.39999999999998</ele><time>2026-04-24T17:31:11.999Z</time></trkpt><trkpt lat="37.031477008772825" lon="15.142613345691691"><ele>128.6</ele><time>2026-04-24T17:31:12.999Z</time></trkpt><trkpt lat="37.03141859231254" lon="15.14265272640976"><ele>122.8</ele><time>2026-04-24T17:31:13.999Z</time></trkpt><trkpt lat="37.03133664346572" lon="15.142718666340182"><ele>117.0</ele><time>2026-04-24T17:31:15.999Z</time></trkpt><trkpt lat="37.03141234842672" lon="15.142869999131317"><ele>117.0</ele><time>2026-04-24T17:31:16.999Z</time></trkpt><trkpt lat="37.03150691265467" lon="15.142913754488367"><ele>116.99999999999999</ele><time>2026-04-24T17:31:18.999Z</time></trkpt><trkpt lat="37.03163092160943" lon="15.142888695668685"><ele>116.99999999999999</ele><time>2026-04-24T17:31:20.999Z</time></trkpt><trkpt lat="37.03172644114863" lon="15.142871124776434"><ele>117.0</ele><time>2026-04-24T17:31:21.999Z</time></trkpt><trkpt lat="37.031839457548834" lon="15.142849562970039"><ele>117.0</ele><time>2026-04-24T17:31:22.999Z</time></trkpt><trkpt lat="37.03196033229993" lon="15.142833502367205"><ele>122.8</ele><time>2026-04-24T17:31:23.999Z</time></trkpt><trkpt lat="37.03207845635133" lon="15.14282241274845"><ele>128.6</ele><time>2026-04-24T17:31:24.999Z</time></trkpt><trkpt lat="37.032184415986464" lon="15.142812874161162"><ele>134.39999999999998</ele><time>2026-04-24T17:31:25.999Z</time></trkpt><trkpt lat="37.03225636521472" lon="15.142803396807864"><ele>140.2</ele><time>2026-04-24T17:31:26.999Z</time></trkpt><trkpt lat="37.0323333297651" lon="15.142775470892092"><ele>146.0</ele><time>2026-04-24T17:31:28.999Z</time></trkpt><trkpt lat="37.03245962790849" lon="15.142728534466055"><ele>145.85714285714286</ele><time>2026-04-24T17:31:30.999Z</time></trkpt><trkpt lat="37.032523464113765" lon="15.142697277744848"><ele>145.71428571428572</ele><time>2026-04-24T17:31:31.999Z</time></trkpt><trkpt lat="37.03260464111669" lon="15.142671035281932"><ele>145.57142857142858</ele><time>2026-04-24T17:31:32.999Z</time></trkpt><trkpt lat="37.03268728109939" lon="15.14263894904146"><ele>145.42857142857144</ele><time>2026-04-24T17:31:33.999Z</time></trkpt><trkpt lat="37.03275286326825" lon="15.142618197716532"><ele>145.2857142857143</ele><time>2026-04-24T17:31:34.999Z</time></trkpt><trkpt lat="37.032821217209765" lon="15.142595299504276"><ele>145.14285714285714</ele><time>2026-04-24T17:31:35.999Z</time></trkpt><trkpt lat="37.032886344991006" lon="15.14256162174545"><ele>145.0</ele><time>2026-04-24T17:31:36.999Z</time></trkpt><trkpt lat="37.03295599386233" lon="15.142520538249943"><ele>145.0</ele><time>2026-04-24T17:31:37.999Z</time></trkpt><trkpt lat="37.03302715045557" lon="15.14247660691525"><ele>145.0</ele><time>2026-04-24T17:31:38.999Z</time></trkpt><trkpt lat="37.03310329034254" lon="15.142432324483263"><ele>145.0</ele><time>2026-04-24T17:31:39.999Z</time></trkpt><trkpt lat="37.03319228858262" lon="15.142400429866296"><ele>145.0</ele><time>2026-04-24T17:31:40.999Z</time></trkpt><trkpt lat="37.03328597271067" lon="15.142337403732302"><ele>145.0</ele><time>2026-04-24T17:31:41.999Z</time></trkpt><trkpt lat="37.03339104243107" lon="15.142286527991294"><ele>149.5</ele><time>2026-04-24T17:31:42.999Z</time></trkpt><trkpt lat="37.03349872732901" lon="15.14223884179919"><ele>154.0</ele><time>2026-04-24T17:31:43.999Z</time></trkpt><trkpt lat="37.03360649805897" lon="15.142189593508618"><ele>158.5</ele><time>2026-04-24T17:31:44.999Z</time></trkpt><trkpt lat="37.03371767598794" lon="15.142130529491666"><ele>163.0</ele><time>2026-04-24T17:31:45.999Z</time></trkpt><trkpt lat="37.033817283359795" lon="15.142049921003913"><ele>163.0</ele><time>2026-04-24T17:31:46.999Z</time></trkpt><trkpt lat="37.03392800253972" lon="15.141958299468351"><ele>163.0</ele><time>2026-04-24T17:31:47.999Z</time></trkpt><trkpt lat="37.034054574886206" lon="15.141880230735225"><ele>163.0</ele><time>2026-04-24T17:31:48.999Z</time></trkpt><trkpt lat="37.034189514375136" lon="15.141799327781754"><ele>163.0</ele><time>2026-04-24T17:31:49.999Z</time></trkpt><trkpt lat="37.03431880751861" lon="15.1417198545717"><ele>166.33333333333334</ele><time>2026-04-24T17:31:50.999Z</time></trkpt><trkpt lat="37.034439074383414" lon="15.141603852264717"><ele>169.66666666666666</ele><time>2026-04-24T17:31:51.999Z</time></trkpt><trkpt lat="37.03454710164549" lon="15.141493837239672"><ele>173.0</ele><time>2026-04-24T17:31:52.999Z</time></trkpt><trkpt lat="37.03469182895625" lon="15.141406861193957"><ele>173.0</ele><time>2026-04-24T17:31:53.999Z</time></trkpt><trkpt lat="37.03486074752311" lon="15.141276169189334"><ele>173.0</ele><time>2026-04-24T17:31:54.998Z</time></trkpt><trkpt lat="37.035005162735885" lon="15.141163679401503"><ele>173.0</ele><time>2026-04-24T17:31:55.998Z</time></trkpt><trkpt lat="37.035131054040356" lon="15.141073470754394"><ele>172.5</ele><time>2026-04-24T17:31:56.998Z</time></trkpt><trkpt lat="37.035248595164816" lon="15.140991973996403"><ele>172.0</ele><time>2026-04-24T17:31:57.998Z</time></trkpt><trkpt lat="37.03535294394963" lon="15.140899669744458"><ele>171.5</ele><time>2026-04-24T17:31:58.998Z</time></trkpt><trkpt lat="37.03544376844776" lon="15.140777269847197"><ele>171.0</ele><time>2026-04-24T17:31:59.998Z</time></trkpt><trkpt lat="37.03554264776083" lon="15.14064722183272"><ele>171.0</ele><time>2026-04-24T17:32:00.998Z</time></trkpt><trkpt lat="37.03564224245107" lon="15.140516095343289"><ele>171.0</ele><time>2026-04-24T17:32:01.998Z</time></trkpt><trkpt lat="37.03573944364052" lon="15.14039560724504"><ele>171.0</ele><time>2026-04-24T17:32:02.998Z</time></trkpt><trkpt lat="37.035838316764874" lon="15.140274195542666"><ele>171.0</ele><time>2026-04-24T17:32:04Z</time></trkpt><trkpt lat="37.035940229509194" lon="15.140144235700939"><ele>163.33333333333334</ele><time>2026-04-24T17:32:05Z</time></trkpt><trkpt lat="37.036049527191864" lon="15.140008040331185"><ele>155.66666666666669</ele><time>2026-04-24T17:32:06Z</time></trkpt><trkpt lat="37.03615833744342" lon="15.139865880036838"><ele>148.0</ele><time>2026-04-24T17:32:07Z</time></trkpt><trkpt lat="37.03625668590351" lon="15.139744104017161"><ele>148.0</ele><time>2026-04-24T17:32:08Z</time></trkpt><trkpt lat="37.036332986551365" lon="15.139637447045361"><ele>148.0</ele><time>2026-04-24T17:32:09Z</time></trkpt><trkpt lat="37.03640692041781" lon="15.139552760454578"><ele>148.0</ele><time>2026-04-24T17:32:10Z</time></trkpt><trkpt lat="37.03648381961407" lon="15.139509267387876"><ele>148.0</ele><time>2026-04-24T17:32:11Z</time></trkpt><trkpt lat="37.03653091622831" lon="15.139454203004007"><ele>148.0</ele><time>2026-04-24T17:32:12Z</time></trkpt><trkpt lat="37.03659073938021" lon="15.139503735518065"><ele>148.0</ele><time>2026-04-24T17:32:13Z</time></trkpt><trkpt lat="37.036630441388866" lon="15.139646329088226"><ele>148.0</ele><time>2026-04-24T17:32:15Z</time></trkpt><trkpt lat="37.036635533616646" lon="15.13974842283954"><ele>148.0</ele><time>2026-04-24T17:32:16Z</time></trkpt><trkpt lat="37.03657989963836" lon="15.139840442525344"><ele>148.0</ele><time>2026-04-24T17:32:17Z</time></trkpt><trkpt lat="37.03651060290528" lon="15.140001868197334"><ele>148.0</ele><time>2026-04-24T17:32:18Z</time></trkpt><trkpt lat="37.03646731822089" lon="15.140166103774051"><ele>143.0</ele><time>2026-04-24T17:32:19Z</time></trkpt><trkpt lat="37.03638686719305" lon="15.14032092575673"><ele>138.0</ele><time>2026-04-24T17:32:20Z</time></trkpt><trkpt lat="37.03631258873655" lon="15.140497192583684"><ele>133.0</ele><time>2026-04-24T17:32:21Z</time></trkpt><trkpt lat="37.03624408657795" lon="15.140659397921143"><ele>130.6</ele><time>2026-04-24T17:32:22Z</time></trkpt><trkpt lat="37.03620773558525" lon="15.140795867880692"><ele>128.20000000000002</ele><time>2026-04-24T17:32:23Z</time></trkpt><trkpt lat="37.036163157687504" lon="15.140904753971972"><ele>125.8</ele><time>2026-04-24T17:32:24Z</time></trkpt><trkpt lat="37.036146343322926" lon="15.140994128516036"><ele>123.4</ele><time>2026-04-24T17:32:25Z</time></trkpt><trkpt lat="37.03616836105467" lon="15.141077589250042"><ele>121.0</ele><time>2026-04-24T17:32:26Z</time></trkpt><trkpt lat="37.03623764867964" lon="15.141176073868227"><ele>121.0</ele><time>2026-04-24T17:32:27Z</time></trkpt><trkpt lat="37.03632185489857" lon="15.141288374255081"><ele>121.0</ele><time>2026-04-24T17:32:28Z</time></trkpt><trkpt lat="37.03642758383" lon="15.141433872192186"><ele>121.0</ele><time>2026-04-24T17:32:29Z</time></trkpt><trkpt lat="37.03654315810619" lon="15.141583871084014"><ele>121.0</ele><time>2026-04-24T17:32:30Z</time></trkpt><trkpt lat="37.03666180358899" lon="15.141740317934133"><ele>115.0</ele><time>2026-04-24T17:32:31Z</time></trkpt><trkpt lat="37.036794166052566" lon="15.141891745955036"><ele>109.0</ele><time>2026-04-24T17:32:32Z</time></trkpt><trkpt lat="37.03690560215803" lon="15.142064056734426"><ele>103.0</ele><time>2026-04-24T17:32:33Z</time></trkpt><trkpt lat="37.037016626419636" lon="15.142208345465967"><ele>103.0</ele><time>2026-04-24T17:32:34Z</time></trkpt><trkpt lat="37.03712500874295" lon="15.142349482738586"><ele>103.0</ele><time>2026-04-24T17:32:35Z</time></trkpt><trkpt lat="37.03723609856259" lon="15.142466819977745"><ele>103.0</ele><time>2026-04-24T17:32:36Z</time></trkpt><trkpt lat="37.03734403975617" lon="15.142611954990285"><ele>103.0</ele><time>2026-04-24T17:32:37Z</time></trkpt><trkpt lat="37.037440351185055" lon="15.14276999709843"><ele>103.0</ele><time>2026-04-24T17:32:38Z</time></trkpt><trkpt lat="37.03755900536768" lon="15.142932069747847"><ele>103.0</ele><time>2026-04-24T17:32:39Z</time></trkpt><trkpt lat="37.037683078852254" lon="15.143099719023414"><ele>101.66666666666667</ele><time>2026-04-24T17:32:40Z</time></trkpt><trkpt lat="37.03780510863642" lon="15.14325956401437"><ele>100.33333333333334</ele><time>2026-04-24T17:32:41Z</time></trkpt><trkpt lat="37.0379426131056" lon="15.143413028516214"><ele>99.0</ele><time>2026-04-24T17:32:42Z</time></trkpt><trkpt lat="37.038063885469825" lon="15.143576543868564"><ele>99.0</ele><time>2026-04-24T17:32:43Z</time></trkpt><trkpt lat="37.03816763124593" lon="15.143736329249815"><ele>99.0</ele><time>2026-04-24T17:32:44Z</time></trkpt><trkpt lat="37.038274422324214" lon="15.143882856652885"><ele>99.0</ele><time>2026-04-24T17:32:45Z</time></trkpt><trkpt lat="37.038390211548965" lon="15.144038108434415"><ele>97.66666666666667</ele><time>2026-04-24T17:32:46Z</time></trkpt><trkpt lat="37.038511328081" lon="15.144198993370978"><ele>96.33333333333334</ele><time>2026-04-24T17:32:47Z</time></trkpt><trkpt lat="37.038626676728704" lon="15.144352216660689"><ele>95.0</ele><time>2026-04-24T17:32:48Z</time></trkpt><trkpt lat="37.038742244548516" lon="15.144478541455879"><ele>95.0</ele><time>2026-04-24T17:32:49Z</time></trkpt><trkpt lat="37.03883309278894" lon="15.144627396314158"><ele>95.0</ele><time>2026-04-24T17:32:50Z</time></trkpt><trkpt lat="37.03894321059671" lon="15.144775828672122"><ele>95.0</ele><time>2026-04-24T17:32:50.999Z</time></trkpt><trkpt lat="37.039055358383614" lon="15.144924539919272"><ele>94.33333333333334</ele><time>2026-04-24T17:32:51.999Z</time></trkpt><trkpt lat="37.03916016950237" lon="15.145060301482939"><ele>93.66666666666667</ele><time>2026-04-24T17:32:52.999Z</time></trkpt><trkpt lat="37.039264151417" lon="15.145197334334897"><ele>93.0</ele><time>2026-04-24T17:32:53.999Z</time></trkpt><trkpt lat="37.03937465837314" lon="15.145345460233676"><ele>93.0</ele><time>2026-04-24T17:32:54.999Z</time></trkpt><trkpt lat="37.03948150484793" lon="15.14548968065183"><ele>93.0</ele><time>2026-04-24T17:32:55.999Z</time></trkpt><trkpt lat="37.039587494357335" lon="15.145632614838991"><ele>93.0</ele><time>2026-04-24T17:32:56.999Z</time></trkpt><trkpt lat="37.03969356000112" lon="15.145773365906225"><ele>92.66666666666667</ele><time>2026-04-24T17:32:57.999Z</time></trkpt><trkpt lat="37.039789521090604" lon="15.145900140924523"><ele>92.33333333333334</ele><time>2026-04-24T17:32:58.999Z</time></trkpt><trkpt lat="37.0399022966314" lon="15.146048998280218"><ele>92.0</ele><time>2026-04-24T17:32:59.999Z</time></trkpt><trkpt lat="37.040006019417596" lon="15.14618640132551"><ele>92.0</ele><time>2026-04-24T17:33:00.999Z</time></trkpt><trkpt lat="37.040098495023585" lon="15.146311366797043"><ele>92.0</ele><time>2026-04-24T17:33:01.999Z</time></trkpt><trkpt lat="37.040168633949406" lon="15.146406147497546"><ele>92.0</ele><time>2026-04-24T17:33:02.999Z</time></trkpt><trkpt lat="37.040267565345935" lon="15.146538937209785"><ele>92.0</ele><time>2026-04-24T17:33:03.999Z</time></trkpt><trkpt lat="37.0403688854431" lon="15.146675065541917"><ele>91.75</ele><time>2026-04-24T17:33:04.999Z</time></trkpt><trkpt lat="37.040470290539275" lon="15.146811308164907"><ele>91.5</ele><time>2026-04-24T17:33:05.999Z</time></trkpt><trkpt lat="37.040567464182175" lon="15.14694096622368"><ele>91.25</ele><time>2026-04-24T17:33:06.999Z</time></trkpt><trkpt lat="37.04066827799608" lon="15.14707522229569"><ele>91.0</ele><time>2026-04-24T17:33:07.999Z</time></trkpt><trkpt lat="37.04076984695032" lon="15.14720986700649"><ele>90.5</ele><time>2026-04-24T17:33:08.999Z</time></trkpt><trkpt lat="37.040873667631985" lon="15.147347431848937"><ele>90.0</ele><time>2026-04-24T17:33:09.999Z</time></trkpt><trkpt lat="37.04097240737812" lon="15.147478264381549"><ele>89.5</ele><time>2026-04-24T17:33:10.999Z</time></trkpt><trkpt lat="37.041067602194545" lon="15.147605897239892"><ele>89.0</ele><time>2026-04-24T17:33:11.999Z</time></trkpt><trkpt lat="37.04115183513941" lon="15.147719236153284"><ele>88.66666666666667</ele><time>2026-04-24T17:33:12.999Z</time></trkpt><trkpt lat="37.0412603757353" lon="15.147835182128562"><ele>88.33333333333333</ele><time>2026-04-24T17:33:13.999Z</time></trkpt><trkpt lat="37.04135686492197" lon="15.147975335942377"><ele>88.0</ele><time>2026-04-24T17:33:14.999Z</time></trkpt><trkpt lat="37.041465467625656" lon="15.148132904154725"><ele>88.0</ele><time>2026-04-24T17:33:15.999Z</time></trkpt><trkpt lat="37.04155670808548" lon="15.148238123885445"><ele>88.0</ele><time>2026-04-24T17:33:16.999Z</time></trkpt><trkpt lat="37.041653216796746" lon="15.14837206816187"><ele>88.0</ele><time>2026-04-24T17:33:17.999Z</time></trkpt><trkpt lat="37.04175003351102" lon="15.148502851081448"><ele>88.0</ele><time>2026-04-24T17:33:18.999Z</time></trkpt><trkpt lat="37.04185037839998" lon="15.148630895185866"><ele>87.75</ele><time>2026-04-24T17:33:19.999Z</time></trkpt><trkpt lat="37.04194489446581" lon="15.148763045751105"><ele>87.5</ele><time>2026-04-24T17:33:20.999Z</time></trkpt><trkpt lat="37.04204089310783" lon="15.148897935759122"><ele>87.25</ele><time>2026-04-24T17:33:21.999Z</time></trkpt><trkpt lat="37.04215145877437" lon="15.1490354860145"><ele>87.0</ele><time>2026-04-24T17:33:22.999Z</time></trkpt><trkpt lat="37.042262420210996" lon="15.149178130918449"><ele>86.33333333333333</ele><time>2026-04-24T17:33:23.999Z</time></trkpt><trkpt lat="37.042375364183094" lon="15.149333258735163"><ele>85.66666666666666</ele><time>2026-04-24T17:33:24.999Z</time></trkpt><trkpt lat="37.042475749029954" lon="15.149473861173284"><ele>85.0</ele><time>2026-04-24T17:33:25.999Z</time></trkpt><trkpt lat="37.042572521309395" lon="15.149611326294922"><ele>85.0</ele><time>2026-04-24T17:33:26.999Z</time></trkpt><trkpt lat="37.04268348638763" lon="15.14974246059708"><ele>85.0</ele><time>2026-04-24T17:33:27.999Z</time></trkpt><trkpt lat="37.04278200622716" lon="15.149899970881924"><ele>85.0</ele><time>2026-04-24T17:33:28.999Z</time></trkpt><trkpt lat="37.04289980318532" lon="15.150049698758604"><ele>85.0</ele><time>2026-04-24T17:33:29.999Z</time></trkpt><trkpt lat="37.04300793594324" lon="15.150182441022254"><ele>85.0</ele><time>2026-04-24T17:33:30.999Z</time></trkpt><trkpt lat="37.0431060245597" lon="15.15030904526644"><ele>85.0</ele><time>2026-04-24T17:33:31.999Z</time></trkpt><trkpt lat="37.043201663499886" lon="15.150438301427199"><ele>85.0</ele><time>2026-04-24T17:33:32.999Z</time></trkpt><trkpt lat="37.04329917487721" lon="15.150569525629612"><ele>85.25</ele><time>2026-04-24T17:33:33.999Z</time></trkpt><trkpt lat="37.04340159307763" lon="15.150700455525774"><ele>85.5</ele><time>2026-04-24T17:33:34.999Z</time></trkpt><trkpt lat="37.04349322701939" lon="15.15082389345804"><ele>85.75</ele><time>2026-04-24T17:33:35.999Z</time></trkpt><trkpt lat="37.04358847078819" lon="15.150944838726007"><ele>86.0</ele><time>2026-04-24T17:33:36.999Z</time></trkpt><trkpt lat="37.04369116219839" lon="15.151092944896014"><ele>84.66666666666667</ele><time>2026-04-24T17:33:37.999Z</time></trkpt><trkpt lat="37.04379891396519" lon="15.151236274861342"><ele>83.33333333333333</ele><time>2026-04-24T17:33:38.999Z</time></trkpt><trkpt lat="37.0439085240538" lon="15.15136951824941"><ele>82.0</ele><time>2026-04-24T17:33:39.999Z</time></trkpt><trkpt lat="37.04401422364553" lon="15.151537140702768"><ele>82.33333333333333</ele><time>2026-04-24T17:33:40.999Z</time></trkpt><trkpt lat="37.04413962894899" lon="15.151673355996847"><ele>82.66666666666667</ele><time>2026-04-24T17:33:41.999Z</time></trkpt><trkpt lat="37.04425366018202" lon="15.15182471492903"><ele>83.0</ele><time>2026-04-24T17:33:42.999Z</time></trkpt><trkpt lat="37.04435766413348" lon="15.151990735018792"><ele>83.0</ele><time>2026-04-24T17:33:43.999Z</time></trkpt><trkpt lat="37.044457633387694" lon="15.15209509048042"><ele>83.0</ele><time>2026-04-24T17:33:44.999Z</time></trkpt><trkpt lat="37.04454257762973" lon="15.152216082993409"><ele>83.0</ele><time>2026-04-24T17:33:45.999Z</time></trkpt><trkpt lat="37.044633196323694" lon="15.152335969623145"><ele>83.0</ele><time>2026-04-24T17:33:46.999Z</time></trkpt><trkpt lat="37.04472317600458" lon="15.152454301511312"><ele>82.60000000000001</ele><time>2026-04-24T17:33:47.999Z</time></trkpt><trkpt lat="37.04480135578923" lon="15.152559087308235"><ele>82.2</ele><time>2026-04-24T17:33:48.999Z</time></trkpt><trkpt lat="37.04486676419813" lon="15.152663642133"><ele>81.8</ele><time>2026-04-24T17:33:49.999Z</time></trkpt><trkpt lat="37.04490150873545" lon="15.15276970160547"><ele>81.4</ele><time>2026-04-24T17:33:50.999Z</time></trkpt><trkpt lat="37.04491958575577" lon="15.15287195380455"><ele>81.0</ele><time>2026-04-24T17:33:51.999Z</time></trkpt><trkpt lat="37.044932289694955" lon="15.152995342329579"><ele>81.0</ele><time>2026-04-24T17:33:52.999Z</time></trkpt><trkpt lat="37.0449624514406" lon="15.153147538696214"><ele>81.0</ele><time>2026-04-24T17:33:53.999Z</time></trkpt><trkpt lat="37.04499559205513" lon="15.153309979924417"><ele>81.0</ele><time>2026-04-24T17:33:54.999Z</time></trkpt><trkpt lat="37.0450044307333" lon="15.153463571119174"><ele>81.0</ele><time>2026-04-24T17:33:55.999Z</time></trkpt><trkpt lat="37.04503601533483" lon="15.153622510998206"><ele>80.2</ele><time>2026-04-24T17:33:56.999Z</time></trkpt><trkpt lat="37.045067344636514" lon="15.153764561064426"><ele>79.39999999999999</ele><time>2026-04-24T17:33:57.999Z</time></trkpt><trkpt lat="37.045085083991765" lon="15.153904001278274"><ele>78.6</ele><time>2026-04-24T17:33:58.999Z</time></trkpt><trkpt lat="37.04511273017197" lon="15.15403796172702"><ele>77.8</ele><time>2026-04-24T17:33:59.998Z</time></trkpt><trkpt lat="37.045133930495915" lon="15.154159644159247"><ele>77.0</ele><time>2026-04-24T17:34:00.998Z</time></trkpt><trkpt lat="37.045151006113166" lon="15.154257517867126"><ele>76.0</ele><time>2026-04-24T17:34:01.998Z</time></trkpt><trkpt lat="37.045146349434006" lon="15.154353963475222"><ele>75.0</ele><time>2026-04-24T17:34:03.998Z</time></trkpt><trkpt lat="37.0450558545841" lon="15.15438436052189"><ele>74.0</ele><time>2026-04-24T17:34:05.998Z</time></trkpt><trkpt lat="37.04500329618127" lon="15.15442819538356"><ele>73.0</ele><time>2026-04-24T17:34:06.998Z</time></trkpt><trkpt lat="37.044924754563866" lon="15.154529877094717"><ele>72.0</ele><time>2026-04-24T17:34:08.998Z</time></trkpt><trkpt lat="37.044830509473556" lon="15.154604247979071"><ele>71.8</ele><time>2026-04-24T17:34:11Z</time></trkpt><trkpt lat="37.04478370226614" lon="15.154698251420307"><ele>71.6</ele><time>2026-04-24T17:34:13Z</time></trkpt><trkpt lat="37.04472137220413" lon="15.154789238673287"><ele>71.39999999999999</ele><time>2026-04-24T17:34:15Z</time></trkpt><trkpt lat="37.04464406905476" lon="15.154902840477938"><ele>71.2</ele><time>2026-04-24T17:34:17Z</time></trkpt><trkpt lat="37.04455825908657" lon="15.155009705515972"><ele>71.0</ele><time>2026-04-24T17:34:19Z</time></trkpt><trkpt lat="37.04450687868107" lon="15.155069204931609"><ele>71.33333333333334</ele><time>2026-04-24T17:34:21Z</time></trkpt><trkpt lat="37.04454390917909" lon="15.155148376125378"><ele>71.66666666666667</ele><time>2026-04-24T17:34:32Z</time></trkpt><trkpt lat="37.04460756925913" lon="15.155135244039961"><ele>72.0</ele><time>2026-04-24T17:34:33Z</time></trkpt><trkpt lat="37.04469270021035" lon="15.15511604669703"><ele>72.33333333333333</ele><time>2026-04-24T17:34:34Z</time></trkpt><trkpt lat="37.04478644969984" lon="15.155113021393703"><ele>72.66666666666666</ele><time>2026-04-24T17:34:36Z</time></trkpt><trkpt lat="37.044851673913094" lon="15.155138488249545"><ele>73.0</ele><time>2026-04-24T17:34:39Z</time></trkpt><trkpt lat="37.044881511809066" lon="15.155249101223003"><ele>73.0</ele><time>2026-04-24T17:34:42Z</time></trkpt><trkpt lat="37.04492637248625" lon="15.15530471638134"><ele>73.0</ele><time>2026-04-24T17:34:44Z</time></trkpt><trkpt lat="37.044999600368854" lon="15.155368557857201"><ele>73.0</ele><time>2026-04-24T17:34:46Z</time></trkpt><trkpt lat="37.04506385400824" lon="15.155445447531568"><ele>73.0</ele><time>2026-04-24T17:34:48Z</time></trkpt><trkpt lat="37.04516231440117" lon="15.155547303311593"><ele>73.0</ele><time>2026-04-24T17:34:50Z</time></trkpt><trkpt lat="37.045218046188154" lon="15.155619877509722"><ele>73.0</ele><time>2026-04-24T17:34:51Z</time></trkpt><trkpt lat="37.04527473496449" lon="15.155719898764566"><ele>72.83333333333333</ele><time>2026-04-24T17:34:52Z</time></trkpt><trkpt lat="37.04532854416881" lon="15.155821395920102"><ele>72.66666666666666</ele><time>2026-04-24T17:34:53Z</time></trkpt><trkpt lat="37.04539378542967" lon="15.155842884706905"><ele>72.5</ele><time>2026-04-24T17:34:54Z</time></trkpt><trkpt lat="37.045434318756165" lon="15.155919837676635"><ele>72.33333333333333</ele><time>2026-04-24T17:34:54.999Z</time></trkpt><trkpt lat="37.04548902297659" lon="15.155973512655033"><ele>72.16666666666667</ele><time>2026-04-24T17:34:55.999Z</time></trkpt><trkpt lat="37.045554353634586" lon="15.1560842045815"><ele>72.0</ele><time>2026-04-24T17:34:57.999Z</time></trkpt><trkpt lat="37.045600177524584" lon="15.15617398957483"><ele>72.0</ele><time>2026-04-24T17:34:59.999Z</time></trkpt><trkpt lat="37.04563873933648" lon="15.15624070156353"><ele>72.0</ele><time>2026-04-24T17:35:01.999Z</time></trkpt><trkpt lat="37.045682593879135" lon="15.156310367673223"><ele>72.0</ele><time>2026-04-24T17:35:39.999Z</time></trkpt><trkpt lat="37.04562515959679" lon="15.156219345529482"><ele>72.0</ele><time>2026-04-24T17:35:43.999Z</time></trkpt><trkpt lat="37.04555689981407" lon="15.15609829507776"><ele>72.0</ele><time>2026-04-24T17:35:44.999Z</time></trkpt><trkpt lat="37.0454910698109" lon="15.155977765743138"><ele>72.0</ele><time>2026-04-24T17:35:45.999Z</time></trkpt><trkpt lat="37.04541301196681" lon="15.155859240491804"><ele>72.0</ele><time>2026-04-24T17:35:46.999Z</time></trkpt><trkpt lat="37.04534311557634" lon="15.15574974452921"><ele>72.0</ele><time>2026-04-24T17:35:47.999Z</time></trkpt><trkpt lat="37.045268029676734" lon="15.15566415877343"><ele>72.0</ele><time>2026-04-24T17:35:48.999Z</time></trkpt><trkpt lat="37.04519063161466" lon="15.15556835628931"><ele>72.0</ele><time>2026-04-24T17:35:49.999Z</time></trkpt><trkpt lat="37.04511202611042" lon="15.155484793669245"><ele>72.2</ele><time>2026-04-24T17:35:50.999Z</time></trkpt><trkpt lat="37.04502409700624" lon="15.155395777687493"><ele>72.4</ele><time>2026-04-24T17:35:51.999Z</time></trkpt><trkpt lat="37.04494585228027" lon="15.15531795768061"><ele>72.6</ele><time>2026-04-24T17:35:52.999Z</time></trkpt><trkpt lat="37.0448864953887" lon="15.155237712293726"><ele>72.8</ele><time>2026-04-24T17:35:53.999Z</time></trkpt><trkpt lat="37.04482781876345" lon="15.15513302125086"><ele>73.0</ele><time>2026-04-24T17:35:55.999Z</time></trkpt><trkpt lat="37.044710655740744" lon="15.155082377606986"><ele>73.0</ele><time>2026-04-24T17:35:59.999Z</time></trkpt><trkpt lat="37.04458572748566" lon="15.155066740599068"><ele>73.0</ele><time>2026-04-24T17:36:00.999Z</time></trkpt><trkpt lat="37.04439933093215" lon="15.155063515349067"><ele>73.0</ele><time>2026-04-24T17:36:01.999Z</time></trkpt><trkpt lat="37.0442045199332" lon="15.15508113654754"><ele>74.0</ele><time>2026-04-24T17:36:02.998Z</time></trkpt><trkpt lat="37.043996161229025" lon="15.155104883487141"><ele>75.0</ele><time>2026-04-24T17:36:03.998Z</time></trkpt><trkpt lat="37.04381736500523" lon="15.15509832355456"><ele>76.0</ele><time>2026-04-24T17:36:04.998Z</time></trkpt><trkpt lat="37.043559693069504" lon="15.155136022171362"><ele>76.0</ele><time>2026-04-24T17:36:05.998Z</time></trkpt><trkpt lat="37.04333872144911" lon="15.155090778643899"><ele>76.0</ele><time>2026-04-24T17:36:06.998Z</time></trkpt><trkpt lat="37.04305196791745" lon="15.155051747057353"><ele>78.0</ele><time>2026-04-24T17:36:07.998Z</time></trkpt><trkpt lat="37.0427761582342" lon="15.154982648209284"><ele>80.0</ele><time>2026-04-24T17:36:08.998Z</time></trkpt><trkpt lat="37.04259471675632" lon="15.155002690241044"><ele>80.33333333333334</ele><time>2026-04-24T17:36:09.998Z</time></trkpt><trkpt lat="37.04244554163489" lon="15.154987213481443"><ele>80.66666666666667</ele><time>2026-04-24T17:36:10.998Z</time></trkpt><trkpt lat="37.042222632681764" lon="15.15496957019133"><ele>81.0</ele><time>2026-04-24T17:36:11.998Z</time></trkpt><trkpt lat="37.04199840403108" lon="15.15495788659755"><ele>81.0</ele><time>2026-04-24T17:36:12.998Z</time></trkpt><trkpt lat="37.04177408694069" lon="15.154950479823341"><ele>81.0</ele><time>2026-04-24T17:36:13.998Z</time></trkpt><trkpt lat="37.04155170633983" lon="15.15494562659236"><ele>81.0</ele><time>2026-04-24T17:36:14.998Z</time></trkpt><trkpt lat="37.04132661901436" lon="15.15494322784223"><ele>81.0</ele><time>2026-04-24T17:36:16Z</time></trkpt><trkpt lat="37.04110511719843" lon="15.154942169070223"><ele>81.0</ele><time>2026-04-24T17:36:17Z</time></trkpt><trkpt lat="37.040881861086696" lon="15.15494891506651"><ele>81.0</ele><time>2026-04-24T17:36:18Z</time></trkpt><trkpt lat="37.04065353114033" lon="15.154958854382212"><ele>81.66666666666667</ele><time>2026-04-24T17:36:19Z</time></trkpt><trkpt lat="37.04042862160274" lon="15.154970398855976"><ele>82.33333333333334</ele><time>2026-04-24T17:36:20Z</time></trkpt><trkpt lat="37.040205964423635" lon="15.154978091921691"><ele>83.0</ele><time>2026-04-24T17:36:21Z</time></trkpt><trkpt lat="37.039994925640165" lon="15.15499242690907"><ele>83.33333333333334</ele><time>2026-04-24T17:36:22Z</time></trkpt><trkpt lat="37.03978151177218" lon="15.154995634725013"><ele>83.66666666666667</ele><time>2026-04-24T17:36:23Z</time></trkpt><trkpt lat="37.0395680822701" lon="15.15501234437205"><ele>84.0</ele><time>2026-04-24T17:36:24Z</time></trkpt><trkpt lat="37.03941381136533" lon="15.155058856002286"><ele>84.0</ele><time>2026-04-24T17:36:25Z</time></trkpt><trkpt lat="37.03923386616822" lon="15.155112836841434"><ele>84.0</ele><time>2026-04-24T17:36:26Z</time></trkpt><trkpt lat="37.03907011072476" lon="15.155192567402935"><ele>84.0</ele><time>2026-04-24T17:36:27Z</time></trkpt><trkpt lat="37.03891328028455" lon="15.155292122750406"><ele>83.66666666666667</ele><time>2026-04-24T17:36:28Z</time></trkpt><trkpt lat="37.03876128029145" lon="15.1554223720833"><ele>83.33333333333334</ele><time>2026-04-24T17:36:29Z</time></trkpt><trkpt lat="37.038608072472336" lon="15.155607020049972"><ele>83.0</ele><time>2026-04-24T17:36:30Z</time></trkpt><trkpt lat="37.038452773376775" lon="15.155791297194748"><ele>83.0</ele><time>2026-04-24T17:36:31Z</time></trkpt><trkpt lat="37.03830059758039" lon="15.155985136333584"><ele>83.0</ele><time>2026-04-24T17:36:32Z</time></trkpt><trkpt lat="37.03814003755647" lon="15.15617125162156"><ele>83.0</ele><time>2026-04-24T17:36:33Z</time></trkpt><trkpt lat="37.037986943445254" lon="15.156362199507967"><ele>82.66666666666667</ele><time>2026-04-24T17:36:34Z</time></trkpt><trkpt lat="37.03782355201162" lon="15.156545462643443"><ele>82.33333333333333</ele><time>2026-04-24T17:36:35Z</time></trkpt><trkpt lat="37.037665708882315" lon="15.156726495632212"><ele>82.0</ele><time>2026-04-24T17:36:36Z</time></trkpt><trkpt lat="37.03750734373682" lon="15.15690782832115"><ele>82.66666666666666</ele><time>2026-04-24T17:36:37Z</time></trkpt><trkpt lat="37.03734619233413" lon="15.157096815161287"><ele>83.33333333333333</ele><time>2026-04-24T17:36:38Z</time></trkpt><trkpt lat="37.037182371070145" lon="15.157286389239465"><ele>84.0</ele><time>2026-04-24T17:36:39Z</time></trkpt><trkpt lat="37.0370205389134" lon="15.157474196532709"><ele>84.0</ele><time>2026-04-24T17:36:40Z</time></trkpt><trkpt lat="37.03685667139998" lon="15.1576604650381"><ele>84.0</ele><time>2026-04-24T17:36:41Z</time></trkpt><trkpt lat="37.03669293377176" lon="15.15784576664981"><ele>84.0</ele><time>2026-04-24T17:36:42Z</time></trkpt><trkpt lat="37.03653038318917" lon="15.158036924860191"><ele>83.66666666666667</ele><time>2026-04-24T17:36:43Z</time></trkpt><trkpt lat="37.036368547202436" lon="15.1582250912427"><ele>83.33333333333334</ele><time>2026-04-24T17:36:44Z</time></trkpt><trkpt lat="37.03620055483645" lon="15.158417780786353"><ele>83.0</ele><time>2026-04-24T17:36:45Z</time></trkpt><trkpt lat="37.03607423466493" lon="15.158622934716595"><ele>83.0</ele><time>2026-04-24T17:36:46Z</time></trkpt><trkpt lat="37.03586760811041" lon="15.158795720365628"><ele>83.0</ele><time>2026-04-24T17:36:47Z</time></trkpt><trkpt lat="37.035701464114304" lon="15.158993160855875"><ele>84.0</ele><time>2026-04-24T17:36:48Z</time></trkpt><trkpt lat="37.03553296363701" lon="15.159188652525872"><ele>85.0</ele><time>2026-04-24T17:36:49Z</time></trkpt><trkpt lat="37.0353648563842" lon="15.15938815234616"><ele>85.0</ele><time>2026-04-24T17:36:50Z</time></trkpt><trkpt lat="37.03520134078952" lon="15.159587566741916"><ele>85.0</ele><time>2026-04-24T17:36:51Z</time></trkpt><trkpt lat="37.03503362099415" lon="15.159781384868491"><ele>84.0</ele><time>2026-04-24T17:36:52Z</time></trkpt><trkpt lat="37.03486657047208" lon="15.159970990846075"><ele>83.0</ele><time>2026-04-24T17:36:53Z</time></trkpt><trkpt lat="37.03470043618185" lon="15.160170185514534"><ele>83.0</ele><time>2026-04-24T17:36:54Z</time></trkpt><trkpt lat="37.034523393802765" lon="15.16035468984589"><ele>83.0</ele><time>2026-04-24T17:36:55Z</time></trkpt><trkpt lat="37.03434697816643" lon="15.16054737058777"><ele>82.5</ele><time>2026-04-24T17:36:56Z</time></trkpt><trkpt lat="37.03417741609803" lon="15.160736890261528"><ele>82.0</ele><time>2026-04-24T17:36:57Z</time></trkpt><trkpt lat="37.034011138248204" lon="15.1609281142475"><ele>82.0</ele><time>2026-04-24T17:36:58Z</time></trkpt><trkpt lat="37.03384419233679" lon="15.161126274817763"><ele>82.0</ele><time>2026-04-24T17:36:59Z</time></trkpt><trkpt lat="37.03367639123931" lon="15.16131364100192"><ele>82.0</ele><time>2026-04-24T17:37:00Z</time></trkpt><trkpt lat="37.033508682773" lon="15.161503629119577"><ele>82.0</ele><time>2026-04-24T17:37:01Z</time></trkpt><trkpt lat="37.03333414923673" lon="15.161683962642366"><ele>81.0</ele><time>2026-04-24T17:37:02Z</time></trkpt><trkpt lat="37.033163125247164" lon="15.161874385312846"><ele>80.0</ele><time>2026-04-24T17:37:03Z</time></trkpt><trkpt lat="37.032984312964565" lon="15.16206068549111"><ele>80.0</ele><time>2026-04-24T17:37:04Z</time></trkpt><trkpt lat="37.032821287856045" lon="15.162257733614021"><ele>80.0</ele><time>2026-04-24T17:37:04.999Z</time></trkpt><trkpt lat="37.032650348827474" lon="15.162453140950033"><ele>79.5</ele><time>2026-04-24T17:37:05.999Z</time></trkpt><trkpt lat="37.032484666750534" lon="15.162649435472513"><ele>79.0</ele><time>2026-04-24T17:37:06.999Z</time></trkpt><trkpt lat="37.032316398655915" lon="15.162847973489152"><ele>79.0</ele><time>2026-04-24T17:37:07.999Z</time></trkpt><trkpt lat="37.03214349811134" lon="15.163040798045643"><ele>79.0</ele><time>2026-04-24T17:37:08.999Z</time></trkpt><trkpt lat="37.03197267640486" lon="15.163239426501786"><ele>78.5</ele><time>2026-04-24T17:37:09.999Z</time></trkpt><trkpt lat="37.031797310848354" lon="15.163437230381142"><ele>78.0</ele><time>2026-04-24T17:37:10.999Z</time></trkpt><trkpt lat="37.03162050791318" lon="15.163632951436641"><ele>79.0</ele><time>2026-04-24T17:37:11.999Z</time></trkpt><trkpt lat="37.03144921129837" lon="15.163836001633477"><ele>80.0</ele><time>2026-04-24T17:37:12.999Z</time></trkpt><trkpt lat="37.03127209010597" lon="15.164035370766934"><ele>80.0</ele><time>2026-04-24T17:37:13.999Z</time></trkpt><trkpt lat="37.03109839060004" lon="15.164228790309656"><ele>80.0</ele><time>2026-04-24T17:37:14.999Z</time></trkpt><trkpt lat="37.030919046035066" lon="15.164430815027897"><ele>80.5</ele><time>2026-04-24T17:37:15.999Z</time></trkpt><trkpt lat="37.03075151195862" lon="15.164626116797253"><ele>81.0</ele><time>2026-04-24T17:37:16.999Z</time></trkpt><trkpt lat="37.030580156592436" lon="15.164818211165818"><ele>79.5</ele><time>2026-04-24T17:37:17.999Z</time></trkpt><trkpt lat="37.030403383719914" lon="15.165012290876634"><ele>78.0</ele><time>2026-04-24T17:37:18.999Z</time></trkpt><trkpt lat="37.03022677391661" lon="15.165204921763763"><ele>78.0</ele><time>2026-04-24T17:37:19.999Z</time></trkpt><trkpt lat="37.03005339274736" lon="15.16538205923226"><ele>78.0</ele><time>2026-04-24T17:37:20.999Z</time></trkpt><trkpt lat="37.029879802890235" lon="15.165523952288702"><ele>78.0</ele><time>2026-04-24T17:37:21.999Z</time></trkpt><trkpt lat="37.029705555863075" lon="15.165627182686846"><ele>78.33333333333333</ele><time>2026-04-24T17:37:22.999Z</time></trkpt><trkpt lat="37.02951345650219" lon="15.165732109748262"><ele>78.66666666666666</ele><time>2026-04-24T17:37:23.999Z</time></trkpt><trkpt lat="37.02931146261974" lon="15.165779151740578"><ele>79.0</ele><time>2026-04-24T17:37:24.999Z</time></trkpt><trkpt lat="37.02910012823864" lon="15.165816017763634"><ele>80.66666666666666</ele><time>2026-04-24T17:37:25.999Z</time></trkpt><trkpt lat="37.028885628449345" lon="15.165827121775136"><ele>82.33333333333333</ele><time>2026-04-24T17:37:26.999Z</time></trkpt><trkpt lat="37.02866517233312" lon="15.165839248173878"><ele>84.0</ele><time>2026-04-24T17:37:27.999Z</time></trkpt><trkpt lat="37.028440166329446" lon="15.165841656328023"><ele>85.66666666666667</ele><time>2026-04-24T17:37:28.999Z</time></trkpt><trkpt lat="37.028228676956175" lon="15.165864718621421"><ele>87.33333333333334</ele><time>2026-04-24T17:37:29.999Z</time></trkpt><trkpt lat="37.02802746258572" lon="15.16587833636095"><ele>89.0</ele><time>2026-04-24T17:37:30.999Z</time></trkpt><trkpt lat="37.02783414652767" lon="15.165882511422563"><ele>89.0</ele><time>2026-04-24T17:37:31.999Z</time></trkpt><trkpt lat="37.027639865034416" lon="15.165866111254985"><ele>89.0</ele><time>2026-04-24T17:37:32.999Z</time></trkpt><trkpt lat="37.02743559770859" lon="15.165825303559958"><ele>89.0</ele><time>2026-04-24T17:37:33.999Z</time></trkpt><trkpt lat="37.02722433819912" lon="15.165792154152339"><ele>89.66666666666667</ele><time>2026-04-24T17:37:34.999Z</time></trkpt><trkpt lat="37.02701404881" lon="15.165749276823952"><ele>90.33333333333333</ele><time>2026-04-24T17:37:35.999Z</time></trkpt><trkpt lat="37.02679977316726" lon="15.165713459096704"><ele>91.0</ele><time>2026-04-24T17:37:36.999Z</time></trkpt><trkpt lat="37.026584833417836" lon="15.165680431233385"><ele>92.0</ele><time>2026-04-24T17:37:37.999Z</time></trkpt><trkpt lat="37.02636763170795" lon="15.165636509187225"><ele>93.0</ele><time>2026-04-24T17:37:38.999Z</time></trkpt><trkpt lat="37.02615748833694" lon="15.165603679812568"><ele>94.0</ele><time>2026-04-24T17:37:39.999Z</time></trkpt><trkpt lat="37.02596227913193" lon="15.165574590479117"><ele>94.33333333333333</ele><time>2026-04-24T17:37:40.999Z</time></trkpt><trkpt lat="37.02577983407126" lon="15.165548772566005"><ele>94.66666666666667</ele><time>2026-04-24T17:37:41.999Z</time></trkpt><trkpt lat="37.02560043999059" lon="15.165521649814458"><ele>95.0</ele><time>2026-04-24T17:37:42.999Z</time></trkpt><trkpt lat="37.025413413190385" lon="15.16549429526331"><ele>95.0</ele><time>2026-04-24T17:37:43.999Z</time></trkpt><trkpt lat="37.02521719968828" lon="15.165459587405795"><ele>95.0</ele><time>2026-04-24T17:37:44.999Z</time></trkpt><trkpt lat="37.02501639451782" lon="15.165420317180661"><ele>95.0</ele><time>2026-04-24T17:37:45.999Z</time></trkpt><trkpt lat="37.024823114712134" lon="15.165372747315299"><ele>95.0</ele><time>2026-04-24T17:37:46.999Z</time></trkpt><trkpt lat="37.024665468349724" lon="15.165346364836122"><ele>95.0</ele><time>2026-04-24T17:37:47.999Z</time></trkpt><trkpt lat="37.024517813451" lon="15.165324787781255"><ele>95.0</ele><time>2026-04-24T17:37:48.999Z</time></trkpt><trkpt lat="37.02439201817532" lon="15.165292848579872"><ele>95.0</ele><time>2026-04-24T17:37:49.999Z</time></trkpt><trkpt lat="37.02427807377389" lon="15.165285327726007"><ele>95.0</ele><time>2026-04-24T17:37:50.999Z</time></trkpt><trkpt lat="37.02415589387882" lon="15.16528876662721"><ele>95.0</ele><time>2026-04-24T17:37:51.999Z</time></trkpt><trkpt lat="37.024114618956766" lon="15.165350619743299"><ele>95.0</ele><time>2026-04-24T17:37:52.999Z</time></trkpt><trkpt lat="37.02408643905128" lon="15.165477873353915"><ele>95.0</ele><time>2026-04-24T17:37:54.999Z</time></trkpt><trkpt lat="37.02409475671822" lon="15.1655595944924"><ele>95.0</ele><time>2026-04-24T17:37:55.999Z</time></trkpt><trkpt lat="37.024127026567534" lon="15.1656653477798"><ele>95.0</ele><time>2026-04-24T17:37:56.999Z</time></trkpt><trkpt lat="37.02416773071224" lon="15.165771790226549"><ele>94.25</ele><time>2026-04-24T17:37:57.999Z</time></trkpt><trkpt lat="37.024232978354256" lon="15.165885165379354"><ele>93.5</ele><time>2026-04-24T17:37:58.999Z</time></trkpt><trkpt lat="37.02428735680594" lon="15.166016810540356"><ele>92.75</ele><time>2026-04-24T17:37:59.999Z</time></trkpt><trkpt lat="37.02434908865461" lon="15.166165696690422"><ele>92.0</ele><time>2026-04-24T17:38:00.999Z</time></trkpt><trkpt lat="37.02441257711334" lon="15.166330582926797"><ele>92.0</ele><time>2026-04-24T17:38:01.999Z</time></trkpt><trkpt lat="37.02448143101462" lon="15.166517947594171"><ele>92.0</ele><time>2026-04-24T17:38:02.999Z</time></trkpt><trkpt lat="37.0245622247345" lon="15.166697167292371"><ele>92.0</ele><time>2026-04-24T17:38:03.999Z</time></trkpt><trkpt lat="37.02464131496246" lon="15.166878223773338"><ele>91.33333333333334</ele><time>2026-04-24T17:38:04.999Z</time></trkpt><trkpt lat="37.02471142183116" lon="15.167053385854658"><ele>90.66666666666667</ele><time>2026-04-24T17:38:05.999Z</time></trkpt><trkpt lat="37.02479567367892" lon="15.167270927158363"><ele>90.0</ele><time>2026-04-24T17:38:06.999Z</time></trkpt><trkpt lat="37.024873078257706" lon="15.16746682817312"><ele>90.0</ele><time>2026-04-24T17:38:07.999Z</time></trkpt><trkpt lat="37.024950699449015" lon="15.167663300843873"><ele>90.0</ele><time>2026-04-24T17:38:08.999Z</time></trkpt><trkpt lat="37.02503055090726" lon="15.16784928494616"><ele>90.0</ele><time>2026-04-24T17:38:09.999Z</time></trkpt><trkpt lat="37.02510891658469" lon="15.168042422851158"><ele>88.33333333333333</ele><time>2026-04-24T17:38:10.999Z</time></trkpt><trkpt lat="37.02517781373229" lon="15.168235176201845"><ele>86.66666666666666</ele><time>2026-04-24T17:38:11.999Z</time></trkpt><trkpt lat="37.02522601259199" lon="15.168410435064517"><ele>85.0</ele><time>2026-04-24T17:38:12.999Z</time></trkpt><trkpt lat="37.025250420855095" lon="15.168604702910732"><ele>85.0</ele><time>2026-04-24T17:38:13.998Z</time></trkpt><trkpt lat="37.02526640059489" lon="15.16881656873553"><ele>85.0</ele><time>2026-04-24T17:38:14.998Z</time></trkpt><trkpt lat="37.025238827034784" lon="15.1690297613928"><ele>85.0</ele><time>2026-04-24T17:38:15.998Z</time></trkpt><trkpt lat="37.02520170371632" lon="15.169230484674214"><ele>83.66666666666666</ele><time>2026-04-24T17:38:16.998Z</time></trkpt><trkpt lat="37.02513917095115" lon="15.169429688067686"><ele>82.33333333333333</ele><time>2026-04-24T17:38:17.998Z</time></trkpt><trkpt lat="37.02505878184875" lon="15.169646243198045"><ele>81.0</ele><time>2026-04-24T17:38:18.998Z</time></trkpt><trkpt lat="37.02496077823416" lon="15.169854745609333"><ele>80.66666666666667</ele><time>2026-04-24T17:38:19.998Z</time></trkpt><trkpt lat="37.024866810190694" lon="15.170066832493099"><ele>80.33333333333334</ele><time>2026-04-24T17:38:20.998Z</time></trkpt><trkpt lat="37.02478136091621" lon="15.170302034002626"><ele>80.0</ele><time>2026-04-24T17:38:22Z</time></trkpt><trkpt lat="37.024681960783575" lon="15.170524618587628"><ele>79.33333333333334</ele><time>2026-04-24T17:38:23Z</time></trkpt><trkpt lat="37.02458283232765" lon="15.170750991126173"><ele>78.66666666666667</ele><time>2026-04-24T17:38:24Z</time></trkpt><trkpt lat="37.02448367912754" lon="15.170985525350682"><ele>78.0</ele><time>2026-04-24T17:38:25Z</time></trkpt><trkpt lat="37.02437025006795" lon="15.17120484180342"><ele>78.0</ele><time>2026-04-24T17:38:26Z</time></trkpt><trkpt lat="37.02426843242213" lon="15.171440394631757"><ele>78.0</ele><time>2026-04-24T17:38:27Z</time></trkpt><trkpt lat="37.02416539690995" lon="15.171678764965106"><ele>78.0</ele><time>2026-04-24T17:38:28Z</time></trkpt><trkpt lat="37.0240774880772" lon="15.171924225587633"><ele>78.33333333333333</ele><time>2026-04-24T17:38:29Z</time></trkpt><trkpt lat="37.02397407999737" lon="15.172148739006316"><ele>78.66666666666666</ele><time>2026-04-24T17:38:30Z</time></trkpt><trkpt lat="37.02386640412483" lon="15.172405273969847"><ele>79.0</ele><time>2026-04-24T17:38:31Z</time></trkpt><trkpt lat="37.02375990923886" lon="15.172652456173397"><ele>78.66666666666666</ele><time>2026-04-24T17:38:32Z</time></trkpt><trkpt lat="37.02365431068297" lon="15.17289618862709"><ele>78.33333333333333</ele><time>2026-04-24T17:38:33Z</time></trkpt><trkpt lat="37.02354546535162" lon="15.173144665524747"><ele>78.0</ele><time>2026-04-24T17:38:34Z</time></trkpt><trkpt lat="37.023438803865474" lon="15.173384092120951"><ele>78.0</ele><time>2026-04-24T17:38:35Z</time></trkpt><trkpt lat="37.02333133073131" lon="15.173631599933108"><ele>78.0</ele><time>2026-04-24T17:38:36Z</time></trkpt><trkpt lat="37.023223965587036" lon="15.173873935346414"><ele>78.0</ele><time>2026-04-24T17:38:37Z</time></trkpt><trkpt lat="37.023119557080605" lon="15.174117353095046"><ele>77.0</ele><time>2026-04-24T17:38:38Z</time></trkpt><trkpt lat="37.023014038261955" lon="15.174361898016796"><ele>76.0</ele><time>2026-04-24T17:38:39Z</time></trkpt><trkpt lat="37.02291386108163" lon="15.174630353960977"><ele>76.0</ele><time>2026-04-24T17:38:40Z</time></trkpt><trkpt lat="37.02279490293729" lon="15.174866662389595"><ele>76.0</ele><time>2026-04-24T17:38:41Z</time></trkpt><trkpt lat="37.022691972678885" lon="15.175119030996143"><ele>76.0</ele><time>2026-04-24T17:38:42Z</time></trkpt><trkpt lat="37.02258363060753" lon="15.17537150880848"><ele>76.0</ele><time>2026-04-24T17:38:43Z</time></trkpt><trkpt lat="37.02247680362027" lon="15.175620996423365"><ele>76.0</ele><time>2026-04-24T17:38:44Z</time></trkpt><trkpt lat="37.02236079001203" lon="15.175864695467887"><ele>76.0</ele><time>2026-04-24T17:38:45Z</time></trkpt><trkpt lat="37.02225336220202" lon="15.176118570429955"><ele>76.0</ele><time>2026-04-24T17:38:46Z</time></trkpt><trkpt lat="37.02213547226921" lon="15.176361660401456"><ele>75.66666666666666</ele><time>2026-04-24T17:38:47Z</time></trkpt><trkpt lat="37.02200971308739" lon="15.176583184558174"><ele>75.33333333333333</ele><time>2026-04-24T17:38:48Z</time></trkpt><trkpt lat="37.02184724872127" lon="15.176776699057857"><ele>75.0</ele><time>2026-04-24T17:38:49Z</time></trkpt><trkpt lat="37.021671977653575" lon="15.176967022781943"><ele>75.0</ele><time>2026-04-24T17:38:50Z</time></trkpt><trkpt lat="37.02149730601898" lon="15.177148008105737"><ele>75.0</ele><time>2026-04-24T17:38:51Z</time></trkpt><trkpt lat="37.02132498838641" lon="15.177337581743659"><ele>74.0</ele><time>2026-04-24T17:38:52Z</time></trkpt><trkpt lat="37.02115887094752" lon="15.177532350229765"><ele>73.0</ele><time>2026-04-24T17:38:53Z</time></trkpt><trkpt lat="37.020991376797525" lon="15.177728285882232"><ele>73.0</ele><time>2026-04-24T17:38:54Z</time></trkpt><trkpt lat="37.02082260774304" lon="15.177927655303122"><ele>73.0</ele><time>2026-04-24T17:38:55Z</time></trkpt><trkpt lat="37.02065280867544" lon="15.178126900623209"><ele>71.5</ele><time>2026-04-24T17:38:56Z</time></trkpt><trkpt lat="37.02048161613998" lon="15.178333826865279"><ele>70.0</ele><time>2026-04-24T17:38:57Z</time></trkpt><trkpt lat="37.02030997015119" lon="15.178539047136029"><ele>70.0</ele><time>2026-04-24T17:38:58Z</time></trkpt><trkpt lat="37.02013547565571" lon="15.178730644313276"><ele>70.0</ele><time>2026-04-24T17:38:59Z</time></trkpt><trkpt lat="37.01997455519292" lon="15.178925169462838"><ele>69.66666666666666</ele><time>2026-04-24T17:39:00Z</time></trkpt><trkpt lat="37.019820727390986" lon="15.179104303929067"><ele>69.33333333333333</ele><time>2026-04-24T17:39:01Z</time></trkpt><trkpt lat="37.01966758509177" lon="15.179229247758288"><ele>69.0</ele><time>2026-04-24T17:39:02Z</time></trkpt><trkpt lat="37.01949028554659" lon="15.179307793911605"><ele>69.0</ele><time>2026-04-24T17:39:03Z</time></trkpt><trkpt lat="37.01929919353637" lon="15.179379968223143"><ele>69.0</ele><time>2026-04-24T17:39:04Z</time></trkpt><trkpt lat="37.019096616657365" lon="15.179448340155597"><ele>69.0</ele><time>2026-04-24T17:39:05Z</time></trkpt><trkpt lat="37.01889767547251" lon="15.17952820090225"><ele>69.0</ele><time>2026-04-24T17:39:06Z</time></trkpt><trkpt lat="37.01869017934943" lon="15.179606269924841"><ele>69.0</ele><time>2026-04-24T17:39:07Z</time></trkpt><trkpt lat="37.01848304773403" lon="15.17969822014216"><ele>69.0</ele><time>2026-04-24T17:39:08Z</time></trkpt><trkpt lat="37.018273856069165" lon="15.179778163982498"><ele>69.0</ele><time>2026-04-24T17:39:09Z</time></trkpt><trkpt lat="37.01805514556006" lon="15.17983237105373"><ele>69.0</ele><time>2026-04-24T17:39:10Z</time></trkpt><trkpt lat="37.01783727592105" lon="15.179940780375473"><ele>68.33333333333333</ele><time>2026-04-24T17:39:10.999Z</time></trkpt><trkpt lat="37.01763078460543" lon="15.180037591486846"><ele>67.66666666666666</ele><time>2026-04-24T17:39:11.999Z</time></trkpt><trkpt lat="37.01742867218982" lon="15.180136694412647"><ele>67.0</ele><time>2026-04-24T17:39:12.999Z</time></trkpt><trkpt lat="37.01721191287415" lon="15.180228435007294"><ele>67.0</ele><time>2026-04-24T17:39:13.999Z</time></trkpt><trkpt lat="37.01699736167069" lon="15.18031668029615"><ele>67.0</ele><time>2026-04-24T17:39:14.999Z</time></trkpt><trkpt lat="37.01679024314405" lon="15.180413937240537"><ele>67.0</ele><time>2026-04-24T17:39:15.999Z</time></trkpt><trkpt lat="37.016585211576775" lon="15.180527935618768"><ele>67.5</ele><time>2026-04-24T17:39:16.999Z</time></trkpt><trkpt lat="37.0163836805683" lon="15.180657549944884"><ele>68.0</ele><time>2026-04-24T17:39:17.999Z</time></trkpt><trkpt lat="37.01616505925112" lon="15.180837399465021"><ele>67.0</ele><time>2026-04-24T17:39:18.999Z</time></trkpt><trkpt lat="37.01598134461207" lon="15.180931751709517"><ele>66.0</ele><time>2026-04-24T17:39:19.999Z</time></trkpt><trkpt lat="37.01578494051531" lon="15.181074091464534"><ele>65.0</ele><time>2026-04-24T17:39:20.999Z</time></trkpt><trkpt lat="37.01558651857604" lon="15.181214670829675"><ele>65.0</ele><time>2026-04-24T17:39:21.999Z</time></trkpt><trkpt lat="37.01538283228183" lon="15.181350494553097"><ele>65.0</ele><time>2026-04-24T17:39:22.999Z</time></trkpt><trkpt lat="37.01517651308619" lon="15.181490597580064"><ele>63.0</ele><time>2026-04-24T17:39:23.999Z</time></trkpt><trkpt lat="37.01497014580186" lon="15.18163078887117"><ele>61.0</ele><time>2026-04-24T17:39:24.999Z</time></trkpt><trkpt lat="37.014763383794424" lon="15.181769704904566"><ele>61.0</ele><time>2026-04-24T17:39:25.999Z</time></trkpt><trkpt lat="37.01455924021391" lon="15.181907078574019"><ele>61.0</ele><time>2026-04-24T17:39:26.999Z</time></trkpt><trkpt lat="37.014352960927994" lon="15.182046102819246"><ele>61.5</ele><time>2026-04-24T17:39:27.999Z</time></trkpt><trkpt lat="37.014147251657946" lon="15.182192062565907"><ele>62.0</ele><time>2026-04-24T17:39:28.999Z</time></trkpt><trkpt lat="37.013947295707304" lon="15.182341697913651"><ele>61.5</ele><time>2026-04-24T17:39:29.999Z</time></trkpt><trkpt lat="37.013742237065294" lon="15.182484208132738"><ele>61.0</ele><time>2026-04-24T17:39:30.999Z</time></trkpt><trkpt lat="37.01353857146271" lon="15.182618188972828"><ele>61.0</ele><time>2026-04-24T17:39:31.999Z</time></trkpt><trkpt lat="37.01333455488876" lon="15.182754184807767"><ele>61.0</ele><time>2026-04-24T17:39:32.999Z</time></trkpt><trkpt lat="37.013126866645194" lon="15.182893694877805"><ele>60.5</ele><time>2026-04-24T17:39:33.999Z</time></trkpt><trkpt lat="37.01292555308589" lon="15.183040239223667"><ele>60.0</ele><time>2026-04-24T17:39:34.999Z</time></trkpt><trkpt lat="37.01271979367009" lon="15.183184058103555"><ele>59.0</ele><time>2026-04-24T17:39:35.999Z</time></trkpt><trkpt lat="37.01251121035528" lon="15.18332746510853"><ele>58.0</ele><time>2026-04-24T17:39:36.999Z</time></trkpt><trkpt lat="37.01230587468174" lon="15.183474110549303"><ele>58.0</ele><time>2026-04-24T17:39:37.999Z</time></trkpt><trkpt lat="37.01209809232213" lon="15.183620512012851"><ele>58.0</ele><time>2026-04-24T17:39:38.999Z</time></trkpt><trkpt lat="37.01189141120767" lon="15.183764143897179"><ele>58.0</ele><time>2026-04-24T17:39:39.999Z</time></trkpt><trkpt lat="37.01168288768743" lon="15.18390732633498"><ele>58.0</ele><time>2026-04-24T17:39:40.999Z</time></trkpt><trkpt lat="37.01147562196195" lon="15.184043097396897"><ele>57.5</ele><time>2026-04-24T17:39:41.999Z</time></trkpt><trkpt lat="37.01127223294804" lon="15.184186297820856"><ele>57.0</ele><time>2026-04-24T17:39:42.999Z</time></trkpt><trkpt lat="37.011065482383835" lon="15.18433172742521"><ele>57.0</ele><time>2026-04-24T17:39:43.999Z</time></trkpt><trkpt lat="37.01085847665698" lon="15.184469944039394"><ele>57.0</ele><time>2026-04-24T17:39:44.999Z</time></trkpt><trkpt lat="37.01065035076025" lon="15.184613511061745"><ele>57.0</ele><time>2026-04-24T17:39:45.999Z</time></trkpt><trkpt lat="37.010442092908264" lon="15.184757920615779"><ele>57.0</ele><time>2026-04-24T17:39:46.999Z</time></trkpt><trkpt lat="37.01023771571334" lon="15.184903626751389"><ele>56.5</ele><time>2026-04-24T17:39:47.999Z</time></trkpt><trkpt lat="37.01003353735403" lon="15.185049243174769"><ele>56.0</ele><time>2026-04-24T17:39:48.999Z</time></trkpt><trkpt lat="37.00982814787395" lon="15.18519169503419"><ele>55.5</ele><time>2026-04-24T17:39:49.999Z</time></trkpt><trkpt lat="37.00962259322571" lon="15.185334101113702"><ele>55.0</ele><time>2026-04-24T17:39:50.999Z</time></trkpt><trkpt lat="37.00941318732535" lon="15.185475918459378"><ele>55.0</ele><time>2026-04-24T17:39:51.999Z</time></trkpt><trkpt lat="37.00920718712266" lon="15.185614028294276"><ele>55.0</ele><time>2026-04-24T17:39:52.999Z</time></trkpt><trkpt lat="37.009004430624564" lon="15.185760054522314"><ele>55.0</ele><time>2026-04-24T17:39:53.999Z</time></trkpt><trkpt lat="37.00880101773941" lon="15.185907768345846"><ele>55.0</ele><time>2026-04-24T17:39:54.999Z</time></trkpt><trkpt lat="37.00858651706257" lon="15.186047051255308"><ele>55.0</ele><time>2026-04-24T17:39:55.999Z</time></trkpt><trkpt lat="37.00839689368258" lon="15.186194903761331"><ele>55.0</ele><time>2026-04-24T17:39:56.999Z</time></trkpt><trkpt lat="37.00818925983045" lon="15.186333600167822"><ele>55.5</ele><time>2026-04-24T17:39:57.999Z</time></trkpt><trkpt lat="37.007983652383096" lon="15.18647726229777"><ele>56.0</ele><time>2026-04-24T17:39:58.999Z</time></trkpt><trkpt lat="37.007780341077016" lon="15.186617448008777"><ele>56.0</ele><time>2026-04-24T17:39:59.999Z</time></trkpt><trkpt lat="37.00757259287589" lon="15.186754803104533"><ele>56.0</ele><time>2026-04-24T17:40:00.999Z</time></trkpt><trkpt lat="37.00737205525157" lon="15.186886949384768"><ele>56.66666666666667</ele><time>2026-04-24T17:40:01.999Z</time></trkpt><trkpt lat="37.007196154599356" lon="15.18700523448636"><ele>57.33333333333333</ele><time>2026-04-24T17:40:02.999Z</time></trkpt><trkpt lat="37.00705847325997" lon="15.187126345308153"><ele>58.0</ele><time>2026-04-24T17:40:03.999Z</time></trkpt><trkpt lat="37.00691023411355" lon="15.187231434208313"><ele>58.0</ele><time>2026-04-24T17:40:04.999Z</time></trkpt><trkpt lat="37.00676155928357" lon="15.187328917551694"><ele>58.0</ele><time>2026-04-24T17:40:05.999Z</time></trkpt><trkpt lat="37.00660510799829" lon="15.187453148952436"><ele>58.0</ele><time>2026-04-24T17:40:06.999Z</time></trkpt><trkpt lat="37.006481631984606" lon="15.187483691475226"><ele>57.0</ele><time>2026-04-24T17:40:07.999Z</time></trkpt><trkpt lat="37.006370447186384" lon="15.187501636885965"><ele>56.0</ele><time>2026-04-24T17:40:08.999Z</time></trkpt><trkpt lat="37.006260587565436" lon="15.187505934074128"><ele>55.0</ele><time>2026-04-24T17:40:09.999Z</time></trkpt><trkpt lat="37.006118569398616" lon="15.18751984644294"><ele>54.0</ele><time>2026-04-24T17:40:10.999Z</time></trkpt><trkpt lat="37.00594883601118" lon="15.187521590450677"><ele>54.0</ele><time>2026-04-24T17:40:11.999Z</time></trkpt><trkpt lat="37.005756830077374" lon="15.187495738380575"><ele>54.0</ele><time>2026-04-24T17:40:12.999Z</time></trkpt><trkpt lat="37.00557389471683" lon="15.187481798613026"><ele>54.0</ele><time>2026-04-24T17:40:13.999Z</time></trkpt><trkpt lat="37.00536616544833" lon="15.187476872526961"><ele>54.0</ele><time>2026-04-24T17:40:14.999Z</time></trkpt><trkpt lat="37.00515432205755" lon="15.187487725510545"><ele>54.0</ele><time>2026-04-24T17:40:15.999Z</time></trkpt><trkpt lat="37.00494045262189" lon="15.187501332403151"><ele>54.0</ele><time>2026-04-24T17:40:16.999Z</time></trkpt><trkpt lat="37.004718455111615" lon="15.18750566742639"><ele>54.0</ele><time>2026-04-24T17:40:17.999Z</time></trkpt><trkpt lat="37.00449755221414" lon="15.187507811442819"><ele>54.0</ele><time>2026-04-24T17:40:18.999Z</time></trkpt><trkpt lat="37.00427776928569" lon="15.187513273171296"><ele>54.0</ele><time>2026-04-24T17:40:19.998Z</time></trkpt><trkpt lat="37.0040557365195" lon="15.187517454673829"><ele>54.33333333333333</ele><time>2026-04-24T17:40:20.998Z</time></trkpt><trkpt lat="37.003836393691785" lon="15.18752009357854"><ele>54.666666666666664</ele><time>2026-04-24T17:40:21.998Z</time></trkpt><trkpt lat="37.00361678370574" lon="15.187523151156805"><ele>55.0</ele><time>2026-04-24T17:40:22.998Z</time></trkpt><trkpt lat="37.003392451973234" lon="15.187530745061038"><ele>55.666666666666664</ele><time>2026-04-24T17:40:23.998Z</time></trkpt><trkpt lat="37.0031689957078" lon="15.187516552221883"><ele>56.33333333333333</ele><time>2026-04-24T17:40:24.998Z</time></trkpt><trkpt lat="37.002944569320256" lon="15.18752025174582"><ele>57.0</ele><time>2026-04-24T17:40:25.998Z</time></trkpt><trkpt lat="37.00271882067899" lon="15.187524898882122"><ele>56.66666666666667</ele><time>2026-04-24T17:40:26.998Z</time></trkpt><trkpt lat="37.00248841427747" lon="15.187529464237445"><ele>56.333333333333336</ele><time>2026-04-24T17:40:28Z</time></trkpt><trkpt lat="37.00228359153255" lon="15.187533132239643"><ele>56.0</ele><time>2026-04-24T17:40:29Z</time></trkpt><trkpt lat="37.002034330465875" lon="15.187537596031493"><ele>56.0</ele><time>2026-04-24T17:40:30Z</time></trkpt><trkpt lat="37.00182330026651" lon="15.187557934934162"><ele>56.0</ele><time>2026-04-24T17:40:31Z</time></trkpt><trkpt lat="37.00159098498142" lon="15.187544106514535"><ele>56.0</ele><time>2026-04-24T17:40:32Z</time></trkpt><trkpt lat="37.00135315450134" lon="15.187563136871164"><ele>56.5</ele><time>2026-04-24T17:40:33Z</time></trkpt><trkpt lat="37.00112071980003" lon="15.187561702257339"><ele>57.0</ele><time>2026-04-24T17:40:34Z</time></trkpt><trkpt lat="37.00088961419843" lon="15.187564176310975"><ele>57.0</ele><time>2026-04-24T17:40:35Z</time></trkpt><trkpt lat="37.0006585401907" lon="15.187563293531452"><ele>57.0</ele><time>2026-04-24T17:40:36Z</time></trkpt><trkpt lat="37.00043098901556" lon="15.1875684109856"><ele>57.0</ele><time>2026-04-24T17:40:37Z</time></trkpt><trkpt lat="37.00022570336666" lon="15.187590667750728"><ele>57.0</ele><time>2026-04-24T17:40:38Z</time></trkpt><trkpt lat="37.00003222788699" lon="15.187640474914575"><ele>57.0</ele><time>2026-04-24T17:40:39Z</time></trkpt><trkpt lat="36.9998331792891" lon="15.1877331057056"><ele>57.0</ele><time>2026-04-24T17:40:40Z</time></trkpt><trkpt lat="36.99963719523401" lon="15.18785460070642"><ele>57.0</ele><time>2026-04-24T17:40:41Z</time></trkpt><trkpt lat="36.999433320579065" lon="15.187994480850485"><ele>57.0</ele><time>2026-04-24T17:40:42Z</time></trkpt><trkpt lat="36.999234060994496" lon="15.188123500441407"><ele>57.0</ele><time>2026-04-24T17:40:43Z</time></trkpt><trkpt lat="36.9990269540427" lon="15.18825084745941"><ele>55.5</ele><time>2026-04-24T17:40:44Z</time></trkpt><trkpt lat="36.99882522731098" lon="15.188376724804755"><ele>54.0</ele><time>2026-04-24T17:40:45Z</time></trkpt><trkpt lat="36.99861238045196" lon="15.188507202813511"><ele>54.0</ele><time>2026-04-24T17:40:46Z</time></trkpt><trkpt lat="36.998420102749925" lon="15.18862159032576"><ele>54.0</ele><time>2026-04-24T17:40:47Z</time></trkpt><trkpt lat="36.998189599146826" lon="15.188733146856514"><ele>54.5</ele><time>2026-04-24T17:40:48Z</time></trkpt><trkpt lat="36.99799503537873" lon="15.188863124314214"><ele>55.0</ele><time>2026-04-24T17:40:49Z</time></trkpt><trkpt lat="36.997786371684064" lon="15.188987621748934"><ele>54.0</ele><time>2026-04-24T17:40:50Z</time></trkpt><trkpt lat="36.99757570603148" lon="15.18911300977567"><ele>53.0</ele><time>2026-04-24T17:40:51Z</time></trkpt><trkpt lat="36.99736962331552" lon="15.18925191280407"><ele>53.0</ele><time>2026-04-24T17:40:52Z</time></trkpt><trkpt lat="36.99717501047053" lon="15.18935922977581"><ele>53.0</ele><time>2026-04-24T17:40:53Z</time></trkpt><trkpt lat="36.99700535589763" lon="15.189471854692421"><ele>53.0</ele><time>2026-04-24T17:40:54Z</time></trkpt><trkpt lat="36.99684403899743" lon="15.189541734242653"><ele>53.0</ele><time>2026-04-24T17:40:55Z</time></trkpt><trkpt lat="36.996690355669394" lon="15.189558498553946"><ele>53.0</ele><time>2026-04-24T17:40:56Z</time></trkpt><trkpt lat="36.99652310288736" lon="15.189568174306658"><ele>53.0</ele><time>2026-04-24T17:40:57Z</time></trkpt><trkpt lat="36.99633592406087" lon="15.189559547695419"><ele>52.66666666666667</ele><time>2026-04-24T17:40:58Z</time></trkpt><trkpt lat="36.99613960073678" lon="15.189534697023834"><ele>52.33333333333333</ele><time>2026-04-24T17:40:59Z</time></trkpt><trkpt lat="36.9959178180248" lon="15.189517284928606"><ele>52.0</ele><time>2026-04-24T17:41:00Z</time></trkpt><trkpt lat="36.99570080209891" lon="15.189473104077251"><ele>51.0</ele><time>2026-04-24T17:41:01Z</time></trkpt><trkpt lat="36.995475948725954" lon="15.189433058011877"><ele>50.0</ele><time>2026-04-24T17:41:02Z</time></trkpt><trkpt lat="36.99525194631488" lon="15.189394768713822"><ele>50.0</ele><time>2026-04-24T17:41:03Z</time></trkpt><trkpt lat="36.995021327910806" lon="15.189368238524764"><ele>50.0</ele><time>2026-04-24T17:41:04Z</time></trkpt><trkpt lat="36.99482088861309" lon="15.189371441163"><ele>50.0</ele><time>2026-04-24T17:41:05Z</time></trkpt><trkpt lat="36.99460693574847" lon="15.18940956486022"><ele>50.333333333333336</ele><time>2026-04-24T17:41:06Z</time></trkpt><trkpt lat="36.9943948529114" lon="15.189463568709956"><ele>50.66666666666667</ele><time>2026-04-24T17:41:07Z</time></trkpt><trkpt lat="36.99419894670904" lon="15.189528631976096"><ele>51.0</ele><time>2026-04-24T17:41:08Z</time></trkpt><trkpt lat="36.99397336086123" lon="15.189622097064582"><ele>52.0</ele><time>2026-04-24T17:41:09Z</time></trkpt><trkpt lat="36.99375418911487" lon="15.189685603546437"><ele>53.0</ele><time>2026-04-24T17:41:10Z</time></trkpt><trkpt lat="36.993530881694966" lon="15.18975101700506"><ele>53.5</ele><time>2026-04-24T17:41:11Z</time></trkpt><trkpt lat="36.99330256285182" lon="15.189827909550855"><ele>54.0</ele><time>2026-04-24T17:41:12Z</time></trkpt><trkpt lat="36.99309628018841" lon="15.189901559539829"><ele>53.0</ele><time>2026-04-24T17:41:13Z</time></trkpt><trkpt lat="36.9928442976357" lon="15.189946507965177"><ele>52.0</ele><time>2026-04-24T17:41:14Z</time></trkpt><trkpt lat="36.992594357237664" lon="15.189980728633854"><ele>52.666666666666664</ele><time>2026-04-24T17:41:15Z</time></trkpt><trkpt lat="36.992431787652805" lon="15.190075917913651"><ele>53.33333333333333</ele><time>2026-04-24T17:41:15.999Z</time></trkpt><trkpt lat="36.99221462189341" lon="15.190139042673955"><ele>54.0</ele><time>2026-04-24T17:41:16.999Z</time></trkpt><trkpt lat="36.99199331722793" lon="15.190187783446254"><ele>54.0</ele><time>2026-04-24T17:41:17.999Z</time></trkpt><trkpt lat="36.99177263943956" lon="15.190221325761096"><ele>54.0</ele><time>2026-04-24T17:41:18.999Z</time></trkpt><trkpt lat="36.99154924473998" lon="15.19023782257843"><ele>54.0</ele><time>2026-04-24T17:41:19.999Z</time></trkpt><trkpt lat="36.99133333134315" lon="15.190256927738375"><ele>54.0</ele><time>2026-04-24T17:41:20.999Z</time></trkpt><trkpt lat="36.99111251364926" lon="15.190278742974888"><ele>54.0</ele><time>2026-04-24T17:41:21.999Z</time></trkpt><trkpt lat="36.99089804383033" lon="15.190297435527853"><ele>54.0</ele><time>2026-04-24T17:41:22.999Z</time></trkpt><trkpt lat="36.990664189706145" lon="15.190335975809056"><ele>54.0</ele><time>2026-04-24T17:41:23.999Z</time></trkpt><trkpt lat="36.99048581525795" lon="15.190364288834273"><ele>54.0</ele><time>2026-04-24T17:41:24.999Z</time></trkpt><trkpt lat="36.990374435706414" lon="15.19036016606361"><ele>54.0</ele><time>2026-04-24T17:41:25.999Z</time></trkpt><trkpt lat="36.98998780080823" lon="15.190413195914998"><ele>54.0</ele><time>2026-04-24T17:41:26.999Z</time></trkpt><trkpt lat="36.989748096314905" lon="15.190419663518751"><ele>54.0</ele><time>2026-04-24T17:41:27.999Z</time></trkpt><trkpt lat="36.98950829078633" lon="15.19043504545003"><ele>54.0</ele><time>2026-04-24T17:41:28.999Z</time></trkpt><trkpt lat="36.989268997492005" lon="15.190460688734259"><ele>54.0</ele><time>2026-04-24T17:41:29.999Z</time></trkpt><trkpt lat="36.98903289925052" lon="15.19049656777821"><ele>53.5</ele><time>2026-04-24T17:41:30.999Z</time></trkpt><trkpt lat="36.98880420633167" lon="15.19054644263211"><ele>53.0</ele><time>2026-04-24T17:41:31.999Z</time></trkpt><trkpt lat="36.988570127465124" lon="15.19061117572057"><ele>53.0</ele><time>2026-04-24T17:41:32.999Z</time></trkpt><trkpt lat="36.988337262896025" lon="15.190642804799278"><ele>53.0</ele><time>2026-04-24T17:41:33.999Z</time></trkpt><trkpt lat="36.98811445733421" lon="15.190727943394943"><ele>52.0</ele><time>2026-04-24T17:41:34.999Z</time></trkpt><trkpt lat="36.987887428559574" lon="15.19078781031942"><ele>51.0</ele><time>2026-04-24T17:41:35.999Z</time></trkpt><trkpt lat="36.98765909676699" lon="15.19084663445643"><ele>51.5</ele><time>2026-04-24T17:41:36.999Z</time></trkpt><trkpt lat="36.98741875592474" lon="15.190889635626045"><ele>52.0</ele><time>2026-04-24T17:41:37.999Z</time></trkpt><trkpt lat="36.98719397505363" lon="15.190956457759079"><ele>52.0</ele><time>2026-04-24T17:41:38.999Z</time></trkpt><trkpt lat="36.98696199604962" lon="15.19101216087775"><ele>52.0</ele><time>2026-04-24T17:41:39.999Z</time></trkpt><trkpt lat="36.98673385155043" lon="15.191072033545067"><ele>53.0</ele><time>2026-04-24T17:41:40.999Z</time></trkpt><trkpt lat="36.986501557861075" lon="15.19113017611005"><ele>54.0</ele><time>2026-04-24T17:41:41.999Z</time></trkpt><trkpt lat="36.98627199391337" lon="15.191187278016539"><ele>54.0</ele><time>2026-04-24T17:41:42.999Z</time></trkpt><trkpt lat="36.9860450638184" lon="15.191250228117712"><ele>54.0</ele><time>2026-04-24T17:41:43.999Z</time></trkpt><trkpt lat="36.98581455946959" lon="15.191307943657348"><ele>54.5</ele><time>2026-04-24T17:41:44.999Z</time></trkpt><trkpt lat="36.98558739234732" lon="15.191367144823232"><ele>55.0</ele><time>2026-04-24T17:41:45.999Z</time></trkpt><trkpt lat="36.98535878852136" lon="15.191424926683458"><ele>55.0</ele><time>2026-04-24T17:41:46.999Z</time></trkpt><trkpt lat="36.98512844760098" lon="15.191479217640534"><ele>55.0</ele><time>2026-04-24T17:41:47.999Z</time></trkpt><trkpt lat="36.98489916700831" lon="15.191536227097588"><ele>54.33333333333333</ele><time>2026-04-24T17:41:48.999Z</time></trkpt><trkpt lat="36.98467678849849" lon="15.191596215691272"><ele>53.66666666666667</ele><time>2026-04-24T17:41:49.999Z</time></trkpt><trkpt lat="36.984460070985044" lon="15.191642786529162"><ele>53.0</ele><time>2026-04-24T17:41:50.999Z</time></trkpt><trkpt lat="36.98423207028088" lon="15.191721741308067"><ele>55.0</ele><time>2026-04-24T17:41:51.999Z</time></trkpt><trkpt lat="36.98399437773552" lon="15.191772153837992"><ele>57.0</ele><time>2026-04-24T17:41:52.999Z</time></trkpt><trkpt lat="36.98377156625304" lon="15.191872205911729"><ele>57.0</ele><time>2026-04-24T17:41:53.999Z</time></trkpt><trkpt lat="36.983605010674694" lon="15.191881684857442"><ele>57.0</ele><time>2026-04-24T17:41:54.999Z</time></trkpt><trkpt lat="36.98344016984644" lon="15.191894520490981"><ele>57.0</ele><time>2026-04-24T17:41:55.999Z</time></trkpt><trkpt lat="36.98326196128096" lon="15.191881072540827"><ele>57.66666666666667</ele><time>2026-04-24T17:41:56.999Z</time></trkpt><trkpt lat="36.983074136441736" lon="15.191827315140156"><ele>58.333333333333336</ele><time>2026-04-24T17:41:57.999Z</time></trkpt><trkpt lat="36.98285417560687" lon="15.191816128143087"><ele>59.0</ele><time>2026-04-24T17:41:58.999Z</time></trkpt><trkpt lat="36.98263256285989" lon="15.191772941483784"><ele>58.66666666666667</ele><time>2026-04-24T17:41:59.999Z</time></trkpt><trkpt lat="36.982428196797905" lon="15.191738230098455"><ele>58.33333333333333</ele><time>2026-04-24T17:42:00.999Z</time></trkpt><trkpt lat="36.98221196047666" lon="15.191703200269638"><ele>58.0</ele><time>2026-04-24T17:42:01.999Z</time></trkpt><trkpt lat="36.98198207435859" lon="15.19167292502203"><ele>58.0</ele><time>2026-04-24T17:42:02.999Z</time></trkpt><trkpt lat="36.981746467007504" lon="15.191627198653652"><ele>58.0</ele><time>2026-04-24T17:42:03.999Z</time></trkpt><trkpt lat="36.98146202358565" lon="15.191621684026435"><ele>58.0</ele><time>2026-04-24T17:42:04.999Z</time></trkpt><trkpt lat="36.98121031647142" lon="15.191676510446879"><ele>58.0</ele><time>2026-04-24T17:42:05.999Z</time></trkpt><trkpt lat="36.98108128900644" lon="15.191521496189807"><ele>58.0</ele><time>2026-04-24T17:42:06.999Z</time></trkpt><trkpt lat="36.980853523584194" lon="15.191490792981963"><ele>58.5</ele><time>2026-04-24T17:42:07.999Z</time></trkpt><trkpt lat="36.98062359409056" lon="15.19145428292011"><ele>59.0</ele><time>2026-04-24T17:42:08.999Z</time></trkpt><trkpt lat="36.98038835046057" lon="15.191419529310636"><ele>59.0</ele><time>2026-04-24T17:42:09.999Z</time></trkpt><trkpt lat="36.98014688486468" lon="15.191376522469106"><ele>59.0</ele><time>2026-04-24T17:42:10.999Z</time></trkpt><trkpt lat="36.97993175135165" lon="15.19132144182206"><ele>59.5</ele><time>2026-04-24T17:42:11.999Z</time></trkpt><trkpt lat="36.97969443085687" lon="15.191306342708161"><ele>60.0</ele><time>2026-04-24T17:42:12.999Z</time></trkpt><trkpt lat="36.97946814863661" lon="15.1912707423347"><ele>60.0</ele><time>2026-04-24T17:42:13.999Z</time></trkpt><trkpt lat="36.97923975798366" lon="15.191232443234538"><ele>60.0</ele><time>2026-04-24T17:42:14.999Z</time></trkpt><trkpt lat="36.979014650895905" lon="15.191194978066925"><ele>61.0</ele><time>2026-04-24T17:42:15.999Z</time></trkpt><trkpt lat="36.97878259826559" lon="15.191160312106092"><ele>62.0</ele><time>2026-04-24T17:42:16.999Z</time></trkpt><trkpt lat="36.978555666921594" lon="15.191126321234893"><ele>62.5</ele><time>2026-04-24T17:42:17.999Z</time></trkpt><trkpt lat="36.97832730579373" lon="15.191096720194315"><ele>63.0</ele><time>2026-04-24T17:42:18.999Z</time></trkpt><trkpt lat="36.97810640293491" lon="15.19105951815923"><ele>63.0</ele><time>2026-04-24T17:42:19.999Z</time></trkpt><trkpt lat="36.9778999672351" lon="15.191028240683279"><ele>63.0</ele><time>2026-04-24T17:42:20.999Z</time></trkpt><trkpt lat="36.977699523536565" lon="15.19099647976004"><ele>63.0</ele><time>2026-04-24T17:42:21.999Z</time></trkpt><trkpt lat="36.97749854056215" lon="15.190964088055363"><ele>62.66666666666667</ele><time>2026-04-24T17:42:22.999Z</time></trkpt><trkpt lat="36.97732106435464" lon="15.190973279740202"><ele>62.333333333333336</ele><time>2026-04-24T17:42:23.999Z</time></trkpt><trkpt lat="36.97711686621611" lon="15.190961755907793"><ele>62.0</ele><time>2026-04-24T17:42:24.999Z</time></trkpt><trkpt lat="36.97691594038035" lon="15.190958434264896"><ele>62.0</ele><time>2026-04-24T17:42:25.998Z</time></trkpt><trkpt lat="36.9767472209928" lon="15.190965049245118"><ele>62.0</ele><time>2026-04-24T17:42:26.998Z</time></trkpt><trkpt lat="36.976583909872225" lon="15.190957276753426"><ele>62.0</ele><time>2026-04-24T17:42:27.998Z</time></trkpt><trkpt lat="36.976456067571235" lon="15.190938740235783"><ele>61.5</ele><time>2026-04-24T17:42:28.998Z</time></trkpt><trkpt lat="36.97627129221959" lon="15.190940604479637"><ele>61.0</ele><time>2026-04-24T17:42:29.998Z</time></trkpt><trkpt lat="36.97613091492536" lon="15.19091062253533"><ele>60.5</ele><time>2026-04-24T17:42:30.998Z</time></trkpt><trkpt lat="36.976020221285566" lon="15.190874421332886"><ele>60.0</ele><time>2026-04-24T17:42:31.998Z</time></trkpt><trkpt lat="36.97590544276512" lon="15.190823214519774"><ele>60.0</ele><time>2026-04-24T17:42:32.998Z</time></trkpt><trkpt lat="36.97578170075604" lon="15.190742115481441"><ele>60.0</ele><time>2026-04-24T17:42:34Z</time></trkpt><trkpt lat="36.97566235616947" lon="15.190640929552476"><ele>60.0</ele><time>2026-04-24T17:42:35Z</time></trkpt><trkpt lat="36.97555690191698" lon="15.190523227501641"><ele>60.0</ele><time>2026-04-24T17:42:36Z</time></trkpt><trkpt lat="36.97545858557642" lon="15.190386961399675"><ele>60.0</ele><time>2026-04-24T17:42:37Z</time></trkpt><trkpt lat="36.97538248855721" lon="15.190245524184842"><ele>60.0</ele><time>2026-04-24T17:42:38Z</time></trkpt><trkpt lat="36.97526398724933" lon="15.190105650470159"><ele>60.0</ele><time>2026-04-24T17:42:39Z</time></trkpt><trkpt lat="36.97518453477451" lon="15.189970655672056"><ele>60.0</ele><time>2026-04-24T17:42:40Z</time></trkpt><trkpt lat="36.97505378216233" lon="15.189897039134346"><ele>59.0</ele><time>2026-04-24T17:42:41Z</time></trkpt><trkpt lat="36.9749468052207" lon="15.189813944021473"><ele>58.0</ele><time>2026-04-24T17:42:42Z</time></trkpt><trkpt lat="36.97482679488917" lon="15.189721304984474"><ele>57.0</ele><time>2026-04-24T17:42:43Z</time></trkpt><trkpt lat="36.974713297389044" lon="15.189637878035828"><ele>56.0</ele><time>2026-04-24T17:42:44Z</time></trkpt><trkpt lat="36.974598730844136" lon="15.18958701790628"><ele>56.0</ele><time>2026-04-24T17:42:45Z</time></trkpt><trkpt lat="36.97448904508604" lon="15.18954463118308"><ele>56.0</ele><time>2026-04-24T17:42:46Z</time></trkpt><trkpt lat="36.97437541947809" lon="15.189494349879672"><ele>56.0</ele><time>2026-04-24T17:42:47Z</time></trkpt><trkpt lat="36.97425714175388" lon="15.189448256623315"><ele>56.0</ele><time>2026-04-24T17:42:48Z</time></trkpt><trkpt lat="36.97413337058842" lon="15.18941067300653"><ele>56.0</ele><time>2026-04-24T17:42:49Z</time></trkpt><trkpt lat="36.974002099187274" lon="15.189390185736517"><ele>56.0</ele><time>2026-04-24T17:42:50Z</time></trkpt><trkpt lat="36.97386730892423" lon="15.189372069551926"><ele>56.0</ele><time>2026-04-24T17:42:51Z</time></trkpt><trkpt lat="36.97373433456139" lon="15.189350857743971"><ele>56.0</ele><time>2026-04-24T17:42:52Z</time></trkpt><trkpt lat="36.97361367862733" lon="15.189323916313985"><ele>56.0</ele><time>2026-04-24T17:42:53Z</time></trkpt><trkpt lat="36.97349360032588" lon="15.189334902916212"><ele>55.99999999999999</ele><time>2026-04-24T17:42:54Z</time></trkpt><trkpt lat="36.97338617608003" lon="15.189362706261667"><ele>55.99999999999999</ele><time>2026-04-24T17:42:55Z</time></trkpt><trkpt lat="36.97329203485027" lon="15.189415534600037"><ele>56.0</ele><time>2026-04-24T17:42:56Z</time></trkpt><trkpt lat="36.973199449147536" lon="15.189500001101758"><ele>56.0</ele><time>2026-04-24T17:42:57Z</time></trkpt><trkpt lat="36.97314031882679" lon="15.189576931247682"><ele>55.8</ele><time>2026-04-24T17:42:58Z</time></trkpt><trkpt lat="36.97307231408174" lon="15.189671724136684"><ele>55.599999999999994</ele><time>2026-04-24T17:42:59Z</time></trkpt><trkpt lat="36.97300547458405" lon="15.189760886024622"><ele>55.4</ele><time>2026-04-24T17:43:00Z</time></trkpt><trkpt lat="36.972928660571355" lon="15.189860416436302"><ele>55.2</ele><time>2026-04-24T17:43:01Z</time></trkpt><trkpt lat="36.97285126904994" lon="15.189954582303868"><ele>55.0</ele><time>2026-04-24T17:43:02Z</time></trkpt><trkpt lat="36.97276983272264" lon="15.190065157351622"><ele>55.0</ele><time>2026-04-24T17:43:03Z</time></trkpt><trkpt lat="36.97271018397203" lon="15.190134154533839"><ele>55.0</ele><time>2026-04-24T17:43:04Z</time></trkpt><trkpt lat="36.97265138689339" lon="15.190207957649516"><ele>55.0</ele><time>2026-04-24T17:43:05Z</time></trkpt><trkpt lat="36.97257349493481" lon="15.190278030771063"><ele>55.0</ele><time>2026-04-24T17:43:06Z</time></trkpt><trkpt lat="36.97251095833135" lon="15.190363867716604"><ele>55.0</ele><time>2026-04-24T17:43:07Z</time></trkpt><trkpt lat="36.97243677801307" lon="15.19046101920394"><ele>54.5</ele><time>2026-04-24T17:43:08Z</time></trkpt><trkpt lat="36.9723522831124" lon="15.190585818664228"><ele>54.0</ele><time>2026-04-24T17:43:09Z</time></trkpt><trkpt lat="36.97226438375423" lon="15.190706939842803"><ele>53.5</ele><time>2026-04-24T17:43:10Z</time></trkpt><trkpt lat="36.97216128068289" lon="15.19083997256875"><ele>53.0</ele><time>2026-04-24T17:43:11Z</time></trkpt><trkpt lat="36.97206546799474" lon="15.190967080457884"><ele>53.0</ele><time>2026-04-24T17:43:12Z</time></trkpt><trkpt lat="36.971972028193186" lon="15.191077789164806"><ele>53.0</ele><time>2026-04-24T17:43:13Z</time></trkpt><trkpt lat="36.97188672220898" lon="15.191175399003736"><ele>53.0</ele><time>2026-04-24T17:43:14Z</time></trkpt><trkpt lat="36.97183461240866" lon="15.19124902674815"><ele>53.0</ele><time>2026-04-24T17:43:15Z</time></trkpt><trkpt lat="36.97172852817756" lon="15.191317065137289"><ele>53.0</ele><time>2026-04-24T17:43:17Z</time></trkpt><trkpt lat="36.97165071337207" lon="15.191330706133407"><ele>52.66666666666667</ele><time>2026-04-24T17:43:18Z</time></trkpt><trkpt lat="36.971573102577835" lon="15.191336425891773"><ele>52.333333333333336</ele><time>2026-04-24T17:43:19Z</time></trkpt><trkpt lat="36.97146684805393" lon="15.191294329597655"><ele>52.0</ele><time>2026-04-24T17:43:21Z</time></trkpt><trkpt lat="36.97140549132564" lon="15.191258890138995"><ele>51.66666666666667</ele><time>2026-04-24T17:43:22Z</time></trkpt><trkpt lat="36.971340318086426" lon="15.191205161305922"><ele>51.333333333333336</ele><time>2026-04-24T17:43:23Z</time></trkpt><trkpt lat="36.971278518857766" lon="15.191144002335351"><ele>51.0</ele><time>2026-04-24T17:43:23.999Z</time></trkpt><trkpt lat="36.9712072377655" lon="15.191089466233883"><ele>51.0</ele><time>2026-04-24T17:43:24.999Z</time></trkpt><trkpt lat="36.97112778795811" lon="15.191026762546212"><ele>51.0</ele><time>2026-04-24T17:43:25.999Z</time></trkpt><trkpt lat="36.97103177894736" lon="15.190960410717524"><ele>51.0</ele><time>2026-04-24T17:43:26.999Z</time></trkpt><trkpt lat="36.97092840029903" lon="15.190859294565621"><ele>51.0</ele><time>2026-04-24T17:43:27.999Z</time></trkpt><trkpt lat="36.970813479897764" lon="15.190740838047702"><ele>50.0</ele><time>2026-04-24T17:43:28.999Z</time></trkpt><trkpt lat="36.97070227397567" lon="15.190631360033102"><ele>49.0</ele><time>2026-04-24T17:43:29.999Z</time></trkpt><trkpt lat="36.97056332102367" lon="15.190478196659136"><ele>48.0</ele><time>2026-04-24T17:43:30.999Z</time></trkpt><trkpt lat="36.97043365423843" lon="15.190304623834832"><ele>48.0</ele><time>2026-04-24T17:43:31.999Z</time></trkpt><trkpt lat="36.97027948047175" lon="15.190109589651039"><ele>48.0</ele><time>2026-04-24T17:43:32.999Z</time></trkpt><trkpt lat="36.97011684950506" lon="15.189955480274001"><ele>48.0</ele><time>2026-04-24T17:43:33.999Z</time></trkpt><trkpt lat="36.96999176812734" lon="15.189779132398721"><ele>49.25</ele><time>2026-04-24T17:43:34.999Z</time></trkpt><trkpt lat="36.969877052000854" lon="15.189645091624671"><ele>50.5</ele><time>2026-04-24T17:43:35.999Z</time></trkpt><trkpt lat="36.96973573058453" lon="15.189544218844226"><ele>51.75</ele><time>2026-04-24T17:43:36.999Z</time></trkpt><trkpt lat="36.96961532576193" lon="15.18949019072222"><ele>53.0</ele><time>2026-04-24T17:43:37.999Z</time></trkpt><trkpt lat="36.96940978329617" lon="15.189497859917843"><ele>53.0</ele><time>2026-04-24T17:43:38.999Z</time></trkpt><trkpt lat="36.969203891443506" lon="15.189524085758533"><ele>53.0</ele><time>2026-04-24T17:43:39.999Z</time></trkpt><trkpt lat="36.96898873368548" lon="15.189540639802647"><ele>53.0</ele><time>2026-04-24T17:43:40.999Z</time></trkpt><trkpt lat="36.96878599567901" lon="15.189542030996899"><ele>51.5</ele><time>2026-04-24T17:43:41.999Z</time></trkpt><trkpt lat="36.96855091215428" lon="15.189578223545576"><ele>50.0</ele><time>2026-04-24T17:43:42.999Z</time></trkpt><trkpt lat="36.968330263374355" lon="15.189591142393867"><ele>50.0</ele><time>2026-04-24T17:43:43.999Z</time></trkpt><trkpt lat="36.96810580215479" lon="15.18959920016696"><ele>50.0</ele><time>2026-04-24T17:43:44.999Z</time></trkpt><trkpt lat="36.96788446552176" lon="15.189615547109966"><ele>50.0</ele><time>2026-04-24T17:43:45.999Z</time></trkpt><trkpt lat="36.96765856910073" lon="15.189631320217439"><ele>49.0</ele><time>2026-04-24T17:43:46.999Z</time></trkpt><trkpt lat="36.967435157210076" lon="15.189644464952348"><ele>48.0</ele><time>2026-04-24T17:43:47.999Z</time></trkpt><trkpt lat="36.96721058362911" lon="15.189656324168839"><ele>47.0</ele><time>2026-04-24T17:43:48.999Z</time></trkpt><trkpt lat="36.966985899408066" lon="15.189665911999738"><ele>47.0</ele><time>2026-04-24T17:43:49.999Z</time></trkpt><trkpt lat="36.96676534946137" lon="15.189673008647068"><ele>47.0</ele><time>2026-04-24T17:43:50.999Z</time></trkpt><trkpt lat="36.96654585142757" lon="15.18968308439904"><ele>47.0</ele><time>2026-04-24T17:43:51.999Z</time></trkpt><trkpt lat="36.96633423683811" lon="15.189696029213032"><ele>45.666666666666664</ele><time>2026-04-24T17:43:52.999Z</time></trkpt><trkpt lat="36.966139081696994" lon="15.189709022975014"><ele>44.333333333333336</ele><time>2026-04-24T17:43:53.999Z</time></trkpt><trkpt lat="36.965942903704395" lon="15.189721098781655"><ele>43.0</ele><time>2026-04-24T17:43:54.999Z</time></trkpt><trkpt lat="36.965752312114134" lon="15.189723734122861"><ele>42.75</ele><time>2026-04-24T17:43:55.999Z</time></trkpt><trkpt lat="36.96558483493262" lon="15.189727684441566"><ele>42.5</ele><time>2026-04-24T17:43:56.999Z</time></trkpt><trkpt lat="36.965455745004505" lon="15.189730859290732"><ele>42.25</ele><time>2026-04-24T17:43:57.999Z</time></trkpt><trkpt lat="36.96533676991379" lon="15.18974263445957"><ele>42.0</ele><time>2026-04-24T17:43:58.999Z</time></trkpt><trkpt lat="36.9651740664797" lon="15.189750550792574"><ele>40.5</ele><time>2026-04-24T17:43:59.999Z</time></trkpt><trkpt lat="36.964907576699915" lon="15.18976324214147"><ele>39.0</ele><time>2026-04-24T17:44:00.999Z</time></trkpt><trkpt lat="36.964696943479105" lon="15.1897763625227"><ele>39.0</ele><time>2026-04-24T17:44:01.999Z</time></trkpt><trkpt lat="36.96447683710414" lon="15.18977886894959"><ele>39.0</ele><time>2026-04-24T17:44:02.999Z</time></trkpt><trkpt lat="36.96424928283394" lon="15.189786681463731"><ele>39.0</ele><time>2026-04-24T17:44:03.999Z</time></trkpt><trkpt lat="36.96404011313875" lon="15.189814018539426"><ele>38.0</ele><time>2026-04-24T17:44:04.999Z</time></trkpt><trkpt lat="36.9637865890593" lon="15.189817881998344"><ele>37.0</ele><time>2026-04-24T17:44:05.999Z</time></trkpt><trkpt lat="36.963536181989994" lon="15.189820971485927"><ele>37.5</ele><time>2026-04-24T17:44:06.999Z</time></trkpt><trkpt lat="36.963289144339974" lon="15.189837478189348"><ele>38.0</ele><time>2026-04-24T17:44:07.999Z</time></trkpt><trkpt lat="36.9630445570181" lon="15.189854873649338"><ele>36.0</ele><time>2026-04-24T17:44:08.999Z</time></trkpt><trkpt lat="36.96279660897202" lon="15.189867804156995"><ele>34.0</ele><time>2026-04-24T17:44:09.999Z</time></trkpt><trkpt lat="36.962550888122735" lon="15.18987671162486"><ele>33.0</ele><time>2026-04-24T17:44:10.999Z</time></trkpt><trkpt lat="36.962307297296924" lon="15.189889410184668"><ele>32.0</ele><time>2026-04-24T17:44:11.999Z</time></trkpt><trkpt lat="36.96206186759615" lon="15.189895646423428"><ele>32.0</ele><time>2026-04-24T17:44:12.999Z</time></trkpt><trkpt lat="36.96182085155796" lon="15.189911463447293"><ele>32.0</ele><time>2026-04-24T17:44:13.999Z</time></trkpt><trkpt lat="36.96156602139037" lon="15.189918397759879"><ele>31.333333333333332</ele><time>2026-04-24T17:44:14.999Z</time></trkpt><trkpt lat="36.96138105554925" lon="15.18993381820806"><ele>30.666666666666664</ele><time>2026-04-24T17:44:15.999Z</time></trkpt><trkpt lat="36.96118075585483" lon="15.189943011694961"><ele>30.0</ele><time>2026-04-24T17:44:16.999Z</time></trkpt><trkpt lat="36.960973041651705" lon="15.189954735323132"><ele>30.0</ele><time>2026-04-24T17:44:17.999Z</time></trkpt><trkpt lat="36.96075399777461" lon="15.189966773140993"><ele>30.0</ele><time>2026-04-24T17:44:18.999Z</time></trkpt><trkpt lat="36.96051871100213" lon="15.189973390914588"><ele>30.0</ele><time>2026-04-24T17:44:19.999Z</time></trkpt><trkpt lat="36.96028577409085" lon="15.1899827862665"><ele>30.0</ele><time>2026-04-24T17:44:20.999Z</time></trkpt><trkpt lat="36.96005666551573" lon="15.189997791442265"><ele>30.0</ele><time>2026-04-24T17:44:21.999Z</time></trkpt><trkpt lat="36.95982260722255" lon="15.190009557831097"><ele>30.0</ele><time>2026-04-24T17:44:22.999Z</time></trkpt><trkpt lat="36.959589066547096" lon="15.190019779072752"><ele>30.0</ele><time>2026-04-24T17:44:23.999Z</time></trkpt><trkpt lat="36.95935372985132" lon="15.190032678141801"><ele>30.0</ele><time>2026-04-24T17:44:24.999Z</time></trkpt><trkpt lat="36.95911941675492" lon="15.190043029477287"><ele>29.0</ele><time>2026-04-24T17:44:25.999Z</time></trkpt><trkpt lat="36.95888506930314" lon="15.190052176152147"><ele>28.0</ele><time>2026-04-24T17:44:26.999Z</time></trkpt><trkpt lat="36.95864913999648" lon="15.19006544859524"><ele>28.0</ele><time>2026-04-24T17:44:27.999Z</time></trkpt><trkpt lat="36.95840925671194" lon="15.19007812981822"><ele>28.0</ele><time>2026-04-24T17:44:28.999Z</time></trkpt><trkpt lat="36.95817268298728" lon="15.190088445048021"><ele>26.5</ele><time>2026-04-24T17:44:29.999Z</time></trkpt><trkpt lat="36.95793344299432" lon="15.190104768439125"><ele>25.0</ele><time>2026-04-24T17:44:30.999Z</time></trkpt><trkpt lat="36.957696573004995" lon="15.190132031684584"><ele>24.5</ele><time>2026-04-24T17:44:31.999Z</time></trkpt><trkpt lat="36.957456845554155" lon="15.19013737157735"><ele>24.0</ele><time>2026-04-24T17:44:32.999Z</time></trkpt><trkpt lat="36.957218332355865" lon="15.190152788048415"><ele>24.0</ele><time>2026-04-24T17:44:33.998Z</time></trkpt><trkpt lat="36.956977644615996" lon="15.190160346148373"><ele>24.0</ele><time>2026-04-24T17:44:34.998Z</time></trkpt><trkpt lat="36.95673745491463" lon="15.190170694192764"><ele>24.0</ele><time>2026-04-24T17:44:35.998Z</time></trkpt><trkpt lat="36.95649822889833" lon="15.190178867705765"><ele>24.0</ele><time>2026-04-24T17:44:36.998Z</time></trkpt><trkpt lat="36.95625593351467" lon="15.190184780998417"><ele>24.0</ele><time>2026-04-24T17:44:37.998Z</time></trkpt><trkpt lat="36.95601308825219" lon="15.190200912265563"><ele>24.0</ele><time>2026-04-24T17:44:38.998Z</time></trkpt><trkpt lat="36.955780988176286" lon="15.190221357516075"><ele>23.5</ele><time>2026-04-24T17:44:40Z</time></trkpt><trkpt lat="36.95555925863213" lon="15.190235735351179"><ele>23.0</ele><time>2026-04-24T17:44:41Z</time></trkpt><trkpt lat="36.95530776564871" lon="15.190236358739675"><ele>23.0</ele><time>2026-04-24T17:44:42Z</time></trkpt><trkpt lat="36.95506932946039" lon="15.190247564858494"><ele>23.0</ele><time>2026-04-24T17:44:43Z</time></trkpt><trkpt lat="36.95483935491795" lon="15.190264516914224"><ele>23.5</ele><time>2026-04-24T17:44:44Z</time></trkpt><trkpt lat="36.95460101533585" lon="15.190268914331055"><ele>24.0</ele><time>2026-04-24T17:44:45Z</time></trkpt><trkpt lat="36.95436767589925" lon="15.19028374013205"><ele>23.0</ele><time>2026-04-24T17:44:46Z</time></trkpt><trkpt lat="36.954128480233436" lon="15.190296527656617"><ele>22.0</ele><time>2026-04-24T17:44:47Z</time></trkpt><trkpt lat="36.95387975139406" lon="15.19030767734425"><ele>22.0</ele><time>2026-04-24T17:44:48Z</time></trkpt><trkpt lat="36.953622741963734" lon="15.190265428952308"><ele>22.0</ele><time>2026-04-24T17:44:49Z</time></trkpt><trkpt lat="36.95346000535082" lon="15.190340175163577"><ele>22.0</ele><time>2026-04-24T17:44:50Z</time></trkpt><trkpt lat="36.95327653864331" lon="15.190342968884542"><ele>21.5</ele><time>2026-04-24T17:44:51Z</time></trkpt><trkpt lat="36.95311758411022" lon="15.190342712675998"><ele>21.0</ele><time>2026-04-24T17:44:52Z</time></trkpt><trkpt lat="36.952967990249604" lon="15.19034020411291"><ele>20.5</ele><time>2026-04-24T17:44:53Z</time></trkpt><trkpt lat="36.952828119515914" lon="15.190342637542813"><ele>20.0</ele><time>2026-04-24T17:44:54Z</time></trkpt><trkpt lat="36.95270027194397" lon="15.190347928386403"><ele>20.0</ele><time>2026-04-24T17:44:55Z</time></trkpt><trkpt lat="36.952580407413535" lon="15.190356869455043"><ele>20.0</ele><time>2026-04-24T17:44:56Z</time></trkpt><trkpt lat="36.95248636707939" lon="15.190359918081976"><ele>20.0</ele><time>2026-04-24T17:44:57Z</time></trkpt><trkpt lat="36.95240627841017" lon="15.190341847823477"><ele>20.0</ele><time>2026-04-24T17:44:58Z</time></trkpt><trkpt lat="36.95232525481529" lon="15.190299592419143"><ele>20.0</ele><time>2026-04-24T17:44:59Z</time></trkpt><trkpt lat="36.952248837079416" lon="15.190244039186938"><ele>20.0</ele><time>2026-04-24T17:45:00Z</time></trkpt><trkpt lat="36.95215886385063" lon="15.190231999811955"><ele>20.0</ele><time>2026-04-24T17:45:01Z</time></trkpt><trkpt lat="36.952061867773565" lon="15.190274058122005"><ele>20.0</ele><time>2026-04-24T17:45:02Z</time></trkpt><trkpt lat="36.95197557320075" lon="15.19034807632331"><ele>20.0</ele><time>2026-04-24T17:45:03Z</time></trkpt><trkpt lat="36.95188881828437" lon="15.190416806959208"><ele>20.0</ele><time>2026-04-24T17:45:04Z</time></trkpt><trkpt lat="36.95175657320328" lon="15.190452686218297"><ele>19.333333333333336</ele><time>2026-04-24T17:45:05Z</time></trkpt><trkpt lat="36.95157875779802" lon="15.190459931616276"><ele>18.666666666666668</ele><time>2026-04-24T17:45:06Z</time></trkpt><trkpt lat="36.95138859359733" lon="15.190445127341572"><ele>18.0</ele><time>2026-04-24T17:45:07Z</time></trkpt><trkpt lat="36.95117710696536" lon="15.190438679956923"><ele>18.0</ele><time>2026-04-24T17:45:08Z</time></trkpt><trkpt lat="36.95096576522741" lon="15.190386772998766"><ele>18.0</ele><time>2026-04-24T17:45:09Z</time></trkpt><trkpt lat="36.950761972119885" lon="15.190306279026819"><ele>18.0</ele><time>2026-04-24T17:45:10Z</time></trkpt><trkpt lat="36.95058928278168" lon="15.190204644267038"><ele>16.666666666666668</ele><time>2026-04-24T17:45:11Z</time></trkpt><trkpt lat="36.95041910086374" lon="15.190074362086163"><ele>15.333333333333334</ele><time>2026-04-24T17:45:12Z</time></trkpt><trkpt lat="36.950267319646215" lon="15.189906848297097"><ele>14.0</ele><time>2026-04-24T17:45:13Z</time></trkpt><trkpt lat="36.950130064094246" lon="15.189710057631322"><ele>12.333333333333334</ele><time>2026-04-24T17:45:14Z</time></trkpt><trkpt lat="36.95001395545622" lon="15.189498951599287"><ele>10.666666666666668</ele><time>2026-04-24T17:45:15Z</time></trkpt><trkpt lat="36.949888802076195" lon="15.189270555688987"><ele>9.0</ele><time>2026-04-24T17:45:16Z</time></trkpt><trkpt lat="36.94976792706627" lon="15.18904442098608"><ele>7.0</ele><time>2026-04-24T17:45:17Z</time></trkpt><trkpt lat="36.94966599891946" lon="15.188814737517125"><ele>5.0</ele><time>2026-04-24T17:45:18Z</time></trkpt><trkpt lat="36.94952646770785" lon="15.188567227933136"><ele>5.0</ele><time>2026-04-24T17:45:19Z</time></trkpt><trkpt lat="36.94939492480397" lon="15.18834057421207"><ele>5.0</ele><time>2026-04-24T17:45:20Z</time></trkpt><trkpt lat="36.94925614552885" lon="15.188109524243599"><ele>5.0</ele><time>2026-04-24T17:45:21Z</time></trkpt><trkpt lat="36.9491266883293" lon="15.187883396310793"><ele>5.0</ele><time>2026-04-24T17:45:22Z</time></trkpt><trkpt lat="36.949000787291446" lon="15.187649413247339"><ele>5.0</ele><time>2026-04-24T17:45:23Z</time></trkpt><trkpt lat="36.948872103019305" lon="15.18741832622026"><ele>5.333333333333334</ele><time>2026-04-24T17:45:24Z</time></trkpt><trkpt lat="36.94874916895532" lon="15.187187845685893"><ele>5.666666666666667</ele><time>2026-04-24T17:45:25Z</time></trkpt><trkpt lat="36.94862676611501" lon="15.186961703241387"><ele>6.0</ele><time>2026-04-24T17:45:26Z</time></trkpt><trkpt lat="36.94850329295579" lon="15.186727694284809"><ele>6.0</ele><time>2026-04-24T17:45:27Z</time></trkpt><trkpt lat="36.94838763557689" lon="15.186490828522308"><ele>6.0</ele><time>2026-04-24T17:45:27.999Z</time></trkpt><trkpt lat="36.948277218311524" lon="15.186247843821851"><ele>6.0</ele><time>2026-04-24T17:45:28.999Z</time></trkpt><trkpt lat="36.948178235573046" lon="15.185996487761374"><ele>6.0</ele><time>2026-04-24T17:45:29.999Z</time></trkpt><trkpt lat="36.94808006996975" lon="15.185754438154522"><ele>6.0</ele><time>2026-04-24T17:45:30.999Z</time></trkpt><trkpt lat="36.948010469704734" lon="15.185525086827816"><ele>6.0</ele><time>2026-04-24T17:45:31.999Z</time></trkpt><trkpt lat="36.9479094196596" lon="15.185254955020246"><ele>6.0</ele><time>2026-04-24T17:45:32.999Z</time></trkpt><trkpt lat="36.94781975100426" lon="15.18499540985404"><ele>6.0</ele><time>2026-04-24T17:45:33.999Z</time></trkpt><trkpt lat="36.947729225868294" lon="15.184731847331262"><ele>6.333333333333334</ele><time>2026-04-24T17:45:34.999Z</time></trkpt><trkpt lat="36.94767033896061" lon="15.184499967176022"><ele>6.666666666666667</ele><time>2026-04-24T17:45:35.999Z</time></trkpt><trkpt lat="36.94760667899422" lon="15.184286302605601"><ele>7.0</ele><time>2026-04-24T17:45:36.999Z</time></trkpt><trkpt lat="36.94754578577009" lon="15.184070562941875"><ele>8.666666666666668</ele><time>2026-04-24T17:45:37.999Z</time></trkpt><trkpt lat="36.94749477963187" lon="15.183862806260304"><ele>10.333333333333334</ele><time>2026-04-24T17:45:38.999Z</time></trkpt><trkpt lat="36.947449897897584" lon="15.183663364417818"><ele>12.0</ele><time>2026-04-24T17:45:39.999Z</time></trkpt><trkpt lat="36.94740076221007" lon="15.183473721597693"><ele>12.0</ele><time>2026-04-24T17:45:40.999Z</time></trkpt><trkpt lat="36.947349332246965" lon="15.183301411981008"><ele>12.0</ele><time>2026-04-24T17:45:41.999Z</time></trkpt><trkpt lat="36.94729567122098" lon="15.183122999162727"><ele>12.0</ele><time>2026-04-24T17:45:42.999Z</time></trkpt><trkpt lat="36.947251307536405" lon="15.182955265247388"><ele>12.0</ele><time>2026-04-24T17:45:43.999Z</time></trkpt><trkpt lat="36.947207977903474" lon="15.182805641783176"><ele>12.6</ele><time>2026-04-24T17:45:44.999Z</time></trkpt><trkpt lat="36.94718015461625" lon="15.182677892768167"><ele>13.2</ele><time>2026-04-24T17:45:45.999Z</time></trkpt><trkpt lat="36.947179472326624" lon="15.182598195096789"><ele>13.8</ele><time>2026-04-24T17:45:46.999Z</time></trkpt><trkpt lat="36.94725340464244" lon="15.182500831379908"><ele>14.4</ele><time>2026-04-24T17:45:48.999Z</time></trkpt><trkpt lat="36.94732779242074" lon="15.182448782713914"><ele>15.0</ele><time>2026-04-24T17:45:49.999Z</time></trkpt><trkpt lat="36.947401988535624" lon="15.182364544587294"><ele>15.5</ele><time>2026-04-24T17:45:50.999Z</time></trkpt><trkpt lat="36.94744011625855" lon="15.182255901227593"><ele>16.0</ele><time>2026-04-24T17:45:51.999Z</time></trkpt><trkpt lat="36.9474821522925" lon="15.182090591874664"><ele>16.5</ele><time>2026-04-24T17:45:52.999Z</time></trkpt><trkpt lat="36.9475551936923" lon="15.181908279019819"><ele>17.0</ele><time>2026-04-24T17:45:53.999Z</time></trkpt><trkpt lat="36.94767144653902" lon="15.18171797628827"><ele>17.0</ele><time>2026-04-24T17:45:54.999Z</time></trkpt><trkpt lat="36.94763579827686" lon="15.181635791867489"><ele>17.0</ele><time>2026-04-24T17:45:55.999Z</time></trkpt><trkpt lat="36.947504528039495" lon="15.181535179041848"><ele>17.0</ele><time>2026-04-24T17:45:56.999Z</time></trkpt><trkpt lat="36.94739753119762" lon="15.181379936551163"><ele>17.0</ele><time>2026-04-24T17:45:57.999Z</time></trkpt><trkpt lat="36.94727400920299" lon="15.181231372583552"><ele>19.0</ele><time>2026-04-24T17:45:58.999Z</time></trkpt><trkpt lat="36.94718059324961" lon="15.181094350894183"><ele>21.0</ele><time>2026-04-24T17:45:59.999Z</time></trkpt><trkpt lat="36.94708411856321" lon="15.18097134127732"><ele>23.0</ele><time>2026-04-24T17:46:00.999Z</time></trkpt><trkpt lat="36.94691867963368" lon="15.180775991288364"><ele>23.666666666666668</ele><time>2026-04-24T17:46:01.999Z</time></trkpt><trkpt lat="36.94676402417355" lon="15.18055191917141"><ele>24.333333333333336</ele><time>2026-04-24T17:46:02.999Z</time></trkpt><trkpt lat="36.946649847128725" lon="15.180417986853776"><ele>25.0</ele><time>2026-04-24T17:46:03.999Z</time></trkpt><trkpt lat="36.94652715870782" lon="15.180288235652885"><ele>25.2</ele><time>2026-04-24T17:46:04.999Z</time></trkpt><trkpt lat="36.94644378192617" lon="15.180161367556812"><ele>25.4</ele><time>2026-04-24T17:46:05.999Z</time></trkpt><trkpt lat="36.94636282467012" lon="15.18005421531666"><ele>25.6</ele><time>2026-04-24T17:46:06.999Z</time></trkpt><trkpt lat="36.94631190234864" lon="15.17998005215737"><ele>25.8</ele><time>2026-04-24T17:46:07.999Z</time></trkpt><trkpt lat="36.94628476096999" lon="15.179892170735318"><ele>26.0</ele><time>2026-04-24T17:46:08.999Z</time></trkpt><trkpt lat="36.94623147154518" lon="15.179838560857352"><ele>26.5</ele><time>2026-04-24T17:46:09.999Z</time></trkpt><trkpt lat="36.94629733702144" lon="15.179798172707201"><ele>27.0</ele><time>2026-04-24T17:46:10.999Z</time></trkpt><trkpt lat="36.94652020737452" lon="15.17974807578456"><ele>27.5</ele><time>2026-04-24T17:46:11.999Z</time></trkpt><trkpt lat="36.94660733897075" lon="15.17965166712131"><ele>28.0</ele><time>2026-04-24T17:46:12.999Z</time></trkpt><trkpt lat="36.94668777647289" lon="15.179546740518626"><ele>28.333333333333336</ele><time>2026-04-24T17:46:13.999Z</time></trkpt><trkpt lat="36.94681978706502" lon="15.179351222787096"><ele>28.666666666666664</ele><time>2026-04-24T17:46:14.999Z</time></trkpt><trkpt lat="36.94692922153676" lon="15.179279420207454"><ele>29.0</ele><time>2026-04-24T17:46:15.999Z</time></trkpt><trkpt lat="36.94710514686527" lon="15.179026876350537"><ele>30.0</ele><time>2026-04-24T17:46:16.999Z</time></trkpt><trkpt lat="36.94726987185666" lon="15.178713040968512"><ele>31.0</ele><time>2026-04-24T17:46:17.999Z</time></trkpt><trkpt lat="36.947420589411145" lon="15.178547426704608"><ele>31.0</ele><time>2026-04-24T17:46:18.999Z</time></trkpt><trkpt lat="36.94751299755025" lon="15.178425204422389"><ele>31.0</ele><time>2026-04-24T17:46:19.999Z</time></trkpt><trkpt lat="36.947597907754634" lon="15.178318089302149"><ele>31.0</ele><time>2026-04-24T17:46:20.999Z</time></trkpt><trkpt lat="36.94768181272147" lon="15.178231961896447"><ele>31.0</ele><time>2026-04-24T17:46:21.999Z</time></trkpt><trkpt lat="36.947735993453804" lon="15.17813950936897"><ele>31.8</ele><time>2026-04-24T17:46:22.999Z</time></trkpt><trkpt lat="36.947756252551315" lon="15.178044768465087"><ele>32.6</ele><time>2026-04-24T17:46:23.999Z</time></trkpt><trkpt lat="36.94775784751897" lon="15.177950378988523"><ele>33.4</ele><time>2026-04-24T17:46:24.999Z</time></trkpt><trkpt lat="36.94776616943203" lon="15.177864180054431"><ele>34.2</ele><time>2026-04-24T17:46:25.999Z</time></trkpt><trkpt lat="36.94789661982222" lon="15.177746109324886"><ele>35.0</ele><time>2026-04-24T17:46:27.999Z</time></trkpt><trkpt lat="36.94799042417005" lon="15.177631955936956"><ele>35.0</ele><time>2026-04-24T17:46:28.999Z</time></trkpt><trkpt lat="36.948087292845024" lon="15.177504944194288"><ele>35.0</ele><time>2026-04-24T17:46:29.999Z</time></trkpt><trkpt lat="36.948174835899444" lon="15.177341575244167"><ele>35.0</ele><time>2026-04-24T17:46:30.999Z</time></trkpt><trkpt lat="36.94826557478827" lon="15.177183212884888"><ele>35.25</ele><time>2026-04-24T17:46:31.999Z</time></trkpt><trkpt lat="36.94837528151069" lon="15.177039655611779"><ele>35.5</ele><time>2026-04-24T17:46:32.999Z</time></trkpt><trkpt lat="36.9484809343913" lon="15.176912410695387"><ele>35.75</ele><time>2026-04-24T17:46:33.999Z</time></trkpt><trkpt lat="36.94857101486086" lon="15.176778108483207"><ele>36.0</ele><time>2026-04-24T17:46:34.999Z</time></trkpt><trkpt lat="36.948652547764084" lon="15.176665748492315"><ele>36.0</ele><time>2026-04-24T17:46:35.999Z</time></trkpt><trkpt lat="36.9487195149302" lon="15.176564351731402"><ele>36.0</ele><time>2026-04-24T17:46:36.999Z</time></trkpt><trkpt lat="36.94877557364784" lon="15.176478029257215"><ele>36.0</ele><time>2026-04-24T17:46:37.998Z</time></trkpt><trkpt lat="36.94881202783419" lon="15.17637695128632"><ele>36.0</ele><time>2026-04-24T17:46:39.998Z</time></trkpt><trkpt lat="36.94890511680115" lon="15.176465591213931"><ele>36.0</ele><time>2026-04-24T17:46:43.998Z</time></trkpt><trkpt lat="36.948997635432654" lon="15.176582496546642"><ele>36.0</ele><time>2026-04-24T17:46:44.998Z</time></trkpt><trkpt lat="36.94908181285903" lon="15.176683954909612"><ele>36.0</ele><time>2026-04-24T17:46:46Z</time></trkpt><trkpt lat="36.94918690205911" lon="15.176691453036463"><ele>36.0</ele><time>2026-04-24T17:46:48Z</time></trkpt><trkpt lat="36.949242778107255" lon="15.176651717495057"><ele>36.0</ele><time>2026-04-24T17:46:49Z</time></trkpt><trkpt lat="36.949290747899845" lon="15.176561052203159"><ele>36.0</ele><time>2026-04-24T17:46:50Z</time></trkpt><trkpt lat="36.94934667240438" lon="15.176432933283653"><ele>37.333333333333336</ele><time>2026-04-24T17:46:51Z</time></trkpt><trkpt lat="36.949435946321486" lon="15.176287680148713"><ele>38.66666666666667</ele><time>2026-04-24T17:46:52Z</time></trkpt><trkpt lat="36.94953688844102" lon="15.176139820056743"><ele>40.0</ele><time>2026-04-24T17:46:53Z</time></trkpt><trkpt lat="36.94964039886294" lon="15.175998728590898"><ele>40.0</ele><time>2026-04-24T17:46:54Z</time></trkpt><trkpt lat="36.94974545639999" lon="15.175866671293178"><ele>40.0</ele><time>2026-04-24T17:46:55Z</time></trkpt><trkpt lat="36.94981257644583" lon="15.175744801388253"><ele>40.0</ele><time>2026-04-24T17:46:56Z</time></trkpt><trkpt lat="36.94990494688319" lon="15.175646145889251"><ele>40.0</ele><time>2026-04-24T17:46:57Z</time></trkpt><trkpt lat="36.94996697458292" lon="15.175536227241484"><ele>40.75</ele><time>2026-04-24T17:46:58Z</time></trkpt><trkpt lat="36.95004976534176" lon="15.17542049047451"><ele>41.5</ele><time>2026-04-24T17:46:59Z</time></trkpt><trkpt lat="36.95013168344228" lon="15.175320571903285"><ele>42.25</ele><time>2026-04-24T17:47:00Z</time></trkpt><trkpt lat="36.95022592274143" lon="15.175202075458945"><ele>43.0</ele><time>2026-04-24T17:47:01Z</time></trkpt><trkpt lat="36.95030258909575" lon="15.175084113372721"><ele>43.0</ele><time>2026-04-24T17:47:02Z</time></trkpt><trkpt lat="36.95038150969752" lon="15.174975692869443"><ele>43.0</ele><time>2026-04-24T17:47:03Z</time></trkpt><trkpt lat="36.95043167416627" lon="15.174907189542347"><ele>43.0</ele><time>2026-04-24T17:47:04Z</time></trkpt><trkpt lat="36.950539179186386" lon="15.174775084108962"><ele>43.0</ele><time>2026-04-24T17:47:05Z</time></trkpt><trkpt lat="36.950610068984886" lon="15.174668967096688"><ele>43.5</ele><time>2026-04-24T17:47:06Z</time></trkpt><trkpt lat="36.950700912945045" lon="15.174571088735084"><ele>44.0</ele><time>2026-04-24T17:47:07Z</time></trkpt><trkpt lat="36.95078742849163" lon="15.17444083605915"><ele>44.5</ele><time>2026-04-24T17:47:08Z</time></trkpt><trkpt lat="36.95084663341301" lon="15.174314600158285"><ele>45.0</ele><time>2026-04-24T17:47:09Z</time></trkpt><trkpt lat="36.950942336753975" lon="15.174183977673701"><ele>45.0</ele><time>2026-04-24T17:47:10Z</time></trkpt><trkpt lat="36.95104663832203" lon="15.174039004718775"><ele>45.0</ele><time>2026-04-24T17:47:11Z</time></trkpt><trkpt lat="36.9511264255258" lon="15.17392932629411"><ele>45.0</ele><time>2026-04-24T17:47:12Z</time></trkpt><trkpt lat="36.95119797826767" lon="15.173823289649391"><ele>45.0</ele><time>2026-04-24T17:47:13Z</time></trkpt><trkpt lat="36.9512755559775" lon="15.173713410665734"><ele>45.5</ele><time>2026-04-24T17:47:14Z</time></trkpt><trkpt lat="36.951359164021746" lon="15.17359486020553"><ele>46.0</ele><time>2026-04-24T17:47:15Z</time></trkpt><trkpt lat="36.95145644555319" lon="15.17346081422958"><ele>46.5</ele><time>2026-04-24T17:47:16Z</time></trkpt><trkpt lat="36.95156040443523" lon="15.17333370513392"><ele>47.0</ele><time>2026-04-24T17:47:17Z</time></trkpt><trkpt lat="36.95164500137191" lon="15.173186191489856"><ele>48.0</ele><time>2026-04-24T17:47:18Z</time></trkpt><trkpt lat="36.95174595805921" lon="15.173066929141328"><ele>49.0</ele><time>2026-04-24T17:47:19Z</time></trkpt><trkpt lat="36.9518254407317" lon="15.172925767007614"><ele>50.0</ele><time>2026-04-24T17:47:20Z</time></trkpt><trkpt lat="36.95192905889679" lon="15.172800339504509"><ele>51.0</ele><time>2026-04-24T17:47:21Z</time></trkpt><trkpt lat="36.952013228172966" lon="15.17269225678886"><ele>51.0</ele><time>2026-04-24T17:47:22Z</time></trkpt><trkpt lat="36.95210206890935" lon="15.172562224624118"><ele>51.0</ele><time>2026-04-24T17:47:23Z</time></trkpt><trkpt lat="36.95219619303397" lon="15.17242931687574"><ele>51.0</ele><time>2026-04-24T17:47:24Z</time></trkpt><trkpt lat="36.95227923054311" lon="15.172306527611335"><ele>51.0</ele><time>2026-04-24T17:47:25Z</time></trkpt><trkpt lat="36.95239910520101" lon="15.17215307852617"><ele>51.25</ele><time>2026-04-24T17:47:26Z</time></trkpt><trkpt lat="36.95247712833332" lon="15.172047200499856"><ele>51.5</ele><time>2026-04-24T17:47:27Z</time></trkpt><trkpt lat="36.95256829724237" lon="15.171925339721462"><ele>51.75</ele><time>2026-04-24T17:47:28Z</time></trkpt><trkpt lat="36.95264145375484" lon="15.171804601456328"><ele>52.0</ele><time>2026-04-24T17:47:29Z</time></trkpt><trkpt lat="36.9527138798398" lon="15.171706186674694"><ele>52.0</ele><time>2026-04-24T17:47:30Z</time></trkpt><trkpt lat="36.952759492259595" lon="15.171632971636345"><ele>52.0</ele><time>2026-04-24T17:47:31Z</time></trkpt><trkpt lat="36.95272666548605" lon="15.171538493000327"><ele>52.0</ele><time>2026-04-24T17:47:34.999Z</time></trkpt><trkpt lat="36.95267731816438" lon="15.17147886162396"><ele>52.0</ele><time>2026-04-24T17:47:35.999Z</time></trkpt><trkpt lat="36.95259437189329" lon="15.17144318220924"><ele>52.0</ele><time>2026-04-24T17:47:36.999Z</time></trkpt><trkpt lat="36.95246408431786" lon="15.171316338506085"><ele>52.5</ele><time>2026-04-24T17:47:37.999Z</time></trkpt><trkpt lat="36.952281374624135" lon="15.17115332854582"><ele>53.0</ele><time>2026-04-24T17:47:39.999Z</time></trkpt><trkpt lat="36.952048372732506" lon="15.170950605274022"><ele>53.0</ele><time>2026-04-24T17:47:40.999Z</time></trkpt><trkpt lat="36.951855211870985" lon="15.170772229974398"><ele>53.0</ele><time>2026-04-24T17:47:41.999Z</time></trkpt><trkpt lat="36.95169595691356" lon="15.170653694659194"><ele>53.0</ele><time>2026-04-24T17:47:42.999Z</time></trkpt><trkpt lat="36.951564780946065" lon="15.170516553963594"><ele>53.0</ele><time>2026-04-24T17:47:43.999Z</time></trkpt><trkpt lat="36.951393898125076" lon="15.170386057436422"><ele>53.0</ele><time>2026-04-24T17:47:44.999Z</time></trkpt><trkpt lat="36.95125838286879" lon="15.170260537499612"><ele>53.0</ele><time>2026-04-24T17:47:45.999Z</time></trkpt><trkpt lat="36.9511119780319" lon="15.170137062604269"><ele>53.0</ele><time>2026-04-24T17:47:46.999Z</time></trkpt><trkpt lat="36.95098926461763" lon="15.170005770037573"><ele>53.0</ele><time>2026-04-24T17:47:47.999Z</time></trkpt><trkpt lat="36.95086441791815" lon="15.16989484091256"><ele>53.0</ele><time>2026-04-24T17:47:48.999Z</time></trkpt><trkpt lat="36.95073676564143" lon="15.16976313292674"><ele>52.66666666666667</ele><time>2026-04-24T17:47:49.999Z</time></trkpt><trkpt lat="36.950639555728245" lon="15.169647853763626"><ele>52.33333333333333</ele><time>2026-04-24T17:47:50.999Z</time></trkpt><trkpt lat="36.950465799206604" lon="15.169487869429323"><ele>52.0</ele><time>2026-04-24T17:47:51.999Z</time></trkpt><trkpt lat="36.95033293891428" lon="15.169368161699515"><ele>52.0</ele><time>2026-04-24T17:47:52.999Z</time></trkpt><trkpt lat="36.950224082815765" lon="15.16927093907911"><ele>52.0</ele><time>2026-04-24T17:47:53.999Z</time></trkpt><trkpt lat="36.950106159479134" lon="15.169164337482394"><ele>52.0</ele><time>2026-04-24T17:47:54.999Z</time></trkpt><trkpt lat="36.94998609950788" lon="15.169051157108882"><ele>52.0</ele><time>2026-04-24T17:47:55.999Z</time></trkpt><trkpt lat="36.94985206413801" lon="15.168950152741743"><ele>51.666666666666664</ele><time>2026-04-24T17:47:56.999Z</time></trkpt><trkpt lat="36.94972183476905" lon="15.168873284154273"><ele>51.33333333333333</ele><time>2026-04-24T17:47:57.999Z</time></trkpt><trkpt lat="36.94952330666431" lon="15.168719461053605"><ele>51.0</ele><time>2026-04-24T17:47:58.999Z</time></trkpt><trkpt lat="36.9493848746641" lon="15.168623155490996"><ele>51.0</ele><time>2026-04-24T17:47:59.999Z</time></trkpt><trkpt lat="36.94923857053733" lon="15.168519832555196"><ele>51.0</ele><time>2026-04-24T17:48:00.999Z</time></trkpt><trkpt lat="36.9490889637334" lon="15.168416344697855"><ele>51.0</ele><time>2026-04-24T17:48:01.999Z</time></trkpt><trkpt lat="36.94891813308938" lon="15.168296288913599"><ele>51.0</ele><time>2026-04-24T17:48:02.999Z</time></trkpt><trkpt lat="36.94875076579871" lon="15.16817804325763"><ele>51.0</ele><time>2026-04-24T17:48:03.999Z</time></trkpt><trkpt lat="36.94862936773541" lon="15.168113998336127"><ele>51.0</ele><time>2026-04-24T17:48:04.999Z</time></trkpt><trkpt lat="36.948503236568214" lon="15.168010397217927"><ele>50.5</ele><time>2026-04-24T17:48:05.999Z</time></trkpt><trkpt lat="36.94835225300994" lon="15.167906021055652"><ele>50.0</ele><time>2026-04-24T17:48:06.999Z</time></trkpt><trkpt lat="36.948228937137614" lon="15.167816242718265"><ele>49.5</ele><time>2026-04-24T17:48:07.999Z</time></trkpt><trkpt lat="36.948126392504314" lon="15.167745018718707"><ele>49.0</ele><time>2026-04-24T17:48:08.999Z</time></trkpt><trkpt lat="36.94802924548651" lon="15.167679422906199"><ele>49.0</ele><time>2026-04-24T17:48:09.999Z</time></trkpt><trkpt lat="36.94794382433215" lon="15.16764333588321"><ele>49.0</ele><time>2026-04-24T17:48:10.999Z</time></trkpt><trkpt lat="36.94787280143217" lon="15.167598916085963"><ele>49.0</ele><time>2026-04-24T17:48:11.999Z</time></trkpt><trkpt lat="36.94774893301457" lon="15.167638630369142"><ele>49.0</ele><time>2026-04-24T17:48:12.999Z</time></trkpt><trkpt lat="36.94760475688508" lon="15.167628615185086"><ele>49.0</ele><time>2026-04-24T17:48:13.999Z</time></trkpt><trkpt lat="36.94742274731526" lon="15.167618103632968"><ele>48.33333333333333</ele><time>2026-04-24T17:48:14.999Z</time></trkpt><trkpt lat="36.947257584491624" lon="15.167591366741608"><ele>47.666666666666664</ele><time>2026-04-24T17:48:15.999Z</time></trkpt><trkpt lat="36.94705042841379" lon="15.167555291740705"><ele>47.0</ele><time>2026-04-24T17:48:16.999Z</time></trkpt><trkpt lat="36.94685739602263" lon="15.167522579442291"><ele>46.0</ele><time>2026-04-24T17:48:17.999Z</time></trkpt><trkpt lat="36.946701172803806" lon="15.167496126670736"><ele>45.0</ele><time>2026-04-24T17:48:18.999Z</time></trkpt><trkpt lat="36.94655434939693" lon="15.167471265536154"><ele>44.0</ele><time>2026-04-24T17:48:19.999Z</time></trkpt><trkpt lat="36.946401214918396" lon="15.167445335771045"><ele>44.0</ele><time>2026-04-24T17:48:20.999Z</time></trkpt><trkpt lat="36.946268924778266" lon="15.167424448336337"><ele>44.0</ele><time>2026-04-24T17:48:21.999Z</time></trkpt><trkpt lat="36.9461541752258" lon="15.167407298434407"><ele>44.0</ele><time>2026-04-24T17:48:22.999Z</time></trkpt><trkpt lat="36.94601926227781" lon="15.167386459280218"><ele>44.0</ele><time>2026-04-24T17:48:23.999Z</time></trkpt><trkpt lat="36.945880771952645" lon="15.16736145298207"><ele>42.75</ele><time>2026-04-24T17:48:24.999Z</time></trkpt><trkpt lat="36.945739297478625" lon="15.167341858977293"><ele>41.5</ele><time>2026-04-24T17:48:25.999Z</time></trkpt><trkpt lat="36.945618990056424" lon="15.167323524836988"><ele>40.25</ele><time>2026-04-24T17:48:26.999Z</time></trkpt><trkpt lat="36.945509420336755" lon="15.167269733562025"><ele>39.0</ele><time>2026-04-24T17:48:27.999Z</time></trkpt><trkpt lat="36.945377832590886" lon="15.167226320599745"><ele>39.0</ele><time>2026-04-24T17:48:28.999Z</time></trkpt><trkpt lat="36.94520092302171" lon="15.167137418996818"><ele>39.0</ele><time>2026-04-24T17:48:29.999Z</time></trkpt><trkpt lat="36.94503143180584" lon="15.167035960284656"><ele>39.0</ele><time>2026-04-24T17:48:30.999Z</time></trkpt><trkpt lat="36.94485839076974" lon="15.166978282872842"><ele>39.0</ele><time>2026-04-24T17:48:31.999Z</time></trkpt><trkpt lat="36.944692514138744" lon="15.166890424383599"><ele>39.0</ele><time>2026-04-24T17:48:32.999Z</time></trkpt><trkpt lat="36.944527438320414" lon="15.1668208844201"><ele>39.0</ele><time>2026-04-24T17:48:33.999Z</time></trkpt><trkpt lat="36.94435484670713" lon="15.16676129958998"><ele>39.333333333333336</ele><time>2026-04-24T17:48:34.999Z</time></trkpt><trkpt lat="36.94419046987527" lon="15.166703763016189"><ele>39.66666666666667</ele><time>2026-04-24T17:48:35.999Z</time></trkpt><trkpt lat="36.94402266118612" lon="15.166617106907216"><ele>40.0</ele><time>2026-04-24T17:48:36.999Z</time></trkpt><trkpt lat="36.94383690402669" lon="15.166548455077008"><ele>41.333333333333336</ele><time>2026-04-24T17:48:37.999Z</time></trkpt><trkpt lat="36.94365674011386" lon="15.166483182976902"><ele>42.666666666666664</ele><time>2026-04-24T17:48:38.999Z</time></trkpt><trkpt lat="36.94347016369728" lon="15.166415587670636"><ele>44.0</ele><time>2026-04-24T17:48:39.999Z</time></trkpt><trkpt lat="36.9432952320361" lon="15.166352509509977"><ele>44.0</ele><time>2026-04-24T17:48:40.999Z</time></trkpt><trkpt lat="36.943140799779016" lon="15.166297983217067"><ele>44.0</ele><time>2026-04-24T17:48:41.998Z</time></trkpt><trkpt lat="36.94301869411576" lon="15.166254870660005"><ele>44.0</ele><time>2026-04-24T17:48:42.998Z</time></trkpt><trkpt lat="36.94291079342537" lon="15.166219169987576"><ele>44.0</ele><time>2026-04-24T17:48:43.998Z</time></trkpt><trkpt lat="36.94282616712519" lon="15.166192315709296"><ele>44.0</ele><time>2026-04-24T17:48:44.998Z</time></trkpt><trkpt lat="36.94273922377868" lon="15.16616613730865"><ele>44.0</ele><time>2026-04-24T17:48:45.998Z</time></trkpt><trkpt lat="36.9426398190923" lon="15.166135921816366"><ele>44.0</ele><time>2026-04-24T17:48:46.998Z</time></trkpt><trkpt lat="36.94253026983323" lon="15.166104999782934"><ele>44.0</ele><time>2026-04-24T17:48:47.998Z</time></trkpt><trkpt lat="36.94241340910623" lon="15.166059728856753"><ele>44.0</ele><time>2026-04-24T17:48:48.998Z</time></trkpt><trkpt lat="36.9422737190625" lon="15.16601350667214"><ele>43.0</ele><time>2026-04-24T17:48:49.998Z</time></trkpt><trkpt lat="36.942129852762946" lon="15.165936589439648"><ele>42.0</ele><time>2026-04-24T17:48:50.998Z</time></trkpt><trkpt lat="36.942004066333915" lon="15.165862823518927"><ele>41.0</ele><time>2026-04-24T17:48:52Z</time></trkpt><trkpt lat="36.94186671599624" lon="15.165764223178957"><ele>41.666666666666664</ele><time>2026-04-24T17:48:53Z</time></trkpt><trkpt lat="36.94173302933481" lon="15.165667685594135"><ele>42.333333333333336</ele><time>2026-04-24T17:48:54Z</time></trkpt><trkpt lat="36.941615107191424" lon="15.165577514957821"><ele>43.0</ele><time>2026-04-24T17:48:55Z</time></trkpt><trkpt lat="36.94145698433055" lon="15.165463777450396"><ele>43.0</ele><time>2026-04-24T17:48:56Z</time></trkpt><trkpt lat="36.94133353290642" lon="15.165402466831257"><ele>43.0</ele><time>2026-04-24T17:48:57Z</time></trkpt><trkpt lat="36.94123624104557" lon="15.165327492880254"><ele>43.0</ele><time>2026-04-24T17:48:58Z</time></trkpt><trkpt lat="36.94115385372107" lon="15.165241191753896"><ele>43.0</ele><time>2026-04-24T17:48:59Z</time></trkpt><trkpt lat="36.94106764758187" lon="15.165194527138446"><ele>43.0</ele><time>2026-04-24T17:49:00Z</time></trkpt><trkpt lat="36.94101217029389" lon="15.16515470011503"><ele>43.0</ele><time>2026-04-24T17:49:02Z</time></trkpt><trkpt lat="36.94093029203015" lon="15.165309387799738"><ele>43.0</ele><time>2026-04-24T17:49:04Z</time></trkpt><trkpt lat="36.94085620951982" lon="15.165435147846104"><ele>43.0</ele><time>2026-04-24T17:49:05Z</time></trkpt><trkpt lat="36.94079087305279" lon="15.165563595589267"><ele>43.0</ele><time>2026-04-24T17:49:06Z</time></trkpt><trkpt lat="36.9407421918567" lon="15.165659300036731"><ele>41.75</ele><time>2026-04-24T17:49:07Z</time></trkpt><trkpt lat="36.94071273642767" lon="15.165758997280841"><ele>40.5</ele><time>2026-04-24T17:49:08Z</time></trkpt><trkpt lat="36.940678119422884" lon="15.165832441482703"><ele>39.25</ele><time>2026-04-24T17:49:09Z</time></trkpt><trkpt lat="36.94062747896619" lon="15.165906238337437"><ele>38.0</ele><time>2026-04-24T17:49:11Z</time></trkpt><trkpt lat="36.94081025057226" lon="15.166072116817881"><ele>38.25</ele><time>2026-04-24T17:49:14Z</time></trkpt><trkpt lat="36.94090978162959" lon="15.166168177569332"><ele>38.5</ele><time>2026-04-24T17:49:15Z</time></trkpt><trkpt lat="36.941081352464494" lon="15.166275724881434"><ele>38.75</ele><time>2026-04-24T17:49:16Z</time></trkpt><trkpt lat="36.94115748238048" lon="15.166311067234687"><ele>39.0</ele><time>2026-04-24T17:49:17Z</time></trkpt><trkpt lat="36.94130260374786" lon="15.166417517288693"><ele>38.333333333333336</ele><time>2026-04-24T17:49:18Z</time></trkpt><trkpt lat="36.94146265237665" lon="15.16655951259459"><ele>37.66666666666667</ele><time>2026-04-24T17:49:19Z</time></trkpt><trkpt lat="36.94159248458238" lon="15.166656140639182"><ele>37.0</ele><time>2026-04-24T17:49:20Z</time></trkpt><trkpt lat="36.94171118035726" lon="15.1667490164267"><ele>37.25</ele><time>2026-04-24T17:49:21Z</time></trkpt><trkpt lat="36.94183307643233" lon="15.166842462263789"><ele>37.5</ele><time>2026-04-24T17:49:22Z</time></trkpt><trkpt lat="36.941955586505564" lon="15.166935730490103"><ele>37.75</ele><time>2026-04-24T17:49:23Z</time></trkpt><trkpt lat="36.94205719822626" lon="15.167015409151958"><ele>38.0</ele><time>2026-04-24T17:49:24Z</time></trkpt><trkpt lat="36.94216369954174" lon="15.167097117719017"><ele>38.0</ele><time>2026-04-24T17:49:25Z</time></trkpt><trkpt lat="36.94225828581692" lon="15.167167281765018"><ele>38.0</ele><time>2026-04-24T17:49:26Z</time></trkpt><trkpt lat="36.94235363973092" lon="15.167221162629733"><ele>38.0</ele><time>2026-04-24T17:49:27Z</time></trkpt><trkpt lat="36.94242130639834" lon="15.167278955706267"><ele>38.0</ele><time>2026-04-24T17:49:28Z</time></trkpt><trkpt lat="36.94249962425121" lon="15.167351278542917"><ele>38.0</ele><time>2026-04-24T17:49:30Z</time></trkpt><trkpt lat="36.9424023774371" lon="15.167479167188128"><ele>37.75</ele><time>2026-04-24T17:49:32Z</time></trkpt><trkpt lat="36.942353560472206" lon="15.167592619449728"><ele>37.5</ele><time>2026-04-24T17:49:33Z</time></trkpt><trkpt lat="36.94229914895359" lon="15.167747261852217"><ele>37.25</ele><time>2026-04-24T17:49:34Z</time></trkpt><trkpt lat="36.942246827235394" lon="15.167905222440583"><ele>37.0</ele><time>2026-04-24T17:49:35Z</time></trkpt><trkpt lat="36.94218571646116" lon="15.168093015074298"><ele>36.75</ele><time>2026-04-24T17:49:36Z</time></trkpt><trkpt lat="36.94213465793929" lon="15.168249917262177"><ele>36.5</ele><time>2026-04-24T17:49:37Z</time></trkpt><trkpt lat="36.94208874136139" lon="15.168391018311683"><ele>36.25</ele><time>2026-04-24T17:49:38Z</time></trkpt><trkpt lat="36.94204483440139" lon="15.168525943834656"><ele>36.0</ele><time>2026-04-24T17:49:39Z</time></trkpt><trkpt lat="36.942007159247474" lon="15.168641719087873"><ele>36.0</ele><time>2026-04-24T17:49:40Z</time></trkpt><trkpt lat="36.941965088664084" lon="15.168765125160123"><ele>36.0</ele><time>2026-04-24T17:49:41Z</time></trkpt><trkpt lat="36.941922170483885" lon="15.168890709836965"><ele>36.0</ele><time>2026-04-24T17:49:42Z</time></trkpt><trkpt lat="36.94187980314368" lon="15.169014682686491"><ele>36.0</ele><time>2026-04-24T17:49:43Z</time></trkpt><trkpt lat="36.94184367769734" lon="15.169120390864297"><ele>36.0</ele><time>2026-04-24T17:49:44Z</time></trkpt><trkpt lat="36.941813476047386" lon="15.169208765169515"><ele>35.4</ele><time>2026-04-24T17:49:44.999Z</time></trkpt><trkpt lat="36.94177772158188" lon="15.169313042058404"><ele>34.8</ele><time>2026-04-24T17:49:45.999Z</time></trkpt><trkpt lat="36.94174380847288" lon="15.169411734944868"><ele>34.199999999999996</ele><time>2026-04-24T17:49:46.999Z</time></trkpt><trkpt lat="36.94171355591908" lon="15.169499774991987"><ele>33.6</ele><time>2026-04-24T17:49:47.999Z</time></trkpt><trkpt lat="36.94167709710462" lon="15.169605727720356"><ele>33.0</ele><time>2026-04-24T17:49:48.999Z</time></trkpt><trkpt lat="36.94163315706454" lon="15.169732079736974"><ele>32.6</ele><time>2026-04-24T17:49:49.999Z</time></trkpt><trkpt lat="36.94162467397337" lon="15.169856090250027"><ele>32.199999999999996</ele><time>2026-04-24T17:49:50.999Z</time></trkpt><trkpt lat="36.94157940094798" lon="15.169976681729793"><ele>31.8</ele><time>2026-04-24T17:49:51.999Z</time></trkpt><trkpt lat="36.94153355349366" lon="15.170103855537036"><ele>31.4</ele><time>2026-04-24T17:49:52.999Z</time></trkpt><trkpt lat="36.94148493563712" lon="15.170180947087236"><ele>31.0</ele><time>2026-04-24T17:49:53.999Z</time></trkpt><trkpt lat="36.94143877962405" lon="15.17031692326195"><ele>29.5</ele><time>2026-04-24T17:49:54.999Z</time></trkpt><trkpt lat="36.94141256492752" lon="15.170420462316725"><ele>28.0</ele><time>2026-04-24T17:49:55.999Z</time></trkpt><trkpt lat="36.94135852472498" lon="15.17057101730734"><ele>26.5</ele><time>2026-04-24T17:49:56.999Z</time></trkpt><trkpt lat="36.94132291804373" lon="15.1707253954326"><ele>25.0</ele><time>2026-04-24T17:49:57.999Z</time></trkpt><trkpt lat="36.941257032188226" lon="15.170874914241228"><ele>24.75</ele><time>2026-04-24T17:49:58.999Z</time></trkpt><trkpt lat="36.94118162057181" lon="15.171097179928752"><ele>24.5</ele><time>2026-04-24T17:49:59.999Z</time></trkpt><trkpt lat="36.94113324336996" lon="15.171283334423"><ele>24.25</ele><time>2026-04-24T17:50:00.999Z</time></trkpt><trkpt lat="36.94109857411194" lon="15.171392824706219"><ele>24.0</ele><time>2026-04-24T17:50:01.999Z</time></trkpt><trkpt lat="36.941043181687256" lon="15.1715438842285"><ele>24.75</ele><time>2026-04-24T17:50:02.999Z</time></trkpt><trkpt lat="36.94099534643739" lon="15.171701706076998"><ele>25.5</ele><time>2026-04-24T17:50:03.999Z</time></trkpt><trkpt lat="36.940947384829194" lon="15.171833283042538"><ele>26.25</ele><time>2026-04-24T17:50:04.999Z</time></trkpt><trkpt lat="36.94090449275696" lon="15.171957482129308"><ele>27.0</ele><time>2026-04-24T17:50:05.999Z</time></trkpt><trkpt lat="36.94086693407306" lon="15.172095516708564"><ele>26.25</ele><time>2026-04-24T17:50:06.999Z</time></trkpt><trkpt lat="36.94083987419307" lon="15.172185095811496"><ele>25.5</ele><time>2026-04-24T17:50:07.999Z</time></trkpt><trkpt lat="36.940779483177536" lon="15.172300086109674"><ele>24.75</ele><time>2026-04-24T17:50:08.999Z</time></trkpt><trkpt lat="36.94071659217147" lon="15.17244916075962"><ele>24.0</ele><time>2026-04-24T17:50:09.999Z</time></trkpt><trkpt lat="36.94066289754015" lon="15.172599858707972"><ele>24.0</ele><time>2026-04-24T17:50:10.999Z</time></trkpt><trkpt lat="36.940612791593395" lon="15.172723652232387"><ele>24.0</ele><time>2026-04-24T17:50:11.999Z</time></trkpt><trkpt lat="36.94058391106164" lon="15.17283725341907"><ele>24.0</ele><time>2026-04-24T17:50:12.999Z</time></trkpt><trkpt lat="36.940532513323795" lon="15.172935733220221"><ele>24.0</ele><time>2026-04-24T17:50:13.999Z</time></trkpt><trkpt lat="36.940501450637825" lon="15.173047616664324"><ele>24.0</ele><time>2026-04-24T17:50:14.999Z</time></trkpt><trkpt lat="36.94047389452037" lon="15.173132081771858"><ele>24.0</ele><time>2026-04-24T17:50:15.999Z</time></trkpt><trkpt lat="36.9404399576007" lon="15.173235107852753"><ele>24.0</ele><time>2026-04-24T17:50:16.999Z</time></trkpt><trkpt lat="36.94023297135504" lon="15.173096391576802"><ele>24.0</ele><time>2026-04-24T17:50:23.999Z</time></trkpt><trkpt lat="36.94010845262051" lon="15.172981623064457"><ele>21.666666666666668</ele><time>2026-04-24T17:50:24.999Z</time></trkpt><trkpt lat="36.939979298941886" lon="15.172865162676388"><ele>19.333333333333336</ele><time>2026-04-24T17:50:25.999Z</time></trkpt><trkpt lat="36.939740627213375" lon="15.172702910158938"><ele>17.0</ele><time>2026-04-24T17:50:27.999Z</time></trkpt><trkpt lat="36.93960559483404" lon="15.172605279197183"><ele>17.0</ele><time>2026-04-24T17:50:28.999Z</time></trkpt><trkpt lat="36.939453627030716" lon="15.172450410127373"><ele>17.0</ele><time>2026-04-24T17:50:29.999Z</time></trkpt><trkpt lat="36.93928712699284" lon="15.172329364363739"><ele>17.0</ele><time>2026-04-24T17:50:30.999Z</time></trkpt><trkpt lat="36.93912792011773" lon="15.172194047577978"><ele>16.333333333333336</ele><time>2026-04-24T17:50:31.999Z</time></trkpt><trkpt lat="36.93896535637522" lon="15.172050599092998"><ele>15.666666666666668</ele><time>2026-04-24T17:50:32.999Z</time></trkpt><trkpt lat="36.93877896698072" lon="15.171896817080915"><ele>15.0</ele><time>2026-04-24T17:50:33.999Z</time></trkpt><trkpt lat="36.93860560854319" lon="15.171769470480927"><ele>15.0</ele><time>2026-04-24T17:50:34.999Z</time></trkpt><trkpt lat="36.93842171185429" lon="15.171641131956632"><ele>15.0</ele><time>2026-04-24T17:50:35.999Z</time></trkpt><trkpt lat="36.93824009071005" lon="15.17151804845442"><ele>15.0</ele><time>2026-04-24T17:50:36.999Z</time></trkpt><trkpt lat="36.93804904531582" lon="15.171378568405697"><ele>16.333333333333332</ele><time>2026-04-24T17:50:37.999Z</time></trkpt><trkpt lat="36.937905444789344" lon="15.171261279873965"><ele>17.666666666666664</ele><time>2026-04-24T17:50:38.999Z</time></trkpt><trkpt lat="36.93778279653602" lon="15.171153638213458"><ele>19.0</ele><time>2026-04-24T17:50:39.999Z</time></trkpt><trkpt lat="36.937641593197554" lon="15.17106434066575"><ele>18.0</ele><time>2026-04-24T17:50:40.999Z</time></trkpt><trkpt lat="36.9374422117146" lon="15.170923544180765"><ele>17.0</ele><time>2026-04-24T17:50:41.999Z</time></trkpt><trkpt lat="36.93726939133562" lon="15.170821345540196"><ele>16.0</ele><time>2026-04-24T17:50:42.999Z</time></trkpt><trkpt lat="36.93711662293282" lon="15.17070105551644"><ele>16.5</ele><time>2026-04-24T17:50:43.999Z</time></trkpt><trkpt lat="36.936973885781015" lon="15.170592933612818"><ele>17.0</ele><time>2026-04-24T17:50:44.999Z</time></trkpt><trkpt lat="36.93685871698634" lon="15.170507863594784"><ele>17.5</ele><time>2026-04-24T17:50:45.999Z</time></trkpt><trkpt lat="36.93674539856805" lon="15.17044150558969"><ele>18.0</ele><time>2026-04-24T17:50:46.999Z</time></trkpt><trkpt lat="36.936663238374074" lon="15.170382894164968"><ele>18.0</ele><time>2026-04-24T17:50:47.999Z</time></trkpt><trkpt lat="36.93666062232762" lon="15.170297909393366"><ele>18.0</ele><time>2026-04-24T17:50:50.999Z</time></trkpt><trkpt lat="36.936598547659216" lon="15.170346971215903"><ele>18.0</ele><time>2026-04-24T17:51:00Z</time></trkpt><trkpt lat="36.93654046140575" lon="15.170452427384886"><ele>18.0</ele><time>2026-04-24T17:51:13Z</time></trkpt><trkpt lat="36.93649591605443" lon="15.170558694107209"><ele>18.0</ele><time>2026-04-24T17:51:14Z</time></trkpt><trkpt lat="36.936438792887586" lon="15.170686905553904"><ele>17.5</ele><time>2026-04-24T17:51:15Z</time></trkpt><trkpt lat="36.93637957024854" lon="15.170820501844146"><ele>17.0</ele><time>2026-04-24T17:51:16Z</time></trkpt><trkpt lat="36.936313071404086" lon="15.170968708308045"><ele>16.5</ele><time>2026-04-24T17:51:17Z</time></trkpt><trkpt lat="36.936260046308384" lon="15.17108274709001"><ele>16.0</ele><time>2026-04-24T17:51:18Z</time></trkpt><trkpt lat="36.93621184751646" lon="15.171186406018327"><ele>15.999999999999998</ele><time>2026-04-24T17:51:19Z</time></trkpt><trkpt lat="36.936170669061525" lon="15.171274966908266"><ele>16.0</ele><time>2026-04-24T17:51:20Z</time></trkpt><trkpt lat="36.936139498847474" lon="15.171369529038937"><ele>16.0</ele><time>2026-04-24T17:51:21Z</time></trkpt><trkpt lat="36.936127686478535" lon="15.171496037114727"><ele>16.0</ele><time>2026-04-24T17:51:23Z</time></trkpt><trkpt lat="36.93617776671751" lon="15.17154650598866"><ele>15.999999999999998</ele><time>2026-04-24T17:51:24Z</time></trkpt><trkpt lat="36.93624572489414" lon="15.171593241914266"><ele>16.0</ele><time>2026-04-24T17:51:25Z</time></trkpt><trkpt lat="36.936313755911165" lon="15.171634356841107"><ele>15.833333333333332</ele><time>2026-04-24T17:51:26Z</time></trkpt><trkpt lat="36.936391698413836" lon="15.171722952215678"><ele>15.666666666666666</ele><time>2026-04-24T17:51:27Z</time></trkpt><trkpt lat="36.93648081483693" lon="15.171798843660705"><ele>15.5</ele><time>2026-04-24T17:51:29Z</time></trkpt><trkpt lat="36.93653480385489" lon="15.171845030334616"><ele>15.333333333333332</ele><time>2026-04-24T17:51:30Z</time></trkpt><trkpt lat="36.93658487862681" lon="15.17191626206801"><ele>15.166666666666666</ele><time>2026-04-24T17:51:32Z</time></trkpt><trkpt lat="36.93661876575932" lon="15.17200191313249"><ele>15.0</ele><time>2026-04-24T17:51:34Z</time></trkpt><trkpt lat="36.936494597932224" lon="15.1721162995361"><ele>15.0</ele><time>2026-04-24T17:51:35Z</time></trkpt><trkpt lat="36.9364496843876" lon="15.172217608785635"><ele>15.0</ele><time>2026-04-24T17:51:36Z</time></trkpt><trkpt lat="36.93640340540288" lon="15.1723248727843"><ele>15.0</ele><time>2026-04-24T17:51:37Z</time></trkpt><trkpt lat="36.93637642813484" lon="15.172426677873013"><ele>15.0</ele><time>2026-04-24T17:51:38Z</time></trkpt><trkpt lat="36.9363393640671" lon="15.172538400298498"><ele>15.0</ele><time>2026-04-24T17:51:39Z</time></trkpt><trkpt lat="36.936305439026974" lon="15.172632023924239"><ele>15.666666666666666</ele><time>2026-04-24T17:51:40Z</time></trkpt><trkpt lat="36.93627599433407" lon="15.172717534702294"><ele>16.333333333333332</ele><time>2026-04-24T17:51:41Z</time></trkpt><trkpt lat="36.9362478836308" lon="15.172800345525621"><ele>17.0</ele><time>2026-04-24T17:51:42Z</time></trkpt><trkpt lat="36.93620684212051" lon="15.172882277295505"><ele>17.666666666666664</ele><time>2026-04-24T17:51:43Z</time></trkpt><trkpt lat="36.93618146892806" lon="15.172955375794858"><ele>18.333333333333332</ele><time>2026-04-24T17:51:44Z</time></trkpt><trkpt lat="36.93613056811027" lon="15.173100073577276"><ele>19.0</ele><time>2026-04-24T17:51:45.999Z</time></trkpt><trkpt lat="36.936102297314044" lon="15.173226089899687"><ele>20.166666666666664</ele><time>2026-04-24T17:51:46.999Z</time></trkpt><trkpt lat="36.93604978370089" lon="15.173292075068098"><ele>21.333333333333332</ele><time>2026-04-24T17:51:47.999Z</time></trkpt><trkpt lat="36.93603354519838" lon="15.173405935094639"><ele>22.5</ele><time>2026-04-24T17:51:48.999Z</time></trkpt><trkpt lat="36.935999505123846" lon="15.173479127791447"><ele>23.666666666666664</ele><time>2026-04-24T17:51:49.999Z</time></trkpt><trkpt lat="36.93598689827116" lon="15.173557605951938"><ele>24.833333333333332</ele><time>2026-04-24T17:51:50.999Z</time></trkpt><trkpt lat="36.93601410407718" lon="15.173710247057782"><ele>26.0</ele><time>2026-04-24T17:51:52.999Z</time></trkpt><trkpt lat="36.93604461184863" lon="15.17379402636441"><ele>26.0</ele><time>2026-04-24T17:51:53.999Z</time></trkpt><trkpt lat="36.93606402187073" lon="15.173873584062765"><ele>26.0</ele><time>2026-04-24T17:51:54.999Z</time></trkpt><trkpt lat="36.936014731637286" lon="15.173960414018469"><ele>26.0</ele><time>2026-04-24T17:51:56.999Z</time></trkpt><trkpt lat="36.93612644976777" lon="15.174090627028392"><ele>28.0</ele><time>2026-04-24T17:51:59.999Z</time></trkpt><trkpt lat="36.93621673293922" lon="15.174142619838483"><ele>28.0</ele><time>2026-04-24T17:52:01.999Z</time></trkpt></trkseg></trk></gpx>